<?xml version="1.0" encoding="UTF-8" standalone="no" ?>
<gpx xmlns="http://www.topografix.com/GPX/1/1" xmlns:xsi="http://www.w3.org/2001/XMLSchema-instance" xsi:schemaLocation="http://www.topografix.com/GPX/1/1 http://www.topografix.com/GPX/1/1/gpx.xsd" version="1.1" creator="VisuGPX - https://www.visugpx.com">
  <metadata>
    <name> Pic de Rulhe retour par tous les etangs</name>
    <desc><![CDATA[Aérien et splendide pic]]></desc>
  </metadata>
  <trk>
    <name><![CDATA[SityTrail - Pic de Rulhe retour par rous kes etangs]]></name>
    <trkseg>
      <trkpt lat="42.64898" lon="1.70356">
        <ele>1701</ele>
        <time>2020-08-25T07:20:34.954Z</time>
      </trkpt>
      <trkpt lat="42.64896" lon="1.70357">
        <ele>1701</ele>
        <time>2020-08-25T07:20:35.917Z</time>
      </trkpt>
      <trkpt lat="42.64887" lon="1.70364">
        <ele>1701</ele>
        <time>2020-08-25T07:20:40.928Z</time>
      </trkpt>
      <trkpt lat="42.64878" lon="1.70362">
        <ele>1701</ele>
        <time>2020-08-25T07:20:45.935Z</time>
      </trkpt>
      <trkpt lat="42.64877" lon="1.70369">
        <ele>1701</ele>
        <time>2020-08-25T07:20:50.951Z</time>
      </trkpt>
      <trkpt lat="42.64863" lon="1.70361">
        <ele>1703</ele>
        <time>2020-08-25T07:20:55.950Z</time>
      </trkpt>
      <trkpt lat="42.6485" lon="1.70361">
        <ele>1703</ele>
        <time>2020-08-25T07:20:59.995Z</time>
      </trkpt>
      <trkpt lat="42.6485" lon="1.70362">
        <ele>1703</ele>
        <time>2020-08-25T07:21:04.562Z</time>
      </trkpt>
      <trkpt lat="42.64846" lon="1.70367">
        <ele>1707</ele>
        <time>2020-08-25T07:21:08.554Z</time>
      </trkpt>
      <trkpt lat="42.64841" lon="1.70367">
        <ele>1707</ele>
        <time>2020-08-25T07:21:13.953Z</time>
      </trkpt>
      <trkpt lat="42.64834" lon="1.70369">
        <ele>1707</ele>
        <time>2020-08-25T07:21:18.511Z</time>
      </trkpt>
      <trkpt lat="42.64829" lon="1.70369">
        <ele>1707</ele>
        <time>2020-08-25T07:21:23.498Z</time>
      </trkpt>
      <trkpt lat="42.64824" lon="1.70363">
        <ele>1707</ele>
        <time>2020-08-25T07:21:28.523Z</time>
      </trkpt>
      <trkpt lat="42.64822" lon="1.70357">
        <ele>1707</ele>
        <time>2020-08-25T07:21:32.682Z</time>
      </trkpt>
      <trkpt lat="42.64814" lon="1.70348">
        <ele>1708</ele>
        <time>2020-08-25T07:21:42.167Z</time>
      </trkpt>
      <trkpt lat="42.64811" lon="1.7034">
        <ele>1700</ele>
        <time>2020-08-25T07:21:49.965Z</time>
      </trkpt>
      <trkpt lat="42.64809" lon="1.70333">
        <ele>1700</ele>
        <time>2020-08-25T07:21:55.633Z</time>
      </trkpt>
      <trkpt lat="42.64803" lon="1.70325">
        <ele>1700</ele>
        <time>2020-08-25T07:22:00.651Z</time>
      </trkpt>
      <trkpt lat="42.64799" lon="1.70322">
        <ele>1700</ele>
        <time>2020-08-25T07:22:05.170Z</time>
      </trkpt>
      <trkpt lat="42.64794" lon="1.70319">
        <ele>1697</ele>
        <time>2020-08-25T07:22:09.840Z</time>
      </trkpt>
      <trkpt lat="42.64788" lon="1.7032">
        <ele>1698</ele>
        <time>2020-08-25T07:22:15.101Z</time>
      </trkpt>
      <trkpt lat="42.64781" lon="1.70318">
        <ele>1698</ele>
        <time>2020-08-25T07:22:19.929Z</time>
      </trkpt>
      <trkpt lat="42.64775" lon="1.70318">
        <ele>1698</ele>
        <time>2020-08-25T07:22:25.759Z</time>
      </trkpt>
      <trkpt lat="42.64769" lon="1.70317">
        <ele>1698</ele>
        <time>2020-08-25T07:22:30.792Z</time>
      </trkpt>
      <trkpt lat="42.64763" lon="1.70315">
        <ele>1701</ele>
        <time>2020-08-25T07:22:34.825Z</time>
      </trkpt>
      <trkpt lat="42.64758" lon="1.70312">
        <ele>1701</ele>
        <time>2020-08-25T07:22:38.757Z</time>
      </trkpt>
      <trkpt lat="42.64753" lon="1.70307">
        <ele>1701</ele>
        <time>2020-08-25T07:22:45.849Z</time>
      </trkpt>
      <trkpt lat="42.64748" lon="1.70308">
        <ele>1701</ele>
        <time>2020-08-25T07:22:50.726Z</time>
      </trkpt>
      <trkpt lat="42.64742" lon="1.70306">
        <ele>1701</ele>
        <time>2020-08-25T07:22:56.010Z</time>
      </trkpt>
      <trkpt lat="42.64736" lon="1.70306">
        <ele>1710</ele>
        <time>2020-08-25T07:23:00.998Z</time>
      </trkpt>
      <trkpt lat="42.6473" lon="1.70306">
        <ele>1710</ele>
        <time>2020-08-25T07:23:05.857Z</time>
      </trkpt>
      <trkpt lat="42.64725" lon="1.70305">
        <ele>1710</ele>
        <time>2020-08-25T07:23:09.899Z</time>
      </trkpt>
      <trkpt lat="42.64717" lon="1.70303">
        <ele>1710</ele>
        <time>2020-08-25T07:23:16.669Z</time>
      </trkpt>
      <trkpt lat="42.64712" lon="1.70304">
        <ele>1710</ele>
        <time>2020-08-25T07:23:21.394Z</time>
      </trkpt>
      <trkpt lat="42.64705" lon="1.70306">
        <ele>1711</ele>
        <time>2020-08-25T07:23:25.942Z</time>
      </trkpt>
      <trkpt lat="42.64701" lon="1.70306">
        <ele>1711</ele>
        <time>2020-08-25T07:23:29.837Z</time>
      </trkpt>
      <trkpt lat="42.64696" lon="1.70305">
        <ele>1711</ele>
        <time>2020-08-25T07:23:37.758Z</time>
      </trkpt>
      <trkpt lat="42.64693" lon="1.70305">
        <ele>1711</ele>
        <time>2020-08-25T07:23:42.920Z</time>
      </trkpt>
      <trkpt lat="42.6469" lon="1.70305">
        <ele>1711</ele>
        <time>2020-08-25T07:23:48.139Z</time>
      </trkpt>
      <trkpt lat="42.64685" lon="1.70306">
        <ele>1711</ele>
        <time>2020-08-25T07:23:52.597Z</time>
      </trkpt>
      <trkpt lat="42.64681" lon="1.70303">
        <ele>1711</ele>
        <time>2020-08-25T07:23:56.885Z</time>
      </trkpt>
      <trkpt lat="42.64679" lon="1.70302">
        <ele>1715</ele>
        <time>2020-08-25T07:24:00.683Z</time>
      </trkpt>
      <trkpt lat="42.64676" lon="1.70303">
        <ele>1715</ele>
        <time>2020-08-25T07:24:05.065Z</time>
      </trkpt>
      <trkpt lat="42.64672" lon="1.70303">
        <ele>1715</ele>
        <time>2020-08-25T07:24:08.638Z</time>
      </trkpt>
      <trkpt lat="42.64663" lon="1.70308">
        <ele>1715</ele>
        <time>2020-08-25T07:24:19.885Z</time>
      </trkpt>
      <trkpt lat="42.64654" lon="1.70304">
        <ele>1715</ele>
        <time>2020-08-25T07:24:26.747Z</time>
      </trkpt>
      <trkpt lat="42.64648" lon="1.70301">
        <ele>1724</ele>
        <time>2020-08-25T07:24:30.843Z</time>
      </trkpt>
      <trkpt lat="42.64642" lon="1.70299">
        <ele>1724</ele>
        <time>2020-08-25T07:24:35.603Z</time>
      </trkpt>
      <trkpt lat="42.64637" lon="1.70296">
        <ele>1724</ele>
        <time>2020-08-25T07:24:39.812Z</time>
      </trkpt>
      <trkpt lat="42.64632" lon="1.70293">
        <ele>1724</ele>
        <time>2020-08-25T07:24:44.382Z</time>
      </trkpt>
      <trkpt lat="42.64622" lon="1.70291">
        <ele>1724</ele>
        <time>2020-08-25T07:24:51.716Z</time>
      </trkpt>
      <trkpt lat="42.64616" lon="1.7029">
        <ele>1724</ele>
        <time>2020-08-25T07:24:56.602Z</time>
      </trkpt>
      <trkpt lat="42.64609" lon="1.70291">
        <ele>1724</ele>
        <time>2020-08-25T07:25:01.621Z</time>
      </trkpt>
      <trkpt lat="42.64602" lon="1.7029">
        <ele>1724</ele>
        <time>2020-08-25T07:25:06.914Z</time>
      </trkpt>
      <trkpt lat="42.64596" lon="1.70292">
        <ele>1726</ele>
        <time>2020-08-25T07:25:11.749Z</time>
      </trkpt>
      <trkpt lat="42.64584" lon="1.7029">
        <ele>1726</ele>
        <time>2020-08-25T07:25:20.650Z</time>
      </trkpt>
      <trkpt lat="42.64578" lon="1.7029">
        <ele>1726</ele>
        <time>2020-08-25T07:25:25.716Z</time>
      </trkpt>
      <trkpt lat="42.64573" lon="1.70289">
        <ele>1726</ele>
        <time>2020-08-25T07:25:29.994Z</time>
      </trkpt>
      <trkpt lat="42.64566" lon="1.70288">
        <ele>1723</ele>
        <time>2020-08-25T07:25:34.599Z</time>
      </trkpt>
      <trkpt lat="42.64559" lon="1.70288">
        <ele>1723</ele>
        <time>2020-08-25T07:25:42.003Z</time>
      </trkpt>
      <trkpt lat="42.64554" lon="1.70284">
        <ele>1723</ele>
        <time>2020-08-25T07:25:46.740Z</time>
      </trkpt>
      <trkpt lat="42.64549" lon="1.70279">
        <ele>1723</ele>
        <time>2020-08-25T07:25:51.971Z</time>
      </trkpt>
      <trkpt lat="42.64542" lon="1.70275">
        <ele>1721</ele>
        <time>2020-08-25T07:25:59.869Z</time>
      </trkpt>
      <trkpt lat="42.64536" lon="1.70274">
        <ele>1721</ele>
        <time>2020-08-25T07:26:05.643Z</time>
      </trkpt>
      <trkpt lat="42.6453" lon="1.7027">
        <ele>1721</ele>
        <time>2020-08-25T07:26:11.792Z</time>
      </trkpt>
      <trkpt lat="42.64526" lon="1.7027">
        <ele>1721</ele>
        <time>2020-08-25T07:26:15.767Z</time>
      </trkpt>
      <trkpt lat="42.64522" lon="1.70269">
        <ele>1721</ele>
        <time>2020-08-25T07:26:20.422Z</time>
      </trkpt>
      <trkpt lat="42.64516" lon="1.70267">
        <ele>1721</ele>
        <time>2020-08-25T07:26:24.677Z</time>
      </trkpt>
      <trkpt lat="42.64508" lon="1.70267">
        <ele>1724</ele>
        <time>2020-08-25T07:26:31.890Z</time>
      </trkpt>
      <trkpt lat="42.64505" lon="1.70267">
        <ele>1724</ele>
        <time>2020-08-25T07:26:35.527Z</time>
      </trkpt>
      <trkpt lat="42.64501" lon="1.70268">
        <ele>1724</ele>
        <time>2020-08-25T07:26:40.885Z</time>
      </trkpt>
      <trkpt lat="42.64496" lon="1.70269">
        <ele>1724</ele>
        <time>2020-08-25T07:26:46.313Z</time>
      </trkpt>
      <trkpt lat="42.64488" lon="1.70268">
        <ele>1724</ele>
        <time>2020-08-25T07:26:51.925Z</time>
      </trkpt>
      <trkpt lat="42.64482" lon="1.70269">
        <ele>1723</ele>
        <time>2020-08-25T07:26:56.761Z</time>
      </trkpt>
      <trkpt lat="42.64477" lon="1.70267">
        <ele>1723</ele>
        <time>2020-08-25T07:27:01.867Z</time>
      </trkpt>
      <trkpt lat="42.64472" lon="1.70268">
        <ele>1723</ele>
        <time>2020-08-25T07:27:06.672Z</time>
      </trkpt>
      <trkpt lat="42.64467" lon="1.7027">
        <ele>1723</ele>
        <time>2020-08-25T07:27:11.014Z</time>
      </trkpt>
      <trkpt lat="42.64462" lon="1.70271">
        <ele>1723</ele>
        <time>2020-08-25T07:27:15.010Z</time>
      </trkpt>
      <trkpt lat="42.64456" lon="1.70271">
        <ele>1725</ele>
        <time>2020-08-25T07:27:19.751Z</time>
      </trkpt>
      <trkpt lat="42.6445" lon="1.70272">
        <ele>1725</ele>
        <time>2020-08-25T07:27:24.686Z</time>
      </trkpt>
      <trkpt lat="42.64446" lon="1.70271">
        <ele>1725</ele>
        <time>2020-08-25T07:27:28.716Z</time>
      </trkpt>
      <trkpt lat="42.6444" lon="1.70273">
        <ele>1725</ele>
        <time>2020-08-25T07:27:33.650Z</time>
      </trkpt>
      <trkpt lat="42.64436" lon="1.70277">
        <ele>1725</ele>
        <time>2020-08-25T07:27:38.976Z</time>
      </trkpt>
      <trkpt lat="42.64429" lon="1.70277">
        <ele>1725</ele>
        <time>2020-08-25T07:27:43.708Z</time>
      </trkpt>
      <trkpt lat="42.64421" lon="1.7028">
        <ele>1725</ele>
        <time>2020-08-25T07:27:50.047Z</time>
      </trkpt>
      <trkpt lat="42.64415" lon="1.70282">
        <ele>1725</ele>
        <time>2020-08-25T07:27:54.598Z</time>
      </trkpt>
      <trkpt lat="42.64408" lon="1.70282">
        <ele>1725</ele>
        <time>2020-08-25T07:27:59.596Z</time>
      </trkpt>
      <trkpt lat="42.64404" lon="1.70278">
        <ele>1725</ele>
        <time>2020-08-25T07:28:03.610Z</time>
      </trkpt>
      <trkpt lat="42.644" lon="1.70278">
        <ele>1733</ele>
        <time>2020-08-25T07:28:07.853Z</time>
      </trkpt>
      <trkpt lat="42.64394" lon="1.70278">
        <ele>1733</ele>
        <time>2020-08-25T07:28:13.019Z</time>
      </trkpt>
      <trkpt lat="42.6439" lon="1.70278">
        <ele>1733</ele>
        <time>2020-08-25T07:28:16.855Z</time>
      </trkpt>
      <trkpt lat="42.64383" lon="1.7028">
        <ele>1733</ele>
        <time>2020-08-25T07:28:21.696Z</time>
      </trkpt>
      <trkpt lat="42.64379" lon="1.70281">
        <ele>1733</ele>
        <time>2020-08-25T07:28:25.939Z</time>
      </trkpt>
      <trkpt lat="42.64375" lon="1.70283">
        <ele>1733</ele>
        <time>2020-08-25T07:28:29.959Z</time>
      </trkpt>
      <trkpt lat="42.64369" lon="1.70285">
        <ele>1733</ele>
        <time>2020-08-25T07:28:34.659Z</time>
      </trkpt>
      <trkpt lat="42.64366" lon="1.70285">
        <ele>1733</ele>
        <time>2020-08-25T07:28:38.663Z</time>
      </trkpt>
      <trkpt lat="42.64361" lon="1.70284">
        <ele>1733</ele>
        <time>2020-08-25T07:28:43.631Z</time>
      </trkpt>
      <trkpt lat="42.64354" lon="1.70283">
        <ele>1733</ele>
        <time>2020-08-25T07:28:48.636Z</time>
      </trkpt>
      <trkpt lat="42.6435" lon="1.70286">
        <ele>1733</ele>
        <time>2020-08-25T07:28:53.634Z</time>
      </trkpt>
      <trkpt lat="42.64346" lon="1.70291">
        <ele>1728</ele>
        <time>2020-08-25T07:28:58.626Z</time>
      </trkpt>
      <trkpt lat="42.64338" lon="1.70291">
        <ele>1728</ele>
        <time>2020-08-25T07:29:04.718Z</time>
      </trkpt>
      <trkpt lat="42.64337" lon="1.70294">
        <ele>1735</ele>
        <time>2020-08-25T07:29:09.334Z</time>
      </trkpt>
      <trkpt lat="42.64333" lon="1.70298">
        <ele>1735</ele>
        <time>2020-08-25T07:29:13.596Z</time>
      </trkpt>
      <trkpt lat="42.6433" lon="1.70304">
        <ele>1735</ele>
        <time>2020-08-25T07:29:18.620Z</time>
      </trkpt>
      <trkpt lat="42.64327" lon="1.70307">
        <ele>1735</ele>
        <time>2020-08-25T07:29:23.697Z</time>
      </trkpt>
      <trkpt lat="42.64323" lon="1.70305">
        <ele>1735</ele>
        <time>2020-08-25T07:29:28.596Z</time>
      </trkpt>
      <trkpt lat="42.64318" lon="1.7031">
        <ele>1731</ele>
        <time>2020-08-25T07:29:33.596Z</time>
      </trkpt>
      <trkpt lat="42.64315" lon="1.70315">
        <ele>1731</ele>
        <time>2020-08-25T07:29:37.596Z</time>
      </trkpt>
      <trkpt lat="42.64313" lon="1.70319">
        <ele>1731</ele>
        <time>2020-08-25T07:29:42.770Z</time>
      </trkpt>
      <trkpt lat="42.64307" lon="1.70318">
        <ele>1731</ele>
        <time>2020-08-25T07:29:48.099Z</time>
      </trkpt>
      <trkpt lat="42.64301" lon="1.70317">
        <ele>1731</ele>
        <time>2020-08-25T07:29:53.169Z</time>
      </trkpt>
      <trkpt lat="42.64293" lon="1.70316">
        <ele>1731</ele>
        <time>2020-08-25T07:29:59.861Z</time>
      </trkpt>
      <trkpt lat="42.64288" lon="1.70318">
        <ele>1731</ele>
        <time>2020-08-25T07:30:04.879Z</time>
      </trkpt>
      <trkpt lat="42.64285" lon="1.70319">
        <ele>1731</ele>
        <time>2020-08-25T07:30:09.763Z</time>
      </trkpt>
      <trkpt lat="42.64281" lon="1.7032">
        <ele>1739</ele>
        <time>2020-08-25T07:30:14.647Z</time>
      </trkpt>
      <trkpt lat="42.64274" lon="1.70319">
        <ele>1731</ele>
        <time>2020-08-25T07:30:25.080Z</time>
      </trkpt>
      <trkpt lat="42.64267" lon="1.70321">
        <ele>1739</ele>
        <time>2020-08-25T07:30:32.987Z</time>
      </trkpt>
      <trkpt lat="42.6426" lon="1.70324">
        <ele>1742</ele>
        <time>2020-08-25T07:30:39.937Z</time>
      </trkpt>
      <trkpt lat="42.64256" lon="1.70325">
        <ele>1742</ele>
        <time>2020-08-25T07:30:45.019Z</time>
      </trkpt>
      <trkpt lat="42.64251" lon="1.7033">
        <ele>1742</ele>
        <time>2020-08-25T07:30:49.621Z</time>
      </trkpt>
      <trkpt lat="42.64248" lon="1.70333">
        <ele>1742</ele>
        <time>2020-08-25T07:30:54.597Z</time>
      </trkpt>
      <trkpt lat="42.64246" lon="1.70333">
        <ele>1742</ele>
        <time>2020-08-25T07:30:59.595Z</time>
      </trkpt>
      <trkpt lat="42.64243" lon="1.70335">
        <ele>1742</ele>
        <time>2020-08-25T07:31:03.659Z</time>
      </trkpt>
      <trkpt lat="42.64239" lon="1.7034">
        <ele>1742</ele>
        <time>2020-08-25T07:31:09.150Z</time>
      </trkpt>
      <trkpt lat="42.64234" lon="1.70342">
        <ele>1746</ele>
        <time>2020-08-25T07:31:14.516Z</time>
      </trkpt>
      <trkpt lat="42.6423" lon="1.70345">
        <ele>1746</ele>
        <time>2020-08-25T07:31:19.162Z</time>
      </trkpt>
      <trkpt lat="42.64225" lon="1.70346">
        <ele>1746</ele>
        <time>2020-08-25T07:31:23.845Z</time>
      </trkpt>
      <trkpt lat="42.64221" lon="1.70348">
        <ele>1757</ele>
        <time>2020-08-25T07:31:28.923Z</time>
      </trkpt>
      <trkpt lat="42.64217" lon="1.70351">
        <ele>1757</ele>
        <time>2020-08-25T07:31:32.824Z</time>
      </trkpt>
      <trkpt lat="42.64214" lon="1.70359">
        <ele>1757</ele>
        <time>2020-08-25T07:31:41.212Z</time>
      </trkpt>
      <trkpt lat="42.64211" lon="1.70364">
        <ele>1757</ele>
        <time>2020-08-25T07:31:45.620Z</time>
      </trkpt>
      <trkpt lat="42.64208" lon="1.70368">
        <ele>1755</ele>
        <time>2020-08-25T07:31:50.601Z</time>
      </trkpt>
      <trkpt lat="42.64206" lon="1.70373">
        <ele>1755</ele>
        <time>2020-08-25T07:31:55.597Z</time>
      </trkpt>
      <trkpt lat="42.64206" lon="1.70376">
        <ele>1764</ele>
        <time>2020-08-25T07:32:00.122Z</time>
      </trkpt>
      <trkpt lat="42.64203" lon="1.7038">
        <ele>1764</ele>
        <time>2020-08-25T07:32:04.934Z</time>
      </trkpt>
      <trkpt lat="42.64201" lon="1.70386">
        <ele>1764</ele>
        <time>2020-08-25T07:32:10.011Z</time>
      </trkpt>
      <trkpt lat="42.64198" lon="1.70389">
        <ele>1764</ele>
        <time>2020-08-25T07:32:14.637Z</time>
      </trkpt>
      <trkpt lat="42.64195" lon="1.70401">
        <ele>1764</ele>
        <time>2020-08-25T07:32:27.683Z</time>
      </trkpt>
      <trkpt lat="42.64192" lon="1.70405">
        <ele>1775</ele>
        <time>2020-08-25T07:32:33.349Z</time>
      </trkpt>
      <trkpt lat="42.64188" lon="1.70409">
        <ele>1775</ele>
        <time>2020-08-25T07:32:37.652Z</time>
      </trkpt>
      <trkpt lat="42.64184" lon="1.7041">
        <ele>1775</ele>
        <time>2020-08-25T07:32:42.732Z</time>
      </trkpt>
      <trkpt lat="42.6418" lon="1.70414">
        <ele>1764</ele>
        <time>2020-08-25T07:32:48.946Z</time>
      </trkpt>
      <trkpt lat="42.64178" lon="1.70417">
        <ele>1764</ele>
        <time>2020-08-25T07:32:53.696Z</time>
      </trkpt>
      <trkpt lat="42.64183" lon="1.70419">
        <ele>1775</ele>
        <time>2020-08-25T07:32:58.637Z</time>
      </trkpt>
      <trkpt lat="42.64187" lon="1.7042">
        <ele>1775</ele>
        <time>2020-08-25T07:33:02.955Z</time>
      </trkpt>
      <trkpt lat="42.64191" lon="1.70421">
        <ele>1775</ele>
        <time>2020-08-25T07:33:07.714Z</time>
      </trkpt>
      <trkpt lat="42.64185" lon="1.70427">
        <ele>1775</ele>
        <time>2020-08-25T07:33:15.012Z</time>
      </trkpt>
      <trkpt lat="42.64182" lon="1.70429">
        <ele>1775</ele>
        <time>2020-08-25T07:33:19.708Z</time>
      </trkpt>
      <trkpt lat="42.64181" lon="1.7043">
        <ele>1775</ele>
        <time>2020-08-25T07:33:24.327Z</time>
      </trkpt>
      <trkpt lat="42.6418" lon="1.70431">
        <ele>1771</ele>
        <time>2020-08-25T07:33:28.840Z</time>
      </trkpt>
      <trkpt lat="42.64176" lon="1.70435">
        <ele>1771</ele>
        <time>2020-08-25T07:33:34.027Z</time>
      </trkpt>
      <trkpt lat="42.64173" lon="1.70442">
        <ele>1771</ele>
        <time>2020-08-25T07:33:42.635Z</time>
      </trkpt>
      <trkpt lat="42.64172" lon="1.70445">
        <ele>1771</ele>
        <time>2020-08-25T07:33:48.386Z</time>
      </trkpt>
      <trkpt lat="42.64171" lon="1.70445">
        <ele>1771</ele>
        <time>2020-08-25T07:33:52.925Z</time>
      </trkpt>
      <trkpt lat="42.6417" lon="1.70446">
        <ele>1771</ele>
        <time>2020-08-25T07:33:57.655Z</time>
      </trkpt>
      <trkpt lat="42.64169" lon="1.70449">
        <ele>1771</ele>
        <time>2020-08-25T07:34:02.640Z</time>
      </trkpt>
      <trkpt lat="42.64169" lon="1.70452">
        <ele>1771</ele>
        <time>2020-08-25T07:34:06.655Z</time>
      </trkpt>
      <trkpt lat="42.6417" lon="1.70454">
        <ele>1771</ele>
        <time>2020-08-25T07:34:12.757Z</time>
      </trkpt>
      <trkpt lat="42.64172" lon="1.70451">
        <ele>1771</ele>
        <time>2020-08-25T07:34:17.645Z</time>
      </trkpt>
      <trkpt lat="42.64177" lon="1.70457">
        <ele>1771</ele>
        <time>2020-08-25T07:34:21.961Z</time>
      </trkpt>
      <trkpt lat="42.64179" lon="1.7046">
        <ele>1779</ele>
        <time>2020-08-25T07:34:26.945Z</time>
      </trkpt>
      <trkpt lat="42.64178" lon="1.70463">
        <ele>1779</ele>
        <time>2020-08-25T07:34:31.675Z</time>
      </trkpt>
      <trkpt lat="42.64178" lon="1.70466">
        <ele>1779</ele>
        <time>2020-08-25T07:34:35.829Z</time>
      </trkpt>
      <trkpt lat="42.64175" lon="1.70473">
        <ele>1779</ele>
        <time>2020-08-25T07:34:47.725Z</time>
      </trkpt>
      <trkpt lat="42.64169" lon="1.70477">
        <ele>1779</ele>
        <time>2020-08-25T07:34:55.848Z</time>
      </trkpt>
      <trkpt lat="42.64164" lon="1.70486">
        <ele>1788</ele>
        <time>2020-08-25T07:35:06.921Z</time>
      </trkpt>
      <trkpt lat="42.64162" lon="1.70491">
        <ele>1788</ele>
        <time>2020-08-25T07:35:11.874Z</time>
      </trkpt>
      <trkpt lat="42.6416" lon="1.70495">
        <ele>1788</ele>
        <time>2020-08-25T07:35:16.636Z</time>
      </trkpt>
      <trkpt lat="42.64152" lon="1.70503">
        <ele>1783</ele>
        <time>2020-08-25T07:35:30.668Z</time>
      </trkpt>
      <trkpt lat="42.64149" lon="1.70506">
        <ele>1783</ele>
        <time>2020-08-25T07:35:35.170Z</time>
      </trkpt>
      <trkpt lat="42.64146" lon="1.70508">
        <ele>1783</ele>
        <time>2020-08-25T07:35:39.646Z</time>
      </trkpt>
      <trkpt lat="42.64143" lon="1.7051">
        <ele>1783</ele>
        <time>2020-08-25T07:35:44.674Z</time>
      </trkpt>
      <trkpt lat="42.64143" lon="1.70511">
        <ele>1783</ele>
        <time>2020-08-25T07:35:49.925Z</time>
      </trkpt>
      <trkpt lat="42.6414" lon="1.70515">
        <ele>1795</ele>
        <time>2020-08-25T07:35:55.689Z</time>
      </trkpt>
      <trkpt lat="42.64138" lon="1.70517">
        <ele>1795</ele>
        <time>2020-08-25T07:35:59.899Z</time>
      </trkpt>
      <trkpt lat="42.64135" lon="1.70521">
        <ele>1795</ele>
        <time>2020-08-25T07:36:08.857Z</time>
      </trkpt>
      <trkpt lat="42.64134" lon="1.70524">
        <ele>1795</ele>
        <time>2020-08-25T07:36:13.515Z</time>
      </trkpt>
      <trkpt lat="42.64132" lon="1.70528">
        <ele>1795</ele>
        <time>2020-08-25T07:36:17.637Z</time>
      </trkpt>
      <trkpt lat="42.64129" lon="1.7053">
        <ele>1795</ele>
        <time>2020-08-25T07:36:25.169Z</time>
      </trkpt>
      <trkpt lat="42.64127" lon="1.70534">
        <ele>1795</ele>
        <time>2020-08-25T07:36:29.725Z</time>
      </trkpt>
      <trkpt lat="42.64125" lon="1.70545">
        <ele>1809</ele>
        <time>2020-08-25T07:36:37.341Z</time>
      </trkpt>
      <trkpt lat="42.64124" lon="1.7055">
        <ele>1802</ele>
        <time>2020-08-25T07:36:44.102Z</time>
      </trkpt>
      <trkpt lat="42.64123" lon="1.70552">
        <ele>1802</ele>
        <time>2020-08-25T07:36:52.701Z</time>
      </trkpt>
      <trkpt lat="42.64123" lon="1.70552">
        <ele>1802</ele>
        <time>2020-08-25T07:36:56.977Z</time>
      </trkpt>
      <trkpt lat="42.64122" lon="1.70555">
        <ele>1802</ele>
        <time>2020-08-25T07:37:01.605Z</time>
      </trkpt>
      <trkpt lat="42.64122" lon="1.7056">
        <ele>1802</ele>
        <time>2020-08-25T07:37:05.599Z</time>
      </trkpt>
      <trkpt lat="42.64121" lon="1.70565">
        <ele>1802</ele>
        <time>2020-08-25T07:37:10.599Z</time>
      </trkpt>
      <trkpt lat="42.6412" lon="1.70571">
        <ele>1809</ele>
        <time>2020-08-25T07:37:17.716Z</time>
      </trkpt>
      <trkpt lat="42.64118" lon="1.70584">
        <ele>1809</ele>
        <time>2020-08-25T07:37:27.189Z</time>
      </trkpt>
      <trkpt lat="42.64118" lon="1.70588">
        <ele>1809</ele>
        <time>2020-08-25T07:37:32.578Z</time>
      </trkpt>
      <trkpt lat="42.64116" lon="1.70597">
        <ele>1809</ele>
        <time>2020-08-25T07:37:37.008Z</time>
      </trkpt>
      <trkpt lat="42.64114" lon="1.706">
        <ele>1816</ele>
        <time>2020-08-25T07:37:42.116Z</time>
      </trkpt>
      <trkpt lat="42.6411" lon="1.70605">
        <ele>1816</ele>
        <time>2020-08-25T07:37:50.683Z</time>
      </trkpt>
      <trkpt lat="42.64108" lon="1.70611">
        <ele>1816</ele>
        <time>2020-08-25T07:37:57.654Z</time>
      </trkpt>
      <trkpt lat="42.64107" lon="1.70614">
        <ele>1816</ele>
        <time>2020-08-25T07:38:02.663Z</time>
      </trkpt>
      <trkpt lat="42.64105" lon="1.7062">
        <ele>1816</ele>
        <time>2020-08-25T07:38:09.805Z</time>
      </trkpt>
      <trkpt lat="42.64102" lon="1.70626">
        <ele>1827</ele>
        <time>2020-08-25T07:38:14.677Z</time>
      </trkpt>
      <trkpt lat="42.64099" lon="1.7063">
        <ele>1827</ele>
        <time>2020-08-25T07:38:19.598Z</time>
      </trkpt>
      <trkpt lat="42.64097" lon="1.70636">
        <ele>1817</ele>
        <time>2020-08-25T07:38:23.598Z</time>
      </trkpt>
      <trkpt lat="42.64096" lon="1.70642">
        <ele>1817</ele>
        <time>2020-08-25T07:38:27.808Z</time>
      </trkpt>
      <trkpt lat="42.64098" lon="1.70644">
        <ele>1827</ele>
        <time>2020-08-25T07:38:32.742Z</time>
      </trkpt>
      <trkpt lat="42.64097" lon="1.70645">
        <ele>1827</ele>
        <time>2020-08-25T07:38:36.944Z</time>
      </trkpt>
      <trkpt lat="42.64096" lon="1.70652">
        <ele>1817</ele>
        <time>2020-08-25T07:38:43.869Z</time>
      </trkpt>
      <trkpt lat="42.64094" lon="1.70657">
        <ele>1827</ele>
        <time>2020-08-25T07:38:48.904Z</time>
      </trkpt>
      <trkpt lat="42.64092" lon="1.70659">
        <ele>1827</ele>
        <time>2020-08-25T07:38:53.803Z</time>
      </trkpt>
      <trkpt lat="42.64089" lon="1.70661">
        <ele>1827</ele>
        <time>2020-08-25T07:38:58.412Z</time>
      </trkpt>
      <trkpt lat="42.64087" lon="1.7067">
        <ele>1827</ele>
        <time>2020-08-25T07:39:04.890Z</time>
      </trkpt>
      <trkpt lat="42.64089" lon="1.70671">
        <ele>1827</ele>
        <time>2020-08-25T07:39:09.951Z</time>
      </trkpt>
      <trkpt lat="42.6409" lon="1.70677">
        <ele>1827</ele>
        <time>2020-08-25T07:39:15.003Z</time>
      </trkpt>
      <trkpt lat="42.64086" lon="1.70681">
        <ele>1836</ele>
        <time>2020-08-25T07:39:19.630Z</time>
      </trkpt>
      <trkpt lat="42.64086" lon="1.70688">
        <ele>1836</ele>
        <time>2020-08-25T07:39:24.141Z</time>
      </trkpt>
      <trkpt lat="42.64083" lon="1.70693">
        <ele>1836</ele>
        <time>2020-08-25T07:39:29.192Z</time>
      </trkpt>
      <trkpt lat="42.64083" lon="1.70693">
        <ele>1836</ele>
        <time>2020-08-25T07:39:35.354Z</time>
      </trkpt>
      <trkpt lat="42.64081" lon="1.707">
        <ele>1836</ele>
        <time>2020-08-25T07:39:39.616Z</time>
      </trkpt>
      <trkpt lat="42.64079" lon="1.70704">
        <ele>1836</ele>
        <time>2020-08-25T07:39:43.626Z</time>
      </trkpt>
      <trkpt lat="42.64079" lon="1.70707">
        <ele>1836</ele>
        <time>2020-08-25T07:39:47.819Z</time>
      </trkpt>
      <trkpt lat="42.64081" lon="1.70713">
        <ele>1842</ele>
        <time>2020-08-25T07:39:52.017Z</time>
      </trkpt>
      <trkpt lat="42.64078" lon="1.70715">
        <ele>1842</ele>
        <time>2020-08-25T07:39:57.395Z</time>
      </trkpt>
      <trkpt lat="42.64076" lon="1.70717">
        <ele>1842</ele>
        <time>2020-08-25T07:40:01.599Z</time>
      </trkpt>
      <trkpt lat="42.64076" lon="1.70722">
        <ele>1842</ele>
        <time>2020-08-25T07:40:06.610Z</time>
      </trkpt>
      <trkpt lat="42.64075" lon="1.70723">
        <ele>1842</ele>
        <time>2020-08-25T07:40:10.654Z</time>
      </trkpt>
      <trkpt lat="42.64075" lon="1.70725">
        <ele>1842</ele>
        <time>2020-08-25T07:40:15.704Z</time>
      </trkpt>
      <trkpt lat="42.64075" lon="1.70725">
        <ele>1842</ele>
        <time>2020-08-25T07:40:19.823Z</time>
      </trkpt>
      <trkpt lat="42.64074" lon="1.70731">
        <ele>1842</ele>
        <time>2020-08-25T07:40:24.117Z</time>
      </trkpt>
      <trkpt lat="42.64074" lon="1.70737">
        <ele>1848</ele>
        <time>2020-08-25T07:40:27.990Z</time>
      </trkpt>
      <trkpt lat="42.64078" lon="1.70747">
        <ele>1848</ele>
        <time>2020-08-25T07:40:35.036Z</time>
      </trkpt>
      <trkpt lat="42.64082" lon="1.70752">
        <ele>1848</ele>
        <time>2020-08-25T07:40:40.057Z</time>
      </trkpt>
      <trkpt lat="42.64076" lon="1.70761">
        <ele>1848</ele>
        <time>2020-08-25T07:40:47.916Z</time>
      </trkpt>
      <trkpt lat="42.64075" lon="1.70765">
        <ele>1853</ele>
        <time>2020-08-25T07:40:59.308Z</time>
      </trkpt>
      <trkpt lat="42.64075" lon="1.70773">
        <ele>1853</ele>
        <time>2020-08-25T07:41:08.157Z</time>
      </trkpt>
      <trkpt lat="42.64078" lon="1.70778">
        <ele>1853</ele>
        <time>2020-08-25T07:41:12.882Z</time>
      </trkpt>
      <trkpt lat="42.64077" lon="1.70781">
        <ele>1853</ele>
        <time>2020-08-25T07:41:17.597Z</time>
      </trkpt>
      <trkpt lat="42.64085" lon="1.70781">
        <ele>1853</ele>
        <time>2020-08-25T07:41:21.598Z</time>
      </trkpt>
      <trkpt lat="42.64088" lon="1.70794">
        <ele>1858</ele>
        <time>2020-08-25T07:41:27.085Z</time>
      </trkpt>
      <trkpt lat="42.64086" lon="1.70795">
        <ele>1858</ele>
        <time>2020-08-25T07:41:31.597Z</time>
      </trkpt>
      <trkpt lat="42.64088" lon="1.70798">
        <ele>1858</ele>
        <time>2020-08-25T07:41:37.496Z</time>
      </trkpt>
      <trkpt lat="42.64082" lon="1.70803">
        <ele>1858</ele>
        <time>2020-08-25T07:41:41.599Z</time>
      </trkpt>
      <trkpt lat="42.64084" lon="1.70808">
        <ele>1858</ele>
        <time>2020-08-25T07:41:50.061Z</time>
      </trkpt>
      <trkpt lat="42.64088" lon="1.70813">
        <ele>1858</ele>
        <time>2020-08-25T07:41:55.443Z</time>
      </trkpt>
      <trkpt lat="42.64088" lon="1.70819">
        <ele>1858</ele>
        <time>2020-08-25T07:41:59.921Z</time>
      </trkpt>
      <trkpt lat="42.64085" lon="1.70821">
        <ele>1862</ele>
        <time>2020-08-25T07:42:05.690Z</time>
      </trkpt>
      <trkpt lat="42.64083" lon="1.70827">
        <ele>1862</ele>
        <time>2020-08-25T07:42:10.932Z</time>
      </trkpt>
      <trkpt lat="42.64087" lon="1.70831">
        <ele>1862</ele>
        <time>2020-08-25T07:42:14.952Z</time>
      </trkpt>
      <trkpt lat="42.64085" lon="1.70838">
        <ele>1862</ele>
        <time>2020-08-25T07:42:19.180Z</time>
      </trkpt>
      <trkpt lat="42.64086" lon="1.70848">
        <ele>1863</ele>
        <time>2020-08-25T07:42:31.604Z</time>
      </trkpt>
      <trkpt lat="42.6409" lon="1.70857">
        <ele>1863</ele>
        <time>2020-08-25T07:42:36.013Z</time>
      </trkpt>
      <trkpt lat="42.64089" lon="1.7086">
        <ele>1863</ele>
        <time>2020-08-25T07:42:39.902Z</time>
      </trkpt>
      <trkpt lat="42.64094" lon="1.70865">
        <ele>1863</ele>
        <time>2020-08-25T07:42:46.985Z</time>
      </trkpt>
      <trkpt lat="42.64098" lon="1.70871">
        <ele>1868</ele>
        <time>2020-08-25T07:42:51.719Z</time>
      </trkpt>
      <trkpt lat="42.64096" lon="1.70878">
        <ele>1865</ele>
        <time>2020-08-25T07:42:56.226Z</time>
      </trkpt>
      <trkpt lat="42.64099" lon="1.70884">
        <ele>1872</ele>
        <time>2020-08-25T07:43:01.598Z</time>
      </trkpt>
      <trkpt lat="42.64102" lon="1.70891">
        <ele>1872</ele>
        <time>2020-08-25T07:43:05.617Z</time>
      </trkpt>
      <trkpt lat="42.64098" lon="1.70896">
        <ele>1872</ele>
        <time>2020-08-25T07:43:10.598Z</time>
      </trkpt>
      <trkpt lat="42.64098" lon="1.70907">
        <ele>1878</ele>
        <time>2020-08-25T07:43:19.795Z</time>
      </trkpt>
      <trkpt lat="42.64098" lon="1.70915">
        <ele>1878</ele>
        <time>2020-08-25T07:43:27.806Z</time>
      </trkpt>
      <trkpt lat="42.64098" lon="1.70915">
        <ele>1878</ele>
        <time>2020-08-25T07:43:31.884Z</time>
      </trkpt>
      <trkpt lat="42.64096" lon="1.7092">
        <ele>1872</ele>
        <time>2020-08-25T07:43:41.638Z</time>
      </trkpt>
      <trkpt lat="42.64096" lon="1.70928">
        <ele>1872</ele>
        <time>2020-08-25T07:43:46.170Z</time>
      </trkpt>
      <trkpt lat="42.64096" lon="1.70938">
        <ele>1880</ele>
        <time>2020-08-25T07:43:50.812Z</time>
      </trkpt>
      <trkpt lat="42.64095" lon="1.70945">
        <ele>1880</ele>
        <time>2020-08-25T07:43:55.463Z</time>
      </trkpt>
      <trkpt lat="42.64097" lon="1.70955">
        <ele>1884</ele>
        <time>2020-08-25T07:44:01.081Z</time>
      </trkpt>
      <trkpt lat="42.64101" lon="1.70966">
        <ele>1886</ele>
        <time>2020-08-25T07:44:08.864Z</time>
      </trkpt>
      <trkpt lat="42.64097" lon="1.70971">
        <ele>1886</ele>
        <time>2020-08-25T07:44:14.088Z</time>
      </trkpt>
      <trkpt lat="42.64102" lon="1.70978">
        <ele>1886</ele>
        <time>2020-08-25T07:44:18.837Z</time>
      </trkpt>
      <trkpt lat="42.64105" lon="1.70983">
        <ele>1886</ele>
        <time>2020-08-25T07:44:23.598Z</time>
      </trkpt>
      <trkpt lat="42.64111" lon="1.70993">
        <ele>1887</ele>
        <time>2020-08-25T07:44:31.720Z</time>
      </trkpt>
      <trkpt lat="42.64112" lon="1.70998">
        <ele>1887</ele>
        <time>2020-08-25T07:44:36.048Z</time>
      </trkpt>
      <trkpt lat="42.64114" lon="1.71001">
        <ele>1887</ele>
        <time>2020-08-25T07:44:39.870Z</time>
      </trkpt>
      <trkpt lat="42.64115" lon="1.71006">
        <ele>1887</ele>
        <time>2020-08-25T07:44:45.012Z</time>
      </trkpt>
      <trkpt lat="42.64118" lon="1.7101">
        <ele>1887</ele>
        <time>2020-08-25T07:44:49.034Z</time>
      </trkpt>
      <trkpt lat="42.6412" lon="1.71015">
        <ele>1890</ele>
        <time>2020-08-25T07:44:53.633Z</time>
      </trkpt>
      <trkpt lat="42.64123" lon="1.71019">
        <ele>1890</ele>
        <time>2020-08-25T07:44:58.083Z</time>
      </trkpt>
      <trkpt lat="42.64122" lon="1.71025">
        <ele>1890</ele>
        <time>2020-08-25T07:45:02.649Z</time>
      </trkpt>
      <trkpt lat="42.64128" lon="1.71027">
        <ele>1892</ele>
        <time>2020-08-25T07:45:10.087Z</time>
      </trkpt>
      <trkpt lat="42.64128" lon="1.71034">
        <ele>1892</ele>
        <time>2020-08-25T07:45:14.958Z</time>
      </trkpt>
      <trkpt lat="42.64131" lon="1.71039">
        <ele>1892</ele>
        <time>2020-08-25T07:45:18.951Z</time>
      </trkpt>
      <trkpt lat="42.64129" lon="1.71044">
        <ele>1895</ele>
        <time>2020-08-25T07:45:23.641Z</time>
      </trkpt>
      <trkpt lat="42.64132" lon="1.71048">
        <ele>1895</ele>
        <time>2020-08-25T07:45:27.648Z</time>
      </trkpt>
      <trkpt lat="42.64135" lon="1.71052">
        <ele>1895</ele>
        <time>2020-08-25T07:45:32.234Z</time>
      </trkpt>
      <trkpt lat="42.64138" lon="1.71055">
        <ele>1895</ele>
        <time>2020-08-25T07:45:35.958Z</time>
      </trkpt>
      <trkpt lat="42.64142" lon="1.7106">
        <ele>1895</ele>
        <time>2020-08-25T07:45:42.193Z</time>
      </trkpt>
      <trkpt lat="42.64148" lon="1.71066">
        <ele>1895</ele>
        <time>2020-08-25T07:45:47.023Z</time>
      </trkpt>
      <trkpt lat="42.64148" lon="1.71074">
        <ele>1898</ele>
        <time>2020-08-25T07:45:52.840Z</time>
      </trkpt>
      <trkpt lat="42.64148" lon="1.71079">
        <ele>1898</ele>
        <time>2020-08-25T07:45:57.211Z</time>
      </trkpt>
      <trkpt lat="42.64149" lon="1.71087">
        <ele>1898</ele>
        <time>2020-08-25T07:46:02.967Z</time>
      </trkpt>
      <trkpt lat="42.64152" lon="1.71093">
        <ele>1898</ele>
        <time>2020-08-25T07:46:07.624Z</time>
      </trkpt>
      <trkpt lat="42.64152" lon="1.711">
        <ele>1899</ele>
        <time>2020-08-25T07:46:12.620Z</time>
      </trkpt>
      <trkpt lat="42.64152" lon="1.71102">
        <ele>1899</ele>
        <time>2020-08-25T07:46:17.817Z</time>
      </trkpt>
      <trkpt lat="42.6415" lon="1.71112">
        <ele>1899</ele>
        <time>2020-08-25T07:46:22.759Z</time>
      </trkpt>
      <trkpt lat="42.64153" lon="1.7112">
        <ele>1899</ele>
        <time>2020-08-25T07:46:27.739Z</time>
      </trkpt>
      <trkpt lat="42.64154" lon="1.71125">
        <ele>1900</ele>
        <time>2020-08-25T07:46:32.465Z</time>
      </trkpt>
      <trkpt lat="42.64156" lon="1.71132">
        <ele>1900</ele>
        <time>2020-08-25T07:46:36.984Z</time>
      </trkpt>
      <trkpt lat="42.64158" lon="1.71138">
        <ele>1900</ele>
        <time>2020-08-25T07:46:41.118Z</time>
      </trkpt>
      <trkpt lat="42.64159" lon="1.71147">
        <ele>1900</ele>
        <time>2020-08-25T07:46:45.655Z</time>
      </trkpt>
      <trkpt lat="42.64158" lon="1.71151">
        <ele>1900</ele>
        <time>2020-08-25T07:46:52.021Z</time>
      </trkpt>
      <trkpt lat="42.64159" lon="1.71156">
        <ele>1905</ele>
        <time>2020-08-25T07:46:56.629Z</time>
      </trkpt>
      <trkpt lat="42.64159" lon="1.71156">
        <ele>1905</ele>
        <time>2020-08-25T07:47:01.151Z</time>
      </trkpt>
      <trkpt lat="42.64158" lon="1.71168">
        <ele>1905</ele>
        <time>2020-08-25T07:47:06.168Z</time>
      </trkpt>
      <trkpt lat="42.64156" lon="1.7118">
        <ele>1905</ele>
        <time>2020-08-25T07:47:11.741Z</time>
      </trkpt>
      <trkpt lat="42.64152" lon="1.71188">
        <ele>1903</ele>
        <time>2020-08-25T07:47:17.049Z</time>
      </trkpt>
      <trkpt lat="42.64151" lon="1.71195">
        <ele>1903</ele>
        <time>2020-08-25T07:47:21.673Z</time>
      </trkpt>
      <trkpt lat="42.64147" lon="1.71207">
        <ele>1903</ele>
        <time>2020-08-25T07:47:33.581Z</time>
      </trkpt>
      <trkpt lat="42.64147" lon="1.71215">
        <ele>1906</ele>
        <time>2020-08-25T07:47:38.209Z</time>
      </trkpt>
      <trkpt lat="42.64147" lon="1.7122">
        <ele>1906</ele>
        <time>2020-08-25T07:47:42.867Z</time>
      </trkpt>
      <trkpt lat="42.64145" lon="1.71227">
        <ele>1906</ele>
        <time>2020-08-25T07:47:47.177Z</time>
      </trkpt>
      <trkpt lat="42.64148" lon="1.71235">
        <ele>1906</ele>
        <time>2020-08-25T07:47:51.824Z</time>
      </trkpt>
      <trkpt lat="42.64148" lon="1.71245">
        <ele>1910</ele>
        <time>2020-08-25T07:48:00.101Z</time>
      </trkpt>
      <trkpt lat="42.64149" lon="1.71251">
        <ele>1910</ele>
        <time>2020-08-25T07:48:04.656Z</time>
      </trkpt>
      <trkpt lat="42.64153" lon="1.71259">
        <ele>1915</ele>
        <time>2020-08-25T07:48:13.659Z</time>
      </trkpt>
      <trkpt lat="42.64157" lon="1.71265">
        <ele>1917</ele>
        <time>2020-08-25T07:48:18.066Z</time>
      </trkpt>
      <trkpt lat="42.64157" lon="1.71268">
        <ele>1917</ele>
        <time>2020-08-25T07:48:20.198Z</time>
      </trkpt>
      <trkpt lat="42.64156" lon="1.71282">
        <ele>1917</ele>
        <time>2020-08-25T07:48:29.063Z</time>
      </trkpt>
      <trkpt lat="42.64154" lon="1.71284">
        <ele>1917</ele>
        <time>2020-08-25T07:48:34.207Z</time>
      </trkpt>
      <trkpt lat="42.64154" lon="1.71286">
        <ele>1917</ele>
        <time>2020-08-25T07:48:39.451Z</time>
      </trkpt>
      <trkpt lat="42.64155" lon="1.71292">
        <ele>1917</ele>
        <time>2020-08-25T07:48:43.762Z</time>
      </trkpt>
      <trkpt lat="42.64153" lon="1.71312">
        <ele>1919</ele>
        <time>2020-08-25T07:48:55.533Z</time>
      </trkpt>
      <trkpt lat="42.64157" lon="1.71322">
        <ele>1921</ele>
        <time>2020-08-25T07:49:00.799Z</time>
      </trkpt>
      <trkpt lat="42.64158" lon="1.71329">
        <ele>1921</ele>
        <time>2020-08-25T07:49:05.600Z</time>
      </trkpt>
      <trkpt lat="42.64159" lon="1.71335">
        <ele>1921</ele>
        <time>2020-08-25T07:49:10.597Z</time>
      </trkpt>
      <trkpt lat="42.6416" lon="1.71342">
        <ele>1921</ele>
        <time>2020-08-25T07:49:15.594Z</time>
      </trkpt>
      <trkpt lat="42.64161" lon="1.71347">
        <ele>1921</ele>
        <time>2020-08-25T07:49:19.922Z</time>
      </trkpt>
      <trkpt lat="42.64162" lon="1.71353">
        <ele>1928</ele>
        <time>2020-08-25T07:49:25.601Z</time>
      </trkpt>
      <trkpt lat="42.64164" lon="1.71364">
        <ele>1928</ele>
        <time>2020-08-25T07:49:34.732Z</time>
      </trkpt>
      <trkpt lat="42.64166" lon="1.71369">
        <ele>1928</ele>
        <time>2020-08-25T07:49:38.682Z</time>
      </trkpt>
      <trkpt lat="42.64166" lon="1.71374">
        <ele>1928</ele>
        <time>2020-08-25T07:49:42.886Z</time>
      </trkpt>
      <trkpt lat="42.64168" lon="1.71379">
        <ele>1933</ele>
        <time>2020-08-25T07:49:47.634Z</time>
      </trkpt>
      <trkpt lat="42.64169" lon="1.71384">
        <ele>1933</ele>
        <time>2020-08-25T07:49:54.258Z</time>
      </trkpt>
      <trkpt lat="42.64165" lon="1.71392">
        <ele>1933</ele>
        <time>2020-08-25T07:49:58.787Z</time>
      </trkpt>
      <trkpt lat="42.64165" lon="1.71398">
        <ele>1933</ele>
        <time>2020-08-25T07:50:04.843Z</time>
      </trkpt>
      <trkpt lat="42.64163" lon="1.71399">
        <ele>1933</ele>
        <time>2020-08-25T07:50:10.461Z</time>
      </trkpt>
      <trkpt lat="42.64161" lon="1.71409">
        <ele>1934</ele>
        <time>2020-08-25T07:50:25.042Z</time>
      </trkpt>
      <trkpt lat="42.64161" lon="1.71419">
        <ele>1934</ele>
        <time>2020-08-25T07:50:31.833Z</time>
      </trkpt>
      <trkpt lat="42.64158" lon="1.71424">
        <ele>1934</ele>
        <time>2020-08-25T07:50:36.666Z</time>
      </trkpt>
      <trkpt lat="42.64158" lon="1.71425">
        <ele>1934</ele>
        <time>2020-08-25T07:50:41.108Z</time>
      </trkpt>
      <trkpt lat="42.64157" lon="1.71433">
        <ele>1936</ele>
        <time>2020-08-25T07:50:45.596Z</time>
      </trkpt>
      <trkpt lat="42.64155" lon="1.7144">
        <ele>1936</ele>
        <time>2020-08-25T07:50:49.854Z</time>
      </trkpt>
      <trkpt lat="42.6416" lon="1.71445">
        <ele>1936</ele>
        <time>2020-08-25T07:50:55.100Z</time>
      </trkpt>
      <trkpt lat="42.6416" lon="1.71446">
        <ele>1936</ele>
        <time>2020-08-25T07:51:00.162Z</time>
      </trkpt>
      <trkpt lat="42.64158" lon="1.71449">
        <ele>1936</ele>
        <time>2020-08-25T07:51:04.186Z</time>
      </trkpt>
      <trkpt lat="42.64152" lon="1.71479">
        <ele>1935</ele>
        <time>2020-08-25T07:51:24.905Z</time>
      </trkpt>
      <trkpt lat="42.6415" lon="1.71492">
        <ele>1941</ele>
        <time>2020-08-25T07:51:32.686Z</time>
      </trkpt>
      <trkpt lat="42.64149" lon="1.71498">
        <ele>1941</ele>
        <time>2020-08-25T07:51:36.778Z</time>
      </trkpt>
      <trkpt lat="42.64148" lon="1.71503">
        <ele>1941</ele>
        <time>2020-08-25T07:51:41.204Z</time>
      </trkpt>
      <trkpt lat="42.64148" lon="1.71511">
        <ele>1941</ele>
        <time>2020-08-25T07:51:45.807Z</time>
      </trkpt>
      <trkpt lat="42.64148" lon="1.71514">
        <ele>1948</ele>
        <time>2020-08-25T07:51:49.862Z</time>
      </trkpt>
      <trkpt lat="42.64146" lon="1.71521">
        <ele>1948</ele>
        <time>2020-08-25T07:51:54.300Z</time>
      </trkpt>
      <trkpt lat="42.64145" lon="1.71527">
        <ele>1948</ele>
        <time>2020-08-25T07:52:00.293Z</time>
      </trkpt>
      <trkpt lat="42.64143" lon="1.71535">
        <ele>1948</ele>
        <time>2020-08-25T07:52:05.664Z</time>
      </trkpt>
      <trkpt lat="42.64142" lon="1.71538">
        <ele>1948</ele>
        <time>2020-08-25T07:52:10.598Z</time>
      </trkpt>
      <trkpt lat="42.64142" lon="1.71539">
        <ele>1948</ele>
        <time>2020-08-25T07:52:14.622Z</time>
      </trkpt>
      <trkpt lat="42.64142" lon="1.71544">
        <ele>1954</ele>
        <time>2020-08-25T07:52:19.614Z</time>
      </trkpt>
      <trkpt lat="42.64142" lon="1.71552">
        <ele>1954</ele>
        <time>2020-08-25T07:52:23.929Z</time>
      </trkpt>
      <trkpt lat="42.6414" lon="1.7156">
        <ele>1954</ele>
        <time>2020-08-25T07:52:28.613Z</time>
      </trkpt>
      <trkpt lat="42.64138" lon="1.71565">
        <ele>1954</ele>
        <time>2020-08-25T07:52:33.631Z</time>
      </trkpt>
      <trkpt lat="42.64136" lon="1.71572">
        <ele>1956</ele>
        <time>2020-08-25T07:52:39.734Z</time>
      </trkpt>
      <trkpt lat="42.64135" lon="1.71577">
        <ele>1956</ele>
        <time>2020-08-25T07:52:43.960Z</time>
      </trkpt>
      <trkpt lat="42.64134" lon="1.71584">
        <ele>1956</ele>
        <time>2020-08-25T07:52:48.652Z</time>
      </trkpt>
      <trkpt lat="42.64131" lon="1.71588">
        <ele>1956</ele>
        <time>2020-08-25T07:52:52.830Z</time>
      </trkpt>
      <trkpt lat="42.64135" lon="1.71596">
        <ele>1956</ele>
        <time>2020-08-25T07:52:57.631Z</time>
      </trkpt>
      <trkpt lat="42.64125" lon="1.71609">
        <ele>1961</ele>
        <time>2020-08-25T07:53:53.879Z</time>
      </trkpt>
      <trkpt lat="42.64122" lon="1.71628">
        <ele>1955</ele>
        <time>2020-08-25T07:54:06.746Z</time>
      </trkpt>
      <trkpt lat="42.64122" lon="1.7163">
        <ele>1955</ele>
        <time>2020-08-25T07:54:13.018Z</time>
      </trkpt>
      <trkpt lat="42.64123" lon="1.71631">
        <ele>1955</ele>
        <time>2020-08-25T07:54:18.124Z</time>
      </trkpt>
      <trkpt lat="42.64123" lon="1.71632">
        <ele>1955</ele>
        <time>2020-08-25T07:54:23.148Z</time>
      </trkpt>
      <trkpt lat="42.64122" lon="1.71634">
        <ele>1955</ele>
        <time>2020-08-25T07:54:28.106Z</time>
      </trkpt>
      <trkpt lat="42.64119" lon="1.71643">
        <ele>1955</ele>
        <time>2020-08-25T07:54:32.724Z</time>
      </trkpt>
      <trkpt lat="42.6412" lon="1.7165">
        <ele>1955</ele>
        <time>2020-08-25T07:54:37.086Z</time>
      </trkpt>
      <trkpt lat="42.64118" lon="1.71658">
        <ele>1961</ele>
        <time>2020-08-25T07:54:42.568Z</time>
      </trkpt>
      <trkpt lat="42.64118" lon="1.71663">
        <ele>1961</ele>
        <time>2020-08-25T07:54:47.014Z</time>
      </trkpt>
      <trkpt lat="42.64117" lon="1.71674">
        <ele>1961</ele>
        <time>2020-08-25T07:55:00.034Z</time>
      </trkpt>
      <trkpt lat="42.64117" lon="1.71677">
        <ele>1961</ele>
        <time>2020-08-25T07:55:05.150Z</time>
      </trkpt>
      <trkpt lat="42.64117" lon="1.71682">
        <ele>1967</ele>
        <time>2020-08-25T07:55:09.597Z</time>
      </trkpt>
      <trkpt lat="42.64117" lon="1.71685">
        <ele>1967</ele>
        <time>2020-08-25T07:55:14.605Z</time>
      </trkpt>
      <trkpt lat="42.64117" lon="1.71689">
        <ele>1967</ele>
        <time>2020-08-25T07:55:19.599Z</time>
      </trkpt>
      <trkpt lat="42.64116" lon="1.71697">
        <ele>1967</ele>
        <time>2020-08-25T07:55:29.310Z</time>
      </trkpt>
      <trkpt lat="42.64119" lon="1.717">
        <ele>1967</ele>
        <time>2020-08-25T07:55:34.756Z</time>
      </trkpt>
      <trkpt lat="42.6412" lon="1.71704">
        <ele>1967</ele>
        <time>2020-08-25T07:55:38.814Z</time>
      </trkpt>
      <trkpt lat="42.6412" lon="1.71706">
        <ele>1967</ele>
        <time>2020-08-25T07:55:44.217Z</time>
      </trkpt>
      <trkpt lat="42.6412" lon="1.71709">
        <ele>1971</ele>
        <time>2020-08-25T07:55:48.751Z</time>
      </trkpt>
      <trkpt lat="42.64124" lon="1.71716">
        <ele>1971</ele>
        <time>2020-08-25T07:55:59.771Z</time>
      </trkpt>
      <trkpt lat="42.64126" lon="1.71717">
        <ele>1982</ele>
        <time>2020-08-25T07:56:03.971Z</time>
      </trkpt>
      <trkpt lat="42.64126" lon="1.71717">
        <ele>1982</ele>
        <time>2020-08-25T07:56:08.887Z</time>
      </trkpt>
      <trkpt lat="42.64124" lon="1.71723">
        <ele>1971</ele>
        <time>2020-08-25T07:56:13.741Z</time>
      </trkpt>
      <trkpt lat="42.64123" lon="1.71728">
        <ele>1971</ele>
        <time>2020-08-25T07:56:18.878Z</time>
      </trkpt>
      <trkpt lat="42.64123" lon="1.71734">
        <ele>1971</ele>
        <time>2020-08-25T07:56:23.514Z</time>
      </trkpt>
      <trkpt lat="42.64123" lon="1.71737">
        <ele>1975</ele>
        <time>2020-08-25T07:56:27.500Z</time>
      </trkpt>
      <trkpt lat="42.64119" lon="1.71747">
        <ele>1975</ele>
        <time>2020-08-25T07:56:34.801Z</time>
      </trkpt>
      <trkpt lat="42.64118" lon="1.71749">
        <ele>1975</ele>
        <time>2020-08-25T07:56:38.764Z</time>
      </trkpt>
      <trkpt lat="42.64118" lon="1.71752">
        <ele>1975</ele>
        <time>2020-08-25T07:56:41.961Z</time>
      </trkpt>
      <trkpt lat="42.64118" lon="1.71754">
        <ele>1975</ele>
        <time>2020-08-25T07:56:47.687Z</time>
      </trkpt>
      <trkpt lat="42.64117" lon="1.71758">
        <ele>1975</ele>
        <time>2020-08-25T07:56:53.937Z</time>
      </trkpt>
      <trkpt lat="42.64115" lon="1.71764">
        <ele>1975</ele>
        <time>2020-08-25T07:56:58.738Z</time>
      </trkpt>
      <trkpt lat="42.64113" lon="1.7177">
        <ele>1981</ele>
        <time>2020-08-25T07:57:03.611Z</time>
      </trkpt>
      <trkpt lat="42.64112" lon="1.71773">
        <ele>1981</ele>
        <time>2020-08-25T07:57:08.598Z</time>
      </trkpt>
      <trkpt lat="42.6411" lon="1.71777">
        <ele>1981</ele>
        <time>2020-08-25T07:57:12.593Z</time>
      </trkpt>
      <trkpt lat="42.6411" lon="1.71783">
        <ele>1981</ele>
        <time>2020-08-25T07:57:17.614Z</time>
      </trkpt>
      <trkpt lat="42.64108" lon="1.71787">
        <ele>1981</ele>
        <time>2020-08-25T07:57:21.635Z</time>
      </trkpt>
      <trkpt lat="42.64107" lon="1.71792">
        <ele>1988</ele>
        <time>2020-08-25T07:57:26.642Z</time>
      </trkpt>
      <trkpt lat="42.64106" lon="1.71798">
        <ele>1988</ele>
        <time>2020-08-25T07:57:31.658Z</time>
      </trkpt>
      <trkpt lat="42.64105" lon="1.718">
        <ele>1988</ele>
        <time>2020-08-25T07:57:36.650Z</time>
      </trkpt>
      <trkpt lat="42.64104" lon="1.71804">
        <ele>1988</ele>
        <time>2020-08-25T07:57:40.716Z</time>
      </trkpt>
      <trkpt lat="42.64104" lon="1.71807">
        <ele>1988</ele>
        <time>2020-08-25T07:57:45.652Z</time>
      </trkpt>
      <trkpt lat="42.64098" lon="1.71813">
        <ele>1988</ele>
        <time>2020-08-25T07:57:50.656Z</time>
      </trkpt>
      <trkpt lat="42.64102" lon="1.71817">
        <ele>1988</ele>
        <time>2020-08-25T07:57:55.056Z</time>
      </trkpt>
      <trkpt lat="42.64101" lon="1.71825">
        <ele>1997</ele>
        <time>2020-08-25T07:58:05.017Z</time>
      </trkpt>
      <trkpt lat="42.64101" lon="1.71827">
        <ele>1997</ele>
        <time>2020-08-25T07:58:08.970Z</time>
      </trkpt>
      <trkpt lat="42.64104" lon="1.71829">
        <ele>1997</ele>
        <time>2020-08-25T07:58:13.650Z</time>
      </trkpt>
      <trkpt lat="42.64101" lon="1.71833">
        <ele>1997</ele>
        <time>2020-08-25T07:58:18.597Z</time>
      </trkpt>
      <trkpt lat="42.64099" lon="1.71836">
        <ele>1997</ele>
        <time>2020-08-25T07:58:22.621Z</time>
      </trkpt>
      <trkpt lat="42.641" lon="1.7184">
        <ele>1997</ele>
        <time>2020-08-25T07:58:27.841Z</time>
      </trkpt>
      <trkpt lat="42.641" lon="1.71845">
        <ele>1997</ele>
        <time>2020-08-25T07:58:32.597Z</time>
      </trkpt>
      <trkpt lat="42.64098" lon="1.71846">
        <ele>1997</ele>
        <time>2020-08-25T07:58:35.936Z</time>
      </trkpt>
      <trkpt lat="42.64097" lon="1.71851">
        <ele>1995</ele>
        <time>2020-08-25T07:58:42.212Z</time>
      </trkpt>
      <trkpt lat="42.64097" lon="1.71858">
        <ele>1995</ele>
        <time>2020-08-25T07:58:50.739Z</time>
      </trkpt>
      <trkpt lat="42.641" lon="1.71866">
        <ele>2008</ele>
        <time>2020-08-25T07:59:02.711Z</time>
      </trkpt>
      <trkpt lat="42.64101" lon="1.71868">
        <ele>2008</ele>
        <time>2020-08-25T07:59:10.910Z</time>
      </trkpt>
      <trkpt lat="42.64103" lon="1.71869">
        <ele>2008</ele>
        <time>2020-08-25T07:59:19.846Z</time>
      </trkpt>
      <trkpt lat="42.64105" lon="1.71871">
        <ele>2008</ele>
        <time>2020-08-25T07:59:24.803Z</time>
      </trkpt>
      <trkpt lat="42.64105" lon="1.71874">
        <ele>2008</ele>
        <time>2020-08-25T07:59:30.819Z</time>
      </trkpt>
      <trkpt lat="42.64103" lon="1.71882">
        <ele>2016</ele>
        <time>2020-08-25T07:59:51.602Z</time>
      </trkpt>
      <trkpt lat="42.64104" lon="1.71885">
        <ele>2016</ele>
        <time>2020-08-25T07:59:55.801Z</time>
      </trkpt>
      <trkpt lat="42.64107" lon="1.71884">
        <ele>2016</ele>
        <time>2020-08-25T08:00:05.851Z</time>
      </trkpt>
      <trkpt lat="42.64109" lon="1.71886">
        <ele>2016</ele>
        <time>2020-08-25T08:00:10.832Z</time>
      </trkpt>
      <trkpt lat="42.6411" lon="1.7189">
        <ele>2016</ele>
        <time>2020-08-25T08:00:19.965Z</time>
      </trkpt>
      <trkpt lat="42.64118" lon="1.71896">
        <ele>2016</ele>
        <time>2020-08-25T08:00:51.911Z</time>
      </trkpt>
      <trkpt lat="42.64121" lon="1.71898">
        <ele>2016</ele>
        <time>2020-08-25T08:01:00.147Z</time>
      </trkpt>
      <trkpt lat="42.6412" lon="1.719">
        <ele>2016</ele>
        <time>2020-08-25T08:01:05.498Z</time>
      </trkpt>
      <trkpt lat="42.6412" lon="1.71901">
        <ele>2016</ele>
        <time>2020-08-25T08:01:09.802Z</time>
      </trkpt>
      <trkpt lat="42.64121" lon="1.71901">
        <ele>2016</ele>
        <time>2020-08-25T08:01:14.639Z</time>
      </trkpt>
      <trkpt lat="42.64123" lon="1.71903">
        <ele>2022</ele>
        <time>2020-08-25T08:01:19.654Z</time>
      </trkpt>
      <trkpt lat="42.64124" lon="1.71907">
        <ele>2022</ele>
        <time>2020-08-25T08:01:24.600Z</time>
      </trkpt>
      <trkpt lat="42.64124" lon="1.7191">
        <ele>2022</ele>
        <time>2020-08-25T08:01:28.646Z</time>
      </trkpt>
      <trkpt lat="42.64123" lon="1.71911">
        <ele>2022</ele>
        <time>2020-08-25T08:01:34.308Z</time>
      </trkpt>
      <trkpt lat="42.64123" lon="1.71916">
        <ele>2022</ele>
        <time>2020-08-25T08:01:43.752Z</time>
      </trkpt>
      <trkpt lat="42.64125" lon="1.71921">
        <ele>2037</ele>
        <time>2020-08-25T08:02:00.068Z</time>
      </trkpt>
      <trkpt lat="42.64126" lon="1.71923">
        <ele>2037</ele>
        <time>2020-08-25T08:02:04.816Z</time>
      </trkpt>
      <trkpt lat="42.64127" lon="1.71924">
        <ele>2037</ele>
        <time>2020-08-25T08:02:09.170Z</time>
      </trkpt>
      <trkpt lat="42.64128" lon="1.71924">
        <ele>2037</ele>
        <time>2020-08-25T08:02:13.098Z</time>
      </trkpt>
      <trkpt lat="42.64131" lon="1.71925">
        <ele>2037</ele>
        <time>2020-08-25T08:02:21.529Z</time>
      </trkpt>
      <trkpt lat="42.64137" lon="1.71931">
        <ele>2042</ele>
        <time>2020-08-25T08:02:43.698Z</time>
      </trkpt>
      <trkpt lat="42.64138" lon="1.71932">
        <ele>2042</ele>
        <time>2020-08-25T08:02:48.819Z</time>
      </trkpt>
      <trkpt lat="42.64139" lon="1.71932">
        <ele>2042</ele>
        <time>2020-08-25T08:02:52.980Z</time>
      </trkpt>
      <trkpt lat="42.64139" lon="1.71933">
        <ele>2042</ele>
        <time>2020-08-25T08:02:59.898Z</time>
      </trkpt>
      <trkpt lat="42.64137" lon="1.71942">
        <ele>2042</ele>
        <time>2020-08-25T08:03:10.061Z</time>
      </trkpt>
      <trkpt lat="42.64136" lon="1.71948">
        <ele>2042</ele>
        <time>2020-08-25T08:03:15.596Z</time>
      </trkpt>
      <trkpt lat="42.64135" lon="1.71952">
        <ele>2042</ele>
        <time>2020-08-25T08:03:19.932Z</time>
      </trkpt>
      <trkpt lat="42.64136" lon="1.71957">
        <ele>2042</ele>
        <time>2020-08-25T08:03:24.600Z</time>
      </trkpt>
      <trkpt lat="42.64134" lon="1.71959">
        <ele>2049</ele>
        <time>2020-08-25T08:03:29.040Z</time>
      </trkpt>
      <trkpt lat="42.64133" lon="1.71962">
        <ele>2049</ele>
        <time>2020-08-25T08:03:33.653Z</time>
      </trkpt>
      <trkpt lat="42.64133" lon="1.71974">
        <ele>2049</ele>
        <time>2020-08-25T08:03:48.032Z</time>
      </trkpt>
      <trkpt lat="42.64131" lon="1.71977">
        <ele>2049</ele>
        <time>2020-08-25T08:03:52.953Z</time>
      </trkpt>
      <trkpt lat="42.6413" lon="1.71978">
        <ele>2049</ele>
        <time>2020-08-25T08:03:57.649Z</time>
      </trkpt>
      <trkpt lat="42.64133" lon="1.71983">
        <ele>2049</ele>
        <time>2020-08-25T08:04:02.657Z</time>
      </trkpt>
      <trkpt lat="42.6413" lon="1.71983">
        <ele>2049</ele>
        <time>2020-08-25T08:04:07.651Z</time>
      </trkpt>
      <trkpt lat="42.64137" lon="1.71988">
        <ele>2058</ele>
        <time>2020-08-25T08:04:31.322Z</time>
      </trkpt>
      <trkpt lat="42.64139" lon="1.71988">
        <ele>2058</ele>
        <time>2020-08-25T08:04:36.593Z</time>
      </trkpt>
      <trkpt lat="42.6414" lon="1.71991">
        <ele>2058</ele>
        <time>2020-08-25T08:04:42.690Z</time>
      </trkpt>
      <trkpt lat="42.6414" lon="1.71991">
        <ele>2058</ele>
        <time>2020-08-25T08:04:47.153Z</time>
      </trkpt>
      <trkpt lat="42.64141" lon="1.71993">
        <ele>2058</ele>
        <time>2020-08-25T08:04:51.686Z</time>
      </trkpt>
      <trkpt lat="42.64149" lon="1.71999">
        <ele>2058</ele>
        <time>2020-08-25T08:06:17.597Z</time>
      </trkpt>
      <trkpt lat="42.64146" lon="1.72006">
        <ele>2058</ele>
        <time>2020-08-25T08:06:27.754Z</time>
      </trkpt>
      <trkpt lat="42.64144" lon="1.7201">
        <ele>2058</ele>
        <time>2020-08-25T08:06:32.763Z</time>
      </trkpt>
      <trkpt lat="42.64145" lon="1.72012">
        <ele>2058</ele>
        <time>2020-08-25T08:06:37.670Z</time>
      </trkpt>
      <trkpt lat="42.64142" lon="1.72019">
        <ele>2065</ele>
        <time>2020-08-25T08:06:44.710Z</time>
      </trkpt>
      <trkpt lat="42.64141" lon="1.72024">
        <ele>2065</ele>
        <time>2020-08-25T08:06:55.656Z</time>
      </trkpt>
      <trkpt lat="42.64137" lon="1.7203">
        <ele>2065</ele>
        <time>2020-08-25T08:07:03.667Z</time>
      </trkpt>
      <trkpt lat="42.64137" lon="1.72033">
        <ele>2065</ele>
        <time>2020-08-25T08:07:07.944Z</time>
      </trkpt>
      <trkpt lat="42.64136" lon="1.72037">
        <ele>2065</ele>
        <time>2020-08-25T08:07:13.066Z</time>
      </trkpt>
      <trkpt lat="42.64135" lon="1.7204">
        <ele>2065</ele>
        <time>2020-08-25T08:07:18.039Z</time>
      </trkpt>
      <trkpt lat="42.64135" lon="1.72044">
        <ele>2074</ele>
        <time>2020-08-25T08:07:22.654Z</time>
      </trkpt>
      <trkpt lat="42.64136" lon="1.72047">
        <ele>2074</ele>
        <time>2020-08-25T08:07:27.661Z</time>
      </trkpt>
      <trkpt lat="42.64135" lon="1.7205">
        <ele>2074</ele>
        <time>2020-08-25T08:07:31.660Z</time>
      </trkpt>
      <trkpt lat="42.64136" lon="1.72054">
        <ele>2074</ele>
        <time>2020-08-25T08:07:35.966Z</time>
      </trkpt>
      <trkpt lat="42.64137" lon="1.72058">
        <ele>2074</ele>
        <time>2020-08-25T08:07:44.860Z</time>
      </trkpt>
      <trkpt lat="42.64135" lon="1.72063">
        <ele>2074</ele>
        <time>2020-08-25T08:07:50.658Z</time>
      </trkpt>
      <trkpt lat="42.64135" lon="1.72065">
        <ele>2074</ele>
        <time>2020-08-25T08:07:55.701Z</time>
      </trkpt>
      <trkpt lat="42.64134" lon="1.72068">
        <ele>2074</ele>
        <time>2020-08-25T08:07:59.765Z</time>
      </trkpt>
      <trkpt lat="42.64131" lon="1.7207">
        <ele>2084</ele>
        <time>2020-08-25T08:08:07.042Z</time>
      </trkpt>
      <trkpt lat="42.64129" lon="1.72077">
        <ele>2084</ele>
        <time>2020-08-25T08:08:22.712Z</time>
      </trkpt>
      <trkpt lat="42.64127" lon="1.72079">
        <ele>2084</ele>
        <time>2020-08-25T08:08:27.380Z</time>
      </trkpt>
      <trkpt lat="42.64128" lon="1.7208">
        <ele>2084</ele>
        <time>2020-08-25T08:08:31.134Z</time>
      </trkpt>
      <trkpt lat="42.64128" lon="1.7208">
        <ele>2084</ele>
        <time>2020-08-25T08:08:35.887Z</time>
      </trkpt>
      <trkpt lat="42.64127" lon="1.72087">
        <ele>2084</ele>
        <time>2020-08-25T08:08:40.633Z</time>
      </trkpt>
      <trkpt lat="42.64124" lon="1.72094">
        <ele>2072</ele>
        <time>2020-08-25T08:08:45.169Z</time>
      </trkpt>
      <trkpt lat="42.64122" lon="1.72097">
        <ele>2072</ele>
        <time>2020-08-25T08:08:50Z</time>
      </trkpt>
      <trkpt lat="42.6412" lon="1.721">
        <ele>2080</ele>
        <time>2020-08-25T08:08:54.199Z</time>
      </trkpt>
      <trkpt lat="42.64119" lon="1.72101">
        <ele>2080</ele>
        <time>2020-08-25T08:08:58.635Z</time>
      </trkpt>
      <trkpt lat="42.64118" lon="1.72104">
        <ele>2080</ele>
        <time>2020-08-25T08:09:02.651Z</time>
      </trkpt>
      <trkpt lat="42.64117" lon="1.72107">
        <ele>2080</ele>
        <time>2020-08-25T08:09:07.883Z</time>
      </trkpt>
      <trkpt lat="42.64115" lon="1.72112">
        <ele>2080</ele>
        <time>2020-08-25T08:09:12.927Z</time>
      </trkpt>
      <trkpt lat="42.64114" lon="1.72115">
        <ele>2080</ele>
        <time>2020-08-25T08:09:17.058Z</time>
      </trkpt>
      <trkpt lat="42.64113" lon="1.72119">
        <ele>2080</ele>
        <time>2020-08-25T08:09:23.700Z</time>
      </trkpt>
      <trkpt lat="42.6411" lon="1.72128">
        <ele>2088</ele>
        <time>2020-08-25T08:09:38.995Z</time>
      </trkpt>
      <trkpt lat="42.6411" lon="1.72129">
        <ele>2088</ele>
        <time>2020-08-25T08:09:43.653Z</time>
      </trkpt>
      <trkpt lat="42.64111" lon="1.72131">
        <ele>2088</ele>
        <time>2020-08-25T08:09:48.269Z</time>
      </trkpt>
      <trkpt lat="42.64111" lon="1.72134">
        <ele>2088</ele>
        <time>2020-08-25T08:09:52.764Z</time>
      </trkpt>
      <trkpt lat="42.64111" lon="1.72137">
        <ele>2088</ele>
        <time>2020-08-25T08:09:58.006Z</time>
      </trkpt>
      <trkpt lat="42.64109" lon="1.72142">
        <ele>2088</ele>
        <time>2020-08-25T08:10:02.632Z</time>
      </trkpt>
      <trkpt lat="42.64109" lon="1.72144">
        <ele>2088</ele>
        <time>2020-08-25T08:10:12.662Z</time>
      </trkpt>
      <trkpt lat="42.64107" lon="1.72147">
        <ele>2088</ele>
        <time>2020-08-25T08:10:17.965Z</time>
      </trkpt>
      <trkpt lat="42.64105" lon="1.72152">
        <ele>2088</ele>
        <time>2020-08-25T08:10:22.073Z</time>
      </trkpt>
      <trkpt lat="42.64104" lon="1.72155">
        <ele>2101</ele>
        <time>2020-08-25T08:10:26.654Z</time>
      </trkpt>
      <trkpt lat="42.64104" lon="1.72158">
        <ele>2101</ele>
        <time>2020-08-25T08:10:30.662Z</time>
      </trkpt>
      <trkpt lat="42.64103" lon="1.72161">
        <ele>2101</ele>
        <time>2020-08-25T08:10:35.643Z</time>
      </trkpt>
      <trkpt lat="42.64104" lon="1.72166">
        <ele>2101</ele>
        <time>2020-08-25T08:10:39.831Z</time>
      </trkpt>
      <trkpt lat="42.641" lon="1.72168">
        <ele>2101</ele>
        <time>2020-08-25T08:10:46.878Z</time>
      </trkpt>
      <trkpt lat="42.641" lon="1.72171">
        <ele>2101</ele>
        <time>2020-08-25T08:10:51.010Z</time>
      </trkpt>
      <trkpt lat="42.64101" lon="1.72176">
        <ele>2101</ele>
        <time>2020-08-25T08:11:04.592Z</time>
      </trkpt>
      <trkpt lat="42.641" lon="1.72178">
        <ele>2101</ele>
        <time>2020-08-25T08:11:10.229Z</time>
      </trkpt>
      <trkpt lat="42.641" lon="1.7218">
        <ele>2101</ele>
        <time>2020-08-25T08:11:13.876Z</time>
      </trkpt>
      <trkpt lat="42.64098" lon="1.72182">
        <ele>2112</ele>
        <time>2020-08-25T08:11:18.639Z</time>
      </trkpt>
      <trkpt lat="42.641" lon="1.72186">
        <ele>2112</ele>
        <time>2020-08-25T08:11:23.648Z</time>
      </trkpt>
      <trkpt lat="42.64098" lon="1.72189">
        <ele>2112</ele>
        <time>2020-08-25T08:11:32.020Z</time>
      </trkpt>
      <trkpt lat="42.641" lon="1.72192">
        <ele>2112</ele>
        <time>2020-08-25T08:11:36.842Z</time>
      </trkpt>
      <trkpt lat="42.641" lon="1.72193">
        <ele>2112</ele>
        <time>2020-08-25T08:11:42.182Z</time>
      </trkpt>
      <trkpt lat="42.64098" lon="1.72199">
        <ele>2112</ele>
        <time>2020-08-25T08:11:47.876Z</time>
      </trkpt>
      <trkpt lat="42.64096" lon="1.72202">
        <ele>2097</ele>
        <time>2020-08-25T08:11:53.121Z</time>
      </trkpt>
      <trkpt lat="42.64095" lon="1.72208">
        <ele>2097</ele>
        <time>2020-08-25T08:11:57.826Z</time>
      </trkpt>
      <trkpt lat="42.64092" lon="1.72212">
        <ele>2108</ele>
        <time>2020-08-25T08:12:03.645Z</time>
      </trkpt>
      <trkpt lat="42.64093" lon="1.72216">
        <ele>2108</ele>
        <time>2020-08-25T08:12:11.635Z</time>
      </trkpt>
      <trkpt lat="42.64095" lon="1.72218">
        <ele>2108</ele>
        <time>2020-08-25T08:12:15.613Z</time>
      </trkpt>
      <trkpt lat="42.64094" lon="1.72222">
        <ele>2108</ele>
        <time>2020-08-25T08:12:20.746Z</time>
      </trkpt>
      <trkpt lat="42.64094" lon="1.72226">
        <ele>2108</ele>
        <time>2020-08-25T08:12:44.595Z</time>
      </trkpt>
      <trkpt lat="42.64094" lon="1.72226">
        <ele>2108</ele>
        <time>2020-08-25T08:12:48.825Z</time>
      </trkpt>
      <trkpt lat="42.64094" lon="1.72226">
        <ele>2108</ele>
        <time>2020-08-25T08:12:53.745Z</time>
      </trkpt>
      <trkpt lat="42.64091" lon="1.72232">
        <ele>2108</ele>
        <time>2020-08-25T08:12:59.241Z</time>
      </trkpt>
      <trkpt lat="42.6409" lon="1.72235">
        <ele>2108</ele>
        <time>2020-08-25T08:13:03.719Z</time>
      </trkpt>
      <trkpt lat="42.6409" lon="1.72242">
        <ele>2113</ele>
        <time>2020-08-25T08:13:12.017Z</time>
      </trkpt>
      <trkpt lat="42.64087" lon="1.72243">
        <ele>2113</ele>
        <time>2020-08-25T08:13:16.047Z</time>
      </trkpt>
      <trkpt lat="42.64085" lon="1.72244">
        <ele>2113</ele>
        <time>2020-08-25T08:13:20.975Z</time>
      </trkpt>
      <trkpt lat="42.64085" lon="1.72245">
        <ele>2113</ele>
        <time>2020-08-25T08:13:25.635Z</time>
      </trkpt>
      <trkpt lat="42.64081" lon="1.72244">
        <ele>2113</ele>
        <time>2020-08-25T08:13:30.637Z</time>
      </trkpt>
      <trkpt lat="42.64073" lon="1.72242">
        <ele>2113</ele>
        <time>2020-08-25T08:13:49.683Z</time>
      </trkpt>
      <trkpt lat="42.64073" lon="1.72245">
        <ele>2113</ele>
        <time>2020-08-25T08:13:53.782Z</time>
      </trkpt>
      <trkpt lat="42.64071" lon="1.72246">
        <ele>2113</ele>
        <time>2020-08-25T08:13:58.049Z</time>
      </trkpt>
      <trkpt lat="42.64071" lon="1.72245">
        <ele>2113</ele>
        <time>2020-08-25T08:14:05.032Z</time>
      </trkpt>
      <trkpt lat="42.64068" lon="1.72253">
        <ele>2112</ele>
        <time>2020-08-25T08:14:20.888Z</time>
      </trkpt>
      <trkpt lat="42.64067" lon="1.72253">
        <ele>2112</ele>
        <time>2020-08-25T08:14:24.936Z</time>
      </trkpt>
      <trkpt lat="42.64064" lon="1.72256">
        <ele>2112</ele>
        <time>2020-08-25T08:14:30.053Z</time>
      </trkpt>
      <trkpt lat="42.64061" lon="1.72256">
        <ele>2112</ele>
        <time>2020-08-25T08:14:34.064Z</time>
      </trkpt>
      <trkpt lat="42.64058" lon="1.72256">
        <ele>2112</ele>
        <time>2020-08-25T08:14:39.012Z</time>
      </trkpt>
      <trkpt lat="42.64054" lon="1.72255">
        <ele>2112</ele>
        <time>2020-08-25T08:14:45.636Z</time>
      </trkpt>
      <trkpt lat="42.64052" lon="1.7226">
        <ele>2112</ele>
        <time>2020-08-25T08:14:51.697Z</time>
      </trkpt>
      <trkpt lat="42.64048" lon="1.72259">
        <ele>2112</ele>
        <time>2020-08-25T08:14:55.853Z</time>
      </trkpt>
      <trkpt lat="42.64046" lon="1.72262">
        <ele>2112</ele>
        <time>2020-08-25T08:15:00.161Z</time>
      </trkpt>
      <trkpt lat="42.64042" lon="1.72264">
        <ele>2115</ele>
        <time>2020-08-25T08:15:15.044Z</time>
      </trkpt>
      <trkpt lat="42.6404" lon="1.72265">
        <ele>2115</ele>
        <time>2020-08-25T08:15:19.769Z</time>
      </trkpt>
      <trkpt lat="42.64037" lon="1.72268">
        <ele>2115</ele>
        <time>2020-08-25T08:15:24.241Z</time>
      </trkpt>
      <trkpt lat="42.64037" lon="1.72269">
        <ele>2115</ele>
        <time>2020-08-25T08:15:28.619Z</time>
      </trkpt>
      <trkpt lat="42.64035" lon="1.72271">
        <ele>2115</ele>
        <time>2020-08-25T08:15:32.696Z</time>
      </trkpt>
      <trkpt lat="42.64029" lon="1.72278">
        <ele>2115</ele>
        <time>2020-08-25T08:15:54.844Z</time>
      </trkpt>
      <trkpt lat="42.64026" lon="1.72281">
        <ele>2115</ele>
        <time>2020-08-25T08:16:04.590Z</time>
      </trkpt>
      <trkpt lat="42.64024" lon="1.72284">
        <ele>2115</ele>
        <time>2020-08-25T08:16:08.647Z</time>
      </trkpt>
      <trkpt lat="42.64023" lon="1.72287">
        <ele>2115</ele>
        <time>2020-08-25T08:16:12.258Z</time>
      </trkpt>
      <trkpt lat="42.64023" lon="1.72287">
        <ele>2115</ele>
        <time>2020-08-25T08:16:17.507Z</time>
      </trkpt>
      <trkpt lat="42.6402" lon="1.72291">
        <ele>2115</ele>
        <time>2020-08-25T08:16:26.580Z</time>
      </trkpt>
      <trkpt lat="42.64019" lon="1.72294">
        <ele>2129</ele>
        <time>2020-08-25T08:16:30.636Z</time>
      </trkpt>
      <trkpt lat="42.64018" lon="1.72296">
        <ele>2129</ele>
        <time>2020-08-25T08:16:35.631Z</time>
      </trkpt>
      <trkpt lat="42.64018" lon="1.72298">
        <ele>2129</ele>
        <time>2020-08-25T08:16:39.644Z</time>
      </trkpt>
      <trkpt lat="42.64017" lon="1.723">
        <ele>2129</ele>
        <time>2020-08-25T08:16:43.940Z</time>
      </trkpt>
      <trkpt lat="42.64016" lon="1.72302">
        <ele>2129</ele>
        <time>2020-08-25T08:16:48.665Z</time>
      </trkpt>
      <trkpt lat="42.64016" lon="1.72305">
        <ele>2129</ele>
        <time>2020-08-25T08:16:52.717Z</time>
      </trkpt>
      <trkpt lat="42.64016" lon="1.72307">
        <ele>2129</ele>
        <time>2020-08-25T08:16:58.096Z</time>
      </trkpt>
      <trkpt lat="42.64017" lon="1.72309">
        <ele>2129</ele>
        <time>2020-08-25T08:17:03.066Z</time>
      </trkpt>
      <trkpt lat="42.64013" lon="1.72315">
        <ele>2114</ele>
        <time>2020-08-25T08:17:17.884Z</time>
      </trkpt>
      <trkpt lat="42.64018" lon="1.72315">
        <ele>2129</ele>
        <time>2020-08-25T08:17:24.854Z</time>
      </trkpt>
      <trkpt lat="42.64014" lon="1.72319">
        <ele>2129</ele>
        <time>2020-08-25T08:17:29.926Z</time>
      </trkpt>
      <trkpt lat="42.64014" lon="1.7232">
        <ele>2124</ele>
        <time>2020-08-25T08:17:34.234Z</time>
      </trkpt>
      <trkpt lat="42.64012" lon="1.72323">
        <ele>2124</ele>
        <time>2020-08-25T08:17:37.991Z</time>
      </trkpt>
      <trkpt lat="42.64011" lon="1.72323">
        <ele>2124</ele>
        <time>2020-08-25T08:17:42.284Z</time>
      </trkpt>
      <trkpt lat="42.64008" lon="1.72327">
        <ele>2124</ele>
        <time>2020-08-25T08:17:51.833Z</time>
      </trkpt>
      <trkpt lat="42.64007" lon="1.7233">
        <ele>2124</ele>
        <time>2020-08-25T08:17:55.855Z</time>
      </trkpt>
      <trkpt lat="42.64008" lon="1.72332">
        <ele>2124</ele>
        <time>2020-08-25T08:18:00.642Z</time>
      </trkpt>
      <trkpt lat="42.64009" lon="1.72333">
        <ele>2124</ele>
        <time>2020-08-25T08:18:08.301Z</time>
      </trkpt>
      <trkpt lat="42.64008" lon="1.72338">
        <ele>2124</ele>
        <time>2020-08-25T08:18:12.887Z</time>
      </trkpt>
      <trkpt lat="42.64008" lon="1.72339">
        <ele>2124</ele>
        <time>2020-08-25T08:18:14.933Z</time>
      </trkpt>
      <trkpt lat="42.64003" lon="1.72344">
        <ele>2124</ele>
        <time>2020-08-25T08:18:23.881Z</time>
      </trkpt>
      <trkpt lat="42.64002" lon="1.72348">
        <ele>2133</ele>
        <time>2020-08-25T08:18:29.647Z</time>
      </trkpt>
      <trkpt lat="42.64003" lon="1.7235">
        <ele>2133</ele>
        <time>2020-08-25T08:18:36.993Z</time>
      </trkpt>
      <trkpt lat="42.64001" lon="1.72354">
        <ele>2133</ele>
        <time>2020-08-25T08:18:55.456Z</time>
      </trkpt>
      <trkpt lat="42.64" lon="1.72357">
        <ele>2133</ele>
        <time>2020-08-25T08:18:59.592Z</time>
      </trkpt>
      <trkpt lat="42.63999" lon="1.7236">
        <ele>2133</ele>
        <time>2020-08-25T08:19:06.713Z</time>
      </trkpt>
      <trkpt lat="42.63998" lon="1.72362">
        <ele>2133</ele>
        <time>2020-08-25T08:19:12.029Z</time>
      </trkpt>
      <trkpt lat="42.63997" lon="1.72365">
        <ele>2133</ele>
        <time>2020-08-25T08:19:16.468Z</time>
      </trkpt>
      <trkpt lat="42.63997" lon="1.72368">
        <ele>2133</ele>
        <time>2020-08-25T08:19:25.123Z</time>
      </trkpt>
      <trkpt lat="42.63997" lon="1.72369">
        <ele>2133</ele>
        <time>2020-08-25T08:19:30.784Z</time>
      </trkpt>
      <trkpt lat="42.63997" lon="1.72372">
        <ele>2133</ele>
        <time>2020-08-25T08:19:34.687Z</time>
      </trkpt>
      <trkpt lat="42.63993" lon="1.72377">
        <ele>2143</ele>
        <time>2020-08-25T08:19:39.641Z</time>
      </trkpt>
      <trkpt lat="42.63991" lon="1.7238">
        <ele>2143</ele>
        <time>2020-08-25T08:19:44.158Z</time>
      </trkpt>
      <trkpt lat="42.63993" lon="1.72387">
        <ele>2143</ele>
        <time>2020-08-25T08:20:03.670Z</time>
      </trkpt>
      <trkpt lat="42.63992" lon="1.72389">
        <ele>2143</ele>
        <time>2020-08-25T08:20:08.646Z</time>
      </trkpt>
      <trkpt lat="42.63992" lon="1.7239">
        <ele>2143</ele>
        <time>2020-08-25T08:20:13.234Z</time>
      </trkpt>
      <trkpt lat="42.6399" lon="1.72392">
        <ele>2143</ele>
        <time>2020-08-25T08:20:19.873Z</time>
      </trkpt>
      <trkpt lat="42.63988" lon="1.724">
        <ele>2143</ele>
        <time>2020-08-25T08:20:28.958Z</time>
      </trkpt>
      <trkpt lat="42.63985" lon="1.72407">
        <ele>2143</ele>
        <time>2020-08-25T08:20:39.417Z</time>
      </trkpt>
      <trkpt lat="42.63985" lon="1.72409">
        <ele>2143</ele>
        <time>2020-08-25T08:20:44.652Z</time>
      </trkpt>
      <trkpt lat="42.63986" lon="1.72412">
        <ele>2143</ele>
        <time>2020-08-25T08:20:49.652Z</time>
      </trkpt>
      <trkpt lat="42.63986" lon="1.72415">
        <ele>2143</ele>
        <time>2020-08-25T08:20:54.649Z</time>
      </trkpt>
      <trkpt lat="42.63986" lon="1.72419">
        <ele>2143</ele>
        <time>2020-08-25T08:20:59.251Z</time>
      </trkpt>
      <trkpt lat="42.63984" lon="1.72423">
        <ele>2143</ele>
        <time>2020-08-25T08:21:05.324Z</time>
      </trkpt>
      <trkpt lat="42.63983" lon="1.72426">
        <ele>2143</ele>
        <time>2020-08-25T08:21:09.166Z</time>
      </trkpt>
      <trkpt lat="42.63982" lon="1.72429">
        <ele>2143</ele>
        <time>2020-08-25T08:21:14.041Z</time>
      </trkpt>
      <trkpt lat="42.6398" lon="1.72431">
        <ele>2155</ele>
        <time>2020-08-25T08:21:18.635Z</time>
      </trkpt>
      <trkpt lat="42.63981" lon="1.72434">
        <ele>2155</ele>
        <time>2020-08-25T08:21:23.617Z</time>
      </trkpt>
      <trkpt lat="42.63983" lon="1.7244">
        <ele>2155</ele>
        <time>2020-08-25T08:21:33.054Z</time>
      </trkpt>
      <trkpt lat="42.63981" lon="1.72442">
        <ele>2155</ele>
        <time>2020-08-25T08:21:37.442Z</time>
      </trkpt>
      <trkpt lat="42.63982" lon="1.72444">
        <ele>2155</ele>
        <time>2020-08-25T08:21:41.641Z</time>
      </trkpt>
      <trkpt lat="42.63981" lon="1.72448">
        <ele>2155</ele>
        <time>2020-08-25T08:21:49.737Z</time>
      </trkpt>
      <trkpt lat="42.63981" lon="1.7245">
        <ele>2155</ele>
        <time>2020-08-25T08:21:54.727Z</time>
      </trkpt>
      <trkpt lat="42.63984" lon="1.72451">
        <ele>2155</ele>
        <time>2020-08-25T08:22:08.734Z</time>
      </trkpt>
      <trkpt lat="42.63987" lon="1.72449">
        <ele>2163</ele>
        <time>2020-08-25T08:22:18.692Z</time>
      </trkpt>
      <trkpt lat="42.63988" lon="1.72453">
        <ele>2163</ele>
        <time>2020-08-25T08:22:23.617Z</time>
      </trkpt>
      <trkpt lat="42.63989" lon="1.72455">
        <ele>2163</ele>
        <time>2020-08-25T08:22:28.639Z</time>
      </trkpt>
      <trkpt lat="42.63988" lon="1.72461">
        <ele>2173</ele>
        <time>2020-08-25T08:22:38.067Z</time>
      </trkpt>
      <trkpt lat="42.63988" lon="1.72468">
        <ele>2173</ele>
        <time>2020-08-25T08:22:53.850Z</time>
      </trkpt>
      <trkpt lat="42.6399" lon="1.7247">
        <ele>2173</ele>
        <time>2020-08-25T08:22:58.063Z</time>
      </trkpt>
      <trkpt lat="42.6399" lon="1.72471">
        <ele>2173</ele>
        <time>2020-08-25T08:23:02.651Z</time>
      </trkpt>
      <trkpt lat="42.63993" lon="1.72474">
        <ele>2173</ele>
        <time>2020-08-25T08:23:10.888Z</time>
      </trkpt>
      <trkpt lat="42.63995" lon="1.72474">
        <ele>2173</ele>
        <time>2020-08-25T08:23:19.683Z</time>
      </trkpt>
      <trkpt lat="42.63995" lon="1.72474">
        <ele>2173</ele>
        <time>2020-08-25T08:24:03.636Z</time>
      </trkpt>
      <trkpt lat="42.63995" lon="1.72474">
        <ele>2173</ele>
        <time>2020-08-25T08:24:12.975Z</time>
      </trkpt>
      <trkpt lat="42.63995" lon="1.72474">
        <ele>2173</ele>
        <time>2020-08-25T08:24:17.357Z</time>
      </trkpt>
      <trkpt lat="42.63991" lon="1.7248">
        <ele>2173</ele>
        <time>2020-08-25T08:24:21.814Z</time>
      </trkpt>
      <trkpt lat="42.63984" lon="1.72492">
        <ele>2178</ele>
        <time>2020-08-25T08:24:31.838Z</time>
      </trkpt>
      <trkpt lat="42.63981" lon="1.72496">
        <ele>2178</ele>
        <time>2020-08-25T08:24:35.925Z</time>
      </trkpt>
      <trkpt lat="42.6398" lon="1.72501">
        <ele>2178</ele>
        <time>2020-08-25T08:24:40.202Z</time>
      </trkpt>
      <trkpt lat="42.6398" lon="1.72506">
        <ele>2178</ele>
        <time>2020-08-25T08:24:44.593Z</time>
      </trkpt>
      <trkpt lat="42.63977" lon="1.72512">
        <ele>2178</ele>
        <time>2020-08-25T08:24:49.084Z</time>
      </trkpt>
      <trkpt lat="42.6397" lon="1.72518">
        <ele>2190</ele>
        <time>2020-08-25T08:24:53.599Z</time>
      </trkpt>
      <trkpt lat="42.63967" lon="1.72524">
        <ele>2190</ele>
        <time>2020-08-25T08:24:58.589Z</time>
      </trkpt>
      <trkpt lat="42.63965" lon="1.72528">
        <ele>2190</ele>
        <time>2020-08-25T08:25:03.620Z</time>
      </trkpt>
      <trkpt lat="42.63963" lon="1.72531">
        <ele>2190</ele>
        <time>2020-08-25T08:25:08.626Z</time>
      </trkpt>
      <trkpt lat="42.63959" lon="1.72536">
        <ele>2190</ele>
        <time>2020-08-25T08:25:13.655Z</time>
      </trkpt>
      <trkpt lat="42.63956" lon="1.7254">
        <ele>2179</ele>
        <time>2020-08-25T08:25:18.594Z</time>
      </trkpt>
      <trkpt lat="42.63954" lon="1.72542">
        <ele>2186</ele>
        <time>2020-08-25T08:25:22.590Z</time>
      </trkpt>
      <trkpt lat="42.63952" lon="1.72544">
        <ele>2186</ele>
        <time>2020-08-25T08:25:26.743Z</time>
      </trkpt>
      <trkpt lat="42.6395" lon="1.7255">
        <ele>2186</ele>
        <time>2020-08-25T08:25:31.613Z</time>
      </trkpt>
      <trkpt lat="42.63948" lon="1.72551">
        <ele>2186</ele>
        <time>2020-08-25T08:25:35.646Z</time>
      </trkpt>
      <trkpt lat="42.63945" lon="1.72555">
        <ele>2186</ele>
        <time>2020-08-25T08:25:40.639Z</time>
      </trkpt>
      <trkpt lat="42.63943" lon="1.72561">
        <ele>2186</ele>
        <time>2020-08-25T08:25:46.199Z</time>
      </trkpt>
      <trkpt lat="42.63938" lon="1.72561">
        <ele>2186</ele>
        <time>2020-08-25T08:25:51.032Z</time>
      </trkpt>
      <trkpt lat="42.63933" lon="1.72562">
        <ele>2186</ele>
        <time>2020-08-25T08:25:56.166Z</time>
      </trkpt>
      <trkpt lat="42.63927" lon="1.72562">
        <ele>2184</ele>
        <time>2020-08-25T08:26:03.331Z</time>
      </trkpt>
      <trkpt lat="42.63923" lon="1.72566">
        <ele>2184</ele>
        <time>2020-08-25T08:26:07.653Z</time>
      </trkpt>
      <trkpt lat="42.6392" lon="1.72569">
        <ele>2184</ele>
        <time>2020-08-25T08:27:24.110Z</time>
      </trkpt>
      <trkpt lat="42.63916" lon="1.72568">
        <ele>2184</ele>
        <time>2020-08-25T08:27:31.764Z</time>
      </trkpt>
      <trkpt lat="42.63913" lon="1.7257">
        <ele>2186</ele>
        <time>2020-08-25T08:27:36.180Z</time>
      </trkpt>
      <trkpt lat="42.63908" lon="1.72572">
        <ele>2186</ele>
        <time>2020-08-25T08:27:41.996Z</time>
      </trkpt>
      <trkpt lat="42.639" lon="1.72573">
        <ele>2188</ele>
        <time>2020-08-25T08:27:50.971Z</time>
      </trkpt>
      <trkpt lat="42.63896" lon="1.72573">
        <ele>2188</ele>
        <time>2020-08-25T08:27:55.830Z</time>
      </trkpt>
      <trkpt lat="42.63893" lon="1.72572">
        <ele>2188</ele>
        <time>2020-08-25T08:27:59.953Z</time>
      </trkpt>
      <trkpt lat="42.63889" lon="1.72572">
        <ele>2188</ele>
        <time>2020-08-25T08:28:04.664Z</time>
      </trkpt>
      <trkpt lat="42.63881" lon="1.72572">
        <ele>2188</ele>
        <time>2020-08-25T08:28:13.743Z</time>
      </trkpt>
      <trkpt lat="42.63877" lon="1.72575">
        <ele>2188</ele>
        <time>2020-08-25T08:28:17.973Z</time>
      </trkpt>
      <trkpt lat="42.63874" lon="1.72576">
        <ele>2188</ele>
        <time>2020-08-25T08:28:22.082Z</time>
      </trkpt>
      <trkpt lat="42.63869" lon="1.72578">
        <ele>2188</ele>
        <time>2020-08-25T08:28:26.588Z</time>
      </trkpt>
      <trkpt lat="42.63864" lon="1.72578">
        <ele>2188</ele>
        <time>2020-08-25T08:28:31.872Z</time>
      </trkpt>
      <trkpt lat="42.63857" lon="1.7258">
        <ele>2188</ele>
        <time>2020-08-25T08:28:37.773Z</time>
      </trkpt>
      <trkpt lat="42.63851" lon="1.72579">
        <ele>2188</ele>
        <time>2020-08-25T08:28:45.513Z</time>
      </trkpt>
      <trkpt lat="42.63845" lon="1.72577">
        <ele>2190</ele>
        <time>2020-08-25T08:28:49.641Z</time>
      </trkpt>
      <trkpt lat="42.6384" lon="1.72576">
        <ele>2190</ele>
        <time>2020-08-25T08:28:54.758Z</time>
      </trkpt>
      <trkpt lat="42.63835" lon="1.72575">
        <ele>2190</ele>
        <time>2020-08-25T08:29:00.180Z</time>
      </trkpt>
      <trkpt lat="42.63832" lon="1.72575">
        <ele>2190</ele>
        <time>2020-08-25T08:29:02.860Z</time>
      </trkpt>
      <trkpt lat="42.63825" lon="1.72572">
        <ele>2190</ele>
        <time>2020-08-25T08:29:08.635Z</time>
      </trkpt>
      <trkpt lat="42.6382" lon="1.72571">
        <ele>2190</ele>
        <time>2020-08-25T08:29:12.656Z</time>
      </trkpt>
      <trkpt lat="42.63815" lon="1.72571">
        <ele>2193</ele>
        <time>2020-08-25T08:29:17.617Z</time>
      </trkpt>
      <trkpt lat="42.6381" lon="1.72564">
        <ele>2188</ele>
        <time>2020-08-25T08:29:24.740Z</time>
      </trkpt>
      <trkpt lat="42.63806" lon="1.72566">
        <ele>2188</ele>
        <time>2020-08-25T08:29:29.775Z</time>
      </trkpt>
      <trkpt lat="42.63805" lon="1.7257">
        <ele>2193</ele>
        <time>2020-08-25T08:29:35.134Z</time>
      </trkpt>
      <trkpt lat="42.63803" lon="1.72574">
        <ele>2193</ele>
        <time>2020-08-25T08:29:40.139Z</time>
      </trkpt>
      <trkpt lat="42.63802" lon="1.72579">
        <ele>2193</ele>
        <time>2020-08-25T08:29:43.874Z</time>
      </trkpt>
      <trkpt lat="42.63801" lon="1.72584">
        <ele>2193</ele>
        <time>2020-08-25T08:29:48.587Z</time>
      </trkpt>
      <trkpt lat="42.638" lon="1.72589">
        <ele>2193</ele>
        <time>2020-08-25T08:29:52.803Z</time>
      </trkpt>
      <trkpt lat="42.63798" lon="1.72591">
        <ele>2193</ele>
        <time>2020-08-25T08:31:15.748Z</time>
      </trkpt>
      <trkpt lat="42.63799" lon="1.72594">
        <ele>2193</ele>
        <time>2020-08-25T08:31:22.245Z</time>
      </trkpt>
      <trkpt lat="42.63799" lon="1.72595">
        <ele>2193</ele>
        <time>2020-08-25T08:31:26.608Z</time>
      </trkpt>
      <trkpt lat="42.63794" lon="1.72609">
        <ele>2193</ele>
        <time>2020-08-25T08:31:40.729Z</time>
      </trkpt>
      <trkpt lat="42.63793" lon="1.72616">
        <ele>2193</ele>
        <time>2020-08-25T08:31:44.852Z</time>
      </trkpt>
      <trkpt lat="42.63791" lon="1.72622">
        <ele>2192</ele>
        <time>2020-08-25T08:31:49.592Z</time>
      </trkpt>
      <trkpt lat="42.63791" lon="1.72625">
        <ele>2192</ele>
        <time>2020-08-25T08:31:53.281Z</time>
      </trkpt>
      <trkpt lat="42.6379" lon="1.72631">
        <ele>2195</ele>
        <time>2020-08-25T08:31:58.934Z</time>
      </trkpt>
      <trkpt lat="42.63789" lon="1.72638">
        <ele>2195</ele>
        <time>2020-08-25T08:32:04.994Z</time>
      </trkpt>
      <trkpt lat="42.63787" lon="1.72643">
        <ele>2195</ele>
        <time>2020-08-25T08:32:09.628Z</time>
      </trkpt>
      <trkpt lat="42.63786" lon="1.72649">
        <ele>2195</ele>
        <time>2020-08-25T08:32:14.625Z</time>
      </trkpt>
      <trkpt lat="42.63786" lon="1.72652">
        <ele>2195</ele>
        <time>2020-08-25T08:32:18.646Z</time>
      </trkpt>
      <trkpt lat="42.63785" lon="1.72655">
        <ele>2198</ele>
        <time>2020-08-25T08:32:23.643Z</time>
      </trkpt>
      <trkpt lat="42.63784" lon="1.72659">
        <ele>2198</ele>
        <time>2020-08-25T08:32:27.626Z</time>
      </trkpt>
      <trkpt lat="42.63782" lon="1.72667">
        <ele>2198</ele>
        <time>2020-08-25T08:32:38.296Z</time>
      </trkpt>
      <trkpt lat="42.63781" lon="1.72669">
        <ele>2198</ele>
        <time>2020-08-25T08:32:43.259Z</time>
      </trkpt>
      <trkpt lat="42.63784" lon="1.72679">
        <ele>2198</ele>
        <time>2020-08-25T08:32:51.603Z</time>
      </trkpt>
      <trkpt lat="42.63779" lon="1.72679">
        <ele>2198</ele>
        <time>2020-08-25T08:33:10.643Z</time>
      </trkpt>
      <trkpt lat="42.63776" lon="1.72685">
        <ele>2201</ele>
        <time>2020-08-25T08:33:14.952Z</time>
      </trkpt>
      <trkpt lat="42.63774" lon="1.7269">
        <ele>2201</ele>
        <time>2020-08-25T08:33:20.001Z</time>
      </trkpt>
      <trkpt lat="42.63773" lon="1.72698">
        <ele>2201</ele>
        <time>2020-08-25T08:33:25.124Z</time>
      </trkpt>
      <trkpt lat="42.63772" lon="1.72703">
        <ele>2201</ele>
        <time>2020-08-25T08:33:29.750Z</time>
      </trkpt>
      <trkpt lat="42.6377" lon="1.72713">
        <ele>2205</ele>
        <time>2020-08-25T08:33:38.099Z</time>
      </trkpt>
      <trkpt lat="42.6377" lon="1.72719">
        <ele>2205</ele>
        <time>2020-08-25T08:33:43.361Z</time>
      </trkpt>
      <trkpt lat="42.63768" lon="1.72725">
        <ele>2205</ele>
        <time>2020-08-25T08:33:47.674Z</time>
      </trkpt>
      <trkpt lat="42.63767" lon="1.72731">
        <ele>2205</ele>
        <time>2020-08-25T08:33:53.623Z</time>
      </trkpt>
      <trkpt lat="42.63769" lon="1.7274">
        <ele>2209</ele>
        <time>2020-08-25T08:34:00.064Z</time>
      </trkpt>
      <trkpt lat="42.63767" lon="1.72746">
        <ele>2209</ele>
        <time>2020-08-25T08:34:04.813Z</time>
      </trkpt>
      <trkpt lat="42.63768" lon="1.72751">
        <ele>2209</ele>
        <time>2020-08-25T08:34:10.051Z</time>
      </trkpt>
      <trkpt lat="42.63764" lon="1.72764">
        <ele>2208</ele>
        <time>2020-08-25T08:34:18.779Z</time>
      </trkpt>
      <trkpt lat="42.63761" lon="1.72773">
        <ele>2211</ele>
        <time>2020-08-25T08:34:22.921Z</time>
      </trkpt>
      <trkpt lat="42.63765" lon="1.72776">
        <ele>2213</ele>
        <time>2020-08-25T08:34:27.620Z</time>
      </trkpt>
      <trkpt lat="42.63761" lon="1.72783">
        <ele>2211</ele>
        <time>2020-08-25T08:34:33.306Z</time>
      </trkpt>
      <trkpt lat="42.63758" lon="1.72795">
        <ele>2211</ele>
        <time>2020-08-25T08:34:37.880Z</time>
      </trkpt>
      <trkpt lat="42.63765" lon="1.72797">
        <ele>2214</ele>
        <time>2020-08-25T08:34:42.879Z</time>
      </trkpt>
      <trkpt lat="42.63767" lon="1.72806">
        <ele>2214</ele>
        <time>2020-08-25T08:34:49.967Z</time>
      </trkpt>
      <trkpt lat="42.63767" lon="1.72811">
        <ele>2214</ele>
        <time>2020-08-25T08:34:54.243Z</time>
      </trkpt>
      <trkpt lat="42.63766" lon="1.72819">
        <ele>2214</ele>
        <time>2020-08-25T08:34:58.873Z</time>
      </trkpt>
      <trkpt lat="42.63767" lon="1.72826">
        <ele>2213</ele>
        <time>2020-08-25T08:35:04.120Z</time>
      </trkpt>
      <trkpt lat="42.63767" lon="1.72832">
        <ele>2213</ele>
        <time>2020-08-25T08:35:08.443Z</time>
      </trkpt>
      <trkpt lat="42.63767" lon="1.72839">
        <ele>2213</ele>
        <time>2020-08-25T08:35:13.283Z</time>
      </trkpt>
      <trkpt lat="42.63769" lon="1.72846">
        <ele>2213</ele>
        <time>2020-08-25T08:35:17.615Z</time>
      </trkpt>
      <trkpt lat="42.6377" lon="1.72851">
        <ele>2213</ele>
        <time>2020-08-25T08:35:21.653Z</time>
      </trkpt>
      <trkpt lat="42.63771" lon="1.72857">
        <ele>2213</ele>
        <time>2020-08-25T08:35:26.653Z</time>
      </trkpt>
      <trkpt lat="42.63774" lon="1.72871">
        <ele>2213</ele>
        <time>2020-08-25T08:35:38.947Z</time>
      </trkpt>
      <trkpt lat="42.63777" lon="1.72877">
        <ele>2216</ele>
        <time>2020-08-25T08:35:43.196Z</time>
      </trkpt>
      <trkpt lat="42.63777" lon="1.72881">
        <ele>2216</ele>
        <time>2020-08-25T08:35:45.796Z</time>
      </trkpt>
      <trkpt lat="42.63778" lon="1.72892">
        <ele>2216</ele>
        <time>2020-08-25T08:35:53.760Z</time>
      </trkpt>
      <trkpt lat="42.63779" lon="1.72899">
        <ele>2216</ele>
        <time>2020-08-25T08:35:59.181Z</time>
      </trkpt>
      <trkpt lat="42.63784" lon="1.72908">
        <ele>2218</ele>
        <time>2020-08-25T08:36:04.825Z</time>
      </trkpt>
      <trkpt lat="42.63786" lon="1.72914">
        <ele>2218</ele>
        <time>2020-08-25T08:36:10.107Z</time>
      </trkpt>
      <trkpt lat="42.63787" lon="1.72919">
        <ele>2218</ele>
        <time>2020-08-25T08:36:14.847Z</time>
      </trkpt>
      <trkpt lat="42.63788" lon="1.72926">
        <ele>2218</ele>
        <time>2020-08-25T08:36:19.646Z</time>
      </trkpt>
      <trkpt lat="42.63786" lon="1.72932">
        <ele>2218</ele>
        <time>2020-08-25T08:36:24.372Z</time>
      </trkpt>
      <trkpt lat="42.63786" lon="1.72939">
        <ele>2218</ele>
        <time>2020-08-25T08:36:28.928Z</time>
      </trkpt>
      <trkpt lat="42.63786" lon="1.72946">
        <ele>2218</ele>
        <time>2020-08-25T08:36:33.939Z</time>
      </trkpt>
      <trkpt lat="42.63787" lon="1.72954">
        <ele>2218</ele>
        <time>2020-08-25T08:36:39.701Z</time>
      </trkpt>
      <trkpt lat="42.63788" lon="1.72961">
        <ele>2218</ele>
        <time>2020-08-25T08:36:44.731Z</time>
      </trkpt>
      <trkpt lat="42.6379" lon="1.72968">
        <ele>2218</ele>
        <time>2020-08-25T08:36:49.627Z</time>
      </trkpt>
      <trkpt lat="42.63792" lon="1.72973">
        <ele>2222</ele>
        <time>2020-08-25T08:36:53.926Z</time>
      </trkpt>
      <trkpt lat="42.63793" lon="1.72978">
        <ele>2222</ele>
        <time>2020-08-25T08:36:58.980Z</time>
      </trkpt>
      <trkpt lat="42.63794" lon="1.72983">
        <ele>2222</ele>
        <time>2020-08-25T08:37:03.326Z</time>
      </trkpt>
      <trkpt lat="42.63794" lon="1.72992">
        <ele>2223</ele>
        <time>2020-08-25T08:37:10.088Z</time>
      </trkpt>
      <trkpt lat="42.63795" lon="1.73">
        <ele>2223</ele>
        <time>2020-08-25T08:37:15.039Z</time>
      </trkpt>
      <trkpt lat="42.63794" lon="1.73009">
        <ele>2223</ele>
        <time>2020-08-25T08:37:20.678Z</time>
      </trkpt>
      <trkpt lat="42.63792" lon="1.73015">
        <ele>2219</ele>
        <time>2020-08-25T08:37:26.310Z</time>
      </trkpt>
      <trkpt lat="42.63793" lon="1.73019">
        <ele>2224</ele>
        <time>2020-08-25T08:37:30.240Z</time>
      </trkpt>
      <trkpt lat="42.63794" lon="1.73026">
        <ele>2224</ele>
        <time>2020-08-25T08:37:34.905Z</time>
      </trkpt>
      <trkpt lat="42.63794" lon="1.73032">
        <ele>2224</ele>
        <time>2020-08-25T08:37:39.631Z</time>
      </trkpt>
      <trkpt lat="42.63792" lon="1.73039">
        <ele>2224</ele>
        <time>2020-08-25T08:37:45.374Z</time>
      </trkpt>
      <trkpt lat="42.63796" lon="1.73046">
        <ele>2227</ele>
        <time>2020-08-25T08:37:49.271Z</time>
      </trkpt>
      <trkpt lat="42.63797" lon="1.73055">
        <ele>2227</ele>
        <time>2020-08-25T08:37:55.738Z</time>
      </trkpt>
      <trkpt lat="42.638" lon="1.73061">
        <ele>2227</ele>
        <time>2020-08-25T08:38:00.080Z</time>
      </trkpt>
      <trkpt lat="42.63798" lon="1.73066">
        <ele>2227</ele>
        <time>2020-08-25T08:38:04.464Z</time>
      </trkpt>
      <trkpt lat="42.63798" lon="1.73079">
        <ele>2231</ele>
        <time>2020-08-25T08:38:15.051Z</time>
      </trkpt>
      <trkpt lat="42.63801" lon="1.73084">
        <ele>2231</ele>
        <time>2020-08-25T08:38:19.749Z</time>
      </trkpt>
      <trkpt lat="42.63801" lon="1.73087">
        <ele>2231</ele>
        <time>2020-08-25T08:38:23.802Z</time>
      </trkpt>
      <trkpt lat="42.63802" lon="1.73094">
        <ele>2231</ele>
        <time>2020-08-25T08:38:28.642Z</time>
      </trkpt>
      <trkpt lat="42.63802" lon="1.731">
        <ele>2233</ele>
        <time>2020-08-25T08:38:33.632Z</time>
      </trkpt>
      <trkpt lat="42.63803" lon="1.73105">
        <ele>2233</ele>
        <time>2020-08-25T08:38:37.649Z</time>
      </trkpt>
      <trkpt lat="42.63805" lon="1.73109">
        <ele>2233</ele>
        <time>2020-08-25T08:38:42.430Z</time>
      </trkpt>
      <trkpt lat="42.63807" lon="1.73114">
        <ele>2233</ele>
        <time>2020-08-25T08:38:46.627Z</time>
      </trkpt>
      <trkpt lat="42.63808" lon="1.73118">
        <ele>2233</ele>
        <time>2020-08-25T08:38:51.027Z</time>
      </trkpt>
      <trkpt lat="42.6381" lon="1.73128">
        <ele>2236</ele>
        <time>2020-08-25T08:39:00.106Z</time>
      </trkpt>
      <trkpt lat="42.63812" lon="1.73133">
        <ele>2236</ele>
        <time>2020-08-25T08:39:04.840Z</time>
      </trkpt>
      <trkpt lat="42.63813" lon="1.73138">
        <ele>2236</ele>
        <time>2020-08-25T08:39:09.017Z</time>
      </trkpt>
      <trkpt lat="42.6381" lon="1.73143">
        <ele>2236</ele>
        <time>2020-08-25T08:39:13.094Z</time>
      </trkpt>
      <trkpt lat="42.6381" lon="1.7315">
        <ele>2236</ele>
        <time>2020-08-25T08:39:17.921Z</time>
      </trkpt>
      <trkpt lat="42.63808" lon="1.73156">
        <ele>2238</ele>
        <time>2020-08-25T08:39:22.759Z</time>
      </trkpt>
      <trkpt lat="42.63806" lon="1.73161">
        <ele>2238</ele>
        <time>2020-08-25T08:39:26.965Z</time>
      </trkpt>
      <trkpt lat="42.63805" lon="1.73166">
        <ele>2238</ele>
        <time>2020-08-25T08:39:30.697Z</time>
      </trkpt>
      <trkpt lat="42.63806" lon="1.73171">
        <ele>2238</ele>
        <time>2020-08-25T08:39:35.118Z</time>
      </trkpt>
      <trkpt lat="42.63805" lon="1.73177">
        <ele>2238</ele>
        <time>2020-08-25T08:39:40.086Z</time>
      </trkpt>
      <trkpt lat="42.63806" lon="1.73185">
        <ele>2239</ele>
        <time>2020-08-25T08:39:45.702Z</time>
      </trkpt>
      <trkpt lat="42.63807" lon="1.73191">
        <ele>2239</ele>
        <time>2020-08-25T08:39:50.717Z</time>
      </trkpt>
      <trkpt lat="42.63807" lon="1.73197">
        <ele>2239</ele>
        <time>2020-08-25T08:39:55.876Z</time>
      </trkpt>
      <trkpt lat="42.63807" lon="1.73202">
        <ele>2239</ele>
        <time>2020-08-25T08:40:00.024Z</time>
      </trkpt>
      <trkpt lat="42.63807" lon="1.73207">
        <ele>2239</ele>
        <time>2020-08-25T08:40:04.638Z</time>
      </trkpt>
      <trkpt lat="42.63806" lon="1.73215">
        <ele>2241</ele>
        <time>2020-08-25T08:40:09.588Z</time>
      </trkpt>
      <trkpt lat="42.63807" lon="1.73222">
        <ele>2241</ele>
        <time>2020-08-25T08:40:15.587Z</time>
      </trkpt>
      <trkpt lat="42.63808" lon="1.73226">
        <ele>2241</ele>
        <time>2020-08-25T08:40:19.598Z</time>
      </trkpt>
      <trkpt lat="42.63808" lon="1.73231">
        <ele>2241</ele>
        <time>2020-08-25T08:40:24.758Z</time>
      </trkpt>
      <trkpt lat="42.6381" lon="1.73258">
        <ele>2243</ele>
        <time>2020-08-25T08:40:55.819Z</time>
      </trkpt>
      <trkpt lat="42.63811" lon="1.73259">
        <ele>2243</ele>
        <time>2020-08-25T08:40:59.940Z</time>
      </trkpt>
      <trkpt lat="42.63811" lon="1.73266">
        <ele>2247</ele>
        <time>2020-08-25T08:41:05.143Z</time>
      </trkpt>
      <trkpt lat="42.63812" lon="1.7327">
        <ele>2247</ele>
        <time>2020-08-25T08:41:09.372Z</time>
      </trkpt>
      <trkpt lat="42.6381" lon="1.73275">
        <ele>2247</ele>
        <time>2020-08-25T08:41:14.015Z</time>
      </trkpt>
      <trkpt lat="42.63809" lon="1.73282">
        <ele>2247</ele>
        <time>2020-08-25T08:41:21.768Z</time>
      </trkpt>
      <trkpt lat="42.63808" lon="1.73287">
        <ele>2247</ele>
        <time>2020-08-25T08:41:25.804Z</time>
      </trkpt>
      <trkpt lat="42.63806" lon="1.73292">
        <ele>2251</ele>
        <time>2020-08-25T08:41:30.731Z</time>
      </trkpt>
      <trkpt lat="42.63806" lon="1.73296">
        <ele>2251</ele>
        <time>2020-08-25T08:41:35.588Z</time>
      </trkpt>
      <trkpt lat="42.63808" lon="1.733">
        <ele>2251</ele>
        <time>2020-08-25T08:41:40.619Z</time>
      </trkpt>
      <trkpt lat="42.63808" lon="1.73304">
        <ele>2251</ele>
        <time>2020-08-25T08:41:48.497Z</time>
      </trkpt>
      <trkpt lat="42.63808" lon="1.73314">
        <ele>2251</ele>
        <time>2020-08-25T08:41:58.761Z</time>
      </trkpt>
      <trkpt lat="42.63807" lon="1.73317">
        <ele>2251</ele>
        <time>2020-08-25T08:42:02.974Z</time>
      </trkpt>
      <trkpt lat="42.6381" lon="1.7332">
        <ele>2256</ele>
        <time>2020-08-25T08:42:07.320Z</time>
      </trkpt>
      <trkpt lat="42.63809" lon="1.73324">
        <ele>2256</ele>
        <time>2020-08-25T08:42:12.413Z</time>
      </trkpt>
      <trkpt lat="42.63808" lon="1.7333">
        <ele>2256</ele>
        <time>2020-08-25T08:42:20.190Z</time>
      </trkpt>
      <trkpt lat="42.63808" lon="1.73334">
        <ele>2256</ele>
        <time>2020-08-25T08:42:25.650Z</time>
      </trkpt>
      <trkpt lat="42.63806" lon="1.73337">
        <ele>2256</ele>
        <time>2020-08-25T08:42:29.849Z</time>
      </trkpt>
      <trkpt lat="42.63805" lon="1.7334">
        <ele>2256</ele>
        <time>2020-08-25T08:42:34.862Z</time>
      </trkpt>
      <trkpt lat="42.63805" lon="1.73344">
        <ele>2256</ele>
        <time>2020-08-25T08:42:39.261Z</time>
      </trkpt>
      <trkpt lat="42.63805" lon="1.73349">
        <ele>2262</ele>
        <time>2020-08-25T08:42:43.723Z</time>
      </trkpt>
      <trkpt lat="42.63804" lon="1.73354">
        <ele>2262</ele>
        <time>2020-08-25T08:42:51.756Z</time>
      </trkpt>
      <trkpt lat="42.63804" lon="1.73358">
        <ele>2262</ele>
        <time>2020-08-25T08:42:59.978Z</time>
      </trkpt>
      <trkpt lat="42.63804" lon="1.7336">
        <ele>2262</ele>
        <time>2020-08-25T08:43:03.893Z</time>
      </trkpt>
      <trkpt lat="42.63804" lon="1.73363">
        <ele>2262</ele>
        <time>2020-08-25T08:43:09.642Z</time>
      </trkpt>
      <trkpt lat="42.63805" lon="1.73367">
        <ele>2262</ele>
        <time>2020-08-25T08:43:15.058Z</time>
      </trkpt>
      <trkpt lat="42.63803" lon="1.73369">
        <ele>2262</ele>
        <time>2020-08-25T08:43:18.984Z</time>
      </trkpt>
      <trkpt lat="42.63804" lon="1.73375">
        <ele>2266</ele>
        <time>2020-08-25T08:43:25.219Z</time>
      </trkpt>
      <trkpt lat="42.63801" lon="1.73377">
        <ele>2266</ele>
        <time>2020-08-25T08:43:29.194Z</time>
      </trkpt>
      <trkpt lat="42.63802" lon="1.73382">
        <ele>2266</ele>
        <time>2020-08-25T08:43:33.673Z</time>
      </trkpt>
      <trkpt lat="42.63803" lon="1.73385">
        <ele>2266</ele>
        <time>2020-08-25T08:43:38.026Z</time>
      </trkpt>
      <trkpt lat="42.63802" lon="1.73388">
        <ele>2266</ele>
        <time>2020-08-25T08:43:41.767Z</time>
      </trkpt>
      <trkpt lat="42.63802" lon="1.73391">
        <ele>2266</ele>
        <time>2020-08-25T08:43:46.797Z</time>
      </trkpt>
      <trkpt lat="42.63803" lon="1.73394">
        <ele>2266</ele>
        <time>2020-08-25T08:43:51.766Z</time>
      </trkpt>
      <trkpt lat="42.63803" lon="1.734">
        <ele>2266</ele>
        <time>2020-08-25T08:44:00.076Z</time>
      </trkpt>
      <trkpt lat="42.63803" lon="1.73405">
        <ele>2269</ele>
        <time>2020-08-25T08:44:04.935Z</time>
      </trkpt>
      <trkpt lat="42.63799" lon="1.73422">
        <ele>2269</ele>
        <time>2020-08-25T08:44:17.743Z</time>
      </trkpt>
      <trkpt lat="42.63799" lon="1.73429">
        <ele>2269</ele>
        <time>2020-08-25T08:44:21.816Z</time>
      </trkpt>
      <trkpt lat="42.63798" lon="1.73431">
        <ele>2270</ele>
        <time>2020-08-25T08:44:22.844Z</time>
      </trkpt>
      <trkpt lat="42.63798" lon="1.7344">
        <ele>2270</ele>
        <time>2020-08-25T08:44:31.932Z</time>
      </trkpt>
      <trkpt lat="42.63798" lon="1.73444">
        <ele>2270</ele>
        <time>2020-08-25T08:44:36.528Z</time>
      </trkpt>
      <trkpt lat="42.63798" lon="1.73448">
        <ele>2270</ele>
        <time>2020-08-25T08:44:40.645Z</time>
      </trkpt>
      <trkpt lat="42.63799" lon="1.73454">
        <ele>2270</ele>
        <time>2020-08-25T08:44:45.648Z</time>
      </trkpt>
      <trkpt lat="42.63797" lon="1.73479">
        <ele>2273</ele>
        <time>2020-08-25T08:45:06.948Z</time>
      </trkpt>
      <trkpt lat="42.638" lon="1.73491">
        <ele>2277</ele>
        <time>2020-08-25T08:45:17.912Z</time>
      </trkpt>
      <trkpt lat="42.63796" lon="1.73506">
        <ele>2277</ele>
        <time>2020-08-25T08:45:34.275Z</time>
      </trkpt>
      <trkpt lat="42.63796" lon="1.73511">
        <ele>2277</ele>
        <time>2020-08-25T08:45:39.003Z</time>
      </trkpt>
      <trkpt lat="42.63797" lon="1.73515">
        <ele>2279</ele>
        <time>2020-08-25T08:45:43.830Z</time>
      </trkpt>
      <trkpt lat="42.63796" lon="1.7352">
        <ele>2279</ele>
        <time>2020-08-25T08:45:48.355Z</time>
      </trkpt>
      <trkpt lat="42.63797" lon="1.73526">
        <ele>2279</ele>
        <time>2020-08-25T08:45:52.883Z</time>
      </trkpt>
      <trkpt lat="42.63797" lon="1.73532">
        <ele>2279</ele>
        <time>2020-08-25T08:45:59.224Z</time>
      </trkpt>
      <trkpt lat="42.63795" lon="1.73536">
        <ele>2279</ele>
        <time>2020-08-25T08:46:03.231Z</time>
      </trkpt>
      <trkpt lat="42.63797" lon="1.73541">
        <ele>2279</ele>
        <time>2020-08-25T08:46:08.081Z</time>
      </trkpt>
      <trkpt lat="42.63796" lon="1.73547">
        <ele>2281</ele>
        <time>2020-08-25T08:46:12.636Z</time>
      </trkpt>
      <trkpt lat="42.63797" lon="1.73552">
        <ele>2281</ele>
        <time>2020-08-25T08:46:22.508Z</time>
      </trkpt>
      <trkpt lat="42.63796" lon="1.73553">
        <ele>2281</ele>
        <time>2020-08-25T08:46:27.794Z</time>
      </trkpt>
      <trkpt lat="42.63797" lon="1.73555">
        <ele>2281</ele>
        <time>2020-08-25T08:46:32.194Z</time>
      </trkpt>
      <trkpt lat="42.63796" lon="1.7356">
        <ele>2281</ele>
        <time>2020-08-25T08:46:36.647Z</time>
      </trkpt>
      <trkpt lat="42.63797" lon="1.73567">
        <ele>2281</ele>
        <time>2020-08-25T08:46:43.112Z</time>
      </trkpt>
      <trkpt lat="42.63796" lon="1.73572">
        <ele>2283</ele>
        <time>2020-08-25T08:46:47.861Z</time>
      </trkpt>
      <trkpt lat="42.63795" lon="1.73577">
        <ele>2283</ele>
        <time>2020-08-25T08:46:53.748Z</time>
      </trkpt>
      <trkpt lat="42.63796" lon="1.7358">
        <ele>2283</ele>
        <time>2020-08-25T08:46:57.636Z</time>
      </trkpt>
      <trkpt lat="42.63798" lon="1.73583">
        <ele>2283</ele>
        <time>2020-08-25T08:47:01.638Z</time>
      </trkpt>
      <trkpt lat="42.63797" lon="1.73587">
        <ele>2283</ele>
        <time>2020-08-25T08:47:07.187Z</time>
      </trkpt>
      <trkpt lat="42.63799" lon="1.73592">
        <ele>2283</ele>
        <time>2020-08-25T08:47:11.736Z</time>
      </trkpt>
      <trkpt lat="42.638" lon="1.73596">
        <ele>2283</ele>
        <time>2020-08-25T08:47:15.970Z</time>
      </trkpt>
      <trkpt lat="42.63799" lon="1.73596">
        <ele>2283</ele>
        <time>2020-08-25T08:47:31.675Z</time>
      </trkpt>
      <trkpt lat="42.63799" lon="1.73596">
        <ele>2283</ele>
        <time>2020-08-25T08:47:37.612Z</time>
      </trkpt>
      <trkpt lat="42.63799" lon="1.73596">
        <ele>2283</ele>
        <time>2020-08-25T08:47:42.680Z</time>
      </trkpt>
      <trkpt lat="42.638" lon="1.73597">
        <ele>2286</ele>
        <time>2020-08-25T08:47:47.086Z</time>
      </trkpt>
      <trkpt lat="42.63801" lon="1.73609">
        <ele>2286</ele>
        <time>2020-08-25T08:47:52.943Z</time>
      </trkpt>
      <trkpt lat="42.63799" lon="1.73621">
        <ele>2286</ele>
        <time>2020-08-25T08:47:57.647Z</time>
      </trkpt>
      <trkpt lat="42.63798" lon="1.73629">
        <ele>2291</ele>
        <time>2020-08-25T08:48:02.610Z</time>
      </trkpt>
      <trkpt lat="42.63799" lon="1.73634">
        <ele>2291</ele>
        <time>2020-08-25T08:48:07.610Z</time>
      </trkpt>
      <trkpt lat="42.63801" lon="1.73641">
        <ele>2291</ele>
        <time>2020-08-25T08:48:15.071Z</time>
      </trkpt>
      <trkpt lat="42.63803" lon="1.73649">
        <ele>2291</ele>
        <time>2020-08-25T08:48:21.717Z</time>
      </trkpt>
      <trkpt lat="42.638" lon="1.73658">
        <ele>2295</ele>
        <time>2020-08-25T08:48:30.098Z</time>
      </trkpt>
      <trkpt lat="42.63798" lon="1.73663">
        <ele>2295</ele>
        <time>2020-08-25T08:48:34.754Z</time>
      </trkpt>
      <trkpt lat="42.63796" lon="1.73668">
        <ele>2295</ele>
        <time>2020-08-25T08:48:40.900Z</time>
      </trkpt>
      <trkpt lat="42.63795" lon="1.73674">
        <ele>2295</ele>
        <time>2020-08-25T08:48:45.627Z</time>
      </trkpt>
      <trkpt lat="42.63793" lon="1.73678">
        <ele>2295</ele>
        <time>2020-08-25T08:48:49.972Z</time>
      </trkpt>
      <trkpt lat="42.6379" lon="1.73681">
        <ele>2290</ele>
        <time>2020-08-25T08:48:54.794Z</time>
      </trkpt>
      <trkpt lat="42.6379" lon="1.73688">
        <ele>2290</ele>
        <time>2020-08-25T08:49:00.118Z</time>
      </trkpt>
      <trkpt lat="42.6379" lon="1.73693">
        <ele>2290</ele>
        <time>2020-08-25T08:49:04.441Z</time>
      </trkpt>
      <trkpt lat="42.63789" lon="1.73696">
        <ele>2290</ele>
        <time>2020-08-25T08:49:08.154Z</time>
      </trkpt>
      <trkpt lat="42.63787" lon="1.73701">
        <ele>2290</ele>
        <time>2020-08-25T08:49:13.076Z</time>
      </trkpt>
      <trkpt lat="42.63789" lon="1.73707">
        <ele>2290</ele>
        <time>2020-08-25T08:49:21.933Z</time>
      </trkpt>
      <trkpt lat="42.63789" lon="1.73712">
        <ele>2295</ele>
        <time>2020-08-25T08:49:26.753Z</time>
      </trkpt>
      <trkpt lat="42.63788" lon="1.7372">
        <ele>2295</ele>
        <time>2020-08-25T08:49:32.814Z</time>
      </trkpt>
      <trkpt lat="42.63787" lon="1.73725">
        <ele>2295</ele>
        <time>2020-08-25T08:49:37.604Z</time>
      </trkpt>
      <trkpt lat="42.63784" lon="1.73736">
        <ele>2295</ele>
        <time>2020-08-25T08:49:46.924Z</time>
      </trkpt>
      <trkpt lat="42.63784" lon="1.73747">
        <ele>2300</ele>
        <time>2020-08-25T08:49:54.698Z</time>
      </trkpt>
      <trkpt lat="42.63783" lon="1.73752">
        <ele>2300</ele>
        <time>2020-08-25T08:50:00.059Z</time>
      </trkpt>
      <trkpt lat="42.63782" lon="1.73757">
        <ele>2300</ele>
        <time>2020-08-25T08:50:05.104Z</time>
      </trkpt>
      <trkpt lat="42.63779" lon="1.73762">
        <ele>2300</ele>
        <time>2020-08-25T08:50:09.895Z</time>
      </trkpt>
      <trkpt lat="42.63776" lon="1.73765">
        <ele>2306</ele>
        <time>2020-08-25T08:50:14.945Z</time>
      </trkpt>
      <trkpt lat="42.63773" lon="1.73779">
        <ele>2306</ele>
        <time>2020-08-25T08:50:29.748Z</time>
      </trkpt>
      <trkpt lat="42.63772" lon="1.73785">
        <ele>2306</ele>
        <time>2020-08-25T08:50:35.263Z</time>
      </trkpt>
      <trkpt lat="42.63769" lon="1.73804">
        <ele>2308</ele>
        <time>2020-08-25T08:50:56.132Z</time>
      </trkpt>
      <trkpt lat="42.63767" lon="1.73808">
        <ele>2308</ele>
        <time>2020-08-25T08:51:00.609Z</time>
      </trkpt>
      <trkpt lat="42.63768" lon="1.73812">
        <ele>2308</ele>
        <time>2020-08-25T08:51:05.609Z</time>
      </trkpt>
      <trkpt lat="42.63765" lon="1.73813">
        <ele>2308</ele>
        <time>2020-08-25T08:51:10.588Z</time>
      </trkpt>
      <trkpt lat="42.63766" lon="1.73816">
        <ele>2308</ele>
        <time>2020-08-25T08:51:15.160Z</time>
      </trkpt>
      <trkpt lat="42.63769" lon="1.73827">
        <ele>2310</ele>
        <time>2020-08-25T08:51:33.967Z</time>
      </trkpt>
      <trkpt lat="42.63768" lon="1.7383">
        <ele>2310</ele>
        <time>2020-08-25T08:51:38.627Z</time>
      </trkpt>
      <trkpt lat="42.63766" lon="1.73835">
        <ele>2310</ele>
        <time>2020-08-25T08:51:44.977Z</time>
      </trkpt>
      <trkpt lat="42.63764" lon="1.73838">
        <ele>2310</ele>
        <time>2020-08-25T08:51:48.753Z</time>
      </trkpt>
      <trkpt lat="42.63762" lon="1.73841">
        <ele>2299</ele>
        <time>2020-08-25T08:51:52.984Z</time>
      </trkpt>
      <trkpt lat="42.63761" lon="1.73847">
        <ele>2299</ele>
        <time>2020-08-25T08:52:07.837Z</time>
      </trkpt>
      <trkpt lat="42.6376" lon="1.7385">
        <ele>2306</ele>
        <time>2020-08-25T08:52:11.952Z</time>
      </trkpt>
      <trkpt lat="42.6376" lon="1.7385">
        <ele>2306</ele>
        <time>2020-08-25T08:52:16.695Z</time>
      </trkpt>
      <trkpt lat="42.63759" lon="1.73852">
        <ele>2306</ele>
        <time>2020-08-25T08:52:24.117Z</time>
      </trkpt>
      <trkpt lat="42.63761" lon="1.73857">
        <ele>2306</ele>
        <time>2020-08-25T08:52:28.680Z</time>
      </trkpt>
      <trkpt lat="42.6376" lon="1.73861">
        <ele>2306</ele>
        <time>2020-08-25T08:52:32.515Z</time>
      </trkpt>
      <trkpt lat="42.63757" lon="1.73865">
        <ele>2306</ele>
        <time>2020-08-25T08:52:39.645Z</time>
      </trkpt>
      <trkpt lat="42.63757" lon="1.7387">
        <ele>2306</ele>
        <time>2020-08-25T08:52:46.897Z</time>
      </trkpt>
      <trkpt lat="42.63756" lon="1.73875">
        <ele>2316</ele>
        <time>2020-08-25T08:52:51.847Z</time>
      </trkpt>
      <trkpt lat="42.63756" lon="1.73875">
        <ele>2316</ele>
        <time>2020-08-25T08:53:02.299Z</time>
      </trkpt>
      <trkpt lat="42.63756" lon="1.73876">
        <ele>2316</ele>
        <time>2020-08-25T08:53:06.945Z</time>
      </trkpt>
      <trkpt lat="42.63756" lon="1.73876">
        <ele>2316</ele>
        <time>2020-08-25T08:53:11.990Z</time>
      </trkpt>
      <trkpt lat="42.63755" lon="1.7388">
        <ele>2316</ele>
        <time>2020-08-25T08:53:16.928Z</time>
      </trkpt>
      <trkpt lat="42.63754" lon="1.7389">
        <ele>2316</ele>
        <time>2020-08-25T08:53:25.841Z</time>
      </trkpt>
      <trkpt lat="42.63753" lon="1.73893">
        <ele>2316</ele>
        <time>2020-08-25T08:53:31.270Z</time>
      </trkpt>
      <trkpt lat="42.63753" lon="1.73898">
        <ele>2316</ele>
        <time>2020-08-25T08:53:36.047Z</time>
      </trkpt>
      <trkpt lat="42.63752" lon="1.73903">
        <ele>2327</ele>
        <time>2020-08-25T08:53:44.480Z</time>
      </trkpt>
      <trkpt lat="42.63749" lon="1.73908">
        <ele>2327</ele>
        <time>2020-08-25T08:53:48.723Z</time>
      </trkpt>
      <trkpt lat="42.63747" lon="1.73913">
        <ele>2327</ele>
        <time>2020-08-25T08:53:54.774Z</time>
      </trkpt>
      <trkpt lat="42.63746" lon="1.73919">
        <ele>2327</ele>
        <time>2020-08-25T08:53:59.608Z</time>
      </trkpt>
      <trkpt lat="42.63744" lon="1.73921">
        <ele>2327</ele>
        <time>2020-08-25T08:54:03.609Z</time>
      </trkpt>
      <trkpt lat="42.63742" lon="1.73923">
        <ele>2327</ele>
        <time>2020-08-25T08:54:07.642Z</time>
      </trkpt>
      <trkpt lat="42.63742" lon="1.73928">
        <ele>2327</ele>
        <time>2020-08-25T08:54:12.995Z</time>
      </trkpt>
      <trkpt lat="42.63743" lon="1.73931">
        <ele>2336</ele>
        <time>2020-08-25T08:54:18.106Z</time>
      </trkpt>
      <trkpt lat="42.6374" lon="1.73937">
        <ele>2336</ele>
        <time>2020-08-25T08:54:28.024Z</time>
      </trkpt>
      <trkpt lat="42.63739" lon="1.73941">
        <ele>2336</ele>
        <time>2020-08-25T08:54:33.832Z</time>
      </trkpt>
      <trkpt lat="42.63738" lon="1.73946">
        <ele>2336</ele>
        <time>2020-08-25T08:54:38.056Z</time>
      </trkpt>
      <trkpt lat="42.63735" lon="1.7395">
        <ele>2318</ele>
        <time>2020-08-25T08:54:43.911Z</time>
      </trkpt>
      <trkpt lat="42.63734" lon="1.73952">
        <ele>2318</ele>
        <time>2020-08-25T08:54:48.205Z</time>
      </trkpt>
      <trkpt lat="42.63732" lon="1.73955">
        <ele>2318</ele>
        <time>2020-08-25T08:54:53.267Z</time>
      </trkpt>
      <trkpt lat="42.6373" lon="1.73959">
        <ele>2326</ele>
        <time>2020-08-25T08:54:57.412Z</time>
      </trkpt>
      <trkpt lat="42.63727" lon="1.73964">
        <ele>2326</ele>
        <time>2020-08-25T08:55:04.989Z</time>
      </trkpt>
      <trkpt lat="42.63727" lon="1.73968">
        <ele>2326</ele>
        <time>2020-08-25T08:55:10.725Z</time>
      </trkpt>
      <trkpt lat="42.63726" lon="1.73972">
        <ele>2326</ele>
        <time>2020-08-25T08:55:15.841Z</time>
      </trkpt>
      <trkpt lat="42.63725" lon="1.73976">
        <ele>2326</ele>
        <time>2020-08-25T08:55:20.587Z</time>
      </trkpt>
      <trkpt lat="42.63726" lon="1.7398">
        <ele>2326</ele>
        <time>2020-08-25T08:55:31.986Z</time>
      </trkpt>
      <trkpt lat="42.63722" lon="1.73984">
        <ele>2326</ele>
        <time>2020-08-25T08:55:36.592Z</time>
      </trkpt>
      <trkpt lat="42.63722" lon="1.73986">
        <ele>2338</ele>
        <time>2020-08-25T08:55:40.649Z</time>
      </trkpt>
      <trkpt lat="42.6372" lon="1.7399">
        <ele>2338</ele>
        <time>2020-08-25T08:55:46.317Z</time>
      </trkpt>
      <trkpt lat="42.63717" lon="1.73995">
        <ele>2338</ele>
        <time>2020-08-25T08:55:50.704Z</time>
      </trkpt>
      <trkpt lat="42.63714" lon="1.74">
        <ele>2338</ele>
        <time>2020-08-25T08:55:55.208Z</time>
      </trkpt>
      <trkpt lat="42.63711" lon="1.74006">
        <ele>2338</ele>
        <time>2020-08-25T08:56:00.637Z</time>
      </trkpt>
      <trkpt lat="42.63706" lon="1.74016">
        <ele>2331</ele>
        <time>2020-08-25T08:56:09.749Z</time>
      </trkpt>
      <trkpt lat="42.63703" lon="1.74021">
        <ele>2331</ele>
        <time>2020-08-25T08:56:14.821Z</time>
      </trkpt>
      <trkpt lat="42.63701" lon="1.74028">
        <ele>2331</ele>
        <time>2020-08-25T08:56:19.624Z</time>
      </trkpt>
      <trkpt lat="42.63697" lon="1.74033">
        <ele>2331</ele>
        <time>2020-08-25T08:56:23.721Z</time>
      </trkpt>
      <trkpt lat="42.63693" lon="1.74035">
        <ele>2331</ele>
        <time>2020-08-25T08:56:27.896Z</time>
      </trkpt>
      <trkpt lat="42.6369" lon="1.74039">
        <ele>2331</ele>
        <time>2020-08-25T08:56:32.087Z</time>
      </trkpt>
      <trkpt lat="42.63687" lon="1.7404">
        <ele>2331</ele>
        <time>2020-08-25T08:56:36.175Z</time>
      </trkpt>
      <trkpt lat="42.63684" lon="1.74045">
        <ele>2331</ele>
        <time>2020-08-25T08:56:40.607Z</time>
      </trkpt>
      <trkpt lat="42.63682" lon="1.74057">
        <ele>2331</ele>
        <time>2020-08-25T08:56:51.766Z</time>
      </trkpt>
      <trkpt lat="42.63682" lon="1.74065">
        <ele>2331</ele>
        <time>2020-08-25T08:56:59.969Z</time>
      </trkpt>
      <trkpt lat="42.63681" lon="1.74066">
        <ele>2331</ele>
        <time>2020-08-25T08:57:04.608Z</time>
      </trkpt>
      <trkpt lat="42.63678" lon="1.74069">
        <ele>2314</ele>
        <time>2020-08-25T09:02:55.365Z</time>
      </trkpt>
      <trkpt lat="42.63677" lon="1.74071">
        <ele>2316</ele>
        <time>2020-08-25T09:03:00.098Z</time>
      </trkpt>
      <trkpt lat="42.63676" lon="1.74071">
        <ele>2316</ele>
        <time>2020-08-25T09:03:04.244Z</time>
      </trkpt>
      <trkpt lat="42.63676" lon="1.74072">
        <ele>2316</ele>
        <time>2020-08-25T09:03:08.650Z</time>
      </trkpt>
      <trkpt lat="42.63673" lon="1.74074">
        <ele>2316</ele>
        <time>2020-08-25T09:03:13.645Z</time>
      </trkpt>
      <trkpt lat="42.63667" lon="1.7408">
        <ele>2316</ele>
        <time>2020-08-25T09:03:32.721Z</time>
      </trkpt>
      <trkpt lat="42.63667" lon="1.7408">
        <ele>2316</ele>
        <time>2020-08-25T09:03:36.656Z</time>
      </trkpt>
      <trkpt lat="42.63665" lon="1.74082">
        <ele>2316</ele>
        <time>2020-08-25T09:03:41.208Z</time>
      </trkpt>
      <trkpt lat="42.63663" lon="1.74082">
        <ele>2316</ele>
        <time>2020-08-25T09:03:45.623Z</time>
      </trkpt>
      <trkpt lat="42.63662" lon="1.74081">
        <ele>2316</ele>
        <time>2020-08-25T09:03:50.871Z</time>
      </trkpt>
      <trkpt lat="42.63657" lon="1.74085">
        <ele>2316</ele>
        <time>2020-08-25T09:04:01.130Z</time>
      </trkpt>
      <trkpt lat="42.63654" lon="1.74085">
        <ele>2316</ele>
        <time>2020-08-25T09:04:06.643Z</time>
      </trkpt>
      <trkpt lat="42.63651" lon="1.74088">
        <ele>2314</ele>
        <time>2020-08-25T09:04:15.123Z</time>
      </trkpt>
      <trkpt lat="42.63647" lon="1.74086">
        <ele>2314</ele>
        <time>2020-08-25T09:04:20.290Z</time>
      </trkpt>
      <trkpt lat="42.63644" lon="1.74084">
        <ele>2314</ele>
        <time>2020-08-25T09:04:24.704Z</time>
      </trkpt>
      <trkpt lat="42.63638" lon="1.74085">
        <ele>2314</ele>
        <time>2020-08-25T09:04:34.786Z</time>
      </trkpt>
      <trkpt lat="42.63637" lon="1.74084">
        <ele>2314</ele>
        <time>2020-08-25T09:04:39.077Z</time>
      </trkpt>
      <trkpt lat="42.63634" lon="1.74084">
        <ele>2314</ele>
        <time>2020-08-25T09:04:44.533Z</time>
      </trkpt>
      <trkpt lat="42.6363" lon="1.74085">
        <ele>2314</ele>
        <time>2020-08-25T09:04:49.389Z</time>
      </trkpt>
      <trkpt lat="42.63626" lon="1.74086">
        <ele>2314</ele>
        <time>2020-08-25T09:04:53.005Z</time>
      </trkpt>
      <trkpt lat="42.63623" lon="1.74082">
        <ele>2317</ele>
        <time>2020-08-25T09:04:59.032Z</time>
      </trkpt>
      <trkpt lat="42.6362" lon="1.74082">
        <ele>2317</ele>
        <time>2020-08-25T09:05:03.581Z</time>
      </trkpt>
      <trkpt lat="42.63613" lon="1.74083">
        <ele>2317</ele>
        <time>2020-08-25T09:05:14.449Z</time>
      </trkpt>
      <trkpt lat="42.63606" lon="1.74083">
        <ele>2317</ele>
        <time>2020-08-25T09:05:24.405Z</time>
      </trkpt>
      <trkpt lat="42.63603" lon="1.74084">
        <ele>2317</ele>
        <time>2020-08-25T09:05:28.917Z</time>
      </trkpt>
      <trkpt lat="42.636" lon="1.74082">
        <ele>2317</ele>
        <time>2020-08-25T09:05:34.410Z</time>
      </trkpt>
      <trkpt lat="42.63596" lon="1.74088">
        <ele>2318</ele>
        <time>2020-08-25T09:05:58.353Z</time>
      </trkpt>
      <trkpt lat="42.63594" lon="1.74087">
        <ele>2318</ele>
        <time>2020-08-25T09:06:03.428Z</time>
      </trkpt>
      <trkpt lat="42.63593" lon="1.74088">
        <ele>2318</ele>
        <time>2020-08-25T09:06:07.623Z</time>
      </trkpt>
      <trkpt lat="42.63592" lon="1.7409">
        <ele>2318</ele>
        <time>2020-08-25T09:06:12.651Z</time>
      </trkpt>
      <trkpt lat="42.6359" lon="1.7409">
        <ele>2318</ele>
        <time>2020-08-25T09:06:17.630Z</time>
      </trkpt>
      <trkpt lat="42.63588" lon="1.74091">
        <ele>2318</ele>
        <time>2020-08-25T09:06:25.657Z</time>
      </trkpt>
      <trkpt lat="42.63585" lon="1.74091">
        <ele>2318</ele>
        <time>2020-08-25T09:06:32.002Z</time>
      </trkpt>
      <trkpt lat="42.63583" lon="1.74089">
        <ele>2318</ele>
        <time>2020-08-25T09:06:36.827Z</time>
      </trkpt>
      <trkpt lat="42.63581" lon="1.74089">
        <ele>2318</ele>
        <time>2020-08-25T09:06:41.719Z</time>
      </trkpt>
      <trkpt lat="42.63579" lon="1.74089">
        <ele>2318</ele>
        <time>2020-08-25T09:06:46.290Z</time>
      </trkpt>
      <trkpt lat="42.63575" lon="1.74089">
        <ele>2318</ele>
        <time>2020-08-25T09:06:57.749Z</time>
      </trkpt>
      <trkpt lat="42.63573" lon="1.74088">
        <ele>2318</ele>
        <time>2020-08-25T09:07:02.653Z</time>
      </trkpt>
      <trkpt lat="42.63573" lon="1.74088">
        <ele>2318</ele>
        <time>2020-08-25T09:07:07.362Z</time>
      </trkpt>
      <trkpt lat="42.63565" lon="1.74089">
        <ele>2324</ele>
        <time>2020-08-25T09:07:18.644Z</time>
      </trkpt>
      <trkpt lat="42.63562" lon="1.74088">
        <ele>2324</ele>
        <time>2020-08-25T09:07:22.952Z</time>
      </trkpt>
      <trkpt lat="42.63559" lon="1.74087">
        <ele>2324</ele>
        <time>2020-08-25T09:07:28.624Z</time>
      </trkpt>
      <trkpt lat="42.63556" lon="1.74086">
        <ele>2324</ele>
        <time>2020-08-25T09:07:33.624Z</time>
      </trkpt>
      <trkpt lat="42.63553" lon="1.74086">
        <ele>2324</ele>
        <time>2020-08-25T09:07:38.636Z</time>
      </trkpt>
      <trkpt lat="42.63549" lon="1.74085">
        <ele>2324</ele>
        <time>2020-08-25T09:07:43.081Z</time>
      </trkpt>
      <trkpt lat="42.63545" lon="1.74084">
        <ele>2324</ele>
        <time>2020-08-25T09:07:47.621Z</time>
      </trkpt>
      <trkpt lat="42.63542" lon="1.74083">
        <ele>2324</ele>
        <time>2020-08-25T09:07:51.861Z</time>
      </trkpt>
      <trkpt lat="42.6354" lon="1.74083">
        <ele>2332</ele>
        <time>2020-08-25T09:07:56.700Z</time>
      </trkpt>
      <trkpt lat="42.63534" lon="1.74088">
        <ele>2332</ele>
        <time>2020-08-25T09:08:23.708Z</time>
      </trkpt>
      <trkpt lat="42.63532" lon="1.74087">
        <ele>2332</ele>
        <time>2020-08-25T09:08:28.636Z</time>
      </trkpt>
      <trkpt lat="42.63527" lon="1.74086">
        <ele>2332</ele>
        <time>2020-08-25T09:08:36.840Z</time>
      </trkpt>
      <trkpt lat="42.63525" lon="1.74083">
        <ele>2332</ele>
        <time>2020-08-25T09:08:40.694Z</time>
      </trkpt>
      <trkpt lat="42.63522" lon="1.74081">
        <ele>2332</ele>
        <time>2020-08-25T09:08:45.334Z</time>
      </trkpt>
      <trkpt lat="42.63518" lon="1.74079">
        <ele>2332</ele>
        <time>2020-08-25T09:08:49.644Z</time>
      </trkpt>
      <trkpt lat="42.63515" lon="1.74075">
        <ele>2332</ele>
        <time>2020-08-25T09:08:58.322Z</time>
      </trkpt>
      <trkpt lat="42.63513" lon="1.74073">
        <ele>2346</ele>
        <time>2020-08-25T09:09:02.988Z</time>
      </trkpt>
      <trkpt lat="42.6351" lon="1.7407">
        <ele>2346</ele>
        <time>2020-08-25T09:09:07.781Z</time>
      </trkpt>
      <trkpt lat="42.63509" lon="1.74064">
        <ele>2339</ele>
        <time>2020-08-25T09:09:12.645Z</time>
      </trkpt>
      <trkpt lat="42.63507" lon="1.74061">
        <ele>2339</ele>
        <time>2020-08-25T09:09:17.662Z</time>
      </trkpt>
      <trkpt lat="42.63503" lon="1.74059">
        <ele>2339</ele>
        <time>2020-08-25T09:09:22.653Z</time>
      </trkpt>
      <trkpt lat="42.63502" lon="1.74057">
        <ele>2339</ele>
        <time>2020-08-25T09:09:26.002Z</time>
      </trkpt>
      <trkpt lat="42.63501" lon="1.74051">
        <ele>2339</ele>
        <time>2020-08-25T09:09:32.734Z</time>
      </trkpt>
      <trkpt lat="42.63495" lon="1.74051">
        <ele>2339</ele>
        <time>2020-08-25T09:09:44.324Z</time>
      </trkpt>
      <trkpt lat="42.63495" lon="1.74049">
        <ele>2339</ele>
        <time>2020-08-25T09:09:49.342Z</time>
      </trkpt>
      <trkpt lat="42.63492" lon="1.74046">
        <ele>2339</ele>
        <time>2020-08-25T09:09:53.709Z</time>
      </trkpt>
      <trkpt lat="42.6349" lon="1.74046">
        <ele>2339</ele>
        <time>2020-08-25T09:09:57.721Z</time>
      </trkpt>
      <trkpt lat="42.63489" lon="1.74045">
        <ele>2339</ele>
        <time>2020-08-25T09:10:06.004Z</time>
      </trkpt>
      <trkpt lat="42.63487" lon="1.74046">
        <ele>2339</ele>
        <time>2020-08-25T09:10:15.083Z</time>
      </trkpt>
      <trkpt lat="42.63487" lon="1.74045">
        <ele>2339</ele>
        <time>2020-08-25T09:10:19.618Z</time>
      </trkpt>
      <trkpt lat="42.63483" lon="1.74042">
        <ele>2357</ele>
        <time>2020-08-25T09:10:26.436Z</time>
      </trkpt>
      <trkpt lat="42.63479" lon="1.74042">
        <ele>2352</ele>
        <time>2020-08-25T09:10:32.997Z</time>
      </trkpt>
      <trkpt lat="42.63477" lon="1.7404">
        <ele>2352</ele>
        <time>2020-08-25T09:10:38.038Z</time>
      </trkpt>
      <trkpt lat="42.63475" lon="1.74044">
        <ele>2357</ele>
        <time>2020-08-25T09:11:00.186Z</time>
      </trkpt>
      <trkpt lat="42.63473" lon="1.74044">
        <ele>2357</ele>
        <time>2020-08-25T09:11:05.416Z</time>
      </trkpt>
      <trkpt lat="42.63471" lon="1.74042">
        <ele>2357</ele>
        <time>2020-08-25T09:11:09.621Z</time>
      </trkpt>
      <trkpt lat="42.63469" lon="1.74041">
        <ele>2352</ele>
        <time>2020-08-25T09:11:21.760Z</time>
      </trkpt>
      <trkpt lat="42.63466" lon="1.74039">
        <ele>2352</ele>
        <time>2020-08-25T09:11:25.890Z</time>
      </trkpt>
      <trkpt lat="42.63465" lon="1.74038">
        <ele>2352</ele>
        <time>2020-08-25T09:11:30.639Z</time>
      </trkpt>
      <trkpt lat="42.63463" lon="1.74037">
        <ele>2352</ele>
        <time>2020-08-25T09:11:35.111Z</time>
      </trkpt>
      <trkpt lat="42.63459" lon="1.74035">
        <ele>2352</ele>
        <time>2020-08-25T09:11:40.174Z</time>
      </trkpt>
      <trkpt lat="42.63457" lon="1.74034">
        <ele>2360</ele>
        <time>2020-08-25T09:11:45.189Z</time>
      </trkpt>
      <trkpt lat="42.63454" lon="1.74032">
        <ele>2360</ele>
        <time>2020-08-25T09:11:49.617Z</time>
      </trkpt>
      <trkpt lat="42.6345" lon="1.74029">
        <ele>2360</ele>
        <time>2020-08-25T09:11:59.393Z</time>
      </trkpt>
      <trkpt lat="42.63448" lon="1.74026">
        <ele>2360</ele>
        <time>2020-08-25T09:12:04.744Z</time>
      </trkpt>
      <trkpt lat="42.63447" lon="1.74027">
        <ele>2360</ele>
        <time>2020-08-25T09:12:09.974Z</time>
      </trkpt>
      <trkpt lat="42.63444" lon="1.74027">
        <ele>2360</ele>
        <time>2020-08-25T09:12:14.628Z</time>
      </trkpt>
      <trkpt lat="42.63441" lon="1.74026">
        <ele>2360</ele>
        <time>2020-08-25T09:12:19.628Z</time>
      </trkpt>
      <trkpt lat="42.63434" lon="1.7403">
        <ele>2360</ele>
        <time>2020-08-25T09:12:44.022Z</time>
      </trkpt>
      <trkpt lat="42.63432" lon="1.74029">
        <ele>2360</ele>
        <time>2020-08-25T09:12:48.336Z</time>
      </trkpt>
      <trkpt lat="42.6343" lon="1.7403">
        <ele>2372</ele>
        <time>2020-08-25T09:12:52.633Z</time>
      </trkpt>
      <trkpt lat="42.63429" lon="1.74028">
        <ele>2372</ele>
        <time>2020-08-25T09:12:56.804Z</time>
      </trkpt>
      <trkpt lat="42.63427" lon="1.74027">
        <ele>2372</ele>
        <time>2020-08-25T09:13:01.216Z</time>
      </trkpt>
      <trkpt lat="42.63424" lon="1.74027">
        <ele>2372</ele>
        <time>2020-08-25T09:13:10.165Z</time>
      </trkpt>
      <trkpt lat="42.63422" lon="1.74024">
        <ele>2372</ele>
        <time>2020-08-25T09:13:17.775Z</time>
      </trkpt>
      <trkpt lat="42.6342" lon="1.74025">
        <ele>2372</ele>
        <time>2020-08-25T09:13:23.418Z</time>
      </trkpt>
      <trkpt lat="42.63419" lon="1.74022">
        <ele>2372</ele>
        <time>2020-08-25T09:13:30.626Z</time>
      </trkpt>
      <trkpt lat="42.63416" lon="1.74019">
        <ele>2372</ele>
        <time>2020-08-25T09:13:40.729Z</time>
      </trkpt>
      <trkpt lat="42.6341" lon="1.74017">
        <ele>2372</ele>
        <time>2020-08-25T09:14:01.869Z</time>
      </trkpt>
      <trkpt lat="42.63409" lon="1.74017">
        <ele>2372</ele>
        <time>2020-08-25T09:14:06.383Z</time>
      </trkpt>
      <trkpt lat="42.63408" lon="1.74015">
        <ele>2372</ele>
        <time>2020-08-25T09:14:11.641Z</time>
      </trkpt>
      <trkpt lat="42.63406" lon="1.74016">
        <ele>2372</ele>
        <time>2020-08-25T09:14:15.705Z</time>
      </trkpt>
      <trkpt lat="42.63403" lon="1.74014">
        <ele>2372</ele>
        <time>2020-08-25T09:14:20.999Z</time>
      </trkpt>
      <trkpt lat="42.63401" lon="1.74016">
        <ele>2389</ele>
        <time>2020-08-25T09:14:25.842Z</time>
      </trkpt>
      <trkpt lat="42.634" lon="1.74017">
        <ele>2389</ele>
        <time>2020-08-25T09:14:30.314Z</time>
      </trkpt>
      <trkpt lat="42.63396" lon="1.74014">
        <ele>2389</ele>
        <time>2020-08-25T09:14:41.119Z</time>
      </trkpt>
      <trkpt lat="42.63395" lon="1.74016">
        <ele>2389</ele>
        <time>2020-08-25T09:14:47.075Z</time>
      </trkpt>
      <trkpt lat="42.63392" lon="1.74014">
        <ele>2387</ele>
        <time>2020-08-25T09:14:52.642Z</time>
      </trkpt>
      <trkpt lat="42.63386" lon="1.74012">
        <ele>2387</ele>
        <time>2020-08-25T09:15:13.643Z</time>
      </trkpt>
      <trkpt lat="42.63386" lon="1.74012">
        <ele>2387</ele>
        <time>2020-08-25T09:15:18.634Z</time>
      </trkpt>
      <trkpt lat="42.63384" lon="1.74014">
        <ele>2387</ele>
        <time>2020-08-25T09:15:23.600Z</time>
      </trkpt>
      <trkpt lat="42.63383" lon="1.74014">
        <ele>2389</ele>
        <time>2020-08-25T09:15:27.975Z</time>
      </trkpt>
      <trkpt lat="42.63381" lon="1.74015">
        <ele>2389</ele>
        <time>2020-08-25T09:15:32Z</time>
      </trkpt>
      <trkpt lat="42.63378" lon="1.74019">
        <ele>2389</ele>
        <time>2020-08-25T09:16:12.901Z</time>
      </trkpt>
      <trkpt lat="42.63379" lon="1.74021">
        <ele>2389</ele>
        <time>2020-08-25T09:16:17.891Z</time>
      </trkpt>
      <trkpt lat="42.63379" lon="1.74025">
        <ele>2389</ele>
        <time>2020-08-25T09:16:30.160Z</time>
      </trkpt>
      <trkpt lat="42.63378" lon="1.74026">
        <ele>2389</ele>
        <time>2020-08-25T09:16:34.634Z</time>
      </trkpt>
      <trkpt lat="42.63375" lon="1.74031">
        <ele>2402</ele>
        <time>2020-08-25T09:16:52.597Z</time>
      </trkpt>
      <trkpt lat="42.63368" lon="1.7403">
        <ele>2402</ele>
        <time>2020-08-25T09:17:43.164Z</time>
      </trkpt>
      <trkpt lat="42.63366" lon="1.74031">
        <ele>2402</ele>
        <time>2020-08-25T09:17:47.753Z</time>
      </trkpt>
      <trkpt lat="42.63366" lon="1.7403">
        <ele>2402</ele>
        <time>2020-08-25T09:17:52.938Z</time>
      </trkpt>
      <trkpt lat="42.63365" lon="1.7403">
        <ele>2402</ele>
        <time>2020-08-25T09:17:58.909Z</time>
      </trkpt>
      <trkpt lat="42.63356" lon="1.74025">
        <ele>2402</ele>
        <time>2020-08-25T09:18:10.087Z</time>
      </trkpt>
      <trkpt lat="42.63353" lon="1.74022">
        <ele>2402</ele>
        <time>2020-08-25T09:18:14.627Z</time>
      </trkpt>
      <trkpt lat="42.63348" lon="1.74023">
        <ele>2402</ele>
        <time>2020-08-25T09:18:19.636Z</time>
      </trkpt>
      <trkpt lat="42.63346" lon="1.74021">
        <ele>2405</ele>
        <time>2020-08-25T09:18:24.637Z</time>
      </trkpt>
      <trkpt lat="42.63343" lon="1.74022">
        <ele>2405</ele>
        <time>2020-08-25T09:18:29.186Z</time>
      </trkpt>
      <trkpt lat="42.63337" lon="1.74021">
        <ele>2405</ele>
        <time>2020-08-25T09:18:43.430Z</time>
      </trkpt>
      <trkpt lat="42.63335" lon="1.7402">
        <ele>2405</ele>
        <time>2020-08-25T09:18:47.387Z</time>
      </trkpt>
      <trkpt lat="42.63335" lon="1.7402">
        <ele>2405</ele>
        <time>2020-08-25T09:18:48.880Z</time>
      </trkpt>
      <trkpt lat="42.63332" lon="1.74026">
        <ele>2405</ele>
        <time>2020-08-25T09:19:00.139Z</time>
      </trkpt>
      <trkpt lat="42.63328" lon="1.74026">
        <ele>2405</ele>
        <time>2020-08-25T09:19:04.658Z</time>
      </trkpt>
      <trkpt lat="42.63325" lon="1.74026">
        <ele>2405</ele>
        <time>2020-08-25T09:19:09.012Z</time>
      </trkpt>
      <trkpt lat="42.63321" lon="1.74024">
        <ele>2405</ele>
        <time>2020-08-25T09:19:13.748Z</time>
      </trkpt>
      <trkpt lat="42.63317" lon="1.74023">
        <ele>2409</ele>
        <time>2020-08-25T09:19:21.192Z</time>
      </trkpt>
      <trkpt lat="42.63313" lon="1.74022">
        <ele>2409</ele>
        <time>2020-08-25T09:19:26.033Z</time>
      </trkpt>
      <trkpt lat="42.6331" lon="1.74026">
        <ele>2409</ele>
        <time>2020-08-25T09:19:32.325Z</time>
      </trkpt>
      <trkpt lat="42.63307" lon="1.74026">
        <ele>2409</ele>
        <time>2020-08-25T09:19:36.642Z</time>
      </trkpt>
      <trkpt lat="42.63303" lon="1.74025">
        <ele>2409</ele>
        <time>2020-08-25T09:19:42.872Z</time>
      </trkpt>
      <trkpt lat="42.63297" lon="1.74026">
        <ele>2409</ele>
        <time>2020-08-25T09:19:50.733Z</time>
      </trkpt>
      <trkpt lat="42.63291" lon="1.74023">
        <ele>2416</ele>
        <time>2020-08-25T09:20:00.408Z</time>
      </trkpt>
      <trkpt lat="42.63289" lon="1.74026">
        <ele>2416</ele>
        <time>2020-08-25T09:20:04.640Z</time>
      </trkpt>
      <trkpt lat="42.63286" lon="1.74025">
        <ele>2416</ele>
        <time>2020-08-25T09:20:08.872Z</time>
      </trkpt>
      <trkpt lat="42.63284" lon="1.74025">
        <ele>2416</ele>
        <time>2020-08-25T09:20:14.077Z</time>
      </trkpt>
      <trkpt lat="42.63278" lon="1.74025">
        <ele>2416</ele>
        <time>2020-08-25T09:20:24.328Z</time>
      </trkpt>
      <trkpt lat="42.63271" lon="1.74028">
        <ele>2416</ele>
        <time>2020-08-25T09:20:33.200Z</time>
      </trkpt>
      <trkpt lat="42.63264" lon="1.74028">
        <ele>2416</ele>
        <time>2020-08-25T09:20:41.898Z</time>
      </trkpt>
      <trkpt lat="42.63262" lon="1.74028">
        <ele>2422</ele>
        <time>2020-08-25T09:20:46.621Z</time>
      </trkpt>
      <trkpt lat="42.63261" lon="1.74026">
        <ele>2422</ele>
        <time>2020-08-25T09:20:50.633Z</time>
      </trkpt>
      <trkpt lat="42.63261" lon="1.74021">
        <ele>2422</ele>
        <time>2020-08-25T09:21:27.652Z</time>
      </trkpt>
      <trkpt lat="42.63258" lon="1.74021">
        <ele>2422</ele>
        <time>2020-08-25T09:21:32.203Z</time>
      </trkpt>
      <trkpt lat="42.63254" lon="1.74022">
        <ele>2422</ele>
        <time>2020-08-25T09:21:36.646Z</time>
      </trkpt>
      <trkpt lat="42.63251" lon="1.74024">
        <ele>2422</ele>
        <time>2020-08-25T09:21:42.110Z</time>
      </trkpt>
      <trkpt lat="42.63247" lon="1.74025">
        <ele>2422</ele>
        <time>2020-08-25T09:21:46.622Z</time>
      </trkpt>
      <trkpt lat="42.63241" lon="1.74026">
        <ele>2422</ele>
        <time>2020-08-25T09:21:55.750Z</time>
      </trkpt>
      <trkpt lat="42.63239" lon="1.74027">
        <ele>2422</ele>
        <time>2020-08-25T09:21:59.901Z</time>
      </trkpt>
      <trkpt lat="42.63238" lon="1.74028">
        <ele>2422</ele>
        <time>2020-08-25T09:22:04.660Z</time>
      </trkpt>
      <trkpt lat="42.63236" lon="1.74028">
        <ele>2426</ele>
        <time>2020-08-25T09:22:09.187Z</time>
      </trkpt>
      <trkpt lat="42.63233" lon="1.74028">
        <ele>2426</ele>
        <time>2020-08-25T09:22:13.622Z</time>
      </trkpt>
      <trkpt lat="42.63229" lon="1.74028">
        <ele>2426</ele>
        <time>2020-08-25T09:22:21.976Z</time>
      </trkpt>
      <trkpt lat="42.63227" lon="1.74027">
        <ele>2426</ele>
        <time>2020-08-25T09:22:27.904Z</time>
      </trkpt>
      <trkpt lat="42.63225" lon="1.74027">
        <ele>2426</ele>
        <time>2020-08-25T09:22:32.136Z</time>
      </trkpt>
      <trkpt lat="42.63222" lon="1.7403">
        <ele>2426</ele>
        <time>2020-08-25T09:22:36.617Z</time>
      </trkpt>
      <trkpt lat="42.6321" lon="1.74029">
        <ele>2426</ele>
        <time>2020-08-25T09:22:52.396Z</time>
      </trkpt>
      <trkpt lat="42.63207" lon="1.74029">
        <ele>2428</ele>
        <time>2020-08-25T09:22:56.633Z</time>
      </trkpt>
      <trkpt lat="42.63204" lon="1.74027">
        <ele>2428</ele>
        <time>2020-08-25T09:23:01.152Z</time>
      </trkpt>
      <trkpt lat="42.632" lon="1.74026">
        <ele>2428</ele>
        <time>2020-08-25T09:23:06.072Z</time>
      </trkpt>
      <trkpt lat="42.63198" lon="1.74024">
        <ele>2428</ele>
        <time>2020-08-25T09:23:09.822Z</time>
      </trkpt>
      <trkpt lat="42.63196" lon="1.74024">
        <ele>2428</ele>
        <time>2020-08-25T09:23:15.059Z</time>
      </trkpt>
      <trkpt lat="42.63192" lon="1.74021">
        <ele>2428</ele>
        <time>2020-08-25T09:23:20.686Z</time>
      </trkpt>
      <trkpt lat="42.63189" lon="1.74021">
        <ele>2428</ele>
        <time>2020-08-25T09:23:25.033Z</time>
      </trkpt>
      <trkpt lat="42.63186" lon="1.74018">
        <ele>2428</ele>
        <time>2020-08-25T09:23:29.336Z</time>
      </trkpt>
      <trkpt lat="42.63183" lon="1.74017">
        <ele>2428</ele>
        <time>2020-08-25T09:23:33.455Z</time>
      </trkpt>
      <trkpt lat="42.63177" lon="1.74014">
        <ele>2432</ele>
        <time>2020-08-25T09:23:47.688Z</time>
      </trkpt>
      <trkpt lat="42.63173" lon="1.74015">
        <ele>2432</ele>
        <time>2020-08-25T09:24:05.887Z</time>
      </trkpt>
      <trkpt lat="42.6317" lon="1.74014">
        <ele>2432</ele>
        <time>2020-08-25T09:24:13.354Z</time>
      </trkpt>
      <trkpt lat="42.63165" lon="1.74013">
        <ele>2434</ele>
        <time>2020-08-25T09:24:27.630Z</time>
      </trkpt>
      <trkpt lat="42.63165" lon="1.74012">
        <ele>2434</ele>
        <time>2020-08-25T09:24:33.726Z</time>
      </trkpt>
      <trkpt lat="42.63163" lon="1.74009">
        <ele>2434</ele>
        <time>2020-08-25T09:24:38.623Z</time>
      </trkpt>
      <trkpt lat="42.63162" lon="1.74007">
        <ele>2434</ele>
        <time>2020-08-25T09:24:43.344Z</time>
      </trkpt>
      <trkpt lat="42.6316" lon="1.74006">
        <ele>2434</ele>
        <time>2020-08-25T09:24:48.211Z</time>
      </trkpt>
      <trkpt lat="42.63159" lon="1.74009">
        <ele>2434</ele>
        <time>2020-08-25T09:25:07.269Z</time>
      </trkpt>
      <trkpt lat="42.63158" lon="1.74015">
        <ele>2432</ele>
        <time>2020-08-25T09:25:17.276Z</time>
      </trkpt>
      <trkpt lat="42.63156" lon="1.74021">
        <ele>2432</ele>
        <time>2020-08-25T09:25:32.315Z</time>
      </trkpt>
      <trkpt lat="42.63154" lon="1.74023">
        <ele>2432</ele>
        <time>2020-08-25T09:25:37.320Z</time>
      </trkpt>
      <trkpt lat="42.63149" lon="1.74029">
        <ele>2443</ele>
        <time>2020-08-25T09:25:53.140Z</time>
      </trkpt>
      <trkpt lat="42.63149" lon="1.7403">
        <ele>2443</ele>
        <time>2020-08-25T09:25:58.256Z</time>
      </trkpt>
      <trkpt lat="42.63145" lon="1.74032">
        <ele>2443</ele>
        <time>2020-08-25T09:26:11.274Z</time>
      </trkpt>
      <trkpt lat="42.63144" lon="1.74033">
        <ele>2443</ele>
        <time>2020-08-25T09:26:18.170Z</time>
      </trkpt>
      <trkpt lat="42.63141" lon="1.7404">
        <ele>2443</ele>
        <time>2020-08-25T09:26:37.549Z</time>
      </trkpt>
      <trkpt lat="42.63138" lon="1.74044">
        <ele>2442</ele>
        <time>2020-08-25T09:26:48.550Z</time>
      </trkpt>
      <trkpt lat="42.63137" lon="1.74045">
        <ele>2442</ele>
        <time>2020-08-25T09:26:52.693Z</time>
      </trkpt>
      <trkpt lat="42.63136" lon="1.74048">
        <ele>2442</ele>
        <time>2020-08-25T09:26:58.897Z</time>
      </trkpt>
      <trkpt lat="42.63133" lon="1.7405">
        <ele>2442</ele>
        <time>2020-08-25T09:27:07.114Z</time>
      </trkpt>
      <trkpt lat="42.63132" lon="1.74052">
        <ele>2442</ele>
        <time>2020-08-25T09:27:11.678Z</time>
      </trkpt>
      <trkpt lat="42.63131" lon="1.74058">
        <ele>2442</ele>
        <time>2020-08-25T09:27:36.196Z</time>
      </trkpt>
      <trkpt lat="42.6313" lon="1.74058">
        <ele>2442</ele>
        <time>2020-08-25T09:27:40.641Z</time>
      </trkpt>
      <trkpt lat="42.6313" lon="1.7406">
        <ele>2442</ele>
        <time>2020-08-25T09:27:45.769Z</time>
      </trkpt>
      <trkpt lat="42.63131" lon="1.74065">
        <ele>2442</ele>
        <time>2020-08-25T09:28:00.032Z</time>
      </trkpt>
      <trkpt lat="42.63132" lon="1.7407">
        <ele>2442</ele>
        <time>2020-08-25T09:28:09.621Z</time>
      </trkpt>
      <trkpt lat="42.63132" lon="1.74077">
        <ele>2442</ele>
        <time>2020-08-25T09:28:19.977Z</time>
      </trkpt>
      <trkpt lat="42.63131" lon="1.7408">
        <ele>2442</ele>
        <time>2020-08-25T09:28:29.764Z</time>
      </trkpt>
      <trkpt lat="42.63129" lon="1.7408">
        <ele>2442</ele>
        <time>2020-08-25T09:28:34.711Z</time>
      </trkpt>
      <trkpt lat="42.63129" lon="1.74081">
        <ele>2442</ele>
        <time>2020-08-25T09:28:39.937Z</time>
      </trkpt>
      <trkpt lat="42.63121" lon="1.74086">
        <ele>2466</ele>
        <time>2020-08-25T09:29:00.141Z</time>
      </trkpt>
      <trkpt lat="42.63117" lon="1.74089">
        <ele>2466</ele>
        <time>2020-08-25T09:29:13.783Z</time>
      </trkpt>
      <trkpt lat="42.63116" lon="1.74089">
        <ele>2466</ele>
        <time>2020-08-25T09:29:17.665Z</time>
      </trkpt>
      <trkpt lat="42.63114" lon="1.74091">
        <ele>2466</ele>
        <time>2020-08-25T09:29:22.615Z</time>
      </trkpt>
      <trkpt lat="42.63113" lon="1.74091">
        <ele>2466</ele>
        <time>2020-08-25T09:29:27.464Z</time>
      </trkpt>
      <trkpt lat="42.6311" lon="1.74097">
        <ele>2466</ele>
        <time>2020-08-25T09:29:33.044Z</time>
      </trkpt>
      <trkpt lat="42.63105" lon="1.74097">
        <ele>2466</ele>
        <time>2020-08-25T09:29:42.615Z</time>
      </trkpt>
      <trkpt lat="42.63103" lon="1.74096">
        <ele>2466</ele>
        <time>2020-08-25T09:29:49.308Z</time>
      </trkpt>
      <trkpt lat="42.631" lon="1.74097">
        <ele>2466</ele>
        <time>2020-08-25T09:29:57.904Z</time>
      </trkpt>
      <trkpt lat="42.63099" lon="1.74098">
        <ele>2467</ele>
        <time>2020-08-25T09:30:02.635Z</time>
      </trkpt>
      <trkpt lat="42.63096" lon="1.74095">
        <ele>2487</ele>
        <time>2020-08-25T09:30:09.242Z</time>
      </trkpt>
      <trkpt lat="42.63096" lon="1.74097">
        <ele>2487</ele>
        <time>2020-08-25T09:30:13.959Z</time>
      </trkpt>
      <trkpt lat="42.63094" lon="1.741">
        <ele>2486</ele>
        <time>2020-08-25T09:30:20.033Z</time>
      </trkpt>
      <trkpt lat="42.6309" lon="1.74098">
        <ele>2486</ele>
        <time>2020-08-25T09:30:25.583Z</time>
      </trkpt>
      <trkpt lat="42.63079" lon="1.74101">
        <ele>2486</ele>
        <time>2020-08-25T09:30:53.916Z</time>
      </trkpt>
      <trkpt lat="42.63076" lon="1.74103">
        <ele>2486</ele>
        <time>2020-08-25T09:33:04.695Z</time>
      </trkpt>
      <trkpt lat="42.63074" lon="1.74105">
        <ele>2486</ele>
        <time>2020-08-25T09:33:08.323Z</time>
      </trkpt>
      <trkpt lat="42.6307" lon="1.74104">
        <ele>2486</ele>
        <time>2020-08-25T09:33:13.275Z</time>
      </trkpt>
      <trkpt lat="42.6307" lon="1.74104">
        <ele>2486</ele>
        <time>2020-08-25T09:33:17.618Z</time>
      </trkpt>
      <trkpt lat="42.63069" lon="1.74107">
        <ele>2496</ele>
        <time>2020-08-25T09:33:24.109Z</time>
      </trkpt>
      <trkpt lat="42.63065" lon="1.74113">
        <ele>2496</ele>
        <time>2020-08-25T09:33:48.103Z</time>
      </trkpt>
      <trkpt lat="42.63064" lon="1.74114">
        <ele>2496</ele>
        <time>2020-08-25T09:33:52.638Z</time>
      </trkpt>
      <trkpt lat="42.63064" lon="1.74116">
        <ele>2496</ele>
        <time>2020-08-25T09:33:58.198Z</time>
      </trkpt>
      <trkpt lat="42.63063" lon="1.74117">
        <ele>2496</ele>
        <time>2020-08-25T09:34:03.325Z</time>
      </trkpt>
      <trkpt lat="42.63061" lon="1.74119">
        <ele>2496</ele>
        <time>2020-08-25T09:34:06.845Z</time>
      </trkpt>
      <trkpt lat="42.63053" lon="1.74118">
        <ele>2496</ele>
        <time>2020-08-25T09:34:32.735Z</time>
      </trkpt>
      <trkpt lat="42.63052" lon="1.74119">
        <ele>2496</ele>
        <time>2020-08-25T09:34:37.635Z</time>
      </trkpt>
      <trkpt lat="42.63051" lon="1.74118">
        <ele>2496</ele>
        <time>2020-08-25T09:34:42.613Z</time>
      </trkpt>
      <trkpt lat="42.63049" lon="1.74116">
        <ele>2496</ele>
        <time>2020-08-25T09:34:47.609Z</time>
      </trkpt>
      <trkpt lat="42.63048" lon="1.74117">
        <ele>2496</ele>
        <time>2020-08-25T09:34:52.770Z</time>
      </trkpt>
      <trkpt lat="42.63047" lon="1.7412">
        <ele>2496</ele>
        <time>2020-08-25T09:35:02.737Z</time>
      </trkpt>
      <trkpt lat="42.63045" lon="1.74123">
        <ele>2496</ele>
        <time>2020-08-25T09:35:08.821Z</time>
      </trkpt>
      <trkpt lat="42.63044" lon="1.74124">
        <ele>2496</ele>
        <time>2020-08-25T09:35:14.056Z</time>
      </trkpt>
      <trkpt lat="42.63043" lon="1.74126">
        <ele>2504</ele>
        <time>2020-08-25T09:35:20.866Z</time>
      </trkpt>
      <trkpt lat="42.63043" lon="1.74128">
        <ele>2504</ele>
        <time>2020-08-25T09:35:26.109Z</time>
      </trkpt>
      <trkpt lat="42.63037" lon="1.74136">
        <ele>2527</ele>
        <time>2020-08-25T09:35:45.796Z</time>
      </trkpt>
      <trkpt lat="42.63036" lon="1.74136">
        <ele>2527</ele>
        <time>2020-08-25T09:35:49.627Z</time>
      </trkpt>
      <trkpt lat="42.63036" lon="1.74136">
        <ele>2527</ele>
        <time>2020-08-25T09:35:56.402Z</time>
      </trkpt>
      <trkpt lat="42.63033" lon="1.74132">
        <ele>2527</ele>
        <time>2020-08-25T09:36:00.662Z</time>
      </trkpt>
      <trkpt lat="42.63031" lon="1.74132">
        <ele>2527</ele>
        <time>2020-08-25T09:36:04.819Z</time>
      </trkpt>
      <trkpt lat="42.63028" lon="1.74132">
        <ele>2527</ele>
        <time>2020-08-25T09:36:24.908Z</time>
      </trkpt>
      <trkpt lat="42.63028" lon="1.74133">
        <ele>2527</ele>
        <time>2020-08-25T09:36:26.923Z</time>
      </trkpt>
      <trkpt lat="42.63026" lon="1.74131">
        <ele>2527</ele>
        <time>2020-08-25T09:36:34.687Z</time>
      </trkpt>
      <trkpt lat="42.63024" lon="1.74131">
        <ele>2527</ele>
        <time>2020-08-25T09:36:40.203Z</time>
      </trkpt>
      <trkpt lat="42.63021" lon="1.74129">
        <ele>2527</ele>
        <time>2020-08-25T09:36:45.317Z</time>
      </trkpt>
      <trkpt lat="42.63014" lon="1.74122">
        <ele>2524</ele>
        <time>2020-08-25T09:37:35.034Z</time>
      </trkpt>
      <trkpt lat="42.63013" lon="1.74124">
        <ele>2574</ele>
        <time>2020-08-25T09:37:39.815Z</time>
      </trkpt>
      <trkpt lat="42.63012" lon="1.74125">
        <ele>2558</ele>
        <time>2020-08-25T09:37:45.594Z</time>
      </trkpt>
      <trkpt lat="42.63012" lon="1.74126">
        <ele>2558</ele>
        <time>2020-08-25T09:37:49.614Z</time>
      </trkpt>
      <trkpt lat="42.63011" lon="1.74126">
        <ele>2558</ele>
        <time>2020-08-25T09:37:55.237Z</time>
      </trkpt>
      <trkpt lat="42.63008" lon="1.74126">
        <ele>2558</ele>
        <time>2020-08-25T09:38:10.629Z</time>
      </trkpt>
      <trkpt lat="42.63006" lon="1.74127">
        <ele>2558</ele>
        <time>2020-08-25T09:38:14.945Z</time>
      </trkpt>
      <trkpt lat="42.63004" lon="1.74127">
        <ele>2558</ele>
        <time>2020-08-25T09:38:20.026Z</time>
      </trkpt>
      <trkpt lat="42.63003" lon="1.7413">
        <ele>2558</ele>
        <time>2020-08-25T09:38:24.968Z</time>
      </trkpt>
      <trkpt lat="42.63002" lon="1.74132">
        <ele>2558</ele>
        <time>2020-08-25T09:38:29.176Z</time>
      </trkpt>
      <trkpt lat="42.63003" lon="1.74134">
        <ele>2558</ele>
        <time>2020-08-25T09:38:33.868Z</time>
      </trkpt>
      <trkpt lat="42.63002" lon="1.74135">
        <ele>2558</ele>
        <time>2020-08-25T09:38:38.605Z</time>
      </trkpt>
      <trkpt lat="42.63" lon="1.74136">
        <ele>2558</ele>
        <time>2020-08-25T09:38:43.267Z</time>
      </trkpt>
      <trkpt lat="42.62999" lon="1.74135">
        <ele>2558</ele>
        <time>2020-08-25T09:38:49.959Z</time>
      </trkpt>
      <trkpt lat="42.62995" lon="1.74124">
        <ele>2574</ele>
        <time>2020-08-25T09:39:00.190Z</time>
      </trkpt>
      <trkpt lat="42.62987" lon="1.74122">
        <ele>2574</ele>
        <time>2020-08-25T09:39:45.613Z</time>
      </trkpt>
      <trkpt lat="42.62987" lon="1.74121">
        <ele>2574</ele>
        <time>2020-08-25T09:39:59.167Z</time>
      </trkpt>
      <trkpt lat="42.62986" lon="1.74123">
        <ele>2591</ele>
        <time>2020-08-25T09:40:04.466Z</time>
      </trkpt>
      <trkpt lat="42.62985" lon="1.74125">
        <ele>2588</ele>
        <time>2020-08-25T09:40:09.386Z</time>
      </trkpt>
      <trkpt lat="42.62984" lon="1.74128">
        <ele>2588</ele>
        <time>2020-08-25T09:40:18.154Z</time>
      </trkpt>
      <trkpt lat="42.62983" lon="1.74128">
        <ele>2588</ele>
        <time>2020-08-25T09:40:33.646Z</time>
      </trkpt>
      <trkpt lat="42.62983" lon="1.74128">
        <ele>2588</ele>
        <time>2020-08-25T09:40:37.143Z</time>
      </trkpt>
      <trkpt lat="42.62982" lon="1.74124">
        <ele>2591</ele>
        <time>2020-08-25T09:40:43.520Z</time>
      </trkpt>
      <trkpt lat="42.62982" lon="1.74118">
        <ele>2591</ele>
        <time>2020-08-25T09:40:46.615Z</time>
      </trkpt>
      <trkpt lat="42.62981" lon="1.74116">
        <ele>2591</ele>
        <time>2020-08-25T09:40:53.703Z</time>
      </trkpt>
      <trkpt lat="42.62972" lon="1.7411">
        <ele>2591</ele>
        <time>2020-08-25T09:41:31.357Z</time>
      </trkpt>
      <trkpt lat="42.62971" lon="1.74112">
        <ele>2591</ele>
        <time>2020-08-25T09:41:36.081Z</time>
      </trkpt>
      <trkpt lat="42.62971" lon="1.74112">
        <ele>2591</ele>
        <time>2020-08-25T09:41:40.349Z</time>
      </trkpt>
      <trkpt lat="42.62965" lon="1.74115">
        <ele>2591</ele>
        <time>2020-08-25T09:41:53.714Z</time>
      </trkpt>
      <trkpt lat="42.62965" lon="1.74115">
        <ele>2591</ele>
        <time>2020-08-25T09:41:58.628Z</time>
      </trkpt>
      <trkpt lat="42.62958" lon="1.74119">
        <ele>2608</ele>
        <time>2020-08-25T09:42:59.604Z</time>
      </trkpt>
      <trkpt lat="42.62958" lon="1.74119">
        <ele>2608</ele>
        <time>2020-08-25T09:43:03.606Z</time>
      </trkpt>
      <trkpt lat="42.62958" lon="1.74119">
        <ele>2608</ele>
        <time>2020-08-25T09:43:07.933Z</time>
      </trkpt>
      <trkpt lat="42.62957" lon="1.74119">
        <ele>2608</ele>
        <time>2020-08-25T09:43:14.809Z</time>
      </trkpt>
      <trkpt lat="42.62955" lon="1.7412">
        <ele>2608</ele>
        <time>2020-08-25T09:43:18.129Z</time>
      </trkpt>
      <trkpt lat="42.62955" lon="1.74114">
        <ele>2608</ele>
        <time>2020-08-25T09:43:54.446Z</time>
      </trkpt>
      <trkpt lat="42.62955" lon="1.74114">
        <ele>2608</ele>
        <time>2020-08-25T09:43:59.170Z</time>
      </trkpt>
      <trkpt lat="42.62957" lon="1.74111">
        <ele>2608</ele>
        <time>2020-08-25T09:44:01.216Z</time>
      </trkpt>
      <trkpt lat="42.62955" lon="1.74107">
        <ele>2608</ele>
        <time>2020-08-25T09:44:10.337Z</time>
      </trkpt>
      <trkpt lat="42.62954" lon="1.74105">
        <ele>2608</ele>
        <time>2020-08-25T09:44:14.781Z</time>
      </trkpt>
      <trkpt lat="42.62949" lon="1.74105">
        <ele>2608</ele>
        <time>2020-08-25T09:44:37.730Z</time>
      </trkpt>
      <trkpt lat="42.62948" lon="1.74105">
        <ele>2608</ele>
        <time>2020-08-25T09:44:41.989Z</time>
      </trkpt>
      <trkpt lat="42.62948" lon="1.74106">
        <ele>2608</ele>
        <time>2020-08-25T09:44:46.152Z</time>
      </trkpt>
      <trkpt lat="42.62946" lon="1.74105">
        <ele>2608</ele>
        <time>2020-08-25T09:44:50.689Z</time>
      </trkpt>
      <trkpt lat="42.62946" lon="1.74106">
        <ele>2608</ele>
        <time>2020-08-25T09:44:56.177Z</time>
      </trkpt>
      <trkpt lat="42.62939" lon="1.74103">
        <ele>2608</ele>
        <time>2020-08-25T09:45:51.980Z</time>
      </trkpt>
      <trkpt lat="42.62938" lon="1.74102">
        <ele>2608</ele>
        <time>2020-08-25T09:45:57.813Z</time>
      </trkpt>
      <trkpt lat="42.62938" lon="1.74102">
        <ele>2608</ele>
        <time>2020-08-25T09:46:02.260Z</time>
      </trkpt>
      <trkpt lat="42.62936" lon="1.74102">
        <ele>2608</ele>
        <time>2020-08-25T09:46:06.290Z</time>
      </trkpt>
      <trkpt lat="42.62935" lon="1.74103">
        <ele>2608</ele>
        <time>2020-08-25T09:46:10.786Z</time>
      </trkpt>
      <trkpt lat="42.62932" lon="1.74102">
        <ele>2608</ele>
        <time>2020-08-25T09:46:27.909Z</time>
      </trkpt>
      <trkpt lat="42.62931" lon="1.74103">
        <ele>2608</ele>
        <time>2020-08-25T09:46:33.199Z</time>
      </trkpt>
      <trkpt lat="42.62931" lon="1.74103">
        <ele>2621</ele>
        <time>2020-08-25T09:46:36.874Z</time>
      </trkpt>
      <trkpt lat="42.62929" lon="1.74102">
        <ele>2621</ele>
        <time>2020-08-25T09:46:41.702Z</time>
      </trkpt>
      <trkpt lat="42.62923" lon="1.74102">
        <ele>2621</ele>
        <time>2020-08-25T09:46:54.670Z</time>
      </trkpt>
      <trkpt lat="42.62921" lon="1.74099">
        <ele>2621</ele>
        <time>2020-08-25T09:47:30.664Z</time>
      </trkpt>
      <trkpt lat="42.62921" lon="1.74096">
        <ele>2625</ele>
        <time>2020-08-25T09:47:35.129Z</time>
      </trkpt>
      <trkpt lat="42.6292" lon="1.74087">
        <ele>2625</ele>
        <time>2020-08-25T09:47:49.089Z</time>
      </trkpt>
      <trkpt lat="42.6292" lon="1.74085">
        <ele>2625</ele>
        <time>2020-08-25T09:47:53.597Z</time>
      </trkpt>
      <trkpt lat="42.62919" lon="1.74082">
        <ele>2625</ele>
        <time>2020-08-25T09:47:57.644Z</time>
      </trkpt>
      <trkpt lat="42.62922" lon="1.74072">
        <ele>2625</ele>
        <time>2020-08-25T09:48:39.982Z</time>
      </trkpt>
      <trkpt lat="42.62922" lon="1.74072">
        <ele>2625</ele>
        <time>2020-08-25T09:48:45.089Z</time>
      </trkpt>
      <trkpt lat="42.62922" lon="1.74069">
        <ele>2631</ele>
        <time>2020-08-25T09:48:50.945Z</time>
      </trkpt>
      <trkpt lat="42.62927" lon="1.7406">
        <ele>2631</ele>
        <time>2020-08-25T09:48:59.886Z</time>
      </trkpt>
      <trkpt lat="42.62929" lon="1.74059">
        <ele>2631</ele>
        <time>2020-08-25T09:49:04.625Z</time>
      </trkpt>
      <trkpt lat="42.62937" lon="1.74057">
        <ele>2623</ele>
        <time>2020-08-25T09:50:19.886Z</time>
      </trkpt>
      <trkpt lat="42.62937" lon="1.74057">
        <ele>2623</ele>
        <time>2020-08-25T09:50:22.615Z</time>
      </trkpt>
      <trkpt lat="42.62937" lon="1.74057">
        <ele>2623</ele>
        <time>2020-08-25T09:50:31.851Z</time>
      </trkpt>
      <trkpt lat="42.62937" lon="1.74057">
        <ele>2623</ele>
        <time>2020-08-25T09:50:39.606Z</time>
      </trkpt>
      <trkpt lat="42.62941" lon="1.74055">
        <ele>2623</ele>
        <time>2020-08-25T09:50:45.617Z</time>
      </trkpt>
      <trkpt lat="42.6294" lon="1.74053">
        <ele>2623</ele>
        <time>2020-08-25T09:52:13.617Z</time>
      </trkpt>
      <trkpt lat="42.6294" lon="1.74053">
        <ele>2623</ele>
        <time>2020-08-25T09:52:17.638Z</time>
      </trkpt>
      <trkpt lat="42.62939" lon="1.74053">
        <ele>2623</ele>
        <time>2020-08-25T09:52:25.162Z</time>
      </trkpt>
      <trkpt lat="42.62932" lon="1.7405">
        <ele>2623</ele>
        <time>2020-08-25T09:52:29.616Z</time>
      </trkpt>
      <trkpt lat="42.6293" lon="1.74048">
        <ele>2631</ele>
        <time>2020-08-25T09:52:34.922Z</time>
      </trkpt>
      <trkpt lat="42.62927" lon="1.74042">
        <ele>2631</ele>
        <time>2020-08-25T09:53:36.767Z</time>
      </trkpt>
      <trkpt lat="42.62927" lon="1.74041">
        <ele>2638</ele>
        <time>2020-08-25T09:53:41.666Z</time>
      </trkpt>
      <trkpt lat="42.62926" lon="1.7404">
        <ele>2638</ele>
        <time>2020-08-25T09:53:45.890Z</time>
      </trkpt>
      <trkpt lat="42.62924" lon="1.74038">
        <ele>2638</ele>
        <time>2020-08-25T09:53:51.073Z</time>
      </trkpt>
      <trkpt lat="42.62924" lon="1.74037">
        <ele>2638</ele>
        <time>2020-08-25T09:53:55.805Z</time>
      </trkpt>
      <trkpt lat="42.62918" lon="1.74028">
        <ele>2638</ele>
        <time>2020-08-25T09:54:50.105Z</time>
      </trkpt>
      <trkpt lat="42.62916" lon="1.74025">
        <ele>2638</ele>
        <time>2020-08-25T09:54:54.989Z</time>
      </trkpt>
      <trkpt lat="42.62913" lon="1.74019">
        <ele>2638</ele>
        <time>2020-08-25T09:55:03.847Z</time>
      </trkpt>
      <trkpt lat="42.62912" lon="1.74009">
        <ele>2623</ele>
        <time>2020-08-25T09:55:10.743Z</time>
      </trkpt>
      <trkpt lat="42.6291" lon="1.74001">
        <ele>2623</ele>
        <time>2020-08-25T09:55:16.969Z</time>
      </trkpt>
      <trkpt lat="42.62908" lon="1.74">
        <ele>2623</ele>
        <time>2020-08-25T09:55:22.356Z</time>
      </trkpt>
      <trkpt lat="42.62909" lon="1.73995">
        <ele>2623</ele>
        <time>2020-08-25T09:55:27.220Z</time>
      </trkpt>
      <trkpt lat="42.62912" lon="1.73988">
        <ele>2623</ele>
        <time>2020-08-25T09:55:32.755Z</time>
      </trkpt>
      <trkpt lat="42.62911" lon="1.73986">
        <ele>2623</ele>
        <time>2020-08-25T09:55:37.493Z</time>
      </trkpt>
      <trkpt lat="42.6291" lon="1.73985">
        <ele>2640</ele>
        <time>2020-08-25T09:55:41.823Z</time>
      </trkpt>
      <trkpt lat="42.62909" lon="1.73982">
        <ele>2640</ele>
        <time>2020-08-25T09:55:46.649Z</time>
      </trkpt>
      <trkpt lat="42.6291" lon="1.73977">
        <ele>2640</ele>
        <time>2020-08-25T09:55:51.032Z</time>
      </trkpt>
      <trkpt lat="42.6291" lon="1.73972">
        <ele>2640</ele>
        <time>2020-08-25T09:55:55.345Z</time>
      </trkpt>
      <trkpt lat="42.62912" lon="1.73965">
        <ele>2640</ele>
        <time>2020-08-25T09:56:00.014Z</time>
      </trkpt>
      <trkpt lat="42.6291" lon="1.73959">
        <ele>2640</ele>
        <time>2020-08-25T09:56:05.063Z</time>
      </trkpt>
      <trkpt lat="42.62908" lon="1.73952">
        <ele>2645</ele>
        <time>2020-08-25T09:56:10.035Z</time>
      </trkpt>
      <trkpt lat="42.62909" lon="1.73948">
        <ele>2645</ele>
        <time>2020-08-25T09:56:14.663Z</time>
      </trkpt>
      <trkpt lat="42.62905" lon="1.73952">
        <ele>2645</ele>
        <time>2020-08-25T09:57:10.965Z</time>
      </trkpt>
      <trkpt lat="42.62905" lon="1.73953">
        <ele>2645</ele>
        <time>2020-08-25T09:57:15.575Z</time>
      </trkpt>
      <trkpt lat="42.62904" lon="1.73954">
        <ele>2645</ele>
        <time>2020-08-25T09:57:19.607Z</time>
      </trkpt>
      <trkpt lat="42.62904" lon="1.73956">
        <ele>2645</ele>
        <time>2020-08-25T09:57:24.628Z</time>
      </trkpt>
      <trkpt lat="42.62903" lon="1.73959">
        <ele>2640</ele>
        <time>2020-08-25T09:57:28.679Z</time>
      </trkpt>
      <trkpt lat="42.62894" lon="1.73963">
        <ele>2668</ele>
        <time>2020-08-25T09:59:10.165Z</time>
      </trkpt>
      <trkpt lat="42.62892" lon="1.73962">
        <ele>2668</ele>
        <time>2020-08-25T09:59:15.638Z</time>
      </trkpt>
      <trkpt lat="42.62891" lon="1.73959">
        <ele>2668</ele>
        <time>2020-08-25T09:59:20.863Z</time>
      </trkpt>
      <trkpt lat="42.62891" lon="1.73958">
        <ele>2669</ele>
        <time>2020-08-25T09:59:24.168Z</time>
      </trkpt>
      <trkpt lat="42.62888" lon="1.73957">
        <ele>2669</ele>
        <time>2020-08-25T09:59:39.093Z</time>
      </trkpt>
      <trkpt lat="42.62874" lon="1.73963">
        <ele>2694</ele>
        <time>2020-08-25T10:01:27.587Z</time>
      </trkpt>
      <trkpt lat="42.62874" lon="1.73965">
        <ele>2694</ele>
        <time>2020-08-25T10:01:32.879Z</time>
      </trkpt>
      <trkpt lat="42.62874" lon="1.73966">
        <ele>2694</ele>
        <time>2020-08-25T10:01:37.697Z</time>
      </trkpt>
      <trkpt lat="42.62873" lon="1.73967">
        <ele>2694</ele>
        <time>2020-08-25T10:01:42.777Z</time>
      </trkpt>
      <trkpt lat="42.62872" lon="1.73967">
        <ele>2694</ele>
        <time>2020-08-25T10:01:47.024Z</time>
      </trkpt>
      <trkpt lat="42.62866" lon="1.73965">
        <ele>2694</ele>
        <time>2020-08-25T10:02:28.586Z</time>
      </trkpt>
      <trkpt lat="42.62866" lon="1.73965">
        <ele>2694</ele>
        <time>2020-08-25T10:02:33.046Z</time>
      </trkpt>
      <trkpt lat="42.62867" lon="1.73971">
        <ele>2694</ele>
        <time>2020-08-25T10:02:45.724Z</time>
      </trkpt>
      <trkpt lat="42.62866" lon="1.73974">
        <ele>2694</ele>
        <time>2020-08-25T10:02:54.589Z</time>
      </trkpt>
      <trkpt lat="42.62863" lon="1.73974">
        <ele>2694</ele>
        <time>2020-08-25T10:03:00.055Z</time>
      </trkpt>
      <trkpt lat="42.62858" lon="1.73977">
        <ele>2694</ele>
        <time>2020-08-25T10:03:13.569Z</time>
      </trkpt>
      <trkpt lat="42.62857" lon="1.73977">
        <ele>2694</ele>
        <time>2020-08-25T10:03:17.820Z</time>
      </trkpt>
      <trkpt lat="42.62856" lon="1.73977">
        <ele>2694</ele>
        <time>2020-08-25T10:03:25.809Z</time>
      </trkpt>
      <trkpt lat="42.62856" lon="1.73978">
        <ele>2694</ele>
        <time>2020-08-25T10:03:29.907Z</time>
      </trkpt>
      <trkpt lat="42.62853" lon="1.73978">
        <ele>2694</ele>
        <time>2020-08-25T10:03:34.979Z</time>
      </trkpt>
      <trkpt lat="42.62847" lon="1.73975">
        <ele>2723</ele>
        <time>2020-08-25T10:03:44.603Z</time>
      </trkpt>
      <trkpt lat="42.62844" lon="1.73975">
        <ele>2723</ele>
        <time>2020-08-25T10:03:49.566Z</time>
      </trkpt>
      <trkpt lat="42.62843" lon="1.73975">
        <ele>2723</ele>
        <time>2020-08-25T10:03:53.605Z</time>
      </trkpt>
      <trkpt lat="42.62842" lon="1.73975">
        <ele>2723</ele>
        <time>2020-08-25T10:03:58.031Z</time>
      </trkpt>
      <trkpt lat="42.62839" lon="1.73975">
        <ele>2723</ele>
        <time>2020-08-25T10:04:05.019Z</time>
      </trkpt>
      <trkpt lat="42.62837" lon="1.73975">
        <ele>2723</ele>
        <time>2020-08-25T10:04:22.101Z</time>
      </trkpt>
      <trkpt lat="42.62836" lon="1.73976">
        <ele>2723</ele>
        <time>2020-08-25T10:04:29.136Z</time>
      </trkpt>
      <trkpt lat="42.62836" lon="1.73976">
        <ele>2723</ele>
        <time>2020-08-25T10:04:35.609Z</time>
      </trkpt>
      <trkpt lat="42.62834" lon="1.73978">
        <ele>2723</ele>
        <time>2020-08-25T10:04:42.636Z</time>
      </trkpt>
      <trkpt lat="42.62829" lon="1.7398">
        <ele>2723</ele>
        <time>2020-08-25T10:04:53.632Z</time>
      </trkpt>
      <trkpt lat="42.62822" lon="1.73979">
        <ele>2723</ele>
        <time>2020-08-25T10:05:12.875Z</time>
      </trkpt>
      <trkpt lat="42.62821" lon="1.7398">
        <ele>2723</ele>
        <time>2020-08-25T10:05:16.977Z</time>
      </trkpt>
      <trkpt lat="42.62819" lon="1.73981">
        <ele>2724</ele>
        <time>2020-08-25T10:05:21.790Z</time>
      </trkpt>
      <trkpt lat="42.62819" lon="1.7398">
        <ele>2724</ele>
        <time>2020-08-25T10:05:29.876Z</time>
      </trkpt>
      <trkpt lat="42.62818" lon="1.7398">
        <ele>2724</ele>
        <time>2020-08-25T10:05:36.730Z</time>
      </trkpt>
      <trkpt lat="42.62812" lon="1.73983">
        <ele>2724</ele>
        <time>2020-08-25T10:06:07.850Z</time>
      </trkpt>
      <trkpt lat="42.62812" lon="1.73986">
        <ele>2724</ele>
        <time>2020-08-25T10:06:13.604Z</time>
      </trkpt>
      <trkpt lat="42.62812" lon="1.73986">
        <ele>2724</ele>
        <time>2020-08-25T10:06:18.920Z</time>
      </trkpt>
      <trkpt lat="42.62809" lon="1.73986">
        <ele>2720</ele>
        <time>2020-08-25T10:06:23.053Z</time>
      </trkpt>
      <trkpt lat="42.62809" lon="1.73987">
        <ele>2720</ele>
        <time>2020-08-25T10:06:28.400Z</time>
      </trkpt>
      <trkpt lat="42.62801" lon="1.73991">
        <ele>2720</ele>
        <time>2020-08-25T10:14:34.207Z</time>
      </trkpt>
      <trkpt lat="42.62801" lon="1.73993">
        <ele>2720</ele>
        <time>2020-08-25T10:14:39.132Z</time>
      </trkpt>
      <trkpt lat="42.62798" lon="1.73984">
        <ele>2724</ele>
        <time>2020-08-25T10:14:49.051Z</time>
      </trkpt>
      <trkpt lat="42.62797" lon="1.73983">
        <ele>2724</ele>
        <time>2020-08-25T10:14:53.234Z</time>
      </trkpt>
      <trkpt lat="42.62796" lon="1.73982">
        <ele>2724</ele>
        <time>2020-08-25T10:14:58.532Z</time>
      </trkpt>
      <trkpt lat="42.62793" lon="1.73971">
        <ele>2724</ele>
        <time>2020-08-25T10:15:36.688Z</time>
      </trkpt>
      <trkpt lat="42.62794" lon="1.73971">
        <ele>2724</ele>
        <time>2020-08-25T10:15:44.027Z</time>
      </trkpt>
      <trkpt lat="42.62792" lon="1.73968">
        <ele>2716</ele>
        <time>2020-08-25T10:15:49.360Z</time>
      </trkpt>
      <trkpt lat="42.62791" lon="1.73968">
        <ele>2716</ele>
        <time>2020-08-25T10:15:53.880Z</time>
      </trkpt>
      <trkpt lat="42.62791" lon="1.73966">
        <ele>2716</ele>
        <time>2020-08-25T10:15:58.728Z</time>
      </trkpt>
      <trkpt lat="42.62787" lon="1.73959">
        <ele>2716</ele>
        <time>2020-08-25T10:16:41.136Z</time>
      </trkpt>
      <trkpt lat="42.62787" lon="1.73959">
        <ele>2716</ele>
        <time>2020-08-25T10:16:45.601Z</time>
      </trkpt>
      <trkpt lat="42.62787" lon="1.73959">
        <ele>2716</ele>
        <time>2020-08-25T10:16:50.595Z</time>
      </trkpt>
      <trkpt lat="42.62786" lon="1.73958">
        <ele>2732</ele>
        <time>2020-08-25T10:16:55.879Z</time>
      </trkpt>
      <trkpt lat="42.62785" lon="1.73956">
        <ele>2732</ele>
        <time>2020-08-25T10:16:59.922Z</time>
      </trkpt>
      <trkpt lat="42.62778" lon="1.73951">
        <ele>2732</ele>
        <time>2020-08-25T10:19:06.020Z</time>
      </trkpt>
      <trkpt lat="42.62778" lon="1.73949">
        <ele>2732</ele>
        <time>2020-08-25T10:19:14.083Z</time>
      </trkpt>
      <trkpt lat="42.62777" lon="1.7395">
        <ele>2732</ele>
        <time>2020-08-25T10:19:17.170Z</time>
      </trkpt>
      <trkpt lat="42.62775" lon="1.7395">
        <ele>2732</ele>
        <time>2020-08-25T10:19:24.835Z</time>
      </trkpt>
      <trkpt lat="42.62773" lon="1.73948">
        <ele>2732</ele>
        <time>2020-08-25T10:19:30.054Z</time>
      </trkpt>
      <trkpt lat="42.62769" lon="1.73938">
        <ele>2732</ele>
        <time>2020-08-25T10:20:12.937Z</time>
      </trkpt>
      <trkpt lat="42.62769" lon="1.73937">
        <ele>2732</ele>
        <time>2020-08-25T10:20:21.150Z</time>
      </trkpt>
      <trkpt lat="42.62769" lon="1.73936">
        <ele>2732</ele>
        <time>2020-08-25T10:20:25.901Z</time>
      </trkpt>
      <trkpt lat="42.62769" lon="1.73935">
        <ele>2732</ele>
        <time>2020-08-25T10:20:31.544Z</time>
      </trkpt>
      <trkpt lat="42.62769" lon="1.73932">
        <ele>2732</ele>
        <time>2020-08-25T10:20:35.732Z</time>
      </trkpt>
      <trkpt lat="42.62766" lon="1.73931">
        <ele>2732</ele>
        <time>2020-08-25T10:21:06.171Z</time>
      </trkpt>
      <trkpt lat="42.62766" lon="1.73931">
        <ele>2732</ele>
        <time>2020-08-25T10:21:11.992Z</time>
      </trkpt>
      <trkpt lat="42.62761" lon="1.73927">
        <ele>2767</ele>
        <time>2020-08-25T10:21:32.762Z</time>
      </trkpt>
      <trkpt lat="42.62761" lon="1.73928">
        <ele>2767</ele>
        <time>2020-08-25T10:21:36.885Z</time>
      </trkpt>
      <trkpt lat="42.62758" lon="1.73924">
        <ele>2767</ele>
        <time>2020-08-25T10:21:40.384Z</time>
      </trkpt>
      <trkpt lat="42.62754" lon="1.73909">
        <ele>2767</ele>
        <time>2020-08-25T10:22:38.589Z</time>
      </trkpt>
      <trkpt lat="42.62753" lon="1.7391">
        <ele>2767</ele>
        <time>2020-08-25T10:22:43.815Z</time>
      </trkpt>
      <trkpt lat="42.62753" lon="1.73909">
        <ele>2767</ele>
        <time>2020-08-25T10:22:49.269Z</time>
      </trkpt>
      <trkpt lat="42.62752" lon="1.73909">
        <ele>2767</ele>
        <time>2020-08-25T10:22:56.889Z</time>
      </trkpt>
      <trkpt lat="42.62751" lon="1.73909">
        <ele>2767</ele>
        <time>2020-08-25T10:23:01.602Z</time>
      </trkpt>
      <trkpt lat="42.62751" lon="1.73909">
        <ele>2767</ele>
        <time>2020-08-25T10:23:06.582Z</time>
      </trkpt>
      <trkpt lat="42.62749" lon="1.73907">
        <ele>2767</ele>
        <time>2020-08-25T10:23:11.717Z</time>
      </trkpt>
      <trkpt lat="42.62746" lon="1.739">
        <ele>2766</ele>
        <time>2020-08-25T10:23:15.878Z</time>
      </trkpt>
      <trkpt lat="42.62746" lon="1.73899">
        <ele>2766</ele>
        <time>2020-08-25T10:23:19.946Z</time>
      </trkpt>
      <trkpt lat="42.62742" lon="1.73897">
        <ele>2766</ele>
        <time>2020-08-25T10:23:41.820Z</time>
      </trkpt>
      <trkpt lat="42.62742" lon="1.73897">
        <ele>2766</ele>
        <time>2020-08-25T10:23:46.979Z</time>
      </trkpt>
      <trkpt lat="42.62742" lon="1.73896">
        <ele>2766</ele>
        <time>2020-08-25T10:23:51.936Z</time>
      </trkpt>
      <trkpt lat="42.6274" lon="1.73893">
        <ele>2766</ele>
        <time>2020-08-25T10:23:55.850Z</time>
      </trkpt>
      <trkpt lat="42.62736" lon="1.7389">
        <ele>2766</ele>
        <time>2020-08-25T10:24:00.774Z</time>
      </trkpt>
      <trkpt lat="42.62736" lon="1.73882">
        <ele>2766</ele>
        <time>2020-08-25T10:26:01.816Z</time>
      </trkpt>
      <trkpt lat="42.6274" lon="1.73881">
        <ele>2766</ele>
        <time>2020-08-25T10:26:08.264Z</time>
      </trkpt>
      <trkpt lat="42.62743" lon="1.73878">
        <ele>2766</ele>
        <time>2020-08-25T10:26:12.976Z</time>
      </trkpt>
      <trkpt lat="42.62743" lon="1.73875">
        <ele>2768</ele>
        <time>2020-08-25T10:26:17.231Z</time>
      </trkpt>
      <trkpt lat="42.62742" lon="1.7387">
        <ele>2768</ele>
        <time>2020-08-25T10:26:22.941Z</time>
      </trkpt>
      <trkpt lat="42.62743" lon="1.73863">
        <ele>2768</ele>
        <time>2020-08-25T10:26:32.608Z</time>
      </trkpt>
      <trkpt lat="42.62744" lon="1.73862">
        <ele>2768</ele>
        <time>2020-08-25T10:26:38.083Z</time>
      </trkpt>
      <trkpt lat="42.62745" lon="1.73862">
        <ele>2768</ele>
        <time>2020-08-25T10:26:43.753Z</time>
      </trkpt>
      <trkpt lat="42.62744" lon="1.73857">
        <ele>2768</ele>
        <time>2020-08-25T10:27:09.192Z</time>
      </trkpt>
      <trkpt lat="42.62745" lon="1.73854">
        <ele>2768</ele>
        <time>2020-08-25T10:27:13.848Z</time>
      </trkpt>
      <trkpt lat="42.62743" lon="1.73849">
        <ele>2768</ele>
        <time>2020-08-25T10:30:05.150Z</time>
      </trkpt>
      <trkpt lat="42.62743" lon="1.73848">
        <ele>2768</ele>
        <time>2020-08-25T10:30:09.903Z</time>
      </trkpt>
      <trkpt lat="42.62742" lon="1.73848">
        <ele>2768</ele>
        <time>2020-08-25T10:30:14.897Z</time>
      </trkpt>
      <trkpt lat="42.62742" lon="1.73845">
        <ele>2770</ele>
        <time>2020-08-25T10:30:29.264Z</time>
      </trkpt>
      <trkpt lat="42.62744" lon="1.73841">
        <ele>2770</ele>
        <time>2020-08-25T10:30:34.579Z</time>
      </trkpt>
      <trkpt lat="42.62743" lon="1.73842">
        <ele>2770</ele>
        <time>2020-08-25T11:25:51.757Z</time>
      </trkpt>
      <trkpt lat="42.62744" lon="1.73843">
        <ele>2770</ele>
        <time>2020-08-25T11:26:00.025Z</time>
      </trkpt>
      <trkpt lat="42.62746" lon="1.73849">
        <ele>2768</ele>
        <time>2020-08-25T11:26:07.746Z</time>
      </trkpt>
      <trkpt lat="42.62747" lon="1.73851">
        <ele>2768</ele>
        <time>2020-08-25T11:26:12.688Z</time>
      </trkpt>
      <trkpt lat="42.6275" lon="1.73854">
        <ele>2768</ele>
        <time>2020-08-25T11:26:20.678Z</time>
      </trkpt>
      <trkpt lat="42.62747" lon="1.7386">
        <ele>2768</ele>
        <time>2020-08-25T11:27:30.744Z</time>
      </trkpt>
      <trkpt lat="42.62747" lon="1.73862">
        <ele>2768</ele>
        <time>2020-08-25T11:27:35.582Z</time>
      </trkpt>
      <trkpt lat="42.62746" lon="1.73864">
        <ele>2768</ele>
        <time>2020-08-25T11:27:52.172Z</time>
      </trkpt>
      <trkpt lat="42.62745" lon="1.73865">
        <ele>2768</ele>
        <time>2020-08-25T11:27:59.837Z</time>
      </trkpt>
      <trkpt lat="42.62743" lon="1.73866">
        <ele>2768</ele>
        <time>2020-08-25T11:28:04.713Z</time>
      </trkpt>
      <trkpt lat="42.62737" lon="1.73869">
        <ele>2768</ele>
        <time>2020-08-25T11:28:40.017Z</time>
      </trkpt>
      <trkpt lat="42.62734" lon="1.7387">
        <ele>2752</ele>
        <time>2020-08-25T11:28:45.101Z</time>
      </trkpt>
      <trkpt lat="42.62734" lon="1.73871">
        <ele>2752</ele>
        <time>2020-08-25T11:28:49.826Z</time>
      </trkpt>
      <trkpt lat="42.62734" lon="1.73872">
        <ele>2752</ele>
        <time>2020-08-25T11:28:54.875Z</time>
      </trkpt>
      <trkpt lat="42.62732" lon="1.73873">
        <ele>2752</ele>
        <time>2020-08-25T11:28:59.312Z</time>
      </trkpt>
      <trkpt lat="42.62725" lon="1.73876">
        <ele>2742</ele>
        <time>2020-08-25T11:29:25.185Z</time>
      </trkpt>
      <trkpt lat="42.62725" lon="1.73876">
        <ele>2742</ele>
        <time>2020-08-25T11:29:29.100Z</time>
      </trkpt>
      <trkpt lat="42.62725" lon="1.73876">
        <ele>2742</ele>
        <time>2020-08-25T11:29:34.631Z</time>
      </trkpt>
      <trkpt lat="42.62724" lon="1.73879">
        <ele>2742</ele>
        <time>2020-08-25T11:29:38.766Z</time>
      </trkpt>
      <trkpt lat="42.62722" lon="1.73879">
        <ele>2742</ele>
        <time>2020-08-25T11:29:42.183Z</time>
      </trkpt>
      <trkpt lat="42.62721" lon="1.73879">
        <ele>2742</ele>
        <time>2020-08-25T11:30:15.596Z</time>
      </trkpt>
      <trkpt lat="42.62721" lon="1.73879">
        <ele>2742</ele>
        <time>2020-08-25T11:30:19.040Z</time>
      </trkpt>
      <trkpt lat="42.62718" lon="1.73883">
        <ele>2742</ele>
        <time>2020-08-25T11:30:33.335Z</time>
      </trkpt>
      <trkpt lat="42.62715" lon="1.73883">
        <ele>2742</ele>
        <time>2020-08-25T11:30:38.206Z</time>
      </trkpt>
      <trkpt lat="42.6271" lon="1.73881">
        <ele>2742</ele>
        <time>2020-08-25T11:30:49.946Z</time>
      </trkpt>
      <trkpt lat="42.62704" lon="1.73878">
        <ele>2724</ele>
        <time>2020-08-25T11:31:09.134Z</time>
      </trkpt>
      <trkpt lat="42.62705" lon="1.73877">
        <ele>2724</ele>
        <time>2020-08-25T11:31:13.746Z</time>
      </trkpt>
      <trkpt lat="42.62704" lon="1.73877">
        <ele>2724</ele>
        <time>2020-08-25T11:31:18.575Z</time>
      </trkpt>
      <trkpt lat="42.62701" lon="1.73874">
        <ele>2740</ele>
        <time>2020-08-25T11:31:22.590Z</time>
      </trkpt>
      <trkpt lat="42.62696" lon="1.73873">
        <ele>2740</ele>
        <time>2020-08-25T11:31:27.616Z</time>
      </trkpt>
      <trkpt lat="42.62691" lon="1.73872">
        <ele>2740</ele>
        <time>2020-08-25T11:31:49.993Z</time>
      </trkpt>
      <trkpt lat="42.6269" lon="1.73872">
        <ele>2740</ele>
        <time>2020-08-25T11:31:55.031Z</time>
      </trkpt>
      <trkpt lat="42.6269" lon="1.73872">
        <ele>2740</ele>
        <time>2020-08-25T11:31:59.642Z</time>
      </trkpt>
      <trkpt lat="42.62686" lon="1.7387">
        <ele>2740</ele>
        <time>2020-08-25T11:32:06.108Z</time>
      </trkpt>
      <trkpt lat="42.62683" lon="1.73868">
        <ele>2740</ele>
        <time>2020-08-25T11:32:10.710Z</time>
      </trkpt>
      <trkpt lat="42.62675" lon="1.73871">
        <ele>2731</ele>
        <time>2020-08-25T11:33:03.729Z</time>
      </trkpt>
      <trkpt lat="42.62675" lon="1.73871">
        <ele>2731</ele>
        <time>2020-08-25T11:33:07.733Z</time>
      </trkpt>
      <trkpt lat="42.62675" lon="1.73871">
        <ele>2731</ele>
        <time>2020-08-25T11:33:12.735Z</time>
      </trkpt>
      <trkpt lat="42.62674" lon="1.73872">
        <ele>2731</ele>
        <time>2020-08-25T11:33:17.614Z</time>
      </trkpt>
      <trkpt lat="42.62673" lon="1.73871">
        <ele>2731</ele>
        <time>2020-08-25T11:33:21.787Z</time>
      </trkpt>
      <trkpt lat="42.62667" lon="1.73868">
        <ele>2731</ele>
        <time>2020-08-25T11:35:51.085Z</time>
      </trkpt>
      <trkpt lat="42.62667" lon="1.73868">
        <ele>2731</ele>
        <time>2020-08-25T11:35:56.793Z</time>
      </trkpt>
      <trkpt lat="42.62667" lon="1.73865">
        <ele>2731</ele>
        <time>2020-08-25T11:36:02.664Z</time>
      </trkpt>
      <trkpt lat="42.62665" lon="1.73861">
        <ele>2731</ele>
        <time>2020-08-25T11:36:07.215Z</time>
      </trkpt>
      <trkpt lat="42.62665" lon="1.73859">
        <ele>2731</ele>
        <time>2020-08-25T11:36:11.625Z</time>
      </trkpt>
      <trkpt lat="42.62665" lon="1.73859">
        <ele>2731</ele>
        <time>2020-08-25T11:36:27.635Z</time>
      </trkpt>
      <trkpt lat="42.62661" lon="1.73858">
        <ele>2731</ele>
        <time>2020-08-25T11:36:33.139Z</time>
      </trkpt>
      <trkpt lat="42.62658" lon="1.73855">
        <ele>2731</ele>
        <time>2020-08-25T11:36:36.782Z</time>
      </trkpt>
      <trkpt lat="42.62657" lon="1.73856">
        <ele>2731</ele>
        <time>2020-08-25T11:36:41.105Z</time>
      </trkpt>
      <trkpt lat="42.62656" lon="1.73855">
        <ele>2731</ele>
        <time>2020-08-25T11:36:45.731Z</time>
      </trkpt>
      <trkpt lat="42.62643" lon="1.73857">
        <ele>2716</ele>
        <time>2020-08-25T11:37:16.591Z</time>
      </trkpt>
      <trkpt lat="42.62642" lon="1.73857">
        <ele>2716</ele>
        <time>2020-08-25T11:37:21.573Z</time>
      </trkpt>
      <trkpt lat="42.62642" lon="1.73857">
        <ele>2716</ele>
        <time>2020-08-25T11:37:26.571Z</time>
      </trkpt>
      <trkpt lat="42.62641" lon="1.73856">
        <ele>2716</ele>
        <time>2020-08-25T11:37:30.609Z</time>
      </trkpt>
      <trkpt lat="42.62641" lon="1.73854">
        <ele>2716</ele>
        <time>2020-08-25T11:37:34.777Z</time>
      </trkpt>
      <trkpt lat="42.62638" lon="1.73845">
        <ele>2728</ele>
        <time>2020-08-25T11:39:39.563Z</time>
      </trkpt>
      <trkpt lat="42.62637" lon="1.73845">
        <ele>2728</ele>
        <time>2020-08-25T11:39:44.013Z</time>
      </trkpt>
      <trkpt lat="42.62638" lon="1.73845">
        <ele>2728</ele>
        <time>2020-08-25T11:39:48.713Z</time>
      </trkpt>
      <trkpt lat="42.62637" lon="1.73843">
        <ele>2728</ele>
        <time>2020-08-25T11:39:52.390Z</time>
      </trkpt>
      <trkpt lat="42.62633" lon="1.73841">
        <ele>2728</ele>
        <time>2020-08-25T11:39:58.035Z</time>
      </trkpt>
      <trkpt lat="42.62631" lon="1.73842">
        <ele>2728</ele>
        <time>2020-08-25T11:40:07.794Z</time>
      </trkpt>
      <trkpt lat="42.62633" lon="1.73838">
        <ele>2728</ele>
        <time>2020-08-25T11:40:13.499Z</time>
      </trkpt>
      <trkpt lat="42.62634" lon="1.73835">
        <ele>2728</ele>
        <time>2020-08-25T11:40:16.962Z</time>
      </trkpt>
      <trkpt lat="42.62637" lon="1.73833">
        <ele>2728</ele>
        <time>2020-08-25T11:40:22.592Z</time>
      </trkpt>
      <trkpt lat="42.6264" lon="1.73831">
        <ele>2728</ele>
        <time>2020-08-25T11:40:27.588Z</time>
      </trkpt>
      <trkpt lat="42.6264" lon="1.73826">
        <ele>2728</ele>
        <time>2020-08-25T11:41:21.612Z</time>
      </trkpt>
      <trkpt lat="42.62636" lon="1.73827">
        <ele>2728</ele>
        <time>2020-08-25T11:41:25.713Z</time>
      </trkpt>
      <trkpt lat="42.6263" lon="1.73826">
        <ele>2728</ele>
        <time>2020-08-25T11:41:31.757Z</time>
      </trkpt>
      <trkpt lat="42.62627" lon="1.73826">
        <ele>2728</ele>
        <time>2020-08-25T11:41:36.089Z</time>
      </trkpt>
      <trkpt lat="42.62624" lon="1.73825">
        <ele>2713</ele>
        <time>2020-08-25T11:41:41.589Z</time>
      </trkpt>
      <trkpt lat="42.6261" lon="1.73827">
        <ele>2713</ele>
        <time>2020-08-25T11:42:10.569Z</time>
      </trkpt>
      <trkpt lat="42.6261" lon="1.73825">
        <ele>2713</ele>
        <time>2020-08-25T11:42:14.891Z</time>
      </trkpt>
      <trkpt lat="42.62609" lon="1.73825">
        <ele>2713</ele>
        <time>2020-08-25T11:42:18.998Z</time>
      </trkpt>
      <trkpt lat="42.62608" lon="1.73824">
        <ele>2713</ele>
        <time>2020-08-25T11:42:24.141Z</time>
      </trkpt>
      <trkpt lat="42.62607" lon="1.73823">
        <ele>2713</ele>
        <time>2020-08-25T11:42:30.889Z</time>
      </trkpt>
      <trkpt lat="42.62605" lon="1.73823">
        <ele>2713</ele>
        <time>2020-08-25T11:42:36.144Z</time>
      </trkpt>
      <trkpt lat="42.62602" lon="1.7382">
        <ele>2713</ele>
        <time>2020-08-25T11:42:40.584Z</time>
      </trkpt>
      <trkpt lat="42.626" lon="1.73821">
        <ele>2713</ele>
        <time>2020-08-25T11:42:44.680Z</time>
      </trkpt>
      <trkpt lat="42.626" lon="1.73821">
        <ele>2713</ele>
        <time>2020-08-25T11:42:46.289Z</time>
      </trkpt>
      <trkpt lat="42.62595" lon="1.73824">
        <ele>2702</ele>
        <time>2020-08-25T11:42:58.094Z</time>
      </trkpt>
      <trkpt lat="42.62588" lon="1.73816">
        <ele>2697</ele>
        <time>2020-08-25T11:44:08.910Z</time>
      </trkpt>
      <trkpt lat="42.62584" lon="1.73817">
        <ele>2697</ele>
        <time>2020-08-25T11:44:13.983Z</time>
      </trkpt>
      <trkpt lat="42.62579" lon="1.73819">
        <ele>2697</ele>
        <time>2020-08-25T11:44:19.238Z</time>
      </trkpt>
      <trkpt lat="42.62563" lon="1.7382">
        <ele>2686</ele>
        <time>2020-08-25T11:44:41.657Z</time>
      </trkpt>
      <trkpt lat="42.62561" lon="1.73819">
        <ele>2685</ele>
        <time>2020-08-25T11:44:45.637Z</time>
      </trkpt>
      <trkpt lat="42.62565" lon="1.73811">
        <ele>2685</ele>
        <time>2020-08-25T11:45:54.707Z</time>
      </trkpt>
      <trkpt lat="42.62563" lon="1.73807">
        <ele>2685</ele>
        <time>2020-08-25T11:45:59.945Z</time>
      </trkpt>
      <trkpt lat="42.62563" lon="1.73806">
        <ele>2685</ele>
        <time>2020-08-25T11:46:04.587Z</time>
      </trkpt>
      <trkpt lat="42.62563" lon="1.73805">
        <ele>2685</ele>
        <time>2020-08-25T11:46:09.022Z</time>
      </trkpt>
      <trkpt lat="42.62563" lon="1.73805">
        <ele>2685</ele>
        <time>2020-08-25T11:46:15.642Z</time>
      </trkpt>
      <trkpt lat="42.62561" lon="1.73797">
        <ele>2685</ele>
        <time>2020-08-25T11:46:46.670Z</time>
      </trkpt>
      <trkpt lat="42.62561" lon="1.73797">
        <ele>2685</ele>
        <time>2020-08-25T11:46:50.917Z</time>
      </trkpt>
      <trkpt lat="42.62559" lon="1.73794">
        <ele>2685</ele>
        <time>2020-08-25T11:46:53.719Z</time>
      </trkpt>
      <trkpt lat="42.62559" lon="1.73793">
        <ele>2685</ele>
        <time>2020-08-25T11:47:00.095Z</time>
      </trkpt>
      <trkpt lat="42.62559" lon="1.73792">
        <ele>2667</ele>
        <time>2020-08-25T11:47:04.582Z</time>
      </trkpt>
      <trkpt lat="42.62554" lon="1.73792">
        <ele>2685</ele>
        <time>2020-08-25T11:47:21.866Z</time>
      </trkpt>
      <trkpt lat="42.62554" lon="1.73792">
        <ele>2685</ele>
        <time>2020-08-25T11:47:25.731Z</time>
      </trkpt>
      <trkpt lat="42.62551" lon="1.73791">
        <ele>2667</ele>
        <time>2020-08-25T11:47:31.094Z</time>
      </trkpt>
      <trkpt lat="42.62551" lon="1.73791">
        <ele>2667</ele>
        <time>2020-08-25T11:47:36.220Z</time>
      </trkpt>
      <trkpt lat="42.6255" lon="1.7379">
        <ele>2667</ele>
        <time>2020-08-25T11:47:41.243Z</time>
      </trkpt>
      <trkpt lat="42.62548" lon="1.73789">
        <ele>2667</ele>
        <time>2020-08-25T11:48:12.121Z</time>
      </trkpt>
      <trkpt lat="42.6255" lon="1.73785">
        <ele>2667</ele>
        <time>2020-08-25T11:48:16.423Z</time>
      </trkpt>
      <trkpt lat="42.6255" lon="1.73785">
        <ele>2667</ele>
        <time>2020-08-25T11:48:20.750Z</time>
      </trkpt>
      <trkpt lat="42.62549" lon="1.73785">
        <ele>2667</ele>
        <time>2020-08-25T11:48:25.600Z</time>
      </trkpt>
      <trkpt lat="42.62539" lon="1.73777">
        <ele>2655</ele>
        <time>2020-08-25T11:48:37.729Z</time>
      </trkpt>
      <trkpt lat="42.62539" lon="1.73773">
        <ele>2655</ele>
        <time>2020-08-25T11:49:07.694Z</time>
      </trkpt>
      <trkpt lat="42.62539" lon="1.73773">
        <ele>2655</ele>
        <time>2020-08-25T11:49:12.809Z</time>
      </trkpt>
      <trkpt lat="42.62537" lon="1.73773">
        <ele>2655</ele>
        <time>2020-08-25T11:49:22.921Z</time>
      </trkpt>
      <trkpt lat="42.62536" lon="1.73772">
        <ele>2655</ele>
        <time>2020-08-25T11:49:27.006Z</time>
      </trkpt>
      <trkpt lat="42.62532" lon="1.7377">
        <ele>2655</ele>
        <time>2020-08-25T11:49:31.213Z</time>
      </trkpt>
      <trkpt lat="42.62523" lon="1.73754">
        <ele>2622</ele>
        <time>2020-08-25T11:50:41.839Z</time>
      </trkpt>
      <trkpt lat="42.62522" lon="1.73754">
        <ele>2622</ele>
        <time>2020-08-25T11:50:46.571Z</time>
      </trkpt>
      <trkpt lat="42.62519" lon="1.73753">
        <ele>2622</ele>
        <time>2020-08-25T11:50:55.663Z</time>
      </trkpt>
      <trkpt lat="42.62518" lon="1.73753">
        <ele>2622</ele>
        <time>2020-08-25T11:51:00.064Z</time>
      </trkpt>
      <trkpt lat="42.62518" lon="1.73753">
        <ele>2622</ele>
        <time>2020-08-25T11:51:04.820Z</time>
      </trkpt>
      <trkpt lat="42.6252" lon="1.73749">
        <ele>2622</ele>
        <time>2020-08-25T11:51:26.040Z</time>
      </trkpt>
      <trkpt lat="42.62519" lon="1.73749">
        <ele>2622</ele>
        <time>2020-08-25T11:51:31.488Z</time>
      </trkpt>
      <trkpt lat="42.62513" lon="1.73747">
        <ele>2616</ele>
        <time>2020-08-25T11:51:45.338Z</time>
      </trkpt>
      <trkpt lat="42.62513" lon="1.73741">
        <ele>2616</ele>
        <time>2020-08-25T11:51:59.787Z</time>
      </trkpt>
      <trkpt lat="42.62513" lon="1.73741">
        <ele>2616</ele>
        <time>2020-08-25T11:52:05.488Z</time>
      </trkpt>
      <trkpt lat="42.62506" lon="1.73733">
        <ele>2600</ele>
        <time>2020-08-25T11:54:03.873Z</time>
      </trkpt>
      <trkpt lat="42.62506" lon="1.73733">
        <ele>2600</ele>
        <time>2020-08-25T11:54:12.660Z</time>
      </trkpt>
      <trkpt lat="42.62506" lon="1.73733">
        <ele>2600</ele>
        <time>2020-08-25T11:54:16.947Z</time>
      </trkpt>
      <trkpt lat="42.62506" lon="1.73733">
        <ele>2600</ele>
        <time>2020-08-25T11:54:21.093Z</time>
      </trkpt>
      <trkpt lat="42.62502" lon="1.7373">
        <ele>2600</ele>
        <time>2020-08-25T11:54:29.597Z</time>
      </trkpt>
      <trkpt lat="42.62501" lon="1.7373">
        <ele>2600</ele>
        <time>2020-08-25T11:54:34.584Z</time>
      </trkpt>
      <trkpt lat="42.625" lon="1.7373">
        <ele>2600</ele>
        <time>2020-08-25T11:54:39.582Z</time>
      </trkpt>
      <trkpt lat="42.62497" lon="1.73723">
        <ele>2600</ele>
        <time>2020-08-25T11:54:44.949Z</time>
      </trkpt>
      <trkpt lat="42.62495" lon="1.73724">
        <ele>2600</ele>
        <time>2020-08-25T11:54:54.654Z</time>
      </trkpt>
      <trkpt lat="42.62492" lon="1.73718">
        <ele>2600</ele>
        <time>2020-08-25T11:54:58.659Z</time>
      </trkpt>
      <trkpt lat="42.62476" lon="1.73706">
        <ele>2579</ele>
        <time>2020-08-25T11:57:13.807Z</time>
      </trkpt>
      <trkpt lat="42.62476" lon="1.73706">
        <ele>2579</ele>
        <time>2020-08-25T11:57:18.586Z</time>
      </trkpt>
      <trkpt lat="42.62476" lon="1.73706">
        <ele>2579</ele>
        <time>2020-08-25T11:57:22.666Z</time>
      </trkpt>
      <trkpt lat="42.62476" lon="1.73706">
        <ele>2579</ele>
        <time>2020-08-25T11:57:28.096Z</time>
      </trkpt>
      <trkpt lat="42.6247" lon="1.73709">
        <ele>2587</ele>
        <time>2020-08-25T11:57:33.672Z</time>
      </trkpt>
      <trkpt lat="42.62468" lon="1.73717">
        <ele>2587</ele>
        <time>2020-08-25T11:57:48.838Z</time>
      </trkpt>
      <trkpt lat="42.62468" lon="1.73718">
        <ele>2587</ele>
        <time>2020-08-25T11:57:56.122Z</time>
      </trkpt>
      <trkpt lat="42.62463" lon="1.73718">
        <ele>2587</ele>
        <time>2020-08-25T11:58:00.215Z</time>
      </trkpt>
      <trkpt lat="42.62458" lon="1.73716">
        <ele>2565</ele>
        <time>2020-08-25T11:58:05.159Z</time>
      </trkpt>
      <trkpt lat="42.62453" lon="1.73719">
        <ele>2565</ele>
        <time>2020-08-25T11:58:11.605Z</time>
      </trkpt>
      <trkpt lat="42.62449" lon="1.73717">
        <ele>2565</ele>
        <time>2020-08-25T11:58:37.569Z</time>
      </trkpt>
      <trkpt lat="42.62447" lon="1.73717">
        <ele>2565</ele>
        <time>2020-08-25T11:58:41.588Z</time>
      </trkpt>
      <trkpt lat="42.62444" lon="1.73711">
        <ele>2565</ele>
        <time>2020-08-25T11:58:46.260Z</time>
      </trkpt>
      <trkpt lat="42.62441" lon="1.73709">
        <ele>2565</ele>
        <time>2020-08-25T11:58:50.842Z</time>
      </trkpt>
      <trkpt lat="42.6244" lon="1.73708">
        <ele>2565</ele>
        <time>2020-08-25T11:58:55.706Z</time>
      </trkpt>
      <trkpt lat="42.62437" lon="1.73701">
        <ele>2563</ele>
        <time>2020-08-25T11:59:41.842Z</time>
      </trkpt>
      <trkpt lat="42.62438" lon="1.737">
        <ele>2563</ele>
        <time>2020-08-25T11:59:46.525Z</time>
      </trkpt>
      <trkpt lat="42.62436" lon="1.73696">
        <ele>2563</ele>
        <time>2020-08-25T11:59:50.583Z</time>
      </trkpt>
      <trkpt lat="42.62436" lon="1.73692">
        <ele>2563</ele>
        <time>2020-08-25T11:59:58.845Z</time>
      </trkpt>
      <trkpt lat="42.62434" lon="1.73688">
        <ele>2563</ele>
        <time>2020-08-25T12:00:05.501Z</time>
      </trkpt>
      <trkpt lat="42.62435" lon="1.73689">
        <ele>2563</ele>
        <time>2020-08-25T12:00:11.068Z</time>
      </trkpt>
      <trkpt lat="42.6243" lon="1.73686">
        <ele>2536</ele>
        <time>2020-08-25T12:00:21.205Z</time>
      </trkpt>
      <trkpt lat="42.62429" lon="1.73682">
        <ele>2536</ele>
        <time>2020-08-25T12:00:25.917Z</time>
      </trkpt>
      <trkpt lat="42.62429" lon="1.73681">
        <ele>2536</ele>
        <time>2020-08-25T12:00:30.360Z</time>
      </trkpt>
      <trkpt lat="42.62427" lon="1.73681">
        <ele>2536</ele>
        <time>2020-08-25T12:00:40.011Z</time>
      </trkpt>
      <trkpt lat="42.62426" lon="1.73679">
        <ele>2525</ele>
        <time>2020-08-25T12:00:49.021Z</time>
      </trkpt>
      <trkpt lat="42.62425" lon="1.73678">
        <ele>2525</ele>
        <time>2020-08-25T12:00:53.587Z</time>
      </trkpt>
      <trkpt lat="42.62424" lon="1.73672">
        <ele>2525</ele>
        <time>2020-08-25T12:01:00.120Z</time>
      </trkpt>
      <trkpt lat="42.62423" lon="1.7367">
        <ele>2525</ele>
        <time>2020-08-25T12:01:04.855Z</time>
      </trkpt>
      <trkpt lat="42.62423" lon="1.73665">
        <ele>2525</ele>
        <time>2020-08-25T12:01:10.571Z</time>
      </trkpt>
      <trkpt lat="42.62421" lon="1.73654">
        <ele>2525</ele>
        <time>2020-08-25T12:01:43.975Z</time>
      </trkpt>
      <trkpt lat="42.62418" lon="1.73652">
        <ele>2512</ele>
        <time>2020-08-25T12:01:48.872Z</time>
      </trkpt>
      <trkpt lat="42.62415" lon="1.73647">
        <ele>2512</ele>
        <time>2020-08-25T12:01:54.248Z</time>
      </trkpt>
      <trkpt lat="42.62415" lon="1.73645">
        <ele>2512</ele>
        <time>2020-08-25T12:01:59.495Z</time>
      </trkpt>
      <trkpt lat="42.62415" lon="1.73645">
        <ele>2512</ele>
        <time>2020-08-25T12:02:04.256Z</time>
      </trkpt>
      <trkpt lat="42.62412" lon="1.73642">
        <ele>2512</ele>
        <time>2020-08-25T12:02:24.406Z</time>
      </trkpt>
      <trkpt lat="42.6241" lon="1.73641">
        <ele>2512</ele>
        <time>2020-08-25T12:02:32.120Z</time>
      </trkpt>
      <trkpt lat="42.62409" lon="1.73641">
        <ele>2512</ele>
        <time>2020-08-25T12:02:36.587Z</time>
      </trkpt>
      <trkpt lat="42.62408" lon="1.7364">
        <ele>2512</ele>
        <time>2020-08-25T12:02:41.584Z</time>
      </trkpt>
      <trkpt lat="42.62406" lon="1.73637">
        <ele>2512</ele>
        <time>2020-08-25T12:02:46.710Z</time>
      </trkpt>
      <trkpt lat="42.62401" lon="1.73632">
        <ele>2499</ele>
        <time>2020-08-25T12:03:16.938Z</time>
      </trkpt>
      <trkpt lat="42.62399" lon="1.73632">
        <ele>2499</ele>
        <time>2020-08-25T12:03:21.863Z</time>
      </trkpt>
      <trkpt lat="42.62396" lon="1.73629">
        <ele>2499</ele>
        <time>2020-08-25T12:03:26.840Z</time>
      </trkpt>
      <trkpt lat="42.62395" lon="1.7363">
        <ele>2499</ele>
        <time>2020-08-25T12:03:32.129Z</time>
      </trkpt>
      <trkpt lat="42.62391" lon="1.73622">
        <ele>2489</ele>
        <time>2020-08-25T12:03:40.160Z</time>
      </trkpt>
      <trkpt lat="42.62391" lon="1.73617">
        <ele>2489</ele>
        <time>2020-08-25T12:03:52.140Z</time>
      </trkpt>
      <trkpt lat="42.6239" lon="1.73616">
        <ele>2489</ele>
        <time>2020-08-25T12:03:55.995Z</time>
      </trkpt>
      <trkpt lat="42.62388" lon="1.73615">
        <ele>2489</ele>
        <time>2020-08-25T12:04:01.048Z</time>
      </trkpt>
      <trkpt lat="42.62385" lon="1.73613">
        <ele>2489</ele>
        <time>2020-08-25T12:04:06.215Z</time>
      </trkpt>
      <trkpt lat="42.62382" lon="1.7361">
        <ele>2489</ele>
        <time>2020-08-25T12:04:11.346Z</time>
      </trkpt>
      <trkpt lat="42.62365" lon="1.73597">
        <ele>2480</ele>
        <time>2020-08-25T12:05:11.843Z</time>
      </trkpt>
      <trkpt lat="42.62363" lon="1.73594">
        <ele>2480</ele>
        <time>2020-08-25T12:05:16.593Z</time>
      </trkpt>
      <trkpt lat="42.62364" lon="1.73592">
        <ele>2480</ele>
        <time>2020-08-25T12:05:20.807Z</time>
      </trkpt>
      <trkpt lat="42.62362" lon="1.73588">
        <ele>2480</ele>
        <time>2020-08-25T12:05:25.774Z</time>
      </trkpt>
      <trkpt lat="42.62361" lon="1.73585">
        <ele>2480</ele>
        <time>2020-08-25T12:05:31.298Z</time>
      </trkpt>
      <trkpt lat="42.62361" lon="1.73578">
        <ele>2480</ele>
        <time>2020-08-25T12:05:40.284Z</time>
      </trkpt>
      <trkpt lat="42.62362" lon="1.73573">
        <ele>2480</ele>
        <time>2020-08-25T12:05:48.292Z</time>
      </trkpt>
      <trkpt lat="42.62361" lon="1.73566">
        <ele>2475</ele>
        <time>2020-08-25T12:05:53.573Z</time>
      </trkpt>
      <trkpt lat="42.62359" lon="1.7356">
        <ele>2475</ele>
        <time>2020-08-25T12:05:58.783Z</time>
      </trkpt>
      <trkpt lat="42.62363" lon="1.73556">
        <ele>2475</ele>
        <time>2020-08-25T12:06:05.277Z</time>
      </trkpt>
      <trkpt lat="42.62367" lon="1.73554">
        <ele>2475</ele>
        <time>2020-08-25T12:06:09.885Z</time>
      </trkpt>
      <trkpt lat="42.6237" lon="1.73551">
        <ele>2475</ele>
        <time>2020-08-25T12:06:14.586Z</time>
      </trkpt>
      <trkpt lat="42.62372" lon="1.73548">
        <ele>2475</ele>
        <time>2020-08-25T12:06:18.973Z</time>
      </trkpt>
      <trkpt lat="42.62373" lon="1.73543">
        <ele>2475</ele>
        <time>2020-08-25T12:06:23.854Z</time>
      </trkpt>
      <trkpt lat="42.62375" lon="1.73537">
        <ele>2470</ele>
        <time>2020-08-25T12:06:28.808Z</time>
      </trkpt>
      <trkpt lat="42.62376" lon="1.73533">
        <ele>2469</ele>
        <time>2020-08-25T12:06:32.800Z</time>
      </trkpt>
      <trkpt lat="42.62374" lon="1.73527">
        <ele>2470</ele>
        <time>2020-08-25T12:06:38.584Z</time>
      </trkpt>
      <trkpt lat="42.62372" lon="1.73521">
        <ele>2470</ele>
        <time>2020-08-25T12:06:43.585Z</time>
      </trkpt>
      <trkpt lat="42.62369" lon="1.73517">
        <ele>2470</ele>
        <time>2020-08-25T12:06:49.018Z</time>
      </trkpt>
      <trkpt lat="42.6237" lon="1.7351">
        <ele>2467</ele>
        <time>2020-08-25T12:06:52.875Z</time>
      </trkpt>
      <trkpt lat="42.62369" lon="1.73506">
        <ele>2467</ele>
        <time>2020-08-25T12:06:57.486Z</time>
      </trkpt>
      <trkpt lat="42.62365" lon="1.73503">
        <ele>2467</ele>
        <time>2020-08-25T12:07:35.585Z</time>
      </trkpt>
      <trkpt lat="42.62365" lon="1.73503">
        <ele>2467</ele>
        <time>2020-08-25T12:07:41.791Z</time>
      </trkpt>
      <trkpt lat="42.62356" lon="1.73494">
        <ele>2467</ele>
        <time>2020-08-25T12:07:54.068Z</time>
      </trkpt>
      <trkpt lat="42.62355" lon="1.73493">
        <ele>2467</ele>
        <time>2020-08-25T12:07:58.791Z</time>
      </trkpt>
      <trkpt lat="42.62353" lon="1.73489">
        <ele>2467</ele>
        <time>2020-08-25T12:08:04.163Z</time>
      </trkpt>
      <trkpt lat="42.62347" lon="1.73479">
        <ele>2465</ele>
        <time>2020-08-25T12:09:17.794Z</time>
      </trkpt>
      <trkpt lat="42.62347" lon="1.73479">
        <ele>2465</ele>
        <time>2020-08-25T12:09:23.313Z</time>
      </trkpt>
      <trkpt lat="42.62347" lon="1.73479">
        <ele>2465</ele>
        <time>2020-08-25T12:09:27.958Z</time>
      </trkpt>
      <trkpt lat="42.62346" lon="1.73477">
        <ele>2465</ele>
        <time>2020-08-25T12:09:32.179Z</time>
      </trkpt>
      <trkpt lat="42.62343" lon="1.73474">
        <ele>2465</ele>
        <time>2020-08-25T12:09:36.607Z</time>
      </trkpt>
      <trkpt lat="42.62338" lon="1.7347">
        <ele>2465</ele>
        <time>2020-08-25T12:10:02.887Z</time>
      </trkpt>
      <trkpt lat="42.62338" lon="1.7347">
        <ele>2465</ele>
        <time>2020-08-25T12:10:07.634Z</time>
      </trkpt>
      <trkpt lat="42.62337" lon="1.73471">
        <ele>2465</ele>
        <time>2020-08-25T12:10:12.884Z</time>
      </trkpt>
      <trkpt lat="42.62335" lon="1.73467">
        <ele>2465</ele>
        <time>2020-08-25T12:10:18.753Z</time>
      </trkpt>
      <trkpt lat="42.62336" lon="1.73461">
        <ele>2465</ele>
        <time>2020-08-25T12:10:23.564Z</time>
      </trkpt>
      <trkpt lat="42.62335" lon="1.73455">
        <ele>2464</ele>
        <time>2020-08-25T12:10:27.780Z</time>
      </trkpt>
      <trkpt lat="42.62334" lon="1.73452">
        <ele>2464</ele>
        <time>2020-08-25T12:10:31.918Z</time>
      </trkpt>
      <trkpt lat="42.62336" lon="1.73446">
        <ele>2464</ele>
        <time>2020-08-25T12:10:36.570Z</time>
      </trkpt>
      <trkpt lat="42.62336" lon="1.73442">
        <ele>2464</ele>
        <time>2020-08-25T12:10:40.598Z</time>
      </trkpt>
      <trkpt lat="42.62334" lon="1.73441">
        <ele>2464</ele>
        <time>2020-08-25T12:10:45.583Z</time>
      </trkpt>
      <trkpt lat="42.62331" lon="1.73443">
        <ele>2464</ele>
        <time>2020-08-25T12:10:49.826Z</time>
      </trkpt>
      <trkpt lat="42.62329" lon="1.73443">
        <ele>2464</ele>
        <time>2020-08-25T12:10:54.256Z</time>
      </trkpt>
      <trkpt lat="42.62325" lon="1.73436">
        <ele>2464</ele>
        <time>2020-08-25T12:10:58.907Z</time>
      </trkpt>
      <trkpt lat="42.62322" lon="1.73435">
        <ele>2464</ele>
        <time>2020-08-25T12:11:03.216Z</time>
      </trkpt>
      <trkpt lat="42.62319" lon="1.73433">
        <ele>2462</ele>
        <time>2020-08-25T12:11:08.078Z</time>
      </trkpt>
      <trkpt lat="42.62317" lon="1.73431">
        <ele>2462</ele>
        <time>2020-08-25T12:11:12.212Z</time>
      </trkpt>
      <trkpt lat="42.62315" lon="1.73426">
        <ele>2461</ele>
        <time>2020-08-25T12:11:16.555Z</time>
      </trkpt>
      <trkpt lat="42.62306" lon="1.73417">
        <ele>2461</ele>
        <time>2020-08-25T12:11:26.735Z</time>
      </trkpt>
      <trkpt lat="42.62303" lon="1.7341">
        <ele>2461</ele>
        <time>2020-08-25T12:11:35.782Z</time>
      </trkpt>
      <trkpt lat="42.62298" lon="1.73405">
        <ele>2461</ele>
        <time>2020-08-25T12:11:43.639Z</time>
      </trkpt>
      <trkpt lat="42.62293" lon="1.73404">
        <ele>2461</ele>
        <time>2020-08-25T12:11:50.689Z</time>
      </trkpt>
      <trkpt lat="42.62289" lon="1.73403">
        <ele>2463</ele>
        <time>2020-08-25T12:11:54.990Z</time>
      </trkpt>
      <trkpt lat="42.62284" lon="1.73401">
        <ele>2464</ele>
        <time>2020-08-25T12:11:59.668Z</time>
      </trkpt>
      <trkpt lat="42.6228" lon="1.73401">
        <ele>2464</ele>
        <time>2020-08-25T12:12:04.058Z</time>
      </trkpt>
      <trkpt lat="42.62277" lon="1.73397">
        <ele>2464</ele>
        <time>2020-08-25T12:12:07.882Z</time>
      </trkpt>
      <trkpt lat="42.62275" lon="1.7339">
        <ele>2464</ele>
        <time>2020-08-25T12:12:14.717Z</time>
      </trkpt>
      <trkpt lat="42.62273" lon="1.73382">
        <ele>2464</ele>
        <time>2020-08-25T12:12:19.951Z</time>
      </trkpt>
      <trkpt lat="42.62269" lon="1.73379">
        <ele>2464</ele>
        <time>2020-08-25T12:12:28.343Z</time>
      </trkpt>
      <trkpt lat="42.62265" lon="1.73375">
        <ele>2467</ele>
        <time>2020-08-25T12:12:33.460Z</time>
      </trkpt>
      <trkpt lat="42.62261" lon="1.73368">
        <ele>2467</ele>
        <time>2020-08-25T12:12:38.601Z</time>
      </trkpt>
      <trkpt lat="42.62258" lon="1.73362">
        <ele>2467</ele>
        <time>2020-08-25T12:12:43.900Z</time>
      </trkpt>
      <trkpt lat="42.62254" lon="1.73357">
        <ele>2467</ele>
        <time>2020-08-25T12:12:49.058Z</time>
      </trkpt>
      <trkpt lat="42.6225" lon="1.73353">
        <ele>2467</ele>
        <time>2020-08-25T12:12:52.806Z</time>
      </trkpt>
      <trkpt lat="42.62248" lon="1.73348">
        <ele>2467</ele>
        <time>2020-08-25T12:12:59.727Z</time>
      </trkpt>
      <trkpt lat="42.62246" lon="1.73343">
        <ele>2469</ele>
        <time>2020-08-25T12:13:04.086Z</time>
      </trkpt>
      <trkpt lat="42.62246" lon="1.73338">
        <ele>2469</ele>
        <time>2020-08-25T12:13:07.988Z</time>
      </trkpt>
      <trkpt lat="42.62246" lon="1.73331">
        <ele>2469</ele>
        <time>2020-08-25T12:13:13.651Z</time>
      </trkpt>
      <trkpt lat="42.62244" lon="1.73325">
        <ele>2469</ele>
        <time>2020-08-25T12:13:18.599Z</time>
      </trkpt>
      <trkpt lat="42.62242" lon="1.73322">
        <ele>2469</ele>
        <time>2020-08-25T12:13:23.044Z</time>
      </trkpt>
      <trkpt lat="42.6224" lon="1.73319">
        <ele>2467</ele>
        <time>2020-08-25T12:13:27.044Z</time>
      </trkpt>
      <trkpt lat="42.6224" lon="1.73314">
        <ele>2467</ele>
        <time>2020-08-25T12:13:31.177Z</time>
      </trkpt>
      <trkpt lat="42.62236" lon="1.73305">
        <ele>2462</ele>
        <time>2020-08-25T12:13:39.731Z</time>
      </trkpt>
      <trkpt lat="42.6224" lon="1.73292">
        <ele>2463</ele>
        <time>2020-08-25T12:16:21.602Z</time>
      </trkpt>
      <trkpt lat="42.62238" lon="1.7329">
        <ele>2463</ele>
        <time>2020-08-25T12:16:26.414Z</time>
      </trkpt>
      <trkpt lat="42.62238" lon="1.73285">
        <ele>2463</ele>
        <time>2020-08-25T12:16:30.858Z</time>
      </trkpt>
      <trkpt lat="42.62235" lon="1.73281">
        <ele>2458</ele>
        <time>2020-08-25T12:16:34.739Z</time>
      </trkpt>
      <trkpt lat="42.62234" lon="1.73276">
        <ele>2458</ele>
        <time>2020-08-25T12:16:39.580Z</time>
      </trkpt>
      <trkpt lat="42.62229" lon="1.73271">
        <ele>2458</ele>
        <time>2020-08-25T12:16:46.827Z</time>
      </trkpt>
      <trkpt lat="42.62228" lon="1.73265">
        <ele>2458</ele>
        <time>2020-08-25T12:16:53.703Z</time>
      </trkpt>
      <trkpt lat="42.62224" lon="1.73268">
        <ele>2458</ele>
        <time>2020-08-25T12:16:58.571Z</time>
      </trkpt>
      <trkpt lat="42.62218" lon="1.7327">
        <ele>2458</ele>
        <time>2020-08-25T12:17:07.017Z</time>
      </trkpt>
      <trkpt lat="42.62204" lon="1.73258">
        <ele>2447</ele>
        <time>2020-08-25T12:17:44.467Z</time>
      </trkpt>
      <trkpt lat="42.62202" lon="1.73254">
        <ele>2447</ele>
        <time>2020-08-25T12:17:50.349Z</time>
      </trkpt>
      <trkpt lat="42.622" lon="1.73247">
        <ele>2447</ele>
        <time>2020-08-25T12:17:57.792Z</time>
      </trkpt>
      <trkpt lat="42.62197" lon="1.73241">
        <ele>2447</ele>
        <time>2020-08-25T12:18:04.813Z</time>
      </trkpt>
      <trkpt lat="42.62192" lon="1.7324">
        <ele>2447</ele>
        <time>2020-08-25T12:18:11.114Z</time>
      </trkpt>
      <trkpt lat="42.6219" lon="1.73236">
        <ele>2443</ele>
        <time>2020-08-25T12:18:16.012Z</time>
      </trkpt>
      <trkpt lat="42.62188" lon="1.73232">
        <ele>2443</ele>
        <time>2020-08-25T12:18:20.585Z</time>
      </trkpt>
      <trkpt lat="42.62188" lon="1.73232">
        <ele>2443</ele>
        <time>2020-08-25T12:18:25.017Z</time>
      </trkpt>
      <trkpt lat="42.62187" lon="1.73231">
        <ele>2443</ele>
        <time>2020-08-25T12:18:27.970Z</time>
      </trkpt>
      <trkpt lat="42.62188" lon="1.73223">
        <ele>2443</ele>
        <time>2020-08-25T12:18:35.784Z</time>
      </trkpt>
      <trkpt lat="42.62183" lon="1.73218">
        <ele>2443</ele>
        <time>2020-08-25T12:18:58.848Z</time>
      </trkpt>
      <trkpt lat="42.62182" lon="1.73219">
        <ele>2443</ele>
        <time>2020-08-25T12:19:07.113Z</time>
      </trkpt>
      <trkpt lat="42.62179" lon="1.73216">
        <ele>2435</ele>
        <time>2020-08-25T12:19:12.985Z</time>
      </trkpt>
      <trkpt lat="42.62179" lon="1.73216">
        <ele>2435</ele>
        <time>2020-08-25T12:19:16.962Z</time>
      </trkpt>
      <trkpt lat="42.62177" lon="1.73215">
        <ele>2435</ele>
        <time>2020-08-25T12:19:23.234Z</time>
      </trkpt>
      <trkpt lat="42.62173" lon="1.73216">
        <ele>2435</ele>
        <time>2020-08-25T12:19:34.824Z</time>
      </trkpt>
      <trkpt lat="42.62172" lon="1.73216">
        <ele>2435</ele>
        <time>2020-08-25T12:19:40.583Z</time>
      </trkpt>
      <trkpt lat="42.62172" lon="1.73215">
        <ele>2435</ele>
        <time>2020-08-25T12:19:45.421Z</time>
      </trkpt>
      <trkpt lat="42.62171" lon="1.73208">
        <ele>2429</ele>
        <time>2020-08-25T12:19:55.053Z</time>
      </trkpt>
      <trkpt lat="42.62166" lon="1.73202">
        <ele>2429</ele>
        <time>2020-08-25T12:19:59.575Z</time>
      </trkpt>
      <trkpt lat="42.62167" lon="1.7319">
        <ele>2429</ele>
        <time>2020-08-25T12:20:43.909Z</time>
      </trkpt>
      <trkpt lat="42.62164" lon="1.73187">
        <ele>2429</ele>
        <time>2020-08-25T12:20:50.592Z</time>
      </trkpt>
      <trkpt lat="42.62166" lon="1.73182">
        <ele>2429</ele>
        <time>2020-08-25T12:20:54.992Z</time>
      </trkpt>
      <trkpt lat="42.62169" lon="1.73179">
        <ele>2421</ele>
        <time>2020-08-25T12:20:59.796Z</time>
      </trkpt>
      <trkpt lat="42.62169" lon="1.73177">
        <ele>2421</ele>
        <time>2020-08-25T12:21:03.144Z</time>
      </trkpt>
      <trkpt lat="42.62167" lon="1.73174">
        <ele>2421</ele>
        <time>2020-08-25T12:21:07.877Z</time>
      </trkpt>
      <trkpt lat="42.62165" lon="1.73172">
        <ele>2421</ele>
        <time>2020-08-25T12:21:12.828Z</time>
      </trkpt>
      <trkpt lat="42.62163" lon="1.73171">
        <ele>2421</ele>
        <time>2020-08-25T12:21:19.024Z</time>
      </trkpt>
      <trkpt lat="42.62159" lon="1.73171">
        <ele>2421</ele>
        <time>2020-08-25T12:21:27.550Z</time>
      </trkpt>
      <trkpt lat="42.62158" lon="1.7317">
        <ele>2421</ele>
        <time>2020-08-25T12:21:31.606Z</time>
      </trkpt>
      <trkpt lat="42.62156" lon="1.73171">
        <ele>2421</ele>
        <time>2020-08-25T12:21:39.094Z</time>
      </trkpt>
      <trkpt lat="42.62153" lon="1.73171">
        <ele>2408</ele>
        <time>2020-08-25T12:21:49.042Z</time>
      </trkpt>
      <trkpt lat="42.62151" lon="1.7317">
        <ele>2408</ele>
        <time>2020-08-25T12:21:54.923Z</time>
      </trkpt>
      <trkpt lat="42.62147" lon="1.7317">
        <ele>2408</ele>
        <time>2020-08-25T12:21:59.842Z</time>
      </trkpt>
      <trkpt lat="42.62146" lon="1.7317">
        <ele>2408</ele>
        <time>2020-08-25T12:22:04.254Z</time>
      </trkpt>
      <trkpt lat="42.62141" lon="1.73169">
        <ele>2408</ele>
        <time>2020-08-25T12:22:14.046Z</time>
      </trkpt>
      <trkpt lat="42.62136" lon="1.73168">
        <ele>2408</ele>
        <time>2020-08-25T12:22:19.973Z</time>
      </trkpt>
      <trkpt lat="42.6213" lon="1.73163">
        <ele>2408</ele>
        <time>2020-08-25T12:22:25.018Z</time>
      </trkpt>
      <trkpt lat="42.62124" lon="1.73157">
        <ele>2401</ele>
        <time>2020-08-25T12:24:20.840Z</time>
      </trkpt>
      <trkpt lat="42.62124" lon="1.73155">
        <ele>2401</ele>
        <time>2020-08-25T12:24:25.080Z</time>
      </trkpt>
      <trkpt lat="42.6212" lon="1.7315">
        <ele>2392</ele>
        <time>2020-08-25T12:24:35.545Z</time>
      </trkpt>
      <trkpt lat="42.62117" lon="1.73142">
        <ele>2392</ele>
        <time>2020-08-25T12:24:42.543Z</time>
      </trkpt>
      <trkpt lat="42.62115" lon="1.73135">
        <ele>2392</ele>
        <time>2020-08-25T12:24:54.670Z</time>
      </trkpt>
      <trkpt lat="42.62116" lon="1.7313">
        <ele>2392</ele>
        <time>2020-08-25T12:24:58.909Z</time>
      </trkpt>
      <trkpt lat="42.62117" lon="1.73126">
        <ele>2392</ele>
        <time>2020-08-25T12:25:03.598Z</time>
      </trkpt>
      <trkpt lat="42.62116" lon="1.73119">
        <ele>2383</ele>
        <time>2020-08-25T12:25:21.886Z</time>
      </trkpt>
      <trkpt lat="42.62113" lon="1.73117">
        <ele>2383</ele>
        <time>2020-08-25T12:25:27.680Z</time>
      </trkpt>
      <trkpt lat="42.62115" lon="1.73111">
        <ele>2383</ele>
        <time>2020-08-25T12:25:32.725Z</time>
      </trkpt>
      <trkpt lat="42.62116" lon="1.73108">
        <ele>2383</ele>
        <time>2020-08-25T12:25:37.166Z</time>
      </trkpt>
      <trkpt lat="42.62116" lon="1.73106">
        <ele>2383</ele>
        <time>2020-08-25T12:25:41.540Z</time>
      </trkpt>
      <trkpt lat="42.62119" lon="1.73095">
        <ele>2370</ele>
        <time>2020-08-25T12:25:51.080Z</time>
      </trkpt>
      <trkpt lat="42.62119" lon="1.73083">
        <ele>2370</ele>
        <time>2020-08-25T12:27:15.760Z</time>
      </trkpt>
      <trkpt lat="42.62119" lon="1.73082">
        <ele>2370</ele>
        <time>2020-08-25T12:27:21.692Z</time>
      </trkpt>
      <trkpt lat="42.62118" lon="1.7308">
        <ele>2370</ele>
        <time>2020-08-25T12:27:31.603Z</time>
      </trkpt>
      <trkpt lat="42.62115" lon="1.7308">
        <ele>2370</ele>
        <time>2020-08-25T12:27:39.941Z</time>
      </trkpt>
      <trkpt lat="42.62114" lon="1.73079">
        <ele>2370</ele>
        <time>2020-08-25T12:27:44.543Z</time>
      </trkpt>
      <trkpt lat="42.62105" lon="1.73079">
        <ele>2370</ele>
        <time>2020-08-25T12:28:41.965Z</time>
      </trkpt>
      <trkpt lat="42.62098" lon="1.73081">
        <ele>2370</ele>
        <time>2020-08-25T12:29:00.109Z</time>
      </trkpt>
      <trkpt lat="42.62098" lon="1.73082">
        <ele>2370</ele>
        <time>2020-08-25T12:29:04.486Z</time>
      </trkpt>
      <trkpt lat="42.62091" lon="1.73075">
        <ele>2362</ele>
        <time>2020-08-25T12:29:18.730Z</time>
      </trkpt>
      <trkpt lat="42.62089" lon="1.73077">
        <ele>2362</ele>
        <time>2020-08-25T12:29:23.860Z</time>
      </trkpt>
      <trkpt lat="42.62078" lon="1.73071">
        <ele>2362</ele>
        <time>2020-08-25T12:29:44.484Z</time>
      </trkpt>
      <trkpt lat="42.62075" lon="1.73068">
        <ele>2350</ele>
        <time>2020-08-25T12:29:48.635Z</time>
      </trkpt>
      <trkpt lat="42.62072" lon="1.73066">
        <ele>2350</ele>
        <time>2020-08-25T12:29:53.541Z</time>
      </trkpt>
      <trkpt lat="42.62071" lon="1.73064">
        <ele>2350</ele>
        <time>2020-08-25T12:29:58.016Z</time>
      </trkpt>
      <trkpt lat="42.62072" lon="1.73061">
        <ele>2350</ele>
        <time>2020-08-25T12:30:01.939Z</time>
      </trkpt>
      <trkpt lat="42.62075" lon="1.73051">
        <ele>2350</ele>
        <time>2020-08-25T12:30:28.917Z</time>
      </trkpt>
      <trkpt lat="42.62078" lon="1.7305">
        <ele>2350</ele>
        <time>2020-08-25T12:30:32.954Z</time>
      </trkpt>
      <trkpt lat="42.62081" lon="1.73046">
        <ele>2350</ele>
        <time>2020-08-25T12:30:37.879Z</time>
      </trkpt>
      <trkpt lat="42.62084" lon="1.73042">
        <ele>2350</ele>
        <time>2020-08-25T12:30:41.925Z</time>
      </trkpt>
      <trkpt lat="42.62089" lon="1.73039">
        <ele>2341</ele>
        <time>2020-08-25T12:30:47.542Z</time>
      </trkpt>
      <trkpt lat="42.62093" lon="1.73035">
        <ele>2341</ele>
        <time>2020-08-25T12:30:57.544Z</time>
      </trkpt>
      <trkpt lat="42.62093" lon="1.73037">
        <ele>2341</ele>
        <time>2020-08-25T12:31:01.751Z</time>
      </trkpt>
      <trkpt lat="42.62096" lon="1.73038">
        <ele>2341</ele>
        <time>2020-08-25T12:31:09.697Z</time>
      </trkpt>
      <trkpt lat="42.62099" lon="1.73038">
        <ele>2351</ele>
        <time>2020-08-25T12:31:14.863Z</time>
      </trkpt>
      <trkpt lat="42.62102" lon="1.73038">
        <ele>2351</ele>
        <time>2020-08-25T12:31:25.932Z</time>
      </trkpt>
      <trkpt lat="42.62111" lon="1.73029">
        <ele>2351</ele>
        <time>2020-08-25T12:32:15.072Z</time>
      </trkpt>
      <trkpt lat="42.62111" lon="1.73029">
        <ele>2351</ele>
        <time>2020-08-25T12:32:18.982Z</time>
      </trkpt>
      <trkpt lat="42.62111" lon="1.73028">
        <ele>2351</ele>
        <time>2020-08-25T12:32:25.711Z</time>
      </trkpt>
      <trkpt lat="42.62112" lon="1.73023">
        <ele>2351</ele>
        <time>2020-08-25T12:32:30.989Z</time>
      </trkpt>
      <trkpt lat="42.62113" lon="1.73017">
        <ele>2351</ele>
        <time>2020-08-25T12:32:37.232Z</time>
      </trkpt>
      <trkpt lat="42.62115" lon="1.73013">
        <ele>2343</ele>
        <time>2020-08-25T12:32:40.865Z</time>
      </trkpt>
      <trkpt lat="42.62116" lon="1.7301">
        <ele>2343</ele>
        <time>2020-08-25T12:32:45.478Z</time>
      </trkpt>
      <trkpt lat="42.62118" lon="1.73012">
        <ele>2343</ele>
        <time>2020-08-25T12:32:49.580Z</time>
      </trkpt>
      <trkpt lat="42.62121" lon="1.73006">
        <ele>2343</ele>
        <time>2020-08-25T12:32:59.977Z</time>
      </trkpt>
      <trkpt lat="42.62124" lon="1.73004">
        <ele>2343</ele>
        <time>2020-08-25T12:33:04.898Z</time>
      </trkpt>
      <trkpt lat="42.62133" lon="1.72994">
        <ele>2359</ele>
        <time>2020-08-25T12:33:22.573Z</time>
      </trkpt>
      <trkpt lat="42.62134" lon="1.72989">
        <ele>2359</ele>
        <time>2020-08-25T12:33:27.540Z</time>
      </trkpt>
      <trkpt lat="42.62134" lon="1.72977">
        <ele>2351</ele>
        <time>2020-08-25T12:33:37.952Z</time>
      </trkpt>
      <trkpt lat="42.62136" lon="1.72973">
        <ele>2351</ele>
        <time>2020-08-25T12:33:43.887Z</time>
      </trkpt>
      <trkpt lat="42.62139" lon="1.72961">
        <ele>2351</ele>
        <time>2020-08-25T12:33:54.063Z</time>
      </trkpt>
      <trkpt lat="42.62142" lon="1.72957">
        <ele>2344</ele>
        <time>2020-08-25T12:33:58.980Z</time>
      </trkpt>
      <trkpt lat="42.62144" lon="1.72953">
        <ele>2344</ele>
        <time>2020-08-25T12:34:03.904Z</time>
      </trkpt>
      <trkpt lat="42.62143" lon="1.72948">
        <ele>2344</ele>
        <time>2020-08-25T12:34:08.578Z</time>
      </trkpt>
      <trkpt lat="42.62149" lon="1.72941">
        <ele>2344</ele>
        <time>2020-08-25T12:34:16.405Z</time>
      </trkpt>
      <trkpt lat="42.62151" lon="1.72936">
        <ele>2344</ele>
        <time>2020-08-25T12:34:22.676Z</time>
      </trkpt>
      <trkpt lat="42.62152" lon="1.72929">
        <ele>2340</ele>
        <time>2020-08-25T12:34:29.821Z</time>
      </trkpt>
      <trkpt lat="42.62154" lon="1.72925">
        <ele>2352</ele>
        <time>2020-08-25T12:34:33.875Z</time>
      </trkpt>
      <trkpt lat="42.62158" lon="1.72916">
        <ele>2352</ele>
        <time>2020-08-25T12:34:57.577Z</time>
      </trkpt>
      <trkpt lat="42.62159" lon="1.72916">
        <ele>2352</ele>
        <time>2020-08-25T12:35:03.096Z</time>
      </trkpt>
      <trkpt lat="42.6216" lon="1.72914">
        <ele>2352</ele>
        <time>2020-08-25T12:35:08.561Z</time>
      </trkpt>
      <trkpt lat="42.62161" lon="1.72911">
        <ele>2352</ele>
        <time>2020-08-25T12:35:11.681Z</time>
      </trkpt>
      <trkpt lat="42.62159" lon="1.72907">
        <ele>2352</ele>
        <time>2020-08-25T12:35:17.844Z</time>
      </trkpt>
      <trkpt lat="42.6216" lon="1.72887">
        <ele>2346</ele>
        <time>2020-08-25T12:35:55.813Z</time>
      </trkpt>
      <trkpt lat="42.62156" lon="1.72889">
        <ele>2346</ele>
        <time>2020-08-25T12:36:07.781Z</time>
      </trkpt>
      <trkpt lat="42.62155" lon="1.72891">
        <ele>2346</ele>
        <time>2020-08-25T12:36:13.915Z</time>
      </trkpt>
      <trkpt lat="42.62154" lon="1.72892">
        <ele>2346</ele>
        <time>2020-08-25T12:36:19.108Z</time>
      </trkpt>
      <trkpt lat="42.62152" lon="1.72893">
        <ele>2338</ele>
        <time>2020-08-25T12:36:24.237Z</time>
      </trkpt>
      <trkpt lat="42.6215" lon="1.72893">
        <ele>2338</ele>
        <time>2020-08-25T12:36:28.300Z</time>
      </trkpt>
      <trkpt lat="42.62147" lon="1.72893">
        <ele>2338</ele>
        <time>2020-08-25T12:36:32.858Z</time>
      </trkpt>
      <trkpt lat="42.62143" lon="1.72889">
        <ele>2338</ele>
        <time>2020-08-25T12:36:37.639Z</time>
      </trkpt>
      <trkpt lat="42.62141" lon="1.72887">
        <ele>2338</ele>
        <time>2020-08-25T12:36:41.539Z</time>
      </trkpt>
      <trkpt lat="42.62136" lon="1.72883">
        <ele>2338</ele>
        <time>2020-08-25T12:36:46.164Z</time>
      </trkpt>
      <trkpt lat="42.62138" lon="1.72877">
        <ele>2338</ele>
        <time>2020-08-25T12:36:51.309Z</time>
      </trkpt>
      <trkpt lat="42.62141" lon="1.7287">
        <ele>2334</ele>
        <time>2020-08-25T12:37:04.698Z</time>
      </trkpt>
      <trkpt lat="42.62138" lon="1.72869">
        <ele>2334</ele>
        <time>2020-08-25T12:37:09.542Z</time>
      </trkpt>
      <trkpt lat="42.62139" lon="1.72869">
        <ele>2334</ele>
        <time>2020-08-25T13:00:18.580Z</time>
      </trkpt>
      <trkpt lat="42.62137" lon="1.72864">
        <ele>2334</ele>
        <time>2020-08-25T13:00:23.846Z</time>
      </trkpt>
      <trkpt lat="42.62136" lon="1.72861">
        <ele>2334</ele>
        <time>2020-08-25T13:00:28.842Z</time>
      </trkpt>
      <trkpt lat="42.62136" lon="1.72858">
        <ele>2334</ele>
        <time>2020-08-25T13:00:32.671Z</time>
      </trkpt>
      <trkpt lat="42.62135" lon="1.72856">
        <ele>2334</ele>
        <time>2020-08-25T13:00:37.757Z</time>
      </trkpt>
      <trkpt lat="42.62136" lon="1.72858">
        <ele>2334</ele>
        <time>2020-08-25T13:01:01.583Z</time>
      </trkpt>
      <trkpt lat="42.62141" lon="1.72861">
        <ele>2334</ele>
        <time>2020-08-25T13:01:07.677Z</time>
      </trkpt>
      <trkpt lat="42.62142" lon="1.72859">
        <ele>2334</ele>
        <time>2020-08-25T13:01:12.651Z</time>
      </trkpt>
      <trkpt lat="42.62143" lon="1.72858">
        <ele>2334</ele>
        <time>2020-08-25T13:01:17.104Z</time>
      </trkpt>
      <trkpt lat="42.62145" lon="1.72855">
        <ele>2334</ele>
        <time>2020-08-25T13:01:21.765Z</time>
      </trkpt>
      <trkpt lat="42.62149" lon="1.72854">
        <ele>2334</ele>
        <time>2020-08-25T13:01:31.026Z</time>
      </trkpt>
      <trkpt lat="42.6215" lon="1.72855">
        <ele>2334</ele>
        <time>2020-08-25T13:01:36.079Z</time>
      </trkpt>
      <trkpt lat="42.6215" lon="1.72855">
        <ele>2334</ele>
        <time>2020-08-25T13:01:38.801Z</time>
      </trkpt>
      <trkpt lat="42.62153" lon="1.72852">
        <ele>2342</ele>
        <time>2020-08-25T13:01:45.708Z</time>
      </trkpt>
      <trkpt lat="42.62156" lon="1.72853">
        <ele>2342</ele>
        <time>2020-08-25T13:01:50.532Z</time>
      </trkpt>
      <trkpt lat="42.62162" lon="1.7285">
        <ele>2342</ele>
        <time>2020-08-25T13:02:10.555Z</time>
      </trkpt>
      <trkpt lat="42.62163" lon="1.72848">
        <ele>2342</ele>
        <time>2020-08-25T13:02:15.035Z</time>
      </trkpt>
      <trkpt lat="42.62165" lon="1.72847">
        <ele>2339</ele>
        <time>2020-08-25T13:02:21.268Z</time>
      </trkpt>
      <trkpt lat="42.62164" lon="1.72845">
        <ele>2339</ele>
        <time>2020-08-25T13:02:28.139Z</time>
      </trkpt>
      <trkpt lat="42.62167" lon="1.72839">
        <ele>2339</ele>
        <time>2020-08-25T13:02:43.674Z</time>
      </trkpt>
      <trkpt lat="42.62169" lon="1.7284">
        <ele>2339</ele>
        <time>2020-08-25T13:02:48.325Z</time>
      </trkpt>
      <trkpt lat="42.62174" lon="1.7284">
        <ele>2339</ele>
        <time>2020-08-25T13:02:56.002Z</time>
      </trkpt>
      <trkpt lat="42.62175" lon="1.72836">
        <ele>2339</ele>
        <time>2020-08-25T13:03:00.588Z</time>
      </trkpt>
      <trkpt lat="42.62175" lon="1.72834">
        <ele>2339</ele>
        <time>2020-08-25T13:03:02.946Z</time>
      </trkpt>
      <trkpt lat="42.62179" lon="1.72824">
        <ele>2339</ele>
        <time>2020-08-25T13:03:09.663Z</time>
      </trkpt>
      <trkpt lat="42.62183" lon="1.72819">
        <ele>2342</ele>
        <time>2020-08-25T13:03:14.533Z</time>
      </trkpt>
      <trkpt lat="42.62189" lon="1.72818">
        <ele>2342</ele>
        <time>2020-08-25T13:03:19.532Z</time>
      </trkpt>
      <trkpt lat="42.62193" lon="1.72815">
        <ele>2342</ele>
        <time>2020-08-25T13:03:24.531Z</time>
      </trkpt>
      <trkpt lat="42.62196" lon="1.72813">
        <ele>2342</ele>
        <time>2020-08-25T13:03:29.532Z</time>
      </trkpt>
      <trkpt lat="42.62195" lon="1.7281">
        <ele>2342</ele>
        <time>2020-08-25T13:03:33.605Z</time>
      </trkpt>
      <trkpt lat="42.62195" lon="1.72805">
        <ele>2342</ele>
        <time>2020-08-25T13:03:39.232Z</time>
      </trkpt>
      <trkpt lat="42.62192" lon="1.72797">
        <ele>2342</ele>
        <time>2020-08-25T13:03:49.666Z</time>
      </trkpt>
      <trkpt lat="42.62189" lon="1.72794">
        <ele>2342</ele>
        <time>2020-08-25T13:03:52.588Z</time>
      </trkpt>
      <trkpt lat="42.62182" lon="1.72784">
        <ele>2337</ele>
        <time>2020-08-25T13:04:02.926Z</time>
      </trkpt>
      <trkpt lat="42.62182" lon="1.72783">
        <ele>2337</ele>
        <time>2020-08-25T13:04:05.781Z</time>
      </trkpt>
      <trkpt lat="42.62181" lon="1.72773">
        <ele>2337</ele>
        <time>2020-08-25T13:04:14.471Z</time>
      </trkpt>
      <trkpt lat="42.62181" lon="1.72771">
        <ele>2337</ele>
        <time>2020-08-25T13:04:19.096Z</time>
      </trkpt>
      <trkpt lat="42.62181" lon="1.72764">
        <ele>2337</ele>
        <time>2020-08-25T13:04:29.646Z</time>
      </trkpt>
      <trkpt lat="42.62177" lon="1.72764">
        <ele>2332</ele>
        <time>2020-08-25T13:04:33.695Z</time>
      </trkpt>
      <trkpt lat="42.62165" lon="1.72767">
        <ele>2334</ele>
        <time>2020-08-25T13:04:49.186Z</time>
      </trkpt>
      <trkpt lat="42.62158" lon="1.72762">
        <ele>2332</ele>
        <time>2020-08-25T13:04:59.544Z</time>
      </trkpt>
      <trkpt lat="42.62157" lon="1.72755">
        <ele>2332</ele>
        <time>2020-08-25T13:05:06.205Z</time>
      </trkpt>
      <trkpt lat="42.62155" lon="1.72747">
        <ele>2332</ele>
        <time>2020-08-25T13:05:11.531Z</time>
      </trkpt>
      <trkpt lat="42.62154" lon="1.72741">
        <ele>2332</ele>
        <time>2020-08-25T13:05:17.791Z</time>
      </trkpt>
      <trkpt lat="42.62153" lon="1.72736">
        <ele>2329</ele>
        <time>2020-08-25T13:05:23.039Z</time>
      </trkpt>
      <trkpt lat="42.62154" lon="1.72735">
        <ele>2329</ele>
        <time>2020-08-25T13:05:27.287Z</time>
      </trkpt>
      <trkpt lat="42.62153" lon="1.72735">
        <ele>2329</ele>
        <time>2020-08-25T13:05:31.394Z</time>
      </trkpt>
      <trkpt lat="42.62153" lon="1.72734">
        <ele>2329</ele>
        <time>2020-08-25T13:05:36.562Z</time>
      </trkpt>
      <trkpt lat="42.62153" lon="1.72728">
        <ele>2330</ele>
        <time>2020-08-25T13:05:49.723Z</time>
      </trkpt>
      <trkpt lat="42.6215" lon="1.72723">
        <ele>2330</ele>
        <time>2020-08-25T13:05:54.947Z</time>
      </trkpt>
      <trkpt lat="42.62151" lon="1.72713">
        <ele>2330</ele>
        <time>2020-08-25T13:06:06.134Z</time>
      </trkpt>
      <trkpt lat="42.62151" lon="1.7271">
        <ele>2330</ele>
        <time>2020-08-25T13:06:10.904Z</time>
      </trkpt>
      <trkpt lat="42.6215" lon="1.72706">
        <ele>2332</ele>
        <time>2020-08-25T13:06:15.570Z</time>
      </trkpt>
      <trkpt lat="42.62148" lon="1.72704">
        <ele>2332</ele>
        <time>2020-08-25T13:06:20.551Z</time>
      </trkpt>
      <trkpt lat="42.62147" lon="1.72701">
        <ele>2332</ele>
        <time>2020-08-25T13:06:24.600Z</time>
      </trkpt>
      <trkpt lat="42.62146" lon="1.72699">
        <ele>2332</ele>
        <time>2020-08-25T13:06:28.013Z</time>
      </trkpt>
      <trkpt lat="42.62144" lon="1.72696">
        <ele>2332</ele>
        <time>2020-08-25T13:06:33.546Z</time>
      </trkpt>
      <trkpt lat="42.62144" lon="1.72692">
        <ele>2332</ele>
        <time>2020-08-25T13:06:39.079Z</time>
      </trkpt>
      <trkpt lat="42.62144" lon="1.72687">
        <ele>2332</ele>
        <time>2020-08-25T13:06:44.939Z</time>
      </trkpt>
      <trkpt lat="42.62142" lon="1.72683">
        <ele>2332</ele>
        <time>2020-08-25T13:06:48.797Z</time>
      </trkpt>
      <trkpt lat="42.6214" lon="1.72679">
        <ele>2333</ele>
        <time>2020-08-25T13:06:53.532Z</time>
      </trkpt>
      <trkpt lat="42.62138" lon="1.72675">
        <ele>2333</ele>
        <time>2020-08-25T13:07:00.041Z</time>
      </trkpt>
      <trkpt lat="42.62134" lon="1.72673">
        <ele>2333</ele>
        <time>2020-08-25T13:07:04.352Z</time>
      </trkpt>
      <trkpt lat="42.62131" lon="1.72669">
        <ele>2333</ele>
        <time>2020-08-25T13:07:08.574Z</time>
      </trkpt>
      <trkpt lat="42.62128" lon="1.72668">
        <ele>2333</ele>
        <time>2020-08-25T13:07:12.847Z</time>
      </trkpt>
      <trkpt lat="42.62118" lon="1.72662">
        <ele>2332</ele>
        <time>2020-08-25T13:07:24.792Z</time>
      </trkpt>
      <trkpt lat="42.62113" lon="1.7266">
        <ele>2332</ele>
        <time>2020-08-25T13:07:29.572Z</time>
      </trkpt>
      <trkpt lat="42.62112" lon="1.72655">
        <ele>2332</ele>
        <time>2020-08-25T13:07:33.826Z</time>
      </trkpt>
      <trkpt lat="42.6211" lon="1.72653">
        <ele>2331</ele>
        <time>2020-08-25T13:07:39.261Z</time>
      </trkpt>
      <trkpt lat="42.62106" lon="1.7265">
        <ele>2331</ele>
        <time>2020-08-25T13:07:44.059Z</time>
      </trkpt>
      <trkpt lat="42.62107" lon="1.72641">
        <ele>2331</ele>
        <time>2020-08-25T13:07:48.736Z</time>
      </trkpt>
      <trkpt lat="42.62105" lon="1.72635">
        <ele>2331</ele>
        <time>2020-08-25T13:07:54.070Z</time>
      </trkpt>
      <trkpt lat="42.62108" lon="1.72626">
        <ele>2331</ele>
        <time>2020-08-25T13:08:00.052Z</time>
      </trkpt>
      <trkpt lat="42.62108" lon="1.72622">
        <ele>2333</ele>
        <time>2020-08-25T13:08:04.211Z</time>
      </trkpt>
      <trkpt lat="42.6211" lon="1.72618">
        <ele>2333</ele>
        <time>2020-08-25T13:08:08.314Z</time>
      </trkpt>
      <trkpt lat="42.62112" lon="1.72611">
        <ele>2333</ele>
        <time>2020-08-25T13:08:12.711Z</time>
      </trkpt>
      <trkpt lat="42.62113" lon="1.72605">
        <ele>2333</ele>
        <time>2020-08-25T13:08:21.291Z</time>
      </trkpt>
      <trkpt lat="42.6212" lon="1.72598">
        <ele>2333</ele>
        <time>2020-08-25T13:08:30.888Z</time>
      </trkpt>
      <trkpt lat="42.62121" lon="1.72598">
        <ele>2333</ele>
        <time>2020-08-25T13:08:35.535Z</time>
      </trkpt>
      <trkpt lat="42.62122" lon="1.72597">
        <ele>2333</ele>
        <time>2020-08-25T13:08:48.271Z</time>
      </trkpt>
      <trkpt lat="42.62129" lon="1.72599">
        <ele>2330</ele>
        <time>2020-08-25T13:08:53.614Z</time>
      </trkpt>
      <trkpt lat="42.62132" lon="1.72598">
        <ele>2330</ele>
        <time>2020-08-25T13:09:00.092Z</time>
      </trkpt>
      <trkpt lat="42.62134" lon="1.72593">
        <ele>2332</ele>
        <time>2020-08-25T13:09:05.306Z</time>
      </trkpt>
      <trkpt lat="42.62136" lon="1.72592">
        <ele>2332</ele>
        <time>2020-08-25T13:09:20.568Z</time>
      </trkpt>
      <trkpt lat="42.62136" lon="1.72592">
        <ele>2332</ele>
        <time>2020-08-25T13:09:25.568Z</time>
      </trkpt>
      <trkpt lat="42.62138" lon="1.72594">
        <ele>2332</ele>
        <time>2020-08-25T13:09:29.643Z</time>
      </trkpt>
      <trkpt lat="42.62143" lon="1.72587">
        <ele>2332</ele>
        <time>2020-08-25T13:09:33.608Z</time>
      </trkpt>
      <trkpt lat="42.6215" lon="1.72584">
        <ele>2332</ele>
        <time>2020-08-25T13:09:40.645Z</time>
      </trkpt>
      <trkpt lat="42.62155" lon="1.7258">
        <ele>2323</ele>
        <time>2020-08-25T13:09:45.996Z</time>
      </trkpt>
      <trkpt lat="42.62156" lon="1.7258">
        <ele>2323</ele>
        <time>2020-08-25T13:09:50.022Z</time>
      </trkpt>
      <trkpt lat="42.62158" lon="1.72575">
        <ele>2323</ele>
        <time>2020-08-25T13:09:54.864Z</time>
      </trkpt>
      <trkpt lat="42.6216" lon="1.72575">
        <ele>2323</ele>
        <time>2020-08-25T13:09:59.889Z</time>
      </trkpt>
      <trkpt lat="42.62168" lon="1.72568">
        <ele>2330</ele>
        <time>2020-08-25T13:10:13.883Z</time>
      </trkpt>
      <trkpt lat="42.62174" lon="1.72562">
        <ele>2330</ele>
        <time>2020-08-25T13:10:23.323Z</time>
      </trkpt>
      <trkpt lat="42.62181" lon="1.72563">
        <ele>2330</ele>
        <time>2020-08-25T13:10:27.734Z</time>
      </trkpt>
      <trkpt lat="42.62182" lon="1.7256">
        <ele>2312</ele>
        <time>2020-08-25T13:10:32.935Z</time>
      </trkpt>
      <trkpt lat="42.62183" lon="1.72558">
        <ele>2312</ele>
        <time>2020-08-25T13:10:37.574Z</time>
      </trkpt>
      <trkpt lat="42.62187" lon="1.72558">
        <ele>2312</ele>
        <time>2020-08-25T13:10:43.087Z</time>
      </trkpt>
      <trkpt lat="42.62189" lon="1.72554">
        <ele>2312</ele>
        <time>2020-08-25T13:10:48.556Z</time>
      </trkpt>
      <trkpt lat="42.62192" lon="1.72552">
        <ele>2312</ele>
        <time>2020-08-25T13:10:52.881Z</time>
      </trkpt>
      <trkpt lat="42.62196" lon="1.72551">
        <ele>2312</ele>
        <time>2020-08-25T13:10:57.549Z</time>
      </trkpt>
      <trkpt lat="42.62199" lon="1.7255">
        <ele>2312</ele>
        <time>2020-08-25T13:11:01.132Z</time>
      </trkpt>
      <trkpt lat="42.62198" lon="1.72549">
        <ele>2312</ele>
        <time>2020-08-25T13:11:05.664Z</time>
      </trkpt>
      <trkpt lat="42.62199" lon="1.72548">
        <ele>2312</ele>
        <time>2020-08-25T13:11:10.699Z</time>
      </trkpt>
      <trkpt lat="42.62199" lon="1.72548">
        <ele>2312</ele>
        <time>2020-08-25T13:11:14.831Z</time>
      </trkpt>
      <trkpt lat="42.62204" lon="1.72553">
        <ele>2312</ele>
        <time>2020-08-25T13:11:26.730Z</time>
      </trkpt>
      <trkpt lat="42.62209" lon="1.72559">
        <ele>2293</ele>
        <time>2020-08-25T13:11:32.134Z</time>
      </trkpt>
      <trkpt lat="42.6221" lon="1.72563">
        <ele>2293</ele>
        <time>2020-08-25T13:11:36.920Z</time>
      </trkpt>
      <trkpt lat="42.62212" lon="1.72574">
        <ele>2290</ele>
        <time>2020-08-25T13:11:53.278Z</time>
      </trkpt>
      <trkpt lat="42.62216" lon="1.72574">
        <ele>2290</ele>
        <time>2020-08-25T13:12:03.041Z</time>
      </trkpt>
      <trkpt lat="42.62219" lon="1.72571">
        <ele>2290</ele>
        <time>2020-08-25T13:12:07.997Z</time>
      </trkpt>
      <trkpt lat="42.62224" lon="1.72563">
        <ele>2293</ele>
        <time>2020-08-25T13:13:15.070Z</time>
      </trkpt>
      <trkpt lat="42.62229" lon="1.72566">
        <ele>2293</ele>
        <time>2020-08-25T13:13:19.588Z</time>
      </trkpt>
      <trkpt lat="42.62234" lon="1.7257">
        <ele>2290</ele>
        <time>2020-08-25T13:13:25.060Z</time>
      </trkpt>
      <trkpt lat="42.62236" lon="1.72569">
        <ele>2293</ele>
        <time>2020-08-25T13:13:28.820Z</time>
      </trkpt>
      <trkpt lat="42.62235" lon="1.72563">
        <ele>2293</ele>
        <time>2020-08-25T13:13:35.014Z</time>
      </trkpt>
      <trkpt lat="42.62239" lon="1.72562">
        <ele>2272</ele>
        <time>2020-08-25T13:13:39.575Z</time>
      </trkpt>
      <trkpt lat="42.62238" lon="1.72557">
        <ele>2272</ele>
        <time>2020-08-25T13:13:44.589Z</time>
      </trkpt>
      <trkpt lat="42.62238" lon="1.72554">
        <ele>2272</ele>
        <time>2020-08-25T13:13:48.785Z</time>
      </trkpt>
      <trkpt lat="42.62238" lon="1.72548">
        <ele>2272</ele>
        <time>2020-08-25T13:13:52.819Z</time>
      </trkpt>
      <trkpt lat="42.6224" lon="1.72541">
        <ele>2271</ele>
        <time>2020-08-25T13:13:58.672Z</time>
      </trkpt>
      <trkpt lat="42.62241" lon="1.72535">
        <ele>2271</ele>
        <time>2020-08-25T13:14:03.208Z</time>
      </trkpt>
      <trkpt lat="42.62242" lon="1.72525">
        <ele>2271</ele>
        <time>2020-08-25T13:14:07.566Z</time>
      </trkpt>
      <trkpt lat="42.62243" lon="1.72519">
        <ele>2271</ele>
        <time>2020-08-25T13:14:11.959Z</time>
      </trkpt>
      <trkpt lat="42.6224" lon="1.72504">
        <ele>2273</ele>
        <time>2020-08-25T13:14:19.570Z</time>
      </trkpt>
      <trkpt lat="42.62242" lon="1.72504">
        <ele>2273</ele>
        <time>2020-08-25T13:14:30.590Z</time>
      </trkpt>
      <trkpt lat="42.62245" lon="1.7251">
        <ele>2273</ele>
        <time>2020-08-25T13:14:39.646Z</time>
      </trkpt>
      <trkpt lat="42.62252" lon="1.72519">
        <ele>2271</ele>
        <time>2020-08-25T13:14:46.726Z</time>
      </trkpt>
      <trkpt lat="42.62258" lon="1.72527">
        <ele>2271</ele>
        <time>2020-08-25T13:15:27.543Z</time>
      </trkpt>
      <trkpt lat="42.6226" lon="1.7253">
        <ele>2271</ele>
        <time>2020-08-25T13:15:32.575Z</time>
      </trkpt>
      <trkpt lat="42.62261" lon="1.72536">
        <ele>2271</ele>
        <time>2020-08-25T13:15:40.697Z</time>
      </trkpt>
      <trkpt lat="42.62262" lon="1.72539">
        <ele>2271</ele>
        <time>2020-08-25T13:15:44.790Z</time>
      </trkpt>
      <trkpt lat="42.62264" lon="1.7254">
        <ele>2253</ele>
        <time>2020-08-25T13:15:49.135Z</time>
      </trkpt>
      <trkpt lat="42.62267" lon="1.72541">
        <ele>2253</ele>
        <time>2020-08-25T13:15:53.627Z</time>
      </trkpt>
      <trkpt lat="42.62268" lon="1.72537">
        <ele>2253</ele>
        <time>2020-08-25T13:15:59.628Z</time>
      </trkpt>
      <trkpt lat="42.62272" lon="1.72531">
        <ele>2253</ele>
        <time>2020-08-25T13:16:04.565Z</time>
      </trkpt>
      <trkpt lat="42.62273" lon="1.72525">
        <ele>2253</ele>
        <time>2020-08-25T13:16:09.330Z</time>
      </trkpt>
      <trkpt lat="42.62272" lon="1.7252">
        <ele>2253</ele>
        <time>2020-08-25T13:16:13.901Z</time>
      </trkpt>
      <trkpt lat="42.62273" lon="1.72515">
        <ele>2253</ele>
        <time>2020-08-25T13:16:18.544Z</time>
      </trkpt>
      <trkpt lat="42.62275" lon="1.72512">
        <ele>2251</ele>
        <time>2020-08-25T13:16:22.582Z</time>
      </trkpt>
      <trkpt lat="42.62277" lon="1.72507">
        <ele>2251</ele>
        <time>2020-08-25T13:16:27.562Z</time>
      </trkpt>
      <trkpt lat="42.62277" lon="1.72503">
        <ele>2251</ele>
        <time>2020-08-25T13:16:32.560Z</time>
      </trkpt>
      <trkpt lat="42.6228" lon="1.72506">
        <ele>2251</ele>
        <time>2020-08-25T13:16:35.962Z</time>
      </trkpt>
      <trkpt lat="42.62281" lon="1.72503">
        <ele>2251</ele>
        <time>2020-08-25T13:16:41.182Z</time>
      </trkpt>
      <trkpt lat="42.62283" lon="1.72505">
        <ele>2251</ele>
        <time>2020-08-25T13:16:46.116Z</time>
      </trkpt>
      <trkpt lat="42.62285" lon="1.72498">
        <ele>2251</ele>
        <time>2020-08-25T13:17:12.963Z</time>
      </trkpt>
      <trkpt lat="42.62288" lon="1.72496">
        <ele>2251</ele>
        <time>2020-08-25T13:17:17.560Z</time>
      </trkpt>
      <trkpt lat="42.6229" lon="1.72497">
        <ele>2251</ele>
        <time>2020-08-25T13:17:22.640Z</time>
      </trkpt>
      <trkpt lat="42.62293" lon="1.72501">
        <ele>2225</ele>
        <time>2020-08-25T13:17:26.798Z</time>
      </trkpt>
      <trkpt lat="42.62295" lon="1.72502">
        <ele>2225</ele>
        <time>2020-08-25T13:17:30.923Z</time>
      </trkpt>
      <trkpt lat="42.62297" lon="1.72511">
        <ele>2225</ele>
        <time>2020-08-25T13:17:39.923Z</time>
      </trkpt>
      <trkpt lat="42.62307" lon="1.72528">
        <ele>2229</ele>
        <time>2020-08-25T13:18:26.582Z</time>
      </trkpt>
      <trkpt lat="42.62309" lon="1.72526">
        <ele>2229</ele>
        <time>2020-08-25T13:18:31.559Z</time>
      </trkpt>
      <trkpt lat="42.62311" lon="1.72524">
        <ele>2229</ele>
        <time>2020-08-25T13:18:36.530Z</time>
      </trkpt>
      <trkpt lat="42.62312" lon="1.72523">
        <ele>2229</ele>
        <time>2020-08-25T13:18:40.719Z</time>
      </trkpt>
      <trkpt lat="42.62317" lon="1.72527">
        <ele>2229</ele>
        <time>2020-08-25T13:18:47.721Z</time>
      </trkpt>
      <trkpt lat="42.62325" lon="1.72525">
        <ele>2204</ele>
        <time>2020-08-25T13:19:43.530Z</time>
      </trkpt>
      <trkpt lat="42.62329" lon="1.72522">
        <ele>2204</ele>
        <time>2020-08-25T13:19:59.699Z</time>
      </trkpt>
      <trkpt lat="42.62331" lon="1.72522">
        <ele>2204</ele>
        <time>2020-08-25T13:20:04.528Z</time>
      </trkpt>
      <trkpt lat="42.62332" lon="1.72516">
        <ele>2204</ele>
        <time>2020-08-25T13:20:13.549Z</time>
      </trkpt>
      <trkpt lat="42.62334" lon="1.72508">
        <ele>2204</ele>
        <time>2020-08-25T13:20:18.824Z</time>
      </trkpt>
      <trkpt lat="42.62339" lon="1.72498">
        <ele>2204</ele>
        <time>2020-08-25T13:20:27.534Z</time>
      </trkpt>
      <trkpt lat="42.62342" lon="1.72493">
        <ele>2204</ele>
        <time>2020-08-25T13:20:33.062Z</time>
      </trkpt>
      <trkpt lat="42.62347" lon="1.72493">
        <ele>2204</ele>
        <time>2020-08-25T13:20:42.308Z</time>
      </trkpt>
      <trkpt lat="42.62349" lon="1.72496">
        <ele>2190</ele>
        <time>2020-08-25T13:20:46.561Z</time>
      </trkpt>
      <trkpt lat="42.62361" lon="1.72503">
        <ele>2190</ele>
        <time>2020-08-25T13:22:24.827Z</time>
      </trkpt>
      <trkpt lat="42.62366" lon="1.72508">
        <ele>2190</ele>
        <time>2020-08-25T13:22:30.056Z</time>
      </trkpt>
      <trkpt lat="42.62373" lon="1.72513">
        <ele>2190</ele>
        <time>2020-08-25T13:22:34.815Z</time>
      </trkpt>
      <trkpt lat="42.62373" lon="1.72519">
        <ele>2186</ele>
        <time>2020-08-25T13:22:45.558Z</time>
      </trkpt>
      <trkpt lat="42.62376" lon="1.72525">
        <ele>2169</ele>
        <time>2020-08-25T13:22:53.674Z</time>
      </trkpt>
      <trkpt lat="42.62374" lon="1.72538">
        <ele>2186</ele>
        <time>2020-08-25T13:23:18.522Z</time>
      </trkpt>
      <trkpt lat="42.62383" lon="1.72536">
        <ele>2169</ele>
        <time>2020-08-25T13:23:25.827Z</time>
      </trkpt>
      <trkpt lat="42.62388" lon="1.7254">
        <ele>2169</ele>
        <time>2020-08-25T13:23:36.823Z</time>
      </trkpt>
      <trkpt lat="42.62388" lon="1.72541">
        <ele>2169</ele>
        <time>2020-08-25T13:23:41.293Z</time>
      </trkpt>
      <trkpt lat="42.62388" lon="1.72543">
        <ele>2165</ele>
        <time>2020-08-25T13:23:45.793Z</time>
      </trkpt>
      <trkpt lat="42.62393" lon="1.72543">
        <ele>2165</ele>
        <time>2020-08-25T13:23:56.886Z</time>
      </trkpt>
      <trkpt lat="42.62395" lon="1.72545">
        <ele>2165</ele>
        <time>2020-08-25T13:24:01.815Z</time>
      </trkpt>
      <trkpt lat="42.62395" lon="1.72551">
        <ele>2165</ele>
        <time>2020-08-25T13:24:05.845Z</time>
      </trkpt>
      <trkpt lat="42.62396" lon="1.72557">
        <ele>2165</ele>
        <time>2020-08-25T13:24:11.091Z</time>
      </trkpt>
      <trkpt lat="42.62399" lon="1.72555">
        <ele>2165</ele>
        <time>2020-08-25T13:24:15.608Z</time>
      </trkpt>
      <trkpt lat="42.62404" lon="1.72554">
        <ele>2150</ele>
        <time>2020-08-25T13:24:20.029Z</time>
      </trkpt>
      <trkpt lat="42.62404" lon="1.72558">
        <ele>2150</ele>
        <time>2020-08-25T13:24:23.999Z</time>
      </trkpt>
      <trkpt lat="42.62409" lon="1.72566">
        <ele>2150</ele>
        <time>2020-08-25T13:24:29.529Z</time>
      </trkpt>
      <trkpt lat="42.62413" lon="1.72561">
        <ele>2150</ele>
        <time>2020-08-25T13:24:33.527Z</time>
      </trkpt>
      <trkpt lat="42.62415" lon="1.7256">
        <ele>2150</ele>
        <time>2020-08-25T13:24:37.526Z</time>
      </trkpt>
      <trkpt lat="42.62415" lon="1.72559">
        <ele>2150</ele>
        <time>2020-08-25T13:24:41.657Z</time>
      </trkpt>
      <trkpt lat="42.62416" lon="1.72558">
        <ele>2150</ele>
        <time>2020-08-25T13:24:46.055Z</time>
      </trkpt>
      <trkpt lat="42.62426" lon="1.72553">
        <ele>2150</ele>
        <time>2020-08-25T13:25:00.005Z</time>
      </trkpt>
      <trkpt lat="42.62429" lon="1.72554">
        <ele>2150</ele>
        <time>2020-08-25T13:25:04.573Z</time>
      </trkpt>
      <trkpt lat="42.62431" lon="1.72556">
        <ele>2141</ele>
        <time>2020-08-25T13:25:08.559Z</time>
      </trkpt>
      <trkpt lat="42.62432" lon="1.72556">
        <ele>2141</ele>
        <time>2020-08-25T13:25:12.902Z</time>
      </trkpt>
      <trkpt lat="42.62437" lon="1.72558">
        <ele>2141</ele>
        <time>2020-08-25T13:25:17.136Z</time>
      </trkpt>
      <trkpt lat="42.62441" lon="1.7256">
        <ele>2141</ele>
        <time>2020-08-25T13:25:22.196Z</time>
      </trkpt>
      <trkpt lat="42.62449" lon="1.72568">
        <ele>2141</ele>
        <time>2020-08-25T13:25:44.719Z</time>
      </trkpt>
      <trkpt lat="42.6245" lon="1.72567">
        <ele>2141</ele>
        <time>2020-08-25T13:25:50.526Z</time>
      </trkpt>
      <trkpt lat="42.62454" lon="1.72569">
        <ele>2141</ele>
        <time>2020-08-25T13:25:54.817Z</time>
      </trkpt>
      <trkpt lat="42.62456" lon="1.72567">
        <ele>2141</ele>
        <time>2020-08-25T13:25:59.902Z</time>
      </trkpt>
      <trkpt lat="42.62458" lon="1.72566">
        <ele>2141</ele>
        <time>2020-08-25T13:26:04.071Z</time>
      </trkpt>
      <trkpt lat="42.62461" lon="1.72567">
        <ele>2132</ele>
        <time>2020-08-25T13:26:08.539Z</time>
      </trkpt>
      <trkpt lat="42.62466" lon="1.72576">
        <ele>2131</ele>
        <time>2020-08-25T13:26:16.868Z</time>
      </trkpt>
      <trkpt lat="42.62467" lon="1.72578">
        <ele>2131</ele>
        <time>2020-08-25T13:26:26.036Z</time>
      </trkpt>
      <trkpt lat="42.62471" lon="1.72576">
        <ele>2131</ele>
        <time>2020-08-25T13:26:30.578Z</time>
      </trkpt>
      <trkpt lat="42.62473" lon="1.72574">
        <ele>2131</ele>
        <time>2020-08-25T13:26:38.737Z</time>
      </trkpt>
      <trkpt lat="42.6248" lon="1.72573">
        <ele>2131</ele>
        <time>2020-08-25T13:26:49.553Z</time>
      </trkpt>
      <trkpt lat="42.62488" lon="1.72574">
        <ele>2127</ele>
        <time>2020-08-25T13:26:59.853Z</time>
      </trkpt>
      <trkpt lat="42.62492" lon="1.72571">
        <ele>2127</ele>
        <time>2020-08-25T13:27:05.092Z</time>
      </trkpt>
      <trkpt lat="42.62509" lon="1.72569">
        <ele>2128</ele>
        <time>2020-08-25T13:27:21.203Z</time>
      </trkpt>
      <trkpt lat="42.62512" lon="1.72567">
        <ele>2128</ele>
        <time>2020-08-25T13:27:26.591Z</time>
      </trkpt>
      <trkpt lat="42.62514" lon="1.72568">
        <ele>2128</ele>
        <time>2020-08-25T13:27:30.662Z</time>
      </trkpt>
      <trkpt lat="42.62515" lon="1.72566">
        <ele>2128</ele>
        <time>2020-08-25T13:27:35.558Z</time>
      </trkpt>
      <trkpt lat="42.62518" lon="1.72569">
        <ele>2128</ele>
        <time>2020-08-25T13:27:40.526Z</time>
      </trkpt>
      <trkpt lat="42.62524" lon="1.72574">
        <ele>2127</ele>
        <time>2020-08-25T13:28:03.747Z</time>
      </trkpt>
      <trkpt lat="42.62529" lon="1.72574">
        <ele>2127</ele>
        <time>2020-08-25T13:28:09.951Z</time>
      </trkpt>
      <trkpt lat="42.62537" lon="1.72573">
        <ele>2127</ele>
        <time>2020-08-25T13:28:17.954Z</time>
      </trkpt>
      <trkpt lat="42.62541" lon="1.72575">
        <ele>2127</ele>
        <time>2020-08-25T13:28:22.030Z</time>
      </trkpt>
      <trkpt lat="42.62545" lon="1.72575">
        <ele>2127</ele>
        <time>2020-08-25T13:28:27.667Z</time>
      </trkpt>
      <trkpt lat="42.62549" lon="1.72578">
        <ele>2127</ele>
        <time>2020-08-25T13:28:32.555Z</time>
      </trkpt>
      <trkpt lat="42.62551" lon="1.72582">
        <ele>2127</ele>
        <time>2020-08-25T13:28:38.055Z</time>
      </trkpt>
      <trkpt lat="42.62551" lon="1.72583">
        <ele>2127</ele>
        <time>2020-08-25T13:28:41.563Z</time>
      </trkpt>
      <trkpt lat="42.62557" lon="1.72584">
        <ele>2127</ele>
        <time>2020-08-25T13:28:51.535Z</time>
      </trkpt>
      <trkpt lat="42.62565" lon="1.72587">
        <ele>2127</ele>
        <time>2020-08-25T13:29:00.104Z</time>
      </trkpt>
      <trkpt lat="42.62565" lon="1.72585">
        <ele>2127</ele>
        <time>2020-08-25T13:29:03.109Z</time>
      </trkpt>
      <trkpt lat="42.62573" lon="1.7259">
        <ele>2127</ele>
        <time>2020-08-25T13:29:09.144Z</time>
      </trkpt>
      <trkpt lat="42.62578" lon="1.72595">
        <ele>2127</ele>
        <time>2020-08-25T13:29:14.714Z</time>
      </trkpt>
      <trkpt lat="42.62587" lon="1.72603">
        <ele>2127</ele>
        <time>2020-08-25T13:29:23.283Z</time>
      </trkpt>
      <trkpt lat="42.62594" lon="1.72611">
        <ele>2127</ele>
        <time>2020-08-25T13:29:29.324Z</time>
      </trkpt>
      <trkpt lat="42.62603" lon="1.72611">
        <ele>2127</ele>
        <time>2020-08-25T13:29:38.921Z</time>
      </trkpt>
      <trkpt lat="42.62609" lon="1.72613">
        <ele>2127</ele>
        <time>2020-08-25T13:29:43.695Z</time>
      </trkpt>
      <trkpt lat="42.62613" lon="1.72614">
        <ele>2127</ele>
        <time>2020-08-25T13:29:47.746Z</time>
      </trkpt>
      <trkpt lat="42.62618" lon="1.72612">
        <ele>2127</ele>
        <time>2020-08-25T13:29:52.528Z</time>
      </trkpt>
      <trkpt lat="42.62623" lon="1.72613">
        <ele>2127</ele>
        <time>2020-08-25T13:29:57.843Z</time>
      </trkpt>
      <trkpt lat="42.62629" lon="1.72615">
        <ele>2130</ele>
        <time>2020-08-25T13:30:02.535Z</time>
      </trkpt>
      <trkpt lat="42.62633" lon="1.72614">
        <ele>2130</ele>
        <time>2020-08-25T13:30:07.525Z</time>
      </trkpt>
      <trkpt lat="42.6264" lon="1.72614">
        <ele>2130</ele>
        <time>2020-08-25T13:30:12.526Z</time>
      </trkpt>
      <trkpt lat="42.62648" lon="1.72615">
        <ele>2130</ele>
        <time>2020-08-25T13:30:18.872Z</time>
      </trkpt>
      <trkpt lat="42.62652" lon="1.72617">
        <ele>2130</ele>
        <time>2020-08-25T13:30:23.190Z</time>
      </trkpt>
      <trkpt lat="42.62657" lon="1.72624">
        <ele>2133</ele>
        <time>2020-08-25T13:30:27.540Z</time>
      </trkpt>
      <trkpt lat="42.62663" lon="1.72633">
        <ele>2130</ele>
        <time>2020-08-25T13:30:32.564Z</time>
      </trkpt>
      <trkpt lat="42.62667" lon="1.72638">
        <ele>2130</ele>
        <time>2020-08-25T13:30:38.800Z</time>
      </trkpt>
      <trkpt lat="42.62682" lon="1.72651">
        <ele>2131</ele>
        <time>2020-08-25T13:30:51.645Z</time>
      </trkpt>
      <trkpt lat="42.62688" lon="1.72652">
        <ele>2131</ele>
        <time>2020-08-25T13:30:58.760Z</time>
      </trkpt>
      <trkpt lat="42.62696" lon="1.72654">
        <ele>2129</ele>
        <time>2020-08-25T13:31:06.800Z</time>
      </trkpt>
      <trkpt lat="42.62699" lon="1.72656">
        <ele>2129</ele>
        <time>2020-08-25T13:31:11.589Z</time>
      </trkpt>
      <trkpt lat="42.62719" lon="1.72663">
        <ele>2128</ele>
        <time>2020-08-25T13:31:31.677Z</time>
      </trkpt>
      <trkpt lat="42.62728" lon="1.72672">
        <ele>2128</ele>
        <time>2020-08-25T13:32:18.832Z</time>
      </trkpt>
      <trkpt lat="42.62731" lon="1.72677">
        <ele>2128</ele>
        <time>2020-08-25T13:32:23.603Z</time>
      </trkpt>
      <trkpt lat="42.62734" lon="1.7268">
        <ele>2128</ele>
        <time>2020-08-25T13:32:29.096Z</time>
      </trkpt>
      <trkpt lat="42.62737" lon="1.72682">
        <ele>2125</ele>
        <time>2020-08-25T13:32:33.528Z</time>
      </trkpt>
      <trkpt lat="42.6274" lon="1.72686">
        <ele>2125</ele>
        <time>2020-08-25T13:32:38.766Z</time>
      </trkpt>
      <trkpt lat="42.62737" lon="1.72681">
        <ele>2125</ele>
        <time>2020-08-25T13:32:54.082Z</time>
      </trkpt>
      <trkpt lat="42.62743" lon="1.72686">
        <ele>2125</ele>
        <time>2020-08-25T13:32:59.895Z</time>
      </trkpt>
      <trkpt lat="42.62744" lon="1.72687">
        <ele>2125</ele>
        <time>2020-08-25T13:33:03.107Z</time>
      </trkpt>
      <trkpt lat="42.62758" lon="1.72677">
        <ele>2126</ele>
        <time>2020-08-25T13:33:19.584Z</time>
      </trkpt>
      <trkpt lat="42.62763" lon="1.72675">
        <ele>2126</ele>
        <time>2020-08-25T13:33:24.560Z</time>
      </trkpt>
      <trkpt lat="42.62769" lon="1.72676">
        <ele>2118</ele>
        <time>2020-08-25T13:33:48.823Z</time>
      </trkpt>
      <trkpt lat="42.6277" lon="1.72677">
        <ele>2118</ele>
        <time>2020-08-25T13:33:53.561Z</time>
      </trkpt>
      <trkpt lat="42.62773" lon="1.72678">
        <ele>2118</ele>
        <time>2020-08-25T13:33:58.522Z</time>
      </trkpt>
      <trkpt lat="42.62775" lon="1.72682">
        <ele>2120</ele>
        <time>2020-08-25T13:34:02.844Z</time>
      </trkpt>
      <trkpt lat="42.62779" lon="1.72684">
        <ele>2120</ele>
        <time>2020-08-25T13:34:06.903Z</time>
      </trkpt>
      <trkpt lat="42.62779" lon="1.72683">
        <ele>2120</ele>
        <time>2020-08-25T13:34:09.776Z</time>
      </trkpt>
      <trkpt lat="42.62783" lon="1.72683">
        <ele>2120</ele>
        <time>2020-08-25T13:34:15.575Z</time>
      </trkpt>
      <trkpt lat="42.62788" lon="1.7269">
        <ele>2120</ele>
        <time>2020-08-25T13:34:22.168Z</time>
      </trkpt>
      <trkpt lat="42.62793" lon="1.7269">
        <ele>2117</ele>
        <time>2020-08-25T13:34:29.831Z</time>
      </trkpt>
      <trkpt lat="42.62794" lon="1.72687">
        <ele>2117</ele>
        <time>2020-08-25T13:34:34.757Z</time>
      </trkpt>
      <trkpt lat="42.62796" lon="1.72687">
        <ele>2117</ele>
        <time>2020-08-25T13:34:39.702Z</time>
      </trkpt>
      <trkpt lat="42.628" lon="1.72683">
        <ele>2117</ele>
        <time>2020-08-25T13:34:44.558Z</time>
      </trkpt>
      <trkpt lat="42.62807" lon="1.72682">
        <ele>2117</ele>
        <time>2020-08-25T13:34:53.808Z</time>
      </trkpt>
      <trkpt lat="42.6281" lon="1.7268">
        <ele>2112</ele>
        <time>2020-08-25T13:34:59.858Z</time>
      </trkpt>
      <trkpt lat="42.62813" lon="1.72675">
        <ele>2112</ele>
        <time>2020-08-25T13:35:04.183Z</time>
      </trkpt>
      <trkpt lat="42.62815" lon="1.72665">
        <ele>2112</ele>
        <time>2020-08-25T13:35:10.832Z</time>
      </trkpt>
      <trkpt lat="42.62819" lon="1.7266">
        <ele>2112</ele>
        <time>2020-08-25T13:35:15.524Z</time>
      </trkpt>
      <trkpt lat="42.62824" lon="1.72657">
        <ele>2110</ele>
        <time>2020-08-25T13:35:20.910Z</time>
      </trkpt>
      <trkpt lat="42.62828" lon="1.7265">
        <ele>2107</ele>
        <time>2020-08-25T13:35:26.133Z</time>
      </trkpt>
      <trkpt lat="42.62831" lon="1.7265">
        <ele>2107</ele>
        <time>2020-08-25T13:35:30.147Z</time>
      </trkpt>
      <trkpt lat="42.62831" lon="1.72642">
        <ele>2107</ele>
        <time>2020-08-25T13:35:35.559Z</time>
      </trkpt>
      <trkpt lat="42.62834" lon="1.72637">
        <ele>2107</ele>
        <time>2020-08-25T13:35:39.837Z</time>
      </trkpt>
      <trkpt lat="42.6284" lon="1.72627">
        <ele>2107</ele>
        <time>2020-08-25T13:35:46.253Z</time>
      </trkpt>
      <trkpt lat="42.62844" lon="1.72621">
        <ele>2105</ele>
        <time>2020-08-25T13:35:51.099Z</time>
      </trkpt>
      <trkpt lat="42.6285" lon="1.72619">
        <ele>2105</ele>
        <time>2020-08-25T13:35:55.807Z</time>
      </trkpt>
      <trkpt lat="42.62854" lon="1.72615">
        <ele>2105</ele>
        <time>2020-08-25T13:35:59.890Z</time>
      </trkpt>
      <trkpt lat="42.62869" lon="1.72601">
        <ele>2105</ele>
        <time>2020-08-25T13:36:15.666Z</time>
      </trkpt>
      <trkpt lat="42.62874" lon="1.72597">
        <ele>2105</ele>
        <time>2020-08-25T13:36:20.547Z</time>
      </trkpt>
      <trkpt lat="42.62877" lon="1.72596">
        <ele>2104</ele>
        <time>2020-08-25T13:36:25.524Z</time>
      </trkpt>
      <trkpt lat="42.6288" lon="1.72591">
        <ele>2104</ele>
        <time>2020-08-25T13:36:30.640Z</time>
      </trkpt>
      <trkpt lat="42.62884" lon="1.72589">
        <ele>2104</ele>
        <time>2020-08-25T13:36:35.528Z</time>
      </trkpt>
      <trkpt lat="42.62891" lon="1.72581">
        <ele>2104</ele>
        <time>2020-08-25T13:36:43.954Z</time>
      </trkpt>
      <trkpt lat="42.62896" lon="1.72573">
        <ele>2104</ele>
        <time>2020-08-25T13:36:51.759Z</time>
      </trkpt>
      <trkpt lat="42.62904" lon="1.72573">
        <ele>2106</ele>
        <time>2020-08-25T13:36:56.948Z</time>
      </trkpt>
      <trkpt lat="42.62923" lon="1.72565">
        <ele>2106</ele>
        <time>2020-08-25T13:37:16.184Z</time>
      </trkpt>
      <trkpt lat="42.62932" lon="1.72567">
        <ele>2105</ele>
        <time>2020-08-25T13:37:21.688Z</time>
      </trkpt>
      <trkpt lat="42.62934" lon="1.72562">
        <ele>2105</ele>
        <time>2020-08-25T13:37:25.966Z</time>
      </trkpt>
      <trkpt lat="42.62941" lon="1.72565">
        <ele>2105</ele>
        <time>2020-08-25T13:37:30.781Z</time>
      </trkpt>
      <trkpt lat="42.62945" lon="1.72565">
        <ele>2105</ele>
        <time>2020-08-25T13:37:34.821Z</time>
      </trkpt>
      <trkpt lat="42.62952" lon="1.72566">
        <ele>2105</ele>
        <time>2020-08-25T13:37:39.524Z</time>
      </trkpt>
      <trkpt lat="42.62953" lon="1.72572">
        <ele>2105</ele>
        <time>2020-08-25T13:37:44.954Z</time>
      </trkpt>
      <trkpt lat="42.62957" lon="1.72576">
        <ele>2105</ele>
        <time>2020-08-25T13:37:50.780Z</time>
      </trkpt>
      <trkpt lat="42.62958" lon="1.72577">
        <ele>2104</ele>
        <time>2020-08-25T13:37:54.070Z</time>
      </trkpt>
      <trkpt lat="42.62963" lon="1.72577">
        <ele>2104</ele>
        <time>2020-08-25T13:38:00.012Z</time>
      </trkpt>
      <trkpt lat="42.62966" lon="1.72581">
        <ele>2104</ele>
        <time>2020-08-25T13:38:04.836Z</time>
      </trkpt>
      <trkpt lat="42.6297" lon="1.72582">
        <ele>2104</ele>
        <time>2020-08-25T13:38:08.889Z</time>
      </trkpt>
      <trkpt lat="42.62975" lon="1.72585">
        <ele>2104</ele>
        <time>2020-08-25T13:38:13.197Z</time>
      </trkpt>
      <trkpt lat="42.62983" lon="1.72592">
        <ele>2104</ele>
        <time>2020-08-25T13:38:18.568Z</time>
      </trkpt>
      <trkpt lat="42.62984" lon="1.7259">
        <ele>2104</ele>
        <time>2020-08-25T13:38:21.850Z</time>
      </trkpt>
      <trkpt lat="42.62988" lon="1.72591">
        <ele>2102</ele>
        <time>2020-08-25T13:38:58.519Z</time>
      </trkpt>
      <trkpt lat="42.62987" lon="1.7259">
        <ele>2102</ele>
        <time>2020-08-25T13:39:03.189Z</time>
      </trkpt>
      <trkpt lat="42.62983" lon="1.72587">
        <ele>2104</ele>
        <time>2020-08-25T13:39:10.080Z</time>
      </trkpt>
      <trkpt lat="42.62981" lon="1.72584">
        <ele>2104</ele>
        <time>2020-08-25T13:39:15.152Z</time>
      </trkpt>
      <trkpt lat="42.62983" lon="1.72575">
        <ele>2104</ele>
        <time>2020-08-25T13:39:19.578Z</time>
      </trkpt>
      <trkpt lat="42.6299" lon="1.72561">
        <ele>2102</ele>
        <time>2020-08-25T13:39:48.364Z</time>
      </trkpt>
      <trkpt lat="42.62992" lon="1.72556">
        <ele>2102</ele>
        <time>2020-08-25T13:39:53.831Z</time>
      </trkpt>
      <trkpt lat="42.62991" lon="1.72548">
        <ele>2102</ele>
        <time>2020-08-25T13:39:58.556Z</time>
      </trkpt>
      <trkpt lat="42.6299" lon="1.7254">
        <ele>2102</ele>
        <time>2020-08-25T13:40:03.912Z</time>
      </trkpt>
      <trkpt lat="42.62989" lon="1.72534">
        <ele>2102</ele>
        <time>2020-08-25T13:40:09.322Z</time>
      </trkpt>
      <trkpt lat="42.62987" lon="1.7253">
        <ele>2102</ele>
        <time>2020-08-25T13:40:13.440Z</time>
      </trkpt>
      <trkpt lat="42.62985" lon="1.72525">
        <ele>2104</ele>
        <time>2020-08-25T13:40:17.797Z</time>
      </trkpt>
      <trkpt lat="42.62986" lon="1.72521">
        <ele>2104</ele>
        <time>2020-08-25T13:40:23.542Z</time>
      </trkpt>
      <trkpt lat="42.62983" lon="1.7252">
        <ele>2104</ele>
        <time>2020-08-25T13:40:27.572Z</time>
      </trkpt>
      <trkpt lat="42.62983" lon="1.72517">
        <ele>2104</ele>
        <time>2020-08-25T13:40:33.322Z</time>
      </trkpt>
      <trkpt lat="42.62982" lon="1.72514">
        <ele>2104</ele>
        <time>2020-08-25T13:40:38.556Z</time>
      </trkpt>
      <trkpt lat="42.62979" lon="1.72511">
        <ele>2108</ele>
        <time>2020-08-25T13:40:44.241Z</time>
      </trkpt>
      <trkpt lat="42.62977" lon="1.7251">
        <ele>2108</ele>
        <time>2020-08-25T13:40:51.722Z</time>
      </trkpt>
      <trkpt lat="42.62976" lon="1.72506">
        <ele>2108</ele>
        <time>2020-08-25T13:40:55.964Z</time>
      </trkpt>
      <trkpt lat="42.62972" lon="1.72499">
        <ele>2108</ele>
        <time>2020-08-25T13:41:01.910Z</time>
      </trkpt>
      <trkpt lat="42.62968" lon="1.72497">
        <ele>2108</ele>
        <time>2020-08-25T13:41:07.446Z</time>
      </trkpt>
      <trkpt lat="42.62966" lon="1.72489">
        <ele>2108</ele>
        <time>2020-08-25T13:41:12.174Z</time>
      </trkpt>
      <trkpt lat="42.62965" lon="1.72484">
        <ele>2112</ele>
        <time>2020-08-25T13:41:17.309Z</time>
      </trkpt>
      <trkpt lat="42.62961" lon="1.72482">
        <ele>2112</ele>
        <time>2020-08-25T13:41:21.903Z</time>
      </trkpt>
      <trkpt lat="42.62957" lon="1.72475">
        <ele>2114</ele>
        <time>2020-08-25T13:41:27.539Z</time>
      </trkpt>
      <trkpt lat="42.62956" lon="1.72469">
        <ele>2114</ele>
        <time>2020-08-25T13:41:33.013Z</time>
      </trkpt>
      <trkpt lat="42.62952" lon="1.72467">
        <ele>2114</ele>
        <time>2020-08-25T13:41:37.341Z</time>
      </trkpt>
      <trkpt lat="42.6295" lon="1.72459">
        <ele>2114</ele>
        <time>2020-08-25T13:41:42.648Z</time>
      </trkpt>
      <trkpt lat="42.62951" lon="1.72453">
        <ele>2116</ele>
        <time>2020-08-25T13:41:47.998Z</time>
      </trkpt>
      <trkpt lat="42.6295" lon="1.72444">
        <ele>2116</ele>
        <time>2020-08-25T13:41:52.734Z</time>
      </trkpt>
      <trkpt lat="42.62952" lon="1.72439">
        <ele>2116</ele>
        <time>2020-08-25T13:41:57.685Z</time>
      </trkpt>
      <trkpt lat="42.62959" lon="1.72421">
        <ele>2112</ele>
        <time>2020-08-25T13:42:08.945Z</time>
      </trkpt>
      <trkpt lat="42.62959" lon="1.72415">
        <ele>2112</ele>
        <time>2020-08-25T13:42:14.643Z</time>
      </trkpt>
      <trkpt lat="42.62962" lon="1.7241">
        <ele>2112</ele>
        <time>2020-08-25T13:42:19.234Z</time>
      </trkpt>
      <trkpt lat="42.62961" lon="1.72406">
        <ele>2112</ele>
        <time>2020-08-25T13:42:23.580Z</time>
      </trkpt>
      <trkpt lat="42.62961" lon="1.72401">
        <ele>2110</ele>
        <time>2020-08-25T13:42:27.560Z</time>
      </trkpt>
      <trkpt lat="42.62962" lon="1.72396">
        <ele>2110</ele>
        <time>2020-08-25T13:42:36.854Z</time>
      </trkpt>
      <trkpt lat="42.62962" lon="1.7239">
        <ele>2110</ele>
        <time>2020-08-25T13:42:41.544Z</time>
      </trkpt>
      <trkpt lat="42.6296" lon="1.72388">
        <ele>2110</ele>
        <time>2020-08-25T13:42:46.716Z</time>
      </trkpt>
      <trkpt lat="42.62959" lon="1.72387">
        <ele>2110</ele>
        <time>2020-08-25T13:42:51.653Z</time>
      </trkpt>
      <trkpt lat="42.62958" lon="1.72382">
        <ele>2110</ele>
        <time>2020-08-25T13:42:56.983Z</time>
      </trkpt>
      <trkpt lat="42.62957" lon="1.7238">
        <ele>2113</ele>
        <time>2020-08-25T13:43:01.520Z</time>
      </trkpt>
      <trkpt lat="42.62959" lon="1.72373">
        <ele>2109</ele>
        <time>2020-08-25T13:43:04.843Z</time>
      </trkpt>
      <trkpt lat="42.62962" lon="1.72369">
        <ele>2109</ele>
        <time>2020-08-25T13:43:12.815Z</time>
      </trkpt>
      <trkpt lat="42.62963" lon="1.72366">
        <ele>2109</ele>
        <time>2020-08-25T13:43:16.680Z</time>
      </trkpt>
      <trkpt lat="42.62963" lon="1.72363">
        <ele>2109</ele>
        <time>2020-08-25T13:43:21.566Z</time>
      </trkpt>
      <trkpt lat="42.62961" lon="1.72359">
        <ele>2109</ele>
        <time>2020-08-25T13:43:28.625Z</time>
      </trkpt>
      <trkpt lat="42.62961" lon="1.72352">
        <ele>2109</ele>
        <time>2020-08-25T13:43:32.764Z</time>
      </trkpt>
      <trkpt lat="42.62962" lon="1.72346">
        <ele>2108</ele>
        <time>2020-08-25T13:43:36.985Z</time>
      </trkpt>
      <trkpt lat="42.62963" lon="1.72342">
        <ele>2108</ele>
        <time>2020-08-25T13:43:41.579Z</time>
      </trkpt>
      <trkpt lat="42.6297" lon="1.72339">
        <ele>2108</ele>
        <time>2020-08-25T13:43:48.037Z</time>
      </trkpt>
      <trkpt lat="42.62972" lon="1.72335">
        <ele>2108</ele>
        <time>2020-08-25T13:43:52.577Z</time>
      </trkpt>
      <trkpt lat="42.62975" lon="1.72332">
        <ele>2108</ele>
        <time>2020-08-25T13:43:58.137Z</time>
      </trkpt>
      <trkpt lat="42.62981" lon="1.72324">
        <ele>2108</ele>
        <time>2020-08-25T13:44:08.608Z</time>
      </trkpt>
      <trkpt lat="42.62983" lon="1.72318">
        <ele>2106</ele>
        <time>2020-08-25T13:44:15.336Z</time>
      </trkpt>
      <trkpt lat="42.62983" lon="1.72313">
        <ele>2106</ele>
        <time>2020-08-25T13:44:19.738Z</time>
      </trkpt>
      <trkpt lat="42.62983" lon="1.72297">
        <ele>2106</ele>
        <time>2020-08-25T13:44:30.552Z</time>
      </trkpt>
      <trkpt lat="42.63007" lon="1.72245">
        <ele>2094</ele>
        <time>2020-08-25T13:45:23.696Z</time>
      </trkpt>
      <trkpt lat="42.63006" lon="1.72241">
        <ele>2094</ele>
        <time>2020-08-25T13:45:28.751Z</time>
      </trkpt>
      <trkpt lat="42.63006" lon="1.72236">
        <ele>2094</ele>
        <time>2020-08-25T13:45:32.651Z</time>
      </trkpt>
      <trkpt lat="42.63006" lon="1.72229">
        <ele>2094</ele>
        <time>2020-08-25T13:45:37.545Z</time>
      </trkpt>
      <trkpt lat="42.63003" lon="1.72222">
        <ele>2094</ele>
        <time>2020-08-25T13:45:42.519Z</time>
      </trkpt>
      <trkpt lat="42.63001" lon="1.72218">
        <ele>2094</ele>
        <time>2020-08-25T13:45:47.521Z</time>
      </trkpt>
      <trkpt lat="42.63001" lon="1.72216">
        <ele>2094</ele>
        <time>2020-08-25T13:45:51.830Z</time>
      </trkpt>
      <trkpt lat="42.63002" lon="1.7221">
        <ele>2094</ele>
        <time>2020-08-25T13:45:57.869Z</time>
      </trkpt>
      <trkpt lat="42.63001" lon="1.72204">
        <ele>2089</ele>
        <time>2020-08-25T13:46:03.400Z</time>
      </trkpt>
      <trkpt lat="42.62999" lon="1.72199">
        <ele>2089</ele>
        <time>2020-08-25T13:46:08.956Z</time>
      </trkpt>
      <trkpt lat="42.62998" lon="1.72189">
        <ele>2089</ele>
        <time>2020-08-25T13:46:14.887Z</time>
      </trkpt>
      <trkpt lat="42.62997" lon="1.72176">
        <ele>2086</ele>
        <time>2020-08-25T13:46:29.886Z</time>
      </trkpt>
      <trkpt lat="42.63" lon="1.72171">
        <ele>2086</ele>
        <time>2020-08-25T13:46:35.857Z</time>
      </trkpt>
      <trkpt lat="42.62999" lon="1.72165">
        <ele>2086</ele>
        <time>2020-08-25T13:46:40.055Z</time>
      </trkpt>
      <trkpt lat="42.62997" lon="1.72154">
        <ele>2086</ele>
        <time>2020-08-25T13:46:46.030Z</time>
      </trkpt>
      <trkpt lat="42.62998" lon="1.72148">
        <ele>2084</ele>
        <time>2020-08-25T13:46:50.564Z</time>
      </trkpt>
      <trkpt lat="42.62998" lon="1.72138">
        <ele>2084</ele>
        <time>2020-08-25T13:47:00.117Z</time>
      </trkpt>
      <trkpt lat="42.62999" lon="1.72128">
        <ele>2084</ele>
        <time>2020-08-25T13:47:04.558Z</time>
      </trkpt>
      <trkpt lat="42.62997" lon="1.72127">
        <ele>2084</ele>
        <time>2020-08-25T13:47:08.955Z</time>
      </trkpt>
      <trkpt lat="42.62996" lon="1.72118">
        <ele>2081</ele>
        <time>2020-08-25T13:47:13.097Z</time>
      </trkpt>
      <trkpt lat="42.62996" lon="1.72108">
        <ele>2081</ele>
        <time>2020-08-25T13:47:17.810Z</time>
      </trkpt>
      <trkpt lat="42.62997" lon="1.72105">
        <ele>2081</ele>
        <time>2020-08-25T13:47:23.094Z</time>
      </trkpt>
      <trkpt lat="42.62998" lon="1.72101">
        <ele>2081</ele>
        <time>2020-08-25T13:47:26.908Z</time>
      </trkpt>
      <trkpt lat="42.62997" lon="1.72098">
        <ele>2081</ele>
        <time>2020-08-25T13:47:31.244Z</time>
      </trkpt>
      <trkpt lat="42.62997" lon="1.72093">
        <ele>2078</ele>
        <time>2020-08-25T13:47:36.369Z</time>
      </trkpt>
      <trkpt lat="42.62995" lon="1.72093">
        <ele>2078</ele>
        <time>2020-08-25T13:47:39.800Z</time>
      </trkpt>
      <trkpt lat="42.6299" lon="1.72082">
        <ele>2078</ele>
        <time>2020-08-25T13:47:55.767Z</time>
      </trkpt>
      <trkpt lat="42.6299" lon="1.72082">
        <ele>2078</ele>
        <time>2020-08-25T13:48:00.559Z</time>
      </trkpt>
      <trkpt lat="42.62989" lon="1.72081">
        <ele>2078</ele>
        <time>2020-08-25T13:48:04.332Z</time>
      </trkpt>
      <trkpt lat="42.62989" lon="1.72076">
        <ele>2078</ele>
        <time>2020-08-25T13:48:08.203Z</time>
      </trkpt>
      <trkpt lat="42.62989" lon="1.7207">
        <ele>2078</ele>
        <time>2020-08-25T13:48:13.594Z</time>
      </trkpt>
      <trkpt lat="42.62988" lon="1.72069">
        <ele>2076</ele>
        <time>2020-08-25T13:48:17.718Z</time>
      </trkpt>
      <trkpt lat="42.62984" lon="1.72065">
        <ele>2086</ele>
        <time>2020-08-25T13:48:22.975Z</time>
      </trkpt>
      <trkpt lat="42.62982" lon="1.72063">
        <ele>2086</ele>
        <time>2020-08-25T13:48:27.826Z</time>
      </trkpt>
      <trkpt lat="42.62979" lon="1.72062">
        <ele>2086</ele>
        <time>2020-08-25T13:48:32.856Z</time>
      </trkpt>
      <trkpt lat="42.62979" lon="1.72062">
        <ele>2086</ele>
        <time>2020-08-25T13:48:36.980Z</time>
      </trkpt>
      <trkpt lat="42.62979" lon="1.72062">
        <ele>2086</ele>
        <time>2020-08-25T13:48:42.837Z</time>
      </trkpt>
      <trkpt lat="42.62977" lon="1.72058">
        <ele>2086</ele>
        <time>2020-08-25T13:48:47.575Z</time>
      </trkpt>
      <trkpt lat="42.62973" lon="1.72054">
        <ele>2086</ele>
        <time>2020-08-25T13:48:52.521Z</time>
      </trkpt>
      <trkpt lat="42.62972" lon="1.72051">
        <ele>2086</ele>
        <time>2020-08-25T13:48:57.537Z</time>
      </trkpt>
      <trkpt lat="42.62971" lon="1.72049">
        <ele>2086</ele>
        <time>2020-08-25T13:49:02.516Z</time>
      </trkpt>
      <trkpt lat="42.62971" lon="1.72047">
        <ele>2086</ele>
        <time>2020-08-25T13:49:06.797Z</time>
      </trkpt>
      <trkpt lat="42.62971" lon="1.72041">
        <ele>2089</ele>
        <time>2020-08-25T13:49:12.022Z</time>
      </trkpt>
      <trkpt lat="42.62969" lon="1.72038">
        <ele>2089</ele>
        <time>2020-08-25T13:49:17.187Z</time>
      </trkpt>
      <trkpt lat="42.62968" lon="1.72037">
        <ele>2089</ele>
        <time>2020-08-25T13:49:21.483Z</time>
      </trkpt>
      <trkpt lat="42.6297" lon="1.72024">
        <ele>2089</ele>
        <time>2020-08-25T13:49:38.575Z</time>
      </trkpt>
      <trkpt lat="42.62967" lon="1.72022">
        <ele>2089</ele>
        <time>2020-08-25T13:49:43.167Z</time>
      </trkpt>
      <trkpt lat="42.62968" lon="1.72022">
        <ele>2089</ele>
        <time>2020-08-25T13:49:48.282Z</time>
      </trkpt>
      <trkpt lat="42.62966" lon="1.7202">
        <ele>2089</ele>
        <time>2020-08-25T13:49:52.649Z</time>
      </trkpt>
      <trkpt lat="42.62967" lon="1.72013">
        <ele>2091</ele>
        <time>2020-08-25T13:49:57.744Z</time>
      </trkpt>
      <trkpt lat="42.62967" lon="1.72008">
        <ele>2091</ele>
        <time>2020-08-25T13:50:01.576Z</time>
      </trkpt>
      <trkpt lat="42.62969" lon="1.72">
        <ele>2091</ele>
        <time>2020-08-25T13:50:11.243Z</time>
      </trkpt>
      <trkpt lat="42.6297" lon="1.71994">
        <ele>2091</ele>
        <time>2020-08-25T13:50:15.861Z</time>
      </trkpt>
      <trkpt lat="42.62969" lon="1.7199">
        <ele>2091</ele>
        <time>2020-08-25T13:50:20.515Z</time>
      </trkpt>
      <trkpt lat="42.62973" lon="1.71988">
        <ele>2091</ele>
        <time>2020-08-25T13:50:33.207Z</time>
      </trkpt>
      <trkpt lat="42.62974" lon="1.71987">
        <ele>2091</ele>
        <time>2020-08-25T13:50:37.018Z</time>
      </trkpt>
      <trkpt lat="42.62975" lon="1.71985">
        <ele>2098</ele>
        <time>2020-08-25T13:50:43.589Z</time>
      </trkpt>
      <trkpt lat="42.62978" lon="1.71983">
        <ele>2098</ele>
        <time>2020-08-25T13:50:47.608Z</time>
      </trkpt>
      <trkpt lat="42.62979" lon="1.71974">
        <ele>2098</ele>
        <time>2020-08-25T13:50:52.572Z</time>
      </trkpt>
      <trkpt lat="42.62982" lon="1.71965">
        <ele>2098</ele>
        <time>2020-08-25T13:51:32.093Z</time>
      </trkpt>
      <trkpt lat="42.6298" lon="1.71966">
        <ele>2098</ele>
        <time>2020-08-25T13:51:38.223Z</time>
      </trkpt>
      <trkpt lat="42.62979" lon="1.71965">
        <ele>2098</ele>
        <time>2020-08-25T13:51:42.595Z</time>
      </trkpt>
      <trkpt lat="42.62978" lon="1.71963">
        <ele>2098</ele>
        <time>2020-08-25T13:51:46.802Z</time>
      </trkpt>
      <trkpt lat="42.62976" lon="1.7196">
        <ele>2098</ele>
        <time>2020-08-25T13:51:51.253Z</time>
      </trkpt>
      <trkpt lat="42.62972" lon="1.71951">
        <ele>2106</ele>
        <time>2020-08-25T13:52:04.518Z</time>
      </trkpt>
      <trkpt lat="42.62972" lon="1.71948">
        <ele>2106</ele>
        <time>2020-08-25T13:52:09.518Z</time>
      </trkpt>
      <trkpt lat="42.62971" lon="1.71947">
        <ele>2106</ele>
        <time>2020-08-25T13:52:13.910Z</time>
      </trkpt>
      <trkpt lat="42.62971" lon="1.71947">
        <ele>2106</ele>
        <time>2020-08-25T13:52:18.706Z</time>
      </trkpt>
      <trkpt lat="42.6297" lon="1.71941">
        <ele>2106</ele>
        <time>2020-08-25T13:52:23.843Z</time>
      </trkpt>
      <trkpt lat="42.6297" lon="1.71936">
        <ele>2106</ele>
        <time>2020-08-25T13:52:34.194Z</time>
      </trkpt>
      <trkpt lat="42.6297" lon="1.7193">
        <ele>2118</ele>
        <time>2020-08-25T13:52:42.324Z</time>
      </trkpt>
      <trkpt lat="42.62969" lon="1.71929">
        <ele>2118</ele>
        <time>2020-08-25T13:52:46.641Z</time>
      </trkpt>
      <trkpt lat="42.62971" lon="1.71925">
        <ele>2118</ele>
        <time>2020-08-25T13:52:51.788Z</time>
      </trkpt>
      <trkpt lat="42.62971" lon="1.7192">
        <ele>2118</ele>
        <time>2020-08-25T13:53:00.060Z</time>
      </trkpt>
      <trkpt lat="42.62971" lon="1.71915">
        <ele>2118</ele>
        <time>2020-08-25T13:53:10.924Z</time>
      </trkpt>
      <trkpt lat="42.62971" lon="1.71912">
        <ele>2118</ele>
        <time>2020-08-25T13:53:14.729Z</time>
      </trkpt>
      <trkpt lat="42.62971" lon="1.71911">
        <ele>2118</ele>
        <time>2020-08-25T13:53:19.985Z</time>
      </trkpt>
      <trkpt lat="42.62971" lon="1.71907">
        <ele>2118</ele>
        <time>2020-08-25T13:53:24.795Z</time>
      </trkpt>
      <trkpt lat="42.62973" lon="1.71899">
        <ele>2130</ele>
        <time>2020-08-25T13:53:28.929Z</time>
      </trkpt>
      <trkpt lat="42.62973" lon="1.71894">
        <ele>2130</ele>
        <time>2020-08-25T13:53:36.517Z</time>
      </trkpt>
      <trkpt lat="42.62973" lon="1.71891">
        <ele>2130</ele>
        <time>2020-08-25T13:53:40.318Z</time>
      </trkpt>
      <trkpt lat="42.62974" lon="1.7188">
        <ele>2130</ele>
        <time>2020-08-25T13:53:45.746Z</time>
      </trkpt>
      <trkpt lat="42.62973" lon="1.71873">
        <ele>2143</ele>
        <time>2020-08-25T13:53:51.905Z</time>
      </trkpt>
      <trkpt lat="42.62977" lon="1.7187">
        <ele>2143</ele>
        <time>2020-08-25T13:53:57.037Z</time>
      </trkpt>
      <trkpt lat="42.62976" lon="1.71866">
        <ele>2143</ele>
        <time>2020-08-25T13:54:02.888Z</time>
      </trkpt>
      <trkpt lat="42.62975" lon="1.7186">
        <ele>2143</ele>
        <time>2020-08-25T13:54:07.005Z</time>
      </trkpt>
      <trkpt lat="42.62983" lon="1.71853">
        <ele>2143</ele>
        <time>2020-08-25T13:54:13.389Z</time>
      </trkpt>
      <trkpt lat="42.62987" lon="1.71843">
        <ele>2127</ele>
        <time>2020-08-25T13:54:23.811Z</time>
      </trkpt>
      <trkpt lat="42.62989" lon="1.7183">
        <ele>2127</ele>
        <time>2020-08-25T13:54:32.656Z</time>
      </trkpt>
      <trkpt lat="42.62992" lon="1.71827">
        <ele>2127</ele>
        <time>2020-08-25T13:54:36.773Z</time>
      </trkpt>
      <trkpt lat="42.62993" lon="1.71822">
        <ele>2127</ele>
        <time>2020-08-25T13:54:40.659Z</time>
      </trkpt>
      <trkpt lat="42.62995" lon="1.71817">
        <ele>2137</ele>
        <time>2020-08-25T13:54:46.050Z</time>
      </trkpt>
      <trkpt lat="42.62996" lon="1.71816">
        <ele>2137</ele>
        <time>2020-08-25T13:54:49.708Z</time>
      </trkpt>
      <trkpt lat="42.63001" lon="1.7181">
        <ele>2137</ele>
        <time>2020-08-25T13:54:54.519Z</time>
      </trkpt>
      <trkpt lat="42.63004" lon="1.71804">
        <ele>2137</ele>
        <time>2020-08-25T13:54:59.755Z</time>
      </trkpt>
      <trkpt lat="42.63005" lon="1.71796">
        <ele>2137</ele>
        <time>2020-08-25T13:55:05.370Z</time>
      </trkpt>
      <trkpt lat="42.63005" lon="1.71791">
        <ele>2149</ele>
        <time>2020-08-25T13:55:11.075Z</time>
      </trkpt>
      <trkpt lat="42.63009" lon="1.71789">
        <ele>2149</ele>
        <time>2020-08-25T13:55:16.008Z</time>
      </trkpt>
      <trkpt lat="42.63009" lon="1.71786">
        <ele>2149</ele>
        <time>2020-08-25T13:55:20.564Z</time>
      </trkpt>
      <trkpt lat="42.63009" lon="1.71785">
        <ele>2149</ele>
        <time>2020-08-25T13:55:25.555Z</time>
      </trkpt>
      <trkpt lat="42.63011" lon="1.71785">
        <ele>2149</ele>
        <time>2020-08-25T13:55:30.545Z</time>
      </trkpt>
      <trkpt lat="42.63019" lon="1.71779">
        <ele>2126</ele>
        <time>2020-08-25T13:55:35.519Z</time>
      </trkpt>
      <trkpt lat="42.6302" lon="1.71777">
        <ele>2126</ele>
        <time>2020-08-25T13:55:40.059Z</time>
      </trkpt>
      <trkpt lat="42.63023" lon="1.7177">
        <ele>2126</ele>
        <time>2020-08-25T13:55:45.692Z</time>
      </trkpt>
      <trkpt lat="42.63024" lon="1.71766">
        <ele>2126</ele>
        <time>2020-08-25T13:55:50.943Z</time>
      </trkpt>
      <trkpt lat="42.63025" lon="1.71762">
        <ele>2132</ele>
        <time>2020-08-25T13:55:55.064Z</time>
      </trkpt>
      <trkpt lat="42.63025" lon="1.71762">
        <ele>2132</ele>
        <time>2020-08-25T13:55:59.520Z</time>
      </trkpt>
      <trkpt lat="42.63023" lon="1.71756">
        <ele>2132</ele>
        <time>2020-08-25T13:56:03.691Z</time>
      </trkpt>
      <trkpt lat="42.63025" lon="1.71753">
        <ele>2132</ele>
        <time>2020-08-25T13:56:08.719Z</time>
      </trkpt>
      <trkpt lat="42.63026" lon="1.71753">
        <ele>2132</ele>
        <time>2020-08-25T13:56:13.096Z</time>
      </trkpt>
      <trkpt lat="42.6303" lon="1.71748">
        <ele>2132</ele>
        <time>2020-08-25T13:56:17.676Z</time>
      </trkpt>
      <trkpt lat="42.6303" lon="1.71743">
        <ele>2132</ele>
        <time>2020-08-25T13:56:21.870Z</time>
      </trkpt>
      <trkpt lat="42.63033" lon="1.71738">
        <ele>2132</ele>
        <time>2020-08-25T13:56:26.486Z</time>
      </trkpt>
      <trkpt lat="42.63039" lon="1.71736">
        <ele>2147</ele>
        <time>2020-08-25T13:56:31.116Z</time>
      </trkpt>
      <trkpt lat="42.63045" lon="1.7173">
        <ele>2125</ele>
        <time>2020-08-25T13:56:39.997Z</time>
      </trkpt>
      <trkpt lat="42.63046" lon="1.71729">
        <ele>2125</ele>
        <time>2020-08-25T13:56:46.124Z</time>
      </trkpt>
      <trkpt lat="42.63049" lon="1.71722">
        <ele>2125</ele>
        <time>2020-08-25T13:56:50.681Z</time>
      </trkpt>
      <trkpt lat="42.63051" lon="1.71718">
        <ele>2125</ele>
        <time>2020-08-25T13:56:56.561Z</time>
      </trkpt>
      <trkpt lat="42.63062" lon="1.71702">
        <ele>2136</ele>
        <time>2020-08-25T13:57:14.528Z</time>
      </trkpt>
      <trkpt lat="42.63062" lon="1.717">
        <ele>2136</ele>
        <time>2020-08-25T13:57:20.114Z</time>
      </trkpt>
      <trkpt lat="42.63062" lon="1.71699">
        <ele>2136</ele>
        <time>2020-08-25T13:57:26.648Z</time>
      </trkpt>
      <trkpt lat="42.63062" lon="1.717">
        <ele>2136</ele>
        <time>2020-08-25T13:57:40.918Z</time>
      </trkpt>
      <trkpt lat="42.63062" lon="1.717">
        <ele>2136</ele>
        <time>2020-08-25T13:57:46.032Z</time>
      </trkpt>
      <trkpt lat="42.63066" lon="1.71699">
        <ele>2136</ele>
        <time>2020-08-25T13:57:55.680Z</time>
      </trkpt>
      <trkpt lat="42.6307" lon="1.71701">
        <ele>2126</ele>
        <time>2020-08-25T13:58:02.983Z</time>
      </trkpt>
      <trkpt lat="42.63072" lon="1.71704">
        <ele>2126</ele>
        <time>2020-08-25T13:58:07.785Z</time>
      </trkpt>
      <trkpt lat="42.63075" lon="1.71704">
        <ele>2126</ele>
        <time>2020-08-25T13:58:13.856Z</time>
      </trkpt>
      <trkpt lat="42.63078" lon="1.71704">
        <ele>2126</ele>
        <time>2020-08-25T13:58:17.875Z</time>
      </trkpt>
      <trkpt lat="42.63083" lon="1.717">
        <ele>2126</ele>
        <time>2020-08-25T13:58:23.415Z</time>
      </trkpt>
      <trkpt lat="42.63086" lon="1.71698">
        <ele>2126</ele>
        <time>2020-08-25T13:58:27.552Z</time>
      </trkpt>
      <trkpt lat="42.63089" lon="1.71692">
        <ele>2126</ele>
        <time>2020-08-25T13:58:32.552Z</time>
      </trkpt>
      <trkpt lat="42.63091" lon="1.71688">
        <ele>2126</ele>
        <time>2020-08-25T13:58:37.530Z</time>
      </trkpt>
      <trkpt lat="42.63092" lon="1.71687">
        <ele>2126</ele>
        <time>2020-08-25T13:58:41.551Z</time>
      </trkpt>
      <trkpt lat="42.63094" lon="1.71681">
        <ele>2126</ele>
        <time>2020-08-25T13:58:45.857Z</time>
      </trkpt>
      <trkpt lat="42.63098" lon="1.71674">
        <ele>2127</ele>
        <time>2020-08-25T13:58:51.828Z</time>
      </trkpt>
      <trkpt lat="42.63107" lon="1.71671">
        <ele>2127</ele>
        <time>2020-08-25T13:58:57.550Z</time>
      </trkpt>
      <trkpt lat="42.63109" lon="1.7167">
        <ele>2127</ele>
        <time>2020-08-25T13:59:00.539Z</time>
      </trkpt>
      <trkpt lat="42.63114" lon="1.71671">
        <ele>2127</ele>
        <time>2020-08-25T13:59:06.574Z</time>
      </trkpt>
      <trkpt lat="42.63115" lon="1.71666">
        <ele>2127</ele>
        <time>2020-08-25T13:59:10.553Z</time>
      </trkpt>
      <trkpt lat="42.63118" lon="1.71661">
        <ele>2127</ele>
        <time>2020-08-25T13:59:15.575Z</time>
      </trkpt>
      <trkpt lat="42.63121" lon="1.71662">
        <ele>2127</ele>
        <time>2020-08-25T13:59:20.557Z</time>
      </trkpt>
      <trkpt lat="42.63122" lon="1.71656">
        <ele>2127</ele>
        <time>2020-08-25T13:59:25.562Z</time>
      </trkpt>
      <trkpt lat="42.63123" lon="1.71651">
        <ele>2130</ele>
        <time>2020-08-25T13:59:29.577Z</time>
      </trkpt>
      <trkpt lat="42.63126" lon="1.71646">
        <ele>2115</ele>
        <time>2020-08-25T13:59:34.576Z</time>
      </trkpt>
      <trkpt lat="42.63128" lon="1.71637">
        <ele>2115</ele>
        <time>2020-08-25T13:59:43.569Z</time>
      </trkpt>
      <trkpt lat="42.63129" lon="1.71636">
        <ele>2115</ele>
        <time>2020-08-25T13:59:48.568Z</time>
      </trkpt>
      <trkpt lat="42.63131" lon="1.71634">
        <ele>2115</ele>
        <time>2020-08-25T13:59:53.532Z</time>
      </trkpt>
      <trkpt lat="42.63134" lon="1.71632">
        <ele>2115</ele>
        <time>2020-08-25T13:59:57.555Z</time>
      </trkpt>
      <trkpt lat="42.63133" lon="1.71629">
        <ele>2115</ele>
        <time>2020-08-25T14:00:02.542Z</time>
      </trkpt>
      <trkpt lat="42.63133" lon="1.71623">
        <ele>2117</ele>
        <time>2020-08-25T14:00:06.573Z</time>
      </trkpt>
      <trkpt lat="42.63136" lon="1.7162">
        <ele>2117</ele>
        <time>2020-08-25T14:00:11.541Z</time>
      </trkpt>
      <trkpt lat="42.63137" lon="1.71613">
        <ele>2117</ele>
        <time>2020-08-25T14:00:19.599Z</time>
      </trkpt>
      <trkpt lat="42.6314" lon="1.71605">
        <ele>2117</ele>
        <time>2020-08-25T14:00:26.051Z</time>
      </trkpt>
      <trkpt lat="42.63141" lon="1.71598">
        <ele>2117</ele>
        <time>2020-08-25T14:00:30.670Z</time>
      </trkpt>
      <trkpt lat="42.63141" lon="1.7159">
        <ele>2118</ele>
        <time>2020-08-25T14:00:36.825Z</time>
      </trkpt>
      <trkpt lat="42.63139" lon="1.71585">
        <ele>2118</ele>
        <time>2020-08-25T14:00:41.279Z</time>
      </trkpt>
      <trkpt lat="42.63137" lon="1.71579">
        <ele>2118</ele>
        <time>2020-08-25T14:00:46.511Z</time>
      </trkpt>
      <trkpt lat="42.63133" lon="1.71572">
        <ele>2118</ele>
        <time>2020-08-25T14:00:52.108Z</time>
      </trkpt>
      <trkpt lat="42.63131" lon="1.71566">
        <ele>2116</ele>
        <time>2020-08-25T14:00:56.167Z</time>
      </trkpt>
      <trkpt lat="42.63125" lon="1.71555">
        <ele>2126</ele>
        <time>2020-08-25T14:01:04.871Z</time>
      </trkpt>
      <trkpt lat="42.63126" lon="1.71546">
        <ele>2116</ele>
        <time>2020-08-25T14:01:10.988Z</time>
      </trkpt>
      <trkpt lat="42.63125" lon="1.71541">
        <ele>2120</ele>
        <time>2020-08-25T14:01:15.123Z</time>
      </trkpt>
      <trkpt lat="42.63118" lon="1.71531">
        <ele>2120</ele>
        <time>2020-08-25T14:01:24.836Z</time>
      </trkpt>
      <trkpt lat="42.63115" lon="1.71527">
        <ele>2120</ele>
        <time>2020-08-25T14:01:28.773Z</time>
      </trkpt>
      <trkpt lat="42.63112" lon="1.71523">
        <ele>2120</ele>
        <time>2020-08-25T14:01:33.329Z</time>
      </trkpt>
      <trkpt lat="42.6311" lon="1.7152">
        <ele>2120</ele>
        <time>2020-08-25T14:01:39.304Z</time>
      </trkpt>
      <trkpt lat="42.63108" lon="1.71519">
        <ele>2120</ele>
        <time>2020-08-25T14:01:43.934Z</time>
      </trkpt>
      <trkpt lat="42.63104" lon="1.71515">
        <ele>2120</ele>
        <time>2020-08-25T14:01:48.950Z</time>
      </trkpt>
      <trkpt lat="42.63103" lon="1.7151">
        <ele>2120</ele>
        <time>2020-08-25T14:01:53.175Z</time>
      </trkpt>
      <trkpt lat="42.631" lon="1.71507">
        <ele>2120</ele>
        <time>2020-08-25T14:01:57.379Z</time>
      </trkpt>
      <trkpt lat="42.631" lon="1.715">
        <ele>2120</ele>
        <time>2020-08-25T14:02:01.540Z</time>
      </trkpt>
      <trkpt lat="42.631" lon="1.71494">
        <ele>2120</ele>
        <time>2020-08-25T14:02:06.535Z</time>
      </trkpt>
      <trkpt lat="42.63099" lon="1.71489">
        <ele>2120</ele>
        <time>2020-08-25T14:02:12.199Z</time>
      </trkpt>
      <trkpt lat="42.63097" lon="1.71487">
        <ele>2127</ele>
        <time>2020-08-25T14:02:16.037Z</time>
      </trkpt>
      <trkpt lat="42.63095" lon="1.71483">
        <ele>2124</ele>
        <time>2020-08-25T14:02:21.166Z</time>
      </trkpt>
      <trkpt lat="42.63092" lon="1.7148">
        <ele>2124</ele>
        <time>2020-08-25T14:02:26.557Z</time>
      </trkpt>
      <trkpt lat="42.63091" lon="1.71466">
        <ele>2124</ele>
        <time>2020-08-25T14:02:39.810Z</time>
      </trkpt>
      <trkpt lat="42.63088" lon="1.7146">
        <ele>2124</ele>
        <time>2020-08-25T14:02:44.722Z</time>
      </trkpt>
      <trkpt lat="42.63086" lon="1.71456">
        <ele>2125</ele>
        <time>2020-08-25T14:02:49.096Z</time>
      </trkpt>
      <trkpt lat="42.63081" lon="1.71451">
        <ele>2125</ele>
        <time>2020-08-25T14:02:55.719Z</time>
      </trkpt>
      <trkpt lat="42.63076" lon="1.7145">
        <ele>2125</ele>
        <time>2020-08-25T14:03:00.535Z</time>
      </trkpt>
      <trkpt lat="42.6307" lon="1.71451">
        <ele>2125</ele>
        <time>2020-08-25T14:03:05.822Z</time>
      </trkpt>
      <trkpt lat="42.63066" lon="1.71448">
        <ele>2127</ele>
        <time>2020-08-25T14:03:10.834Z</time>
      </trkpt>
      <trkpt lat="42.63061" lon="1.71443">
        <ele>2127</ele>
        <time>2020-08-25T14:03:18.980Z</time>
      </trkpt>
      <trkpt lat="42.63058" lon="1.71443">
        <ele>2127</ele>
        <time>2020-08-25T14:03:23.585Z</time>
      </trkpt>
      <trkpt lat="42.63055" lon="1.71439">
        <ele>2127</ele>
        <time>2020-08-25T14:03:29.694Z</time>
      </trkpt>
      <trkpt lat="42.63054" lon="1.71435">
        <ele>2127</ele>
        <time>2020-08-25T14:03:34.867Z</time>
      </trkpt>
      <trkpt lat="42.63052" lon="1.7143">
        <ele>2131</ele>
        <time>2020-08-25T14:03:40.057Z</time>
      </trkpt>
      <trkpt lat="42.63049" lon="1.71429">
        <ele>2131</ele>
        <time>2020-08-25T14:03:45.030Z</time>
      </trkpt>
      <trkpt lat="42.63046" lon="1.71425">
        <ele>2131</ele>
        <time>2020-08-25T14:03:48.892Z</time>
      </trkpt>
      <trkpt lat="42.63045" lon="1.71423">
        <ele>2131</ele>
        <time>2020-08-25T14:03:53.672Z</time>
      </trkpt>
      <trkpt lat="42.63042" lon="1.71424">
        <ele>2131</ele>
        <time>2020-08-25T14:03:57.862Z</time>
      </trkpt>
      <trkpt lat="42.63038" lon="1.71417">
        <ele>2140</ele>
        <time>2020-08-25T14:04:06.405Z</time>
      </trkpt>
      <trkpt lat="42.63031" lon="1.7141">
        <ele>2140</ele>
        <time>2020-08-25T14:04:14.942Z</time>
      </trkpt>
      <trkpt lat="42.63028" lon="1.71405">
        <ele>2140</ele>
        <time>2020-08-25T14:04:20.220Z</time>
      </trkpt>
      <trkpt lat="42.63026" lon="1.71398">
        <ele>2142</ele>
        <time>2020-08-25T14:04:24.730Z</time>
      </trkpt>
      <trkpt lat="42.63025" lon="1.7139">
        <ele>2142</ele>
        <time>2020-08-25T14:04:29.942Z</time>
      </trkpt>
      <trkpt lat="42.63024" lon="1.71384">
        <ele>2142</ele>
        <time>2020-08-25T14:04:33.737Z</time>
      </trkpt>
      <trkpt lat="42.63021" lon="1.71378">
        <ele>2142</ele>
        <time>2020-08-25T14:04:38.876Z</time>
      </trkpt>
      <trkpt lat="42.63018" lon="1.71371">
        <ele>2140</ele>
        <time>2020-08-25T14:04:43.891Z</time>
      </trkpt>
      <trkpt lat="42.63017" lon="1.71365">
        <ele>2140</ele>
        <time>2020-08-25T14:04:48.204Z</time>
      </trkpt>
      <trkpt lat="42.63016" lon="1.7136">
        <ele>2140</ele>
        <time>2020-08-25T14:04:52.035Z</time>
      </trkpt>
      <trkpt lat="42.63013" lon="1.7135">
        <ele>2145</ele>
        <time>2020-08-25T14:04:58.542Z</time>
      </trkpt>
      <trkpt lat="42.63007" lon="1.71343">
        <ele>2141</ele>
        <time>2020-08-25T14:05:04.599Z</time>
      </trkpt>
      <trkpt lat="42.63003" lon="1.71337">
        <ele>2141</ele>
        <time>2020-08-25T14:05:09.556Z</time>
      </trkpt>
      <trkpt lat="42.62999" lon="1.71336">
        <ele>2141</ele>
        <time>2020-08-25T14:05:13.578Z</time>
      </trkpt>
      <trkpt lat="42.62993" lon="1.71332">
        <ele>2141</ele>
        <time>2020-08-25T14:05:18.601Z</time>
      </trkpt>
      <trkpt lat="42.6299" lon="1.71328">
        <ele>2141</ele>
        <time>2020-08-25T14:05:22.642Z</time>
      </trkpt>
      <trkpt lat="42.62987" lon="1.71322">
        <ele>2141</ele>
        <time>2020-08-25T14:05:27.913Z</time>
      </trkpt>
      <trkpt lat="42.62983" lon="1.71317">
        <ele>2145</ele>
        <time>2020-08-25T14:05:33.112Z</time>
      </trkpt>
      <trkpt lat="42.62978" lon="1.71312">
        <ele>2145</ele>
        <time>2020-08-25T14:05:37.978Z</time>
      </trkpt>
      <trkpt lat="42.62973" lon="1.7131">
        <ele>2145</ele>
        <time>2020-08-25T14:05:42.796Z</time>
      </trkpt>
      <trkpt lat="42.62969" lon="1.71307">
        <ele>2145</ele>
        <time>2020-08-25T14:05:46.898Z</time>
      </trkpt>
      <trkpt lat="42.62966" lon="1.71302">
        <ele>2145</ele>
        <time>2020-08-25T14:05:51.774Z</time>
      </trkpt>
      <trkpt lat="42.62961" lon="1.71298">
        <ele>2145</ele>
        <time>2020-08-25T14:05:56.799Z</time>
      </trkpt>
      <trkpt lat="42.62956" lon="1.71293">
        <ele>2150</ele>
        <time>2020-08-25T14:06:02.947Z</time>
      </trkpt>
      <trkpt lat="42.62951" lon="1.71287">
        <ele>2146</ele>
        <time>2020-08-25T14:06:09.176Z</time>
      </trkpt>
      <trkpt lat="42.62944" lon="1.71284">
        <ele>2146</ele>
        <time>2020-08-25T14:06:14.680Z</time>
      </trkpt>
      <trkpt lat="42.62941" lon="1.71282">
        <ele>2146</ele>
        <time>2020-08-25T14:06:18.979Z</time>
      </trkpt>
      <trkpt lat="42.62937" lon="1.71276">
        <ele>2146</ele>
        <time>2020-08-25T14:06:23.675Z</time>
      </trkpt>
      <trkpt lat="42.62933" lon="1.71271">
        <ele>2146</ele>
        <time>2020-08-25T14:06:27.826Z</time>
      </trkpt>
      <trkpt lat="42.6293" lon="1.71265">
        <ele>2150</ele>
        <time>2020-08-25T14:06:31.954Z</time>
      </trkpt>
      <trkpt lat="42.62928" lon="1.71259">
        <ele>2147</ele>
        <time>2020-08-25T14:06:35.772Z</time>
      </trkpt>
      <trkpt lat="42.62924" lon="1.71256">
        <ele>2147</ele>
        <time>2020-08-25T14:06:41.122Z</time>
      </trkpt>
      <trkpt lat="42.62922" lon="1.71249">
        <ele>2147</ele>
        <time>2020-08-25T14:06:46.043Z</time>
      </trkpt>
      <trkpt lat="42.62921" lon="1.71244">
        <ele>2147</ele>
        <time>2020-08-25T14:06:51.287Z</time>
      </trkpt>
      <trkpt lat="42.62923" lon="1.71239">
        <ele>2147</ele>
        <time>2020-08-25T14:06:55.925Z</time>
      </trkpt>
      <trkpt lat="42.6292" lon="1.71237">
        <ele>2147</ele>
        <time>2020-08-25T14:07:01.523Z</time>
      </trkpt>
      <trkpt lat="42.62915" lon="1.71232">
        <ele>2146</ele>
        <time>2020-08-25T14:07:07.785Z</time>
      </trkpt>
      <trkpt lat="42.62907" lon="1.71226">
        <ele>2146</ele>
        <time>2020-08-25T14:07:16.856Z</time>
      </trkpt>
      <trkpt lat="42.62904" lon="1.71221">
        <ele>2146</ele>
        <time>2020-08-25T14:07:21.783Z</time>
      </trkpt>
      <trkpt lat="42.62905" lon="1.71214">
        <ele>2146</ele>
        <time>2020-08-25T14:07:27.096Z</time>
      </trkpt>
      <trkpt lat="42.62905" lon="1.71206">
        <ele>2148</ele>
        <time>2020-08-25T14:07:31.480Z</time>
      </trkpt>
      <trkpt lat="42.62904" lon="1.71199">
        <ele>2148</ele>
        <time>2020-08-25T14:07:35.931Z</time>
      </trkpt>
      <trkpt lat="42.62903" lon="1.71195">
        <ele>2149</ele>
        <time>2020-08-25T14:07:40.094Z</time>
      </trkpt>
      <trkpt lat="42.62896" lon="1.7119">
        <ele>2149</ele>
        <time>2020-08-25T14:07:47.944Z</time>
      </trkpt>
      <trkpt lat="42.6289" lon="1.71187">
        <ele>2149</ele>
        <time>2020-08-25T14:07:54.118Z</time>
      </trkpt>
      <trkpt lat="42.62886" lon="1.71173">
        <ele>2148</ele>
        <time>2020-08-25T14:10:28.683Z</time>
      </trkpt>
      <trkpt lat="42.62886" lon="1.71173">
        <ele>2148</ele>
        <time>2020-08-25T14:10:32.684Z</time>
      </trkpt>
      <trkpt lat="42.62886" lon="1.71173">
        <ele>2148</ele>
        <time>2020-08-25T14:10:37.655Z</time>
      </trkpt>
      <trkpt lat="42.62887" lon="1.71173">
        <ele>2148</ele>
        <time>2020-08-25T14:10:42.731Z</time>
      </trkpt>
      <trkpt lat="42.62888" lon="1.71172">
        <ele>2148</ele>
        <time>2020-08-25T14:10:49.884Z</time>
      </trkpt>
      <trkpt lat="42.62892" lon="1.71171">
        <ele>2148</ele>
        <time>2020-08-25T14:15:54.774Z</time>
      </trkpt>
      <trkpt lat="42.62893" lon="1.71172">
        <ele>2148</ele>
        <time>2020-08-25T14:15:59.026Z</time>
      </trkpt>
      <trkpt lat="42.62894" lon="1.71174">
        <ele>2148</ele>
        <time>2020-08-25T14:16:03.978Z</time>
      </trkpt>
      <trkpt lat="42.62897" lon="1.71175">
        <ele>2148</ele>
        <time>2020-08-25T14:16:09.792Z</time>
      </trkpt>
      <trkpt lat="42.62907" lon="1.71175">
        <ele>2148</ele>
        <time>2020-08-25T14:16:26.201Z</time>
      </trkpt>
      <trkpt lat="42.6291" lon="1.71175">
        <ele>2148</ele>
        <time>2020-08-25T14:16:33.078Z</time>
      </trkpt>
      <trkpt lat="42.62914" lon="1.71176">
        <ele>2148</ele>
        <time>2020-08-25T14:16:37.911Z</time>
      </trkpt>
      <trkpt lat="42.62915" lon="1.71178">
        <ele>2148</ele>
        <time>2020-08-25T14:16:41.560Z</time>
      </trkpt>
      <trkpt lat="42.62919" lon="1.71182">
        <ele>2148</ele>
        <time>2020-08-25T14:16:46.550Z</time>
      </trkpt>
      <trkpt lat="42.62923" lon="1.71187">
        <ele>2148</ele>
        <time>2020-08-25T14:16:51.562Z</time>
      </trkpt>
      <trkpt lat="42.62928" lon="1.71188">
        <ele>2148</ele>
        <time>2020-08-25T14:16:55.998Z</time>
      </trkpt>
      <trkpt lat="42.62933" lon="1.71189">
        <ele>2147</ele>
        <time>2020-08-25T14:17:00.521Z</time>
      </trkpt>
      <trkpt lat="42.62936" lon="1.71192">
        <ele>2147</ele>
        <time>2020-08-25T14:17:04.735Z</time>
      </trkpt>
      <trkpt lat="42.62941" lon="1.71194">
        <ele>2147</ele>
        <time>2020-08-25T14:17:09.849Z</time>
      </trkpt>
      <trkpt lat="42.62945" lon="1.71198">
        <ele>2147</ele>
        <time>2020-08-25T14:17:14.771Z</time>
      </trkpt>
      <trkpt lat="42.62949" lon="1.712">
        <ele>2147</ele>
        <time>2020-08-25T14:17:19.800Z</time>
      </trkpt>
      <trkpt lat="42.62955" lon="1.71202">
        <ele>2147</ele>
        <time>2020-08-25T14:17:24.716Z</time>
      </trkpt>
      <trkpt lat="42.62965" lon="1.71205">
        <ele>2146</ele>
        <time>2020-08-25T14:17:34.692Z</time>
      </trkpt>
      <trkpt lat="42.62969" lon="1.71209">
        <ele>2143</ele>
        <time>2020-08-25T14:17:38.844Z</time>
      </trkpt>
      <trkpt lat="42.62973" lon="1.71211">
        <ele>2143</ele>
        <time>2020-08-25T14:17:44.228Z</time>
      </trkpt>
      <trkpt lat="42.62979" lon="1.71216">
        <ele>2143</ele>
        <time>2020-08-25T14:17:49.825Z</time>
      </trkpt>
      <trkpt lat="42.62983" lon="1.71217">
        <ele>2143</ele>
        <time>2020-08-25T14:17:53.718Z</time>
      </trkpt>
      <trkpt lat="42.6299" lon="1.71217">
        <ele>2145</ele>
        <time>2020-08-25T14:18:00.548Z</time>
      </trkpt>
      <trkpt lat="42.62995" lon="1.71219">
        <ele>2145</ele>
        <time>2020-08-25T14:18:04.893Z</time>
      </trkpt>
      <trkpt lat="42.62997" lon="1.71219">
        <ele>2145</ele>
        <time>2020-08-25T14:18:07.029Z</time>
      </trkpt>
      <trkpt lat="42.63005" lon="1.71223">
        <ele>2145</ele>
        <time>2020-08-25T14:18:14.553Z</time>
      </trkpt>
      <trkpt lat="42.63011" lon="1.71225">
        <ele>2145</ele>
        <time>2020-08-25T14:18:19.737Z</time>
      </trkpt>
      <trkpt lat="42.63015" lon="1.71227">
        <ele>2148</ele>
        <time>2020-08-25T14:18:23.973Z</time>
      </trkpt>
      <trkpt lat="42.6302" lon="1.71232">
        <ele>2148</ele>
        <time>2020-08-25T14:18:28.652Z</time>
      </trkpt>
      <trkpt lat="42.63024" lon="1.71234">
        <ele>2148</ele>
        <time>2020-08-25T14:18:33.828Z</time>
      </trkpt>
      <trkpt lat="42.63027" lon="1.71238">
        <ele>2144</ele>
        <time>2020-08-25T14:18:37.843Z</time>
      </trkpt>
      <trkpt lat="42.63034" lon="1.71243">
        <ele>2144</ele>
        <time>2020-08-25T14:18:44.129Z</time>
      </trkpt>
      <trkpt lat="42.63038" lon="1.71247">
        <ele>2144</ele>
        <time>2020-08-25T14:18:48.566Z</time>
      </trkpt>
      <trkpt lat="42.63049" lon="1.7126">
        <ele>2147</ele>
        <time>2020-08-25T14:19:00.027Z</time>
      </trkpt>
      <trkpt lat="42.63054" lon="1.71267">
        <ele>2145</ele>
        <time>2020-08-25T14:19:05.171Z</time>
      </trkpt>
      <trkpt lat="42.63054" lon="1.71275">
        <ele>2145</ele>
        <time>2020-08-25T14:19:09.511Z</time>
      </trkpt>
      <trkpt lat="42.63061" lon="1.71308">
        <ele>2142</ele>
        <time>2020-08-25T14:19:31.326Z</time>
      </trkpt>
      <trkpt lat="42.63064" lon="1.71317">
        <ele>2142</ele>
        <time>2020-08-25T14:19:36.595Z</time>
      </trkpt>
      <trkpt lat="42.63067" lon="1.71323">
        <ele>2140</ele>
        <time>2020-08-25T14:19:41.206Z</time>
      </trkpt>
      <trkpt lat="42.63068" lon="1.7133">
        <ele>2140</ele>
        <time>2020-08-25T14:19:46.011Z</time>
      </trkpt>
      <trkpt lat="42.6307" lon="1.71337">
        <ele>2146</ele>
        <time>2020-08-25T14:19:50.567Z</time>
      </trkpt>
      <trkpt lat="42.63075" lon="1.71341">
        <ele>2146</ele>
        <time>2020-08-25T14:19:55.546Z</time>
      </trkpt>
      <trkpt lat="42.6308" lon="1.71343">
        <ele>2146</ele>
        <time>2020-08-25T14:20:00.034Z</time>
      </trkpt>
      <trkpt lat="42.63085" lon="1.71347">
        <ele>2146</ele>
        <time>2020-08-25T14:20:04.746Z</time>
      </trkpt>
      <trkpt lat="42.6309" lon="1.71351">
        <ele>2141</ele>
        <time>2020-08-25T14:20:09.798Z</time>
      </trkpt>
      <trkpt lat="42.63096" lon="1.71354">
        <ele>2141</ele>
        <time>2020-08-25T14:20:15.131Z</time>
      </trkpt>
      <trkpt lat="42.631" lon="1.71358">
        <ele>2149</ele>
        <time>2020-08-25T14:20:20.126Z</time>
      </trkpt>
      <trkpt lat="42.63105" lon="1.71363">
        <ele>2149</ele>
        <time>2020-08-25T14:20:24.921Z</time>
      </trkpt>
      <trkpt lat="42.63111" lon="1.71366">
        <ele>2149</ele>
        <time>2020-08-25T14:20:29.839Z</time>
      </trkpt>
      <trkpt lat="42.6312" lon="1.71375">
        <ele>2140</ele>
        <time>2020-08-25T14:20:40.095Z</time>
      </trkpt>
      <trkpt lat="42.63125" lon="1.71378">
        <ele>2148</ele>
        <time>2020-08-25T14:20:45.126Z</time>
      </trkpt>
      <trkpt lat="42.6313" lon="1.71383">
        <ele>2148</ele>
        <time>2020-08-25T14:20:49.567Z</time>
      </trkpt>
      <trkpt lat="42.63135" lon="1.71385">
        <ele>2148</ele>
        <time>2020-08-25T14:20:54.696Z</time>
      </trkpt>
      <trkpt lat="42.63141" lon="1.71391">
        <ele>2148</ele>
        <time>2020-08-25T14:20:59.981Z</time>
      </trkpt>
      <trkpt lat="42.63144" lon="1.71396">
        <ele>2148</ele>
        <time>2020-08-25T14:21:04.075Z</time>
      </trkpt>
      <trkpt lat="42.63148" lon="1.71401">
        <ele>2148</ele>
        <time>2020-08-25T14:21:08.549Z</time>
      </trkpt>
      <trkpt lat="42.6315" lon="1.71405">
        <ele>2139</ele>
        <time>2020-08-25T14:21:11.914Z</time>
      </trkpt>
      <trkpt lat="42.63154" lon="1.7141">
        <ele>2141</ele>
        <time>2020-08-25T14:21:16.989Z</time>
      </trkpt>
      <trkpt lat="42.63157" lon="1.71416">
        <ele>2141</ele>
        <time>2020-08-25T14:21:21.514Z</time>
      </trkpt>
      <trkpt lat="42.63161" lon="1.7142">
        <ele>2141</ele>
        <time>2020-08-25T14:21:25.757Z</time>
      </trkpt>
      <trkpt lat="42.63166" lon="1.71425">
        <ele>2141</ele>
        <time>2020-08-25T14:21:30.770Z</time>
      </trkpt>
      <trkpt lat="42.63167" lon="1.7143">
        <ele>2141</ele>
        <time>2020-08-25T14:21:35.530Z</time>
      </trkpt>
      <trkpt lat="42.63171" lon="1.71433">
        <ele>2133</ele>
        <time>2020-08-25T14:21:40.542Z</time>
      </trkpt>
      <trkpt lat="42.63176" lon="1.71437">
        <ele>2133</ele>
        <time>2020-08-25T14:21:45.083Z</time>
      </trkpt>
      <trkpt lat="42.63179" lon="1.71439">
        <ele>2133</ele>
        <time>2020-08-25T14:21:50.012Z</time>
      </trkpt>
      <trkpt lat="42.63183" lon="1.71443">
        <ele>2139</ele>
        <time>2020-08-25T14:21:54.833Z</time>
      </trkpt>
      <trkpt lat="42.63186" lon="1.71449">
        <ele>2139</ele>
        <time>2020-08-25T14:22:00.033Z</time>
      </trkpt>
      <trkpt lat="42.63191" lon="1.71456">
        <ele>2139</ele>
        <time>2020-08-25T14:22:05.329Z</time>
      </trkpt>
      <trkpt lat="42.63196" lon="1.71458">
        <ele>2139</ele>
        <time>2020-08-25T14:22:09.832Z</time>
      </trkpt>
      <trkpt lat="42.63198" lon="1.71462">
        <ele>2130</ele>
        <time>2020-08-25T14:22:13.893Z</time>
      </trkpt>
      <trkpt lat="42.63202" lon="1.71466">
        <ele>2130</ele>
        <time>2020-08-25T14:22:19.407Z</time>
      </trkpt>
      <trkpt lat="42.63206" lon="1.71467">
        <ele>2130</ele>
        <time>2020-08-25T14:22:23.932Z</time>
      </trkpt>
      <trkpt lat="42.63208" lon="1.71469">
        <ele>2130</ele>
        <time>2020-08-25T14:22:26.065Z</time>
      </trkpt>
      <trkpt lat="42.63215" lon="1.71477">
        <ele>2137</ele>
        <time>2020-08-25T14:22:33.794Z</time>
      </trkpt>
      <trkpt lat="42.6322" lon="1.7148">
        <ele>2137</ele>
        <time>2020-08-25T14:22:38.729Z</time>
      </trkpt>
      <trkpt lat="42.63225" lon="1.71485">
        <ele>2137</ele>
        <time>2020-08-25T14:22:45.109Z</time>
      </trkpt>
      <trkpt lat="42.6323" lon="1.71485">
        <ele>2137</ele>
        <time>2020-08-25T14:22:49.842Z</time>
      </trkpt>
      <trkpt lat="42.63236" lon="1.71487">
        <ele>2125</ele>
        <time>2020-08-25T14:22:54.548Z</time>
      </trkpt>
      <trkpt lat="42.6324" lon="1.7149">
        <ele>2124</ele>
        <time>2020-08-25T14:22:59.549Z</time>
      </trkpt>
      <trkpt lat="42.63246" lon="1.71493">
        <ele>2124</ele>
        <time>2020-08-25T14:23:04.545Z</time>
      </trkpt>
      <trkpt lat="42.6325" lon="1.71494">
        <ele>2124</ele>
        <time>2020-08-25T14:23:08.566Z</time>
      </trkpt>
      <trkpt lat="42.63253" lon="1.71492">
        <ele>2124</ele>
        <time>2020-08-25T14:23:14.473Z</time>
      </trkpt>
      <trkpt lat="42.63255" lon="1.71494">
        <ele>2124</ele>
        <time>2020-08-25T14:23:19.600Z</time>
      </trkpt>
      <trkpt lat="42.63261" lon="1.71496">
        <ele>2124</ele>
        <time>2020-08-25T14:23:25.258Z</time>
      </trkpt>
      <trkpt lat="42.63264" lon="1.71498">
        <ele>2124</ele>
        <time>2020-08-25T14:23:27.876Z</time>
      </trkpt>
      <trkpt lat="42.63266" lon="1.71496">
        <ele>2114</ele>
        <time>2020-08-25T14:23:32.356Z</time>
      </trkpt>
      <trkpt lat="42.63271" lon="1.71498">
        <ele>2114</ele>
        <time>2020-08-25T14:23:39.468Z</time>
      </trkpt>
      <trkpt lat="42.63276" lon="1.71496">
        <ele>2114</ele>
        <time>2020-08-25T14:23:44.207Z</time>
      </trkpt>
      <trkpt lat="42.63281" lon="1.71497">
        <ele>2114</ele>
        <time>2020-08-25T14:23:53.675Z</time>
      </trkpt>
      <trkpt lat="42.63283" lon="1.71501">
        <ele>2114</ele>
        <time>2020-08-25T14:23:57.901Z</time>
      </trkpt>
      <trkpt lat="42.63285" lon="1.71501">
        <ele>2114</ele>
        <time>2020-08-25T14:24:01.891Z</time>
      </trkpt>
      <trkpt lat="42.63288" lon="1.71499">
        <ele>2114</ele>
        <time>2020-08-25T14:24:06.875Z</time>
      </trkpt>
      <trkpt lat="42.63289" lon="1.71497">
        <ele>2114</ele>
        <time>2020-08-25T14:24:11.395Z</time>
      </trkpt>
      <trkpt lat="42.63295" lon="1.71496">
        <ele>2102</ele>
        <time>2020-08-25T14:24:17.659Z</time>
      </trkpt>
      <trkpt lat="42.63298" lon="1.71495">
        <ele>2102</ele>
        <time>2020-08-25T14:24:20.951Z</time>
      </trkpt>
      <trkpt lat="42.63302" lon="1.71492">
        <ele>2102</ele>
        <time>2020-08-25T14:24:27.249Z</time>
      </trkpt>
      <trkpt lat="42.63305" lon="1.71491">
        <ele>2102</ele>
        <time>2020-08-25T14:24:30.711Z</time>
      </trkpt>
      <trkpt lat="42.6331" lon="1.71489">
        <ele>2102</ele>
        <time>2020-08-25T14:24:38.066Z</time>
      </trkpt>
      <trkpt lat="42.63315" lon="1.71487">
        <ele>2102</ele>
        <time>2020-08-25T14:24:44.831Z</time>
      </trkpt>
      <trkpt lat="42.63319" lon="1.71486">
        <ele>2107</ele>
        <time>2020-08-25T14:24:48.917Z</time>
      </trkpt>
      <trkpt lat="42.63322" lon="1.71483">
        <ele>2094</ele>
        <time>2020-08-25T14:24:53.547Z</time>
      </trkpt>
      <trkpt lat="42.63324" lon="1.71482">
        <ele>2094</ele>
        <time>2020-08-25T14:24:58.940Z</time>
      </trkpt>
      <trkpt lat="42.63328" lon="1.71481">
        <ele>2094</ele>
        <time>2020-08-25T14:25:04.250Z</time>
      </trkpt>
      <trkpt lat="42.63327" lon="1.71487">
        <ele>2089</ele>
        <time>2020-08-25T14:25:09.524Z</time>
      </trkpt>
      <trkpt lat="42.63327" lon="1.71494">
        <ele>2089</ele>
        <time>2020-08-25T14:25:20.640Z</time>
      </trkpt>
      <trkpt lat="42.6333" lon="1.71494">
        <ele>2089</ele>
        <time>2020-08-25T14:25:25.565Z</time>
      </trkpt>
      <trkpt lat="42.63333" lon="1.71495">
        <ele>2089</ele>
        <time>2020-08-25T14:25:30.570Z</time>
      </trkpt>
      <trkpt lat="42.63337" lon="1.71491">
        <ele>2089</ele>
        <time>2020-08-25T14:25:35.532Z</time>
      </trkpt>
      <trkpt lat="42.63339" lon="1.71487">
        <ele>2089</ele>
        <time>2020-08-25T14:25:38.790Z</time>
      </trkpt>
      <trkpt lat="42.63345" lon="1.71484">
        <ele>2094</ele>
        <time>2020-08-25T14:25:44.850Z</time>
      </trkpt>
      <trkpt lat="42.6335" lon="1.71481">
        <ele>2089</ele>
        <time>2020-08-25T14:25:49.436Z</time>
      </trkpt>
      <trkpt lat="42.63358" lon="1.71475">
        <ele>2089</ele>
        <time>2020-08-25T14:25:56.429Z</time>
      </trkpt>
      <trkpt lat="42.63365" lon="1.71473">
        <ele>2089</ele>
        <time>2020-08-25T14:26:00.755Z</time>
      </trkpt>
      <trkpt lat="42.63371" lon="1.71472">
        <ele>2089</ele>
        <time>2020-08-25T14:26:05.800Z</time>
      </trkpt>
      <trkpt lat="42.63377" lon="1.71471">
        <ele>2084</ele>
        <time>2020-08-25T14:26:10.132Z</time>
      </trkpt>
      <trkpt lat="42.63382" lon="1.71475">
        <ele>2084</ele>
        <time>2020-08-25T14:26:14.894Z</time>
      </trkpt>
      <trkpt lat="42.63393" lon="1.71485">
        <ele>2084</ele>
        <time>2020-08-25T14:26:25.726Z</time>
      </trkpt>
      <trkpt lat="42.634" lon="1.71489">
        <ele>2080</ele>
        <time>2020-08-25T14:26:31.558Z</time>
      </trkpt>
      <trkpt lat="42.63405" lon="1.71489">
        <ele>2078</ele>
        <time>2020-08-25T14:26:36.490Z</time>
      </trkpt>
      <trkpt lat="42.6341" lon="1.71488">
        <ele>2078</ele>
        <time>2020-08-25T14:26:41.841Z</time>
      </trkpt>
      <trkpt lat="42.63414" lon="1.71485">
        <ele>2078</ele>
        <time>2020-08-25T14:26:46.894Z</time>
      </trkpt>
      <trkpt lat="42.63415" lon="1.71484">
        <ele>2078</ele>
        <time>2020-08-25T14:26:51.544Z</time>
      </trkpt>
      <trkpt lat="42.6342" lon="1.7148">
        <ele>2078</ele>
        <time>2020-08-25T14:27:00.161Z</time>
      </trkpt>
      <trkpt lat="42.63425" lon="1.71477">
        <ele>2078</ele>
        <time>2020-08-25T14:27:04.938Z</time>
      </trkpt>
      <trkpt lat="42.63431" lon="1.71474">
        <ele>2076</ele>
        <time>2020-08-25T14:27:09.515Z</time>
      </trkpt>
      <trkpt lat="42.6344" lon="1.71468">
        <ele>2076</ele>
        <time>2020-08-25T14:27:19.913Z</time>
      </trkpt>
      <trkpt lat="42.63445" lon="1.71464">
        <ele>2076</ele>
        <time>2020-08-25T14:27:25.048Z</time>
      </trkpt>
      <trkpt lat="42.6345" lon="1.71461">
        <ele>2076</ele>
        <time>2020-08-25T14:27:29.984Z</time>
      </trkpt>
      <trkpt lat="42.63455" lon="1.71461">
        <ele>2076</ele>
        <time>2020-08-25T14:27:34.711Z</time>
      </trkpt>
      <trkpt lat="42.63459" lon="1.71459">
        <ele>2073</ele>
        <time>2020-08-25T14:27:39.167Z</time>
      </trkpt>
      <trkpt lat="42.63469" lon="1.71458">
        <ele>2066</ele>
        <time>2020-08-25T14:27:46.722Z</time>
      </trkpt>
      <trkpt lat="42.63476" lon="1.71459">
        <ele>2073</ele>
        <time>2020-08-25T14:27:51.849Z</time>
      </trkpt>
      <trkpt lat="42.63483" lon="1.7146">
        <ele>2073</ele>
        <time>2020-08-25T14:27:56.968Z</time>
      </trkpt>
      <trkpt lat="42.63486" lon="1.7146">
        <ele>2073</ele>
        <time>2020-08-25T14:28:01.798Z</time>
      </trkpt>
      <trkpt lat="42.63488" lon="1.71458">
        <ele>2069</ele>
        <time>2020-08-25T14:28:06.036Z</time>
      </trkpt>
      <trkpt lat="42.63491" lon="1.71454">
        <ele>2063</ele>
        <time>2020-08-25T14:28:12.895Z</time>
      </trkpt>
      <trkpt lat="42.63492" lon="1.71449">
        <ele>2063</ele>
        <time>2020-08-25T14:28:17.338Z</time>
      </trkpt>
      <trkpt lat="42.63496" lon="1.71448">
        <ele>2063</ele>
        <time>2020-08-25T14:28:21.958Z</time>
      </trkpt>
      <trkpt lat="42.63501" lon="1.71446">
        <ele>2063</ele>
        <time>2020-08-25T14:28:36.533Z</time>
      </trkpt>
      <trkpt lat="42.63503" lon="1.71444">
        <ele>2063</ele>
        <time>2020-08-25T14:28:40.553Z</time>
      </trkpt>
      <trkpt lat="42.63505" lon="1.71444">
        <ele>2063</ele>
        <time>2020-08-25T14:28:45.002Z</time>
      </trkpt>
      <trkpt lat="42.63507" lon="1.71442">
        <ele>2063</ele>
        <time>2020-08-25T14:28:49.537Z</time>
      </trkpt>
      <trkpt lat="42.63507" lon="1.71442">
        <ele>2063</ele>
        <time>2020-08-25T14:28:52.780Z</time>
      </trkpt>
      <trkpt lat="42.63509" lon="1.7144">
        <ele>2063</ele>
        <time>2020-08-25T14:28:59.559Z</time>
      </trkpt>
      <trkpt lat="42.63511" lon="1.71441">
        <ele>2063</ele>
        <time>2020-08-25T14:29:03.748Z</time>
      </trkpt>
      <trkpt lat="42.63513" lon="1.71442">
        <ele>2063</ele>
        <time>2020-08-25T14:29:09.072Z</time>
      </trkpt>
      <trkpt lat="42.63522" lon="1.71435">
        <ele>2057</ele>
        <time>2020-08-25T14:29:26.826Z</time>
      </trkpt>
      <trkpt lat="42.63525" lon="1.71433">
        <ele>2057</ele>
        <time>2020-08-25T14:29:31.545Z</time>
      </trkpt>
      <trkpt lat="42.63524" lon="1.7143">
        <ele>2049</ele>
        <time>2020-08-25T14:29:35.868Z</time>
      </trkpt>
      <trkpt lat="42.63529" lon="1.71427">
        <ele>2049</ele>
        <time>2020-08-25T14:29:41.545Z</time>
      </trkpt>
      <trkpt lat="42.63533" lon="1.71428">
        <ele>2049</ele>
        <time>2020-08-25T14:29:47.113Z</time>
      </trkpt>
      <trkpt lat="42.63535" lon="1.71428">
        <ele>2049</ele>
        <time>2020-08-25T14:29:51.094Z</time>
      </trkpt>
      <trkpt lat="42.63537" lon="1.71425">
        <ele>2049</ele>
        <time>2020-08-25T14:29:57.017Z</time>
      </trkpt>
      <trkpt lat="42.63542" lon="1.71422">
        <ele>2049</ele>
        <time>2020-08-25T14:30:01.765Z</time>
      </trkpt>
      <trkpt lat="42.63547" lon="1.71418">
        <ele>2049</ele>
        <time>2020-08-25T14:30:10.084Z</time>
      </trkpt>
      <trkpt lat="42.63549" lon="1.71416">
        <ele>2049</ele>
        <time>2020-08-25T14:30:14.019Z</time>
      </trkpt>
      <trkpt lat="42.63551" lon="1.71414">
        <ele>2049</ele>
        <time>2020-08-25T14:30:17.968Z</time>
      </trkpt>
      <trkpt lat="42.63554" lon="1.71409">
        <ele>2049</ele>
        <time>2020-08-25T14:30:23.713Z</time>
      </trkpt>
      <trkpt lat="42.63556" lon="1.71405">
        <ele>2049</ele>
        <time>2020-08-25T14:30:28.144Z</time>
      </trkpt>
      <trkpt lat="42.6356" lon="1.71401">
        <ele>2042</ele>
        <time>2020-08-25T14:30:33.057Z</time>
      </trkpt>
      <trkpt lat="42.6357" lon="1.71381">
        <ele>2040</ele>
        <time>2020-08-25T14:30:52.848Z</time>
      </trkpt>
      <trkpt lat="42.63572" lon="1.71377">
        <ele>2040</ele>
        <time>2020-08-25T14:30:57.525Z</time>
      </trkpt>
      <trkpt lat="42.63573" lon="1.71374">
        <ele>2032</ele>
        <time>2020-08-25T14:31:01.897Z</time>
      </trkpt>
      <trkpt lat="42.63575" lon="1.7137">
        <ele>2032</ele>
        <time>2020-08-25T14:31:06.661Z</time>
      </trkpt>
      <trkpt lat="42.63577" lon="1.71367">
        <ele>2032</ele>
        <time>2020-08-25T14:31:12.113Z</time>
      </trkpt>
      <trkpt lat="42.63579" lon="1.71364">
        <ele>2032</ele>
        <time>2020-08-25T14:31:16.787Z</time>
      </trkpt>
      <trkpt lat="42.63583" lon="1.71361">
        <ele>2032</ele>
        <time>2020-08-25T14:31:21.004Z</time>
      </trkpt>
      <trkpt lat="42.63585" lon="1.7136">
        <ele>2032</ele>
        <time>2020-08-25T14:31:25.051Z</time>
      </trkpt>
      <trkpt lat="42.6359" lon="1.71356">
        <ele>2032</ele>
        <time>2020-08-25T14:31:29.775Z</time>
      </trkpt>
      <trkpt lat="42.63594" lon="1.71352">
        <ele>2032</ele>
        <time>2020-08-25T14:31:37.686Z</time>
      </trkpt>
      <trkpt lat="42.63596" lon="1.71348">
        <ele>2032</ele>
        <time>2020-08-25T14:31:41.791Z</time>
      </trkpt>
      <trkpt lat="42.63597" lon="1.71344">
        <ele>2019</ele>
        <time>2020-08-25T14:31:46.488Z</time>
      </trkpt>
      <trkpt lat="42.636" lon="1.71339">
        <ele>2019</ele>
        <time>2020-08-25T14:31:51.520Z</time>
      </trkpt>
      <trkpt lat="42.63602" lon="1.71339">
        <ele>2019</ele>
        <time>2020-08-25T14:31:55.970Z</time>
      </trkpt>
      <trkpt lat="42.63604" lon="1.71336">
        <ele>2019</ele>
        <time>2020-08-25T14:32:00.506Z</time>
      </trkpt>
      <trkpt lat="42.63606" lon="1.71331">
        <ele>2019</ele>
        <time>2020-08-25T14:32:05.507Z</time>
      </trkpt>
      <trkpt lat="42.63608" lon="1.71329">
        <ele>2019</ele>
        <time>2020-08-25T14:32:10.526Z</time>
      </trkpt>
      <trkpt lat="42.63609" lon="1.71325">
        <ele>2019</ele>
        <time>2020-08-25T14:32:14.885Z</time>
      </trkpt>
      <trkpt lat="42.63607" lon="1.71319">
        <ele>2013</ele>
        <time>2020-08-25T14:32:19.713Z</time>
      </trkpt>
      <trkpt lat="42.63611" lon="1.71311">
        <ele>2013</ele>
        <time>2020-08-25T14:32:28.145Z</time>
      </trkpt>
      <trkpt lat="42.63612" lon="1.71309">
        <ele>2013</ele>
        <time>2020-08-25T14:32:32.836Z</time>
      </trkpt>
      <trkpt lat="42.63611" lon="1.71302">
        <ele>2013</ele>
        <time>2020-08-25T14:32:39.148Z</time>
      </trkpt>
      <trkpt lat="42.63614" lon="1.71297">
        <ele>2013</ele>
        <time>2020-08-25T14:32:45.991Z</time>
      </trkpt>
      <trkpt lat="42.63615" lon="1.71294">
        <ele>2013</ele>
        <time>2020-08-25T14:32:51.143Z</time>
      </trkpt>
      <trkpt lat="42.63617" lon="1.71288">
        <ele>2007</ele>
        <time>2020-08-25T14:32:59.563Z</time>
      </trkpt>
      <trkpt lat="42.63619" lon="1.71282">
        <ele>2007</ele>
        <time>2020-08-25T14:33:06.890Z</time>
      </trkpt>
      <trkpt lat="42.63621" lon="1.71281">
        <ele>2007</ele>
        <time>2020-08-25T14:33:10.788Z</time>
      </trkpt>
      <trkpt lat="42.63624" lon="1.71276">
        <ele>2007</ele>
        <time>2020-08-25T14:33:18.558Z</time>
      </trkpt>
      <trkpt lat="42.63626" lon="1.71273">
        <ele>2000</ele>
        <time>2020-08-25T14:33:22.869Z</time>
      </trkpt>
      <trkpt lat="42.63626" lon="1.71268">
        <ele>2000</ele>
        <time>2020-08-25T14:33:27.718Z</time>
      </trkpt>
      <trkpt lat="42.63629" lon="1.71268">
        <ele>2000</ele>
        <time>2020-08-25T14:33:32.629Z</time>
      </trkpt>
      <trkpt lat="42.63632" lon="1.71264">
        <ele>1990</ele>
        <time>2020-08-25T14:33:40.391Z</time>
      </trkpt>
      <trkpt lat="42.63633" lon="1.7126">
        <ele>1990</ele>
        <time>2020-08-25T14:33:44.451Z</time>
      </trkpt>
      <trkpt lat="42.63635" lon="1.71254">
        <ele>1990</ele>
        <time>2020-08-25T14:33:52.867Z</time>
      </trkpt>
      <trkpt lat="42.63638" lon="1.71252">
        <ele>1990</ele>
        <time>2020-08-25T14:33:57.909Z</time>
      </trkpt>
      <trkpt lat="42.63641" lon="1.71252">
        <ele>1990</ele>
        <time>2020-08-25T14:34:02.963Z</time>
      </trkpt>
      <trkpt lat="42.63641" lon="1.7125">
        <ele>1990</ele>
        <time>2020-08-25T14:34:07.767Z</time>
      </trkpt>
      <trkpt lat="42.63643" lon="1.71245">
        <ele>1990</ele>
        <time>2020-08-25T14:34:12.719Z</time>
      </trkpt>
      <trkpt lat="42.63645" lon="1.71244">
        <ele>1990</ele>
        <time>2020-08-25T14:34:16.753Z</time>
      </trkpt>
      <trkpt lat="42.63647" lon="1.71239">
        <ele>1990</ele>
        <time>2020-08-25T14:34:25.519Z</time>
      </trkpt>
      <trkpt lat="42.63649" lon="1.71236">
        <ele>1983</ele>
        <time>2020-08-25T14:34:29.566Z</time>
      </trkpt>
      <trkpt lat="42.63652" lon="1.71235">
        <ele>1983</ele>
        <time>2020-08-25T14:34:34.775Z</time>
      </trkpt>
      <trkpt lat="42.63654" lon="1.71235">
        <ele>1982</ele>
        <time>2020-08-25T14:34:38.973Z</time>
      </trkpt>
      <trkpt lat="42.63656" lon="1.71232">
        <ele>1982</ele>
        <time>2020-08-25T14:34:43.699Z</time>
      </trkpt>
      <trkpt lat="42.6366" lon="1.7123">
        <ele>1982</ele>
        <time>2020-08-25T14:34:49.076Z</time>
      </trkpt>
      <trkpt lat="42.63663" lon="1.71226">
        <ele>1982</ele>
        <time>2020-08-25T14:34:54.735Z</time>
      </trkpt>
      <trkpt lat="42.63666" lon="1.71226">
        <ele>1982</ele>
        <time>2020-08-25T14:34:59.527Z</time>
      </trkpt>
      <trkpt lat="42.63671" lon="1.71222">
        <ele>1982</ele>
        <time>2020-08-25T14:35:08.002Z</time>
      </trkpt>
      <trkpt lat="42.63674" lon="1.71221">
        <ele>1982</ele>
        <time>2020-08-25T14:35:13.636Z</time>
      </trkpt>
      <trkpt lat="42.63676" lon="1.71218">
        <ele>1982</ele>
        <time>2020-08-25T14:35:18.510Z</time>
      </trkpt>
      <trkpt lat="42.63681" lon="1.71217">
        <ele>1981</ele>
        <time>2020-08-25T14:35:23.506Z</time>
      </trkpt>
      <trkpt lat="42.63684" lon="1.71216">
        <ele>1981</ele>
        <time>2020-08-25T14:35:27.527Z</time>
      </trkpt>
      <trkpt lat="42.63686" lon="1.71216">
        <ele>1981</ele>
        <time>2020-08-25T14:35:32.178Z</time>
      </trkpt>
      <trkpt lat="42.63691" lon="1.71214">
        <ele>1981</ele>
        <time>2020-08-25T14:35:36.915Z</time>
      </trkpt>
      <trkpt lat="42.63695" lon="1.71213">
        <ele>1981</ele>
        <time>2020-08-25T14:35:42.083Z</time>
      </trkpt>
      <trkpt lat="42.63697" lon="1.71212">
        <ele>1981</ele>
        <time>2020-08-25T14:35:46.504Z</time>
      </trkpt>
      <trkpt lat="42.63698" lon="1.71208">
        <ele>1981</ele>
        <time>2020-08-25T14:35:51.100Z</time>
      </trkpt>
      <trkpt lat="42.63699" lon="1.71205">
        <ele>1973</ele>
        <time>2020-08-25T14:35:55.846Z</time>
      </trkpt>
      <trkpt lat="42.63702" lon="1.71203">
        <ele>1973</ele>
        <time>2020-08-25T14:36:00.078Z</time>
      </trkpt>
      <trkpt lat="42.63705" lon="1.71202">
        <ele>1973</ele>
        <time>2020-08-25T14:36:04.692Z</time>
      </trkpt>
      <trkpt lat="42.63709" lon="1.71201">
        <ele>1963</ele>
        <time>2020-08-25T14:36:10.148Z</time>
      </trkpt>
      <trkpt lat="42.63713" lon="1.712">
        <ele>1963</ele>
        <time>2020-08-25T14:36:15.094Z</time>
      </trkpt>
      <trkpt lat="42.63714" lon="1.71195">
        <ele>1963</ele>
        <time>2020-08-25T14:36:19.207Z</time>
      </trkpt>
      <trkpt lat="42.63719" lon="1.71191">
        <ele>1963</ele>
        <time>2020-08-25T14:36:23.411Z</time>
      </trkpt>
      <trkpt lat="42.63722" lon="1.71187">
        <ele>1963</ele>
        <time>2020-08-25T14:36:29.983Z</time>
      </trkpt>
      <trkpt lat="42.63727" lon="1.71182">
        <ele>1963</ele>
        <time>2020-08-25T14:36:34.800Z</time>
      </trkpt>
      <trkpt lat="42.6373" lon="1.71181">
        <ele>1963</ele>
        <time>2020-08-25T14:36:39.257Z</time>
      </trkpt>
      <trkpt lat="42.63739" lon="1.71179">
        <ele>1946</ele>
        <time>2020-08-25T14:37:02.916Z</time>
      </trkpt>
      <trkpt lat="42.6374" lon="1.71176">
        <ele>1946</ele>
        <time>2020-08-25T14:37:08.042Z</time>
      </trkpt>
      <trkpt lat="42.6374" lon="1.71172">
        <ele>1946</ele>
        <time>2020-08-25T14:37:12.044Z</time>
      </trkpt>
      <trkpt lat="42.63746" lon="1.71161">
        <ele>1946</ele>
        <time>2020-08-25T14:37:29.782Z</time>
      </trkpt>
      <trkpt lat="42.63745" lon="1.71154">
        <ele>1946</ele>
        <time>2020-08-25T14:37:37.245Z</time>
      </trkpt>
      <trkpt lat="42.63748" lon="1.71149">
        <ele>1940</ele>
        <time>2020-08-25T14:37:42.207Z</time>
      </trkpt>
      <trkpt lat="42.63753" lon="1.71144">
        <ele>1940</ele>
        <time>2020-08-25T14:37:49.555Z</time>
      </trkpt>
      <trkpt lat="42.63754" lon="1.71141">
        <ele>1940</ele>
        <time>2020-08-25T14:37:53.870Z</time>
      </trkpt>
      <trkpt lat="42.63755" lon="1.71137">
        <ele>1940</ele>
        <time>2020-08-25T14:37:57.999Z</time>
      </trkpt>
      <trkpt lat="42.63759" lon="1.71136">
        <ele>1940</ele>
        <time>2020-08-25T14:38:03.540Z</time>
      </trkpt>
      <trkpt lat="42.63761" lon="1.71135">
        <ele>1940</ele>
        <time>2020-08-25T14:38:07.764Z</time>
      </trkpt>
      <trkpt lat="42.63762" lon="1.71134">
        <ele>1940</ele>
        <time>2020-08-25T14:38:12.927Z</time>
      </trkpt>
      <trkpt lat="42.63763" lon="1.71132">
        <ele>1940</ele>
        <time>2020-08-25T14:38:14.939Z</time>
      </trkpt>
      <trkpt lat="42.63767" lon="1.71128">
        <ele>1931</ele>
        <time>2020-08-25T14:38:23.171Z</time>
      </trkpt>
      <trkpt lat="42.6377" lon="1.71124">
        <ele>1927</ele>
        <time>2020-08-25T14:38:28.531Z</time>
      </trkpt>
      <trkpt lat="42.63773" lon="1.71121">
        <ele>1927</ele>
        <time>2020-08-25T14:38:33.506Z</time>
      </trkpt>
      <trkpt lat="42.63774" lon="1.71114">
        <ele>1927</ele>
        <time>2020-08-25T14:38:38.511Z</time>
      </trkpt>
      <trkpt lat="42.63776" lon="1.71109">
        <ele>1927</ele>
        <time>2020-08-25T14:38:43.810Z</time>
      </trkpt>
      <trkpt lat="42.63778" lon="1.71104">
        <ele>1927</ele>
        <time>2020-08-25T14:38:49.588Z</time>
      </trkpt>
      <trkpt lat="42.63779" lon="1.711">
        <ele>1927</ele>
        <time>2020-08-25T14:38:54.136Z</time>
      </trkpt>
      <trkpt lat="42.6378" lon="1.71096">
        <ele>1922</ele>
        <time>2020-08-25T14:38:57.807Z</time>
      </trkpt>
      <trkpt lat="42.63783" lon="1.71091">
        <ele>1922</ele>
        <time>2020-08-25T14:39:03.977Z</time>
      </trkpt>
      <trkpt lat="42.63785" lon="1.71086">
        <ele>1922</ele>
        <time>2020-08-25T14:39:09.586Z</time>
      </trkpt>
      <trkpt lat="42.63788" lon="1.71084">
        <ele>1922</ele>
        <time>2020-08-25T14:39:14.961Z</time>
      </trkpt>
      <trkpt lat="42.63793" lon="1.71078">
        <ele>1915</ele>
        <time>2020-08-25T14:39:21.709Z</time>
      </trkpt>
      <trkpt lat="42.63795" lon="1.71074">
        <ele>1915</ele>
        <time>2020-08-25T14:39:25.912Z</time>
      </trkpt>
      <trkpt lat="42.63798" lon="1.71072">
        <ele>1915</ele>
        <time>2020-08-25T14:39:29.756Z</time>
      </trkpt>
      <trkpt lat="42.638" lon="1.71067">
        <ele>1911</ele>
        <time>2020-08-25T14:39:34.068Z</time>
      </trkpt>
      <trkpt lat="42.63802" lon="1.71062">
        <ele>1911</ele>
        <time>2020-08-25T14:39:39.506Z</time>
      </trkpt>
      <trkpt lat="42.63804" lon="1.71057">
        <ele>1911</ele>
        <time>2020-08-25T14:39:44.642Z</time>
      </trkpt>
      <trkpt lat="42.63804" lon="1.71051">
        <ele>1911</ele>
        <time>2020-08-25T14:39:48.977Z</time>
      </trkpt>
      <trkpt lat="42.63803" lon="1.71046">
        <ele>1911</ele>
        <time>2020-08-25T14:39:53.605Z</time>
      </trkpt>
      <trkpt lat="42.63804" lon="1.71042">
        <ele>1911</ele>
        <time>2020-08-25T14:39:57.849Z</time>
      </trkpt>
      <trkpt lat="42.63808" lon="1.71042">
        <ele>1911</ele>
        <time>2020-08-25T14:40:03.331Z</time>
      </trkpt>
      <trkpt lat="42.6381" lon="1.71038">
        <ele>1909</ele>
        <time>2020-08-25T14:40:08.698Z</time>
      </trkpt>
      <trkpt lat="42.63821" lon="1.71037">
        <ele>1901</ele>
        <time>2020-08-25T14:40:50.892Z</time>
      </trkpt>
      <trkpt lat="42.63824" lon="1.71044">
        <ele>1903</ele>
        <time>2020-08-25T14:40:55.886Z</time>
      </trkpt>
      <trkpt lat="42.63829" lon="1.71057">
        <ele>1903</ele>
        <time>2020-08-25T14:41:10.947Z</time>
      </trkpt>
      <trkpt lat="42.63832" lon="1.71058">
        <ele>1903</ele>
        <time>2020-08-25T14:41:15.544Z</time>
      </trkpt>
      <trkpt lat="42.6384" lon="1.71066">
        <ele>1903</ele>
        <time>2020-08-25T14:41:32.499Z</time>
      </trkpt>
      <trkpt lat="42.63842" lon="1.71075">
        <ele>1905</ele>
        <time>2020-08-25T14:41:40.686Z</time>
      </trkpt>
      <trkpt lat="42.63847" lon="1.71078">
        <ele>1905</ele>
        <time>2020-08-25T14:41:45.511Z</time>
      </trkpt>
      <trkpt lat="42.63849" lon="1.71078">
        <ele>1898</ele>
        <time>2020-08-25T14:41:49.507Z</time>
      </trkpt>
      <trkpt lat="42.63851" lon="1.71077">
        <ele>1898</ele>
        <time>2020-08-25T14:41:54.507Z</time>
      </trkpt>
      <trkpt lat="42.63852" lon="1.71074">
        <ele>1898</ele>
        <time>2020-08-25T14:41:59.891Z</time>
      </trkpt>
      <trkpt lat="42.63856" lon="1.71073">
        <ele>1898</ele>
        <time>2020-08-25T14:42:05.219Z</time>
      </trkpt>
      <trkpt lat="42.6386" lon="1.71071">
        <ele>1898</ele>
        <time>2020-08-25T14:42:09.629Z</time>
      </trkpt>
      <trkpt lat="42.63865" lon="1.71072">
        <ele>1898</ele>
        <time>2020-08-25T14:42:16.821Z</time>
      </trkpt>
      <trkpt lat="42.63866" lon="1.71074">
        <ele>1898</ele>
        <time>2020-08-25T14:42:19.667Z</time>
      </trkpt>
      <trkpt lat="42.63869" lon="1.71074">
        <ele>1898</ele>
        <time>2020-08-25T14:42:25.695Z</time>
      </trkpt>
      <trkpt lat="42.63872" lon="1.71075">
        <ele>1898</ele>
        <time>2020-08-25T14:42:29.816Z</time>
      </trkpt>
      <trkpt lat="42.63874" lon="1.71078">
        <ele>1898</ele>
        <time>2020-08-25T14:42:33.852Z</time>
      </trkpt>
      <trkpt lat="42.63876" lon="1.71084">
        <ele>1891</ele>
        <time>2020-08-25T14:42:39.075Z</time>
      </trkpt>
      <trkpt lat="42.6388" lon="1.71085">
        <ele>1891</ele>
        <time>2020-08-25T14:42:42.828Z</time>
      </trkpt>
      <trkpt lat="42.63886" lon="1.71085">
        <ele>1891</ele>
        <time>2020-08-25T14:42:49.507Z</time>
      </trkpt>
      <trkpt lat="42.63889" lon="1.71083">
        <ele>1891</ele>
        <time>2020-08-25T14:42:57.797Z</time>
      </trkpt>
      <trkpt lat="42.6389" lon="1.71086">
        <ele>1891</ele>
        <time>2020-08-25T14:43:01.945Z</time>
      </trkpt>
      <trkpt lat="42.63891" lon="1.71087">
        <ele>1891</ele>
        <time>2020-08-25T14:43:05.937Z</time>
      </trkpt>
      <trkpt lat="42.63895" lon="1.71093">
        <ele>1891</ele>
        <time>2020-08-25T14:43:11.008Z</time>
      </trkpt>
      <trkpt lat="42.63899" lon="1.71095">
        <ele>1891</ele>
        <time>2020-08-25T14:43:16.348Z</time>
      </trkpt>
      <trkpt lat="42.63909" lon="1.711">
        <ele>1888</ele>
        <time>2020-08-25T14:43:29.816Z</time>
      </trkpt>
      <trkpt lat="42.63914" lon="1.71102">
        <ele>1888</ele>
        <time>2020-08-25T14:43:34.759Z</time>
      </trkpt>
      <trkpt lat="42.63919" lon="1.71105">
        <ele>1888</ele>
        <time>2020-08-25T14:43:39.592Z</time>
      </trkpt>
      <trkpt lat="42.63921" lon="1.71111">
        <ele>1888</ele>
        <time>2020-08-25T14:43:44.256Z</time>
      </trkpt>
      <trkpt lat="42.63921" lon="1.71117">
        <ele>1888</ele>
        <time>2020-08-25T14:43:49.027Z</time>
      </trkpt>
      <trkpt lat="42.63924" lon="1.71124">
        <ele>1888</ele>
        <time>2020-08-25T14:43:53.824Z</time>
      </trkpt>
      <trkpt lat="42.63928" lon="1.7113">
        <ele>1892</ele>
        <time>2020-08-25T14:43:58.509Z</time>
      </trkpt>
      <trkpt lat="42.6393" lon="1.71132">
        <ele>1892</ele>
        <time>2020-08-25T14:44:02.966Z</time>
      </trkpt>
      <trkpt lat="42.63938" lon="1.71134">
        <ele>1888</ele>
        <time>2020-08-25T14:44:12.115Z</time>
      </trkpt>
      <trkpt lat="42.63942" lon="1.71131">
        <ele>1888</ele>
        <time>2020-08-25T14:44:15.959Z</time>
      </trkpt>
      <trkpt lat="42.63947" lon="1.71134">
        <ele>1888</ele>
        <time>2020-08-25T14:44:21.863Z</time>
      </trkpt>
      <trkpt lat="42.63951" lon="1.71138">
        <ele>1888</ele>
        <time>2020-08-25T14:44:27.552Z</time>
      </trkpt>
      <trkpt lat="42.63958" lon="1.71143">
        <ele>1888</ele>
        <time>2020-08-25T14:44:35.970Z</time>
      </trkpt>
      <trkpt lat="42.63963" lon="1.71143">
        <ele>1885</ele>
        <time>2020-08-25T14:44:39.805Z</time>
      </trkpt>
      <trkpt lat="42.63964" lon="1.71146">
        <ele>1885</ele>
        <time>2020-08-25T14:44:42.842Z</time>
      </trkpt>
      <trkpt lat="42.63967" lon="1.71154">
        <ele>1890</ele>
        <time>2020-08-25T14:44:53.526Z</time>
      </trkpt>
      <trkpt lat="42.63968" lon="1.71161">
        <ele>1890</ele>
        <time>2020-08-25T14:44:58.501Z</time>
      </trkpt>
      <trkpt lat="42.63969" lon="1.71167">
        <ele>1890</ele>
        <time>2020-08-25T14:45:02.975Z</time>
      </trkpt>
      <trkpt lat="42.63971" lon="1.71171">
        <ele>1890</ele>
        <time>2020-08-25T14:45:08.524Z</time>
      </trkpt>
      <trkpt lat="42.63979" lon="1.71176">
        <ele>1890</ele>
        <time>2020-08-25T14:45:15.058Z</time>
      </trkpt>
      <trkpt lat="42.63979" lon="1.71176">
        <ele>1890</ele>
        <time>2020-08-25T14:45:19.767Z</time>
      </trkpt>
      <trkpt lat="42.63985" lon="1.71161">
        <ele>1890</ele>
        <time>2020-08-25T14:45:33.192Z</time>
      </trkpt>
      <trkpt lat="42.63984" lon="1.71154">
        <ele>1890</ele>
        <time>2020-08-25T14:45:37.673Z</time>
      </trkpt>
      <trkpt lat="42.63983" lon="1.71148">
        <ele>1885</ele>
        <time>2020-08-25T14:45:42.052Z</time>
      </trkpt>
      <trkpt lat="42.63984" lon="1.71141">
        <ele>1885</ele>
        <time>2020-08-25T14:45:46.893Z</time>
      </trkpt>
      <trkpt lat="42.63983" lon="1.71137">
        <ele>1885</ele>
        <time>2020-08-25T14:45:51.705Z</time>
      </trkpt>
      <trkpt lat="42.63983" lon="1.7113">
        <ele>1885</ele>
        <time>2020-08-25T14:45:57.018Z</time>
      </trkpt>
      <trkpt lat="42.63983" lon="1.71122">
        <ele>1883</ele>
        <time>2020-08-25T14:46:01.500Z</time>
      </trkpt>
      <trkpt lat="42.63983" lon="1.71116">
        <ele>1883</ele>
        <time>2020-08-25T14:46:05.635Z</time>
      </trkpt>
      <trkpt lat="42.6398" lon="1.71113">
        <ele>1883</ele>
        <time>2020-08-25T14:46:10.566Z</time>
      </trkpt>
      <trkpt lat="42.63978" lon="1.71107">
        <ele>1883</ele>
        <time>2020-08-25T14:46:17.008Z</time>
      </trkpt>
      <trkpt lat="42.63977" lon="1.7107">
        <ele>1882</ele>
        <time>2020-08-25T14:46:39.896Z</time>
      </trkpt>
      <trkpt lat="42.63979" lon="1.71061">
        <ele>1882</ele>
        <time>2020-08-25T14:46:43.800Z</time>
      </trkpt>
      <trkpt lat="42.63983" lon="1.71055">
        <ele>1882</ele>
        <time>2020-08-25T14:46:49.009Z</time>
      </trkpt>
      <trkpt lat="42.63984" lon="1.71047">
        <ele>1882</ele>
        <time>2020-08-25T14:46:53.561Z</time>
      </trkpt>
      <trkpt lat="42.63983" lon="1.71043">
        <ele>1882</ele>
        <time>2020-08-25T14:46:57.761Z</time>
      </trkpt>
      <trkpt lat="42.63986" lon="1.71037">
        <ele>1878</ele>
        <time>2020-08-25T14:47:01.725Z</time>
      </trkpt>
      <trkpt lat="42.63985" lon="1.71031">
        <ele>1878</ele>
        <time>2020-08-25T14:47:06.887Z</time>
      </trkpt>
      <trkpt lat="42.63984" lon="1.71026">
        <ele>1878</ele>
        <time>2020-08-25T14:47:10.802Z</time>
      </trkpt>
      <trkpt lat="42.63983" lon="1.71019">
        <ele>1878</ele>
        <time>2020-08-25T14:47:17.056Z</time>
      </trkpt>
      <trkpt lat="42.63984" lon="1.71012">
        <ele>1874</ele>
        <time>2020-08-25T14:47:21.573Z</time>
      </trkpt>
      <trkpt lat="42.63984" lon="1.70998">
        <ele>1874</ele>
        <time>2020-08-25T14:47:33.435Z</time>
      </trkpt>
      <trkpt lat="42.63986" lon="1.7099">
        <ele>1879</ele>
        <time>2020-08-25T14:47:38.986Z</time>
      </trkpt>
      <trkpt lat="42.63986" lon="1.70977">
        <ele>1874</ele>
        <time>2020-08-25T14:47:48.854Z</time>
      </trkpt>
      <trkpt lat="42.63987" lon="1.7097">
        <ele>1874</ele>
        <time>2020-08-25T14:47:53.537Z</time>
      </trkpt>
      <trkpt lat="42.63986" lon="1.70965">
        <ele>1874</ele>
        <time>2020-08-25T14:47:57.562Z</time>
      </trkpt>
      <trkpt lat="42.63985" lon="1.7096">
        <ele>1870</ele>
        <time>2020-08-25T14:48:02.538Z</time>
      </trkpt>
      <trkpt lat="42.63985" lon="1.70952">
        <ele>1867</ele>
        <time>2020-08-25T14:48:07.647Z</time>
      </trkpt>
      <trkpt lat="42.63984" lon="1.70946">
        <ele>1867</ele>
        <time>2020-08-25T14:48:12.026Z</time>
      </trkpt>
      <trkpt lat="42.63984" lon="1.70938">
        <ele>1867</ele>
        <time>2020-08-25T14:48:18.881Z</time>
      </trkpt>
      <trkpt lat="42.63983" lon="1.70935">
        <ele>1867</ele>
        <time>2020-08-25T14:48:22.697Z</time>
      </trkpt>
      <trkpt lat="42.63981" lon="1.70922">
        <ele>1863</ele>
        <time>2020-08-25T14:48:31.194Z</time>
      </trkpt>
      <trkpt lat="42.63983" lon="1.70915">
        <ele>1863</ele>
        <time>2020-08-25T14:48:35.506Z</time>
      </trkpt>
      <trkpt lat="42.63985" lon="1.70894">
        <ele>1858</ele>
        <time>2020-08-25T14:48:55.518Z</time>
      </trkpt>
      <trkpt lat="42.63989" lon="1.70894">
        <ele>1860</ele>
        <time>2020-08-25T14:48:59.851Z</time>
      </trkpt>
      <trkpt lat="42.63989" lon="1.70872">
        <ele>1857</ele>
        <time>2020-08-25T14:49:08.775Z</time>
      </trkpt>
      <trkpt lat="42.63994" lon="1.70858">
        <ele>1857</ele>
        <time>2020-08-25T14:49:20.915Z</time>
      </trkpt>
      <trkpt lat="42.63996" lon="1.70849">
        <ele>1857</ele>
        <time>2020-08-25T14:49:28.873Z</time>
      </trkpt>
      <trkpt lat="42.63998" lon="1.70841">
        <ele>1855</ele>
        <time>2020-08-25T14:49:35.614Z</time>
      </trkpt>
      <trkpt lat="42.63999" lon="1.70833">
        <ele>1855</ele>
        <time>2020-08-25T14:49:42.058Z</time>
      </trkpt>
      <trkpt lat="42.64003" lon="1.70829">
        <ele>1855</ele>
        <time>2020-08-25T14:49:47.556Z</time>
      </trkpt>
      <trkpt lat="42.64007" lon="1.70823">
        <ele>1855</ele>
        <time>2020-08-25T14:49:52.118Z</time>
      </trkpt>
      <trkpt lat="42.64009" lon="1.7082">
        <ele>1855</ele>
        <time>2020-08-25T14:49:56.772Z</time>
      </trkpt>
      <trkpt lat="42.64012" lon="1.70817">
        <ele>1851</ele>
        <time>2020-08-25T14:50:01.499Z</time>
      </trkpt>
      <trkpt lat="42.64011" lon="1.70809">
        <ele>1851</ele>
        <time>2020-08-25T14:50:06.132Z</time>
      </trkpt>
      <trkpt lat="42.64015" lon="1.70803">
        <ele>1852</ele>
        <time>2020-08-25T14:50:11.766Z</time>
      </trkpt>
      <trkpt lat="42.6402" lon="1.70799">
        <ele>1852</ele>
        <time>2020-08-25T14:50:17.529Z</time>
      </trkpt>
      <trkpt lat="42.64024" lon="1.70797">
        <ele>1852</ele>
        <time>2020-08-25T14:50:21.819Z</time>
      </trkpt>
      <trkpt lat="42.64026" lon="1.70792">
        <ele>1852</ele>
        <time>2020-08-25T14:50:26.897Z</time>
      </trkpt>
      <trkpt lat="42.64028" lon="1.70786">
        <ele>1846</ele>
        <time>2020-08-25T14:50:31.989Z</time>
      </trkpt>
      <trkpt lat="42.64029" lon="1.70783">
        <ele>1846</ele>
        <time>2020-08-25T14:50:36.942Z</time>
      </trkpt>
      <trkpt lat="42.64033" lon="1.70779">
        <ele>1846</ele>
        <time>2020-08-25T14:50:40.846Z</time>
      </trkpt>
      <trkpt lat="42.64036" lon="1.70774">
        <ele>1846</ele>
        <time>2020-08-25T14:50:45.190Z</time>
      </trkpt>
      <trkpt lat="42.64039" lon="1.70771">
        <ele>1846</ele>
        <time>2020-08-25T14:50:49.469Z</time>
      </trkpt>
      <trkpt lat="42.64045" lon="1.70765">
        <ele>1848</ele>
        <time>2020-08-25T14:50:54.661Z</time>
      </trkpt>
      <trkpt lat="42.64049" lon="1.70761">
        <ele>1843</ele>
        <time>2020-08-25T14:50:59.921Z</time>
      </trkpt>
      <trkpt lat="42.64051" lon="1.70754">
        <ele>1843</ele>
        <time>2020-08-25T14:51:04.576Z</time>
      </trkpt>
      <trkpt lat="42.64053" lon="1.70749">
        <ele>1843</ele>
        <time>2020-08-25T14:51:08.834Z</time>
      </trkpt>
      <trkpt lat="42.64055" lon="1.70744">
        <ele>1843</ele>
        <time>2020-08-25T14:51:13.885Z</time>
      </trkpt>
      <trkpt lat="42.6406" lon="1.70738">
        <ele>1843</ele>
        <time>2020-08-25T14:51:18.714Z</time>
      </trkpt>
      <trkpt lat="42.64064" lon="1.70732">
        <ele>1837</ele>
        <time>2020-08-25T14:51:23.501Z</time>
      </trkpt>
      <trkpt lat="42.64068" lon="1.70726">
        <ele>1837</ele>
        <time>2020-08-25T14:51:28.501Z</time>
      </trkpt>
      <trkpt lat="42.6407" lon="1.70722">
        <ele>1842</ele>
        <time>2020-08-25T14:51:32.498Z</time>
      </trkpt>
      <trkpt lat="42.64073" lon="1.70717">
        <ele>1842</ele>
        <time>2020-08-25T14:51:38.592Z</time>
      </trkpt>
      <trkpt lat="42.64077" lon="1.7072">
        <ele>1842</ele>
        <time>2020-08-25T14:51:42.665Z</time>
      </trkpt>
      <trkpt lat="42.64077" lon="1.70718">
        <ele>1842</ele>
        <time>2020-08-25T14:51:47.865Z</time>
      </trkpt>
      <trkpt lat="42.64079" lon="1.70712">
        <ele>1842</ele>
        <time>2020-08-25T14:51:54.657Z</time>
      </trkpt>
      <trkpt lat="42.6408" lon="1.70708">
        <ele>1836</ele>
        <time>2020-08-25T14:51:59.542Z</time>
      </trkpt>
      <trkpt lat="42.64081" lon="1.70701">
        <ele>1836</ele>
        <time>2020-08-25T14:52:06.559Z</time>
      </trkpt>
      <trkpt lat="42.64083" lon="1.70692">
        <ele>1836</ele>
        <time>2020-08-25T14:52:13.537Z</time>
      </trkpt>
      <trkpt lat="42.64084" lon="1.70692">
        <ele>1836</ele>
        <time>2020-08-25T14:52:15.245Z</time>
      </trkpt>
      <trkpt lat="42.64085" lon="1.70682">
        <ele>1836</ele>
        <time>2020-08-25T14:52:22.504Z</time>
      </trkpt>
      <trkpt lat="42.64088" lon="1.7068">
        <ele>1827</ele>
        <time>2020-08-25T14:52:27.916Z</time>
      </trkpt>
      <trkpt lat="42.64086" lon="1.70671">
        <ele>1827</ele>
        <time>2020-08-25T14:52:31.953Z</time>
      </trkpt>
      <trkpt lat="42.64091" lon="1.70665">
        <ele>1827</ele>
        <time>2020-08-25T14:52:36.503Z</time>
      </trkpt>
      <trkpt lat="42.6409" lon="1.70657">
        <ele>1827</ele>
        <time>2020-08-25T14:52:40.197Z</time>
      </trkpt>
      <trkpt lat="42.64091" lon="1.70654">
        <ele>1827</ele>
        <time>2020-08-25T14:52:45.837Z</time>
      </trkpt>
      <trkpt lat="42.64093" lon="1.70648">
        <ele>1817</ele>
        <time>2020-08-25T14:52:51.897Z</time>
      </trkpt>
      <trkpt lat="42.64092" lon="1.70643">
        <ele>1817</ele>
        <time>2020-08-25T14:52:56.720Z</time>
      </trkpt>
      <trkpt lat="42.64093" lon="1.7064">
        <ele>1817</ele>
        <time>2020-08-25T14:53:00.729Z</time>
      </trkpt>
      <trkpt lat="42.64095" lon="1.70636">
        <ele>1817</ele>
        <time>2020-08-25T14:53:05.783Z</time>
      </trkpt>
      <trkpt lat="42.64099" lon="1.7063">
        <ele>1827</ele>
        <time>2020-08-25T14:53:13.814Z</time>
      </trkpt>
      <trkpt lat="42.64103" lon="1.70625">
        <ele>1827</ele>
        <time>2020-08-25T14:53:18.887Z</time>
      </trkpt>
      <trkpt lat="42.64103" lon="1.7062">
        <ele>1816</ele>
        <time>2020-08-25T14:53:23.826Z</time>
      </trkpt>
      <trkpt lat="42.64107" lon="1.70609">
        <ele>1816</ele>
        <time>2020-08-25T14:53:38.834Z</time>
      </trkpt>
      <trkpt lat="42.64108" lon="1.70604">
        <ele>1816</ele>
        <time>2020-08-25T14:53:43.933Z</time>
      </trkpt>
      <trkpt lat="42.64108" lon="1.70601">
        <ele>1816</ele>
        <time>2020-08-25T14:53:50.009Z</time>
      </trkpt>
      <trkpt lat="42.64108" lon="1.70596">
        <ele>1809</ele>
        <time>2020-08-25T14:53:54.927Z</time>
      </trkpt>
      <trkpt lat="42.64109" lon="1.7059">
        <ele>1809</ele>
        <time>2020-08-25T14:53:59.531Z</time>
      </trkpt>
      <trkpt lat="42.6411" lon="1.70575">
        <ele>1809</ele>
        <time>2020-08-25T14:54:18.902Z</time>
      </trkpt>
      <trkpt lat="42.6411" lon="1.70572">
        <ele>1809</ele>
        <time>2020-08-25T14:54:22.687Z</time>
      </trkpt>
      <trkpt lat="42.64115" lon="1.70565">
        <ele>1802</ele>
        <time>2020-08-25T14:54:34.556Z</time>
      </trkpt>
      <trkpt lat="42.64116" lon="1.70562">
        <ele>1802</ele>
        <time>2020-08-25T14:54:38.539Z</time>
      </trkpt>
      <trkpt lat="42.64117" lon="1.70563">
        <ele>1802</ele>
        <time>2020-08-25T14:54:43.531Z</time>
      </trkpt>
      <trkpt lat="42.64117" lon="1.70562">
        <ele>1802</ele>
        <time>2020-08-25T14:54:48.190Z</time>
      </trkpt>
      <trkpt lat="42.64116" lon="1.7056">
        <ele>1802</ele>
        <time>2020-08-25T14:54:53.115Z</time>
      </trkpt>
      <trkpt lat="42.6412" lon="1.70554">
        <ele>1802</ele>
        <time>2020-08-25T14:54:59.781Z</time>
      </trkpt>
      <trkpt lat="42.6412" lon="1.70542">
        <ele>1793</ele>
        <time>2020-08-25T14:55:09.444Z</time>
      </trkpt>
      <trkpt lat="42.64122" lon="1.70536">
        <ele>1793</ele>
        <time>2020-08-25T14:55:13.954Z</time>
      </trkpt>
      <trkpt lat="42.64126" lon="1.70531">
        <ele>1795</ele>
        <time>2020-08-25T14:55:20.703Z</time>
      </trkpt>
      <trkpt lat="42.64129" lon="1.70528">
        <ele>1795</ele>
        <time>2020-08-25T14:55:24.961Z</time>
      </trkpt>
      <trkpt lat="42.64131" lon="1.70524">
        <ele>1795</ele>
        <time>2020-08-25T14:55:30.580Z</time>
      </trkpt>
      <trkpt lat="42.64131" lon="1.70521">
        <ele>1795</ele>
        <time>2020-08-25T14:55:34.790Z</time>
      </trkpt>
      <trkpt lat="42.64137" lon="1.70517">
        <ele>1795</ele>
        <time>2020-08-25T14:55:42.983Z</time>
      </trkpt>
      <trkpt lat="42.64139" lon="1.70512">
        <ele>1783</ele>
        <time>2020-08-25T14:55:47.628Z</time>
      </trkpt>
      <trkpt lat="42.64142" lon="1.70512">
        <ele>1783</ele>
        <time>2020-08-25T14:55:53.759Z</time>
      </trkpt>
      <trkpt lat="42.64147" lon="1.70508">
        <ele>1783</ele>
        <time>2020-08-25T14:56:00.054Z</time>
      </trkpt>
      <trkpt lat="42.6415" lon="1.70507">
        <ele>1783</ele>
        <time>2020-08-25T14:56:05.111Z</time>
      </trkpt>
      <trkpt lat="42.64153" lon="1.70508">
        <ele>1788</ele>
        <time>2020-08-25T14:56:09.537Z</time>
      </trkpt>
      <trkpt lat="42.64155" lon="1.705">
        <ele>1788</ele>
        <time>2020-08-25T14:56:15.141Z</time>
      </trkpt>
      <trkpt lat="42.64157" lon="1.70494">
        <ele>1788</ele>
        <time>2020-08-25T14:56:19.749Z</time>
      </trkpt>
      <trkpt lat="42.64158" lon="1.70491">
        <ele>1788</ele>
        <time>2020-08-25T14:56:23.768Z</time>
      </trkpt>
      <trkpt lat="42.6416" lon="1.70485">
        <ele>1779</ele>
        <time>2020-08-25T14:56:28.498Z</time>
      </trkpt>
      <trkpt lat="42.64165" lon="1.70475">
        <ele>1779</ele>
        <time>2020-08-25T14:56:38.068Z</time>
      </trkpt>
      <trkpt lat="42.64169" lon="1.70472">
        <ele>1779</ele>
        <time>2020-08-25T14:56:42.708Z</time>
      </trkpt>
      <trkpt lat="42.64172" lon="1.70468">
        <ele>1779</ele>
        <time>2020-08-25T14:56:47.228Z</time>
      </trkpt>
      <trkpt lat="42.64175" lon="1.70465">
        <ele>1779</ele>
        <time>2020-08-25T14:56:52.183Z</time>
      </trkpt>
      <trkpt lat="42.64176" lon="1.70463">
        <ele>1779</ele>
        <time>2020-08-25T14:56:58.718Z</time>
      </trkpt>
      <trkpt lat="42.64175" lon="1.7046">
        <ele>1779</ele>
        <time>2020-08-25T14:57:03.726Z</time>
      </trkpt>
      <trkpt lat="42.64172" lon="1.70458">
        <ele>1779</ele>
        <time>2020-08-25T14:57:08.557Z</time>
      </trkpt>
      <trkpt lat="42.64173" lon="1.7045">
        <ele>1771</ele>
        <time>2020-08-25T14:57:19.885Z</time>
      </trkpt>
      <trkpt lat="42.64173" lon="1.70448">
        <ele>1771</ele>
        <time>2020-08-25T14:57:24.676Z</time>
      </trkpt>
      <trkpt lat="42.64171" lon="1.70443">
        <ele>1771</ele>
        <time>2020-08-25T14:57:29.538Z</time>
      </trkpt>
      <trkpt lat="42.64172" lon="1.70439">
        <ele>1771</ele>
        <time>2020-08-25T14:57:33.878Z</time>
      </trkpt>
      <trkpt lat="42.64175" lon="1.70438">
        <ele>1771</ele>
        <time>2020-08-25T14:57:39.403Z</time>
      </trkpt>
      <trkpt lat="42.64176" lon="1.70433">
        <ele>1771</ele>
        <time>2020-08-25T14:57:43.747Z</time>
      </trkpt>
      <trkpt lat="42.6418" lon="1.7043">
        <ele>1764</ele>
        <time>2020-08-25T14:57:48.576Z</time>
      </trkpt>
      <trkpt lat="42.64179" lon="1.70427">
        <ele>1764</ele>
        <time>2020-08-25T14:57:53.517Z</time>
      </trkpt>
      <trkpt lat="42.64176" lon="1.70423">
        <ele>1764</ele>
        <time>2020-08-25T14:57:57.518Z</time>
      </trkpt>
      <trkpt lat="42.64173" lon="1.7042">
        <ele>1764</ele>
        <time>2020-08-25T14:58:02.642Z</time>
      </trkpt>
      <trkpt lat="42.64174" lon="1.70417">
        <ele>1764</ele>
        <time>2020-08-25T14:58:06.712Z</time>
      </trkpt>
      <trkpt lat="42.64179" lon="1.70411">
        <ele>1764</ele>
        <time>2020-08-25T14:58:14.242Z</time>
      </trkpt>
      <trkpt lat="42.64183" lon="1.70406">
        <ele>1775</ele>
        <time>2020-08-25T14:58:18.903Z</time>
      </trkpt>
      <trkpt lat="42.64186" lon="1.70405">
        <ele>1775</ele>
        <time>2020-08-25T14:58:21.932Z</time>
      </trkpt>
      <trkpt lat="42.64191" lon="1.70396">
        <ele>1764</ele>
        <time>2020-08-25T14:58:28.852Z</time>
      </trkpt>
      <trkpt lat="42.64192" lon="1.7039">
        <ele>1764</ele>
        <time>2020-08-25T14:58:34.017Z</time>
      </trkpt>
      <trkpt lat="42.64195" lon="1.70387">
        <ele>1764</ele>
        <time>2020-08-25T14:58:37.936Z</time>
      </trkpt>
      <trkpt lat="42.64198" lon="1.70383">
        <ele>1764</ele>
        <time>2020-08-25T14:58:42.051Z</time>
      </trkpt>
      <trkpt lat="42.64201" lon="1.70377">
        <ele>1764</ele>
        <time>2020-08-25T14:58:48.315Z</time>
      </trkpt>
      <trkpt lat="42.64207" lon="1.7037">
        <ele>1755</ele>
        <time>2020-08-25T14:58:55.658Z</time>
      </trkpt>
      <trkpt lat="42.64211" lon="1.70362">
        <ele>1757</ele>
        <time>2020-08-25T14:59:00.497Z</time>
      </trkpt>
      <trkpt lat="42.64213" lon="1.70356">
        <ele>1757</ele>
        <time>2020-08-25T14:59:04.517Z</time>
      </trkpt>
      <trkpt lat="42.64216" lon="1.70352">
        <ele>1757</ele>
        <time>2020-08-25T14:59:09.067Z</time>
      </trkpt>
      <trkpt lat="42.64221" lon="1.70345">
        <ele>1746</ele>
        <time>2020-08-25T14:59:15.750Z</time>
      </trkpt>
      <trkpt lat="42.64225" lon="1.7034">
        <ele>1746</ele>
        <time>2020-08-25T14:59:21.015Z</time>
      </trkpt>
      <trkpt lat="42.64227" lon="1.70337">
        <ele>1746</ele>
        <time>2020-08-25T14:59:23.953Z</time>
      </trkpt>
      <trkpt lat="42.64233" lon="1.70333">
        <ele>1746</ele>
        <time>2020-08-25T14:59:30.760Z</time>
      </trkpt>
      <trkpt lat="42.64238" lon="1.70329">
        <ele>1742</ele>
        <time>2020-08-25T14:59:35.833Z</time>
      </trkpt>
      <trkpt lat="42.6424" lon="1.70325">
        <ele>1742</ele>
        <time>2020-08-25T14:59:40.951Z</time>
      </trkpt>
      <trkpt lat="42.64244" lon="1.70321">
        <ele>1742</ele>
        <time>2020-08-25T14:59:45.795Z</time>
      </trkpt>
      <trkpt lat="42.6425" lon="1.70319">
        <ele>1734</ele>
        <time>2020-08-25T14:59:50.538Z</time>
      </trkpt>
      <trkpt lat="42.64261" lon="1.70317">
        <ele>1734</ele>
        <time>2020-08-25T14:59:59.796Z</time>
      </trkpt>
      <trkpt lat="42.64266" lon="1.70316">
        <ele>1731</ele>
        <time>2020-08-25T15:00:04.138Z</time>
      </trkpt>
      <trkpt lat="42.64268" lon="1.70315">
        <ele>1731</ele>
        <time>2020-08-25T15:00:08.137Z</time>
      </trkpt>
      <trkpt lat="42.64272" lon="1.70314">
        <ele>1731</ele>
        <time>2020-08-25T15:00:12.531Z</time>
      </trkpt>
      <trkpt lat="42.6428" lon="1.70313">
        <ele>1731</ele>
        <time>2020-08-25T15:00:19.827Z</time>
      </trkpt>
      <trkpt lat="42.6429" lon="1.70315">
        <ele>1731</ele>
        <time>2020-08-25T15:00:29.776Z</time>
      </trkpt>
      <trkpt lat="42.64297" lon="1.70317">
        <ele>1731</ele>
        <time>2020-08-25T15:00:34.703Z</time>
      </trkpt>
      <trkpt lat="42.64302" lon="1.70317">
        <ele>1731</ele>
        <time>2020-08-25T15:00:39.852Z</time>
      </trkpt>
      <trkpt lat="42.64306" lon="1.70318">
        <ele>1731</ele>
        <time>2020-08-25T15:00:44.697Z</time>
      </trkpt>
      <trkpt lat="42.64313" lon="1.70314">
        <ele>1731</ele>
        <time>2020-08-25T15:00:50.870Z</time>
      </trkpt>
      <trkpt lat="42.64318" lon="1.70308">
        <ele>1731</ele>
        <time>2020-08-25T15:00:55.535Z</time>
      </trkpt>
      <trkpt lat="42.64322" lon="1.70304">
        <ele>1735</ele>
        <time>2020-08-25T15:01:00.533Z</time>
      </trkpt>
      <trkpt lat="42.64324" lon="1.70299">
        <ele>1735</ele>
        <time>2020-08-25T15:01:05.845Z</time>
      </trkpt>
      <trkpt lat="42.64327" lon="1.70296">
        <ele>1735</ele>
        <time>2020-08-25T15:01:09.870Z</time>
      </trkpt>
      <trkpt lat="42.64336" lon="1.7029">
        <ele>1728</ele>
        <time>2020-08-25T15:01:18.866Z</time>
      </trkpt>
      <trkpt lat="42.64342" lon="1.70286">
        <ele>1728</ele>
        <time>2020-08-25T15:01:24.669Z</time>
      </trkpt>
      <trkpt lat="42.64349" lon="1.70287">
        <ele>1733</ele>
        <time>2020-08-25T15:01:29.529Z</time>
      </trkpt>
      <trkpt lat="42.64353" lon="1.70283">
        <ele>1733</ele>
        <time>2020-08-25T15:01:34.956Z</time>
      </trkpt>
      <trkpt lat="42.6436" lon="1.70281">
        <ele>1733</ele>
        <time>2020-08-25T15:01:40.019Z</time>
      </trkpt>
      <trkpt lat="42.64365" lon="1.70277">
        <ele>1733</ele>
        <time>2020-08-25T15:01:44.728Z</time>
      </trkpt>
      <trkpt lat="42.6437" lon="1.70275">
        <ele>1733</ele>
        <time>2020-08-25T15:01:49.760Z</time>
      </trkpt>
      <trkpt lat="42.64379" lon="1.7027">
        <ele>1733</ele>
        <time>2020-08-25T15:01:58.919Z</time>
      </trkpt>
      <trkpt lat="42.64385" lon="1.70271">
        <ele>1733</ele>
        <time>2020-08-25T15:02:04.063Z</time>
      </trkpt>
      <trkpt lat="42.64388" lon="1.70271">
        <ele>1733</ele>
        <time>2020-08-25T15:02:06.089Z</time>
      </trkpt>
      <trkpt lat="42.64397" lon="1.7027">
        <ele>1733</ele>
        <time>2020-08-25T15:02:13.519Z</time>
      </trkpt>
      <trkpt lat="42.64402" lon="1.70272">
        <ele>1733</ele>
        <time>2020-08-25T15:02:17.652Z</time>
      </trkpt>
      <trkpt lat="42.64405" lon="1.70276">
        <ele>1725</ele>
        <time>2020-08-25T15:02:20.976Z</time>
      </trkpt>
      <trkpt lat="42.64411" lon="1.70277">
        <ele>1725</ele>
        <time>2020-08-25T15:02:26.595Z</time>
      </trkpt>
      <trkpt lat="42.64416" lon="1.70278">
        <ele>1725</ele>
        <time>2020-08-25T15:02:31.444Z</time>
      </trkpt>
      <trkpt lat="42.64425" lon="1.70274">
        <ele>1725</ele>
        <time>2020-08-25T15:02:39.832Z</time>
      </trkpt>
      <trkpt lat="42.64433" lon="1.70271">
        <ele>1725</ele>
        <time>2020-08-25T15:02:47.197Z</time>
      </trkpt>
      <trkpt lat="42.64439" lon="1.70269">
        <ele>1725</ele>
        <time>2020-08-25T15:02:51.871Z</time>
      </trkpt>
      <trkpt lat="42.64448" lon="1.70266">
        <ele>1725</ele>
        <time>2020-08-25T15:02:59.870Z</time>
      </trkpt>
      <trkpt lat="42.64453" lon="1.70265">
        <ele>1725</ele>
        <time>2020-08-25T15:03:03.776Z</time>
      </trkpt>
      <trkpt lat="42.64458" lon="1.70263">
        <ele>1720</ele>
        <time>2020-08-25T15:03:09.254Z</time>
      </trkpt>
      <trkpt lat="42.64463" lon="1.70264">
        <ele>1723</ele>
        <time>2020-08-25T15:03:13.532Z</time>
      </trkpt>
      <trkpt lat="42.6447" lon="1.70263">
        <ele>1718</ele>
        <time>2020-08-25T15:03:20.280Z</time>
      </trkpt>
      <trkpt lat="42.64476" lon="1.70267">
        <ele>1723</ele>
        <time>2020-08-25T15:03:25.859Z</time>
      </trkpt>
      <trkpt lat="42.64484" lon="1.70268">
        <ele>1723</ele>
        <time>2020-08-25T15:03:30.498Z</time>
      </trkpt>
      <trkpt lat="42.64503" lon="1.70264">
        <ele>1724</ele>
        <time>2020-08-25T15:03:51.821Z</time>
      </trkpt>
      <trkpt lat="42.64514" lon="1.70264">
        <ele>1714</ele>
        <time>2020-08-25T15:04:02.505Z</time>
      </trkpt>
      <trkpt lat="42.64518" lon="1.70266">
        <ele>1721</ele>
        <time>2020-08-25T15:04:06.539Z</time>
      </trkpt>
      <trkpt lat="42.64525" lon="1.70265">
        <ele>1721</ele>
        <time>2020-08-25T15:04:12.386Z</time>
      </trkpt>
      <trkpt lat="42.64529" lon="1.70258">
        <ele>1714</ele>
        <time>2020-08-25T15:04:17.987Z</time>
      </trkpt>
      <trkpt lat="42.64538" lon="1.70263">
        <ele>1714</ele>
        <time>2020-08-25T15:04:26.760Z</time>
      </trkpt>
      <trkpt lat="42.64541" lon="1.70265">
        <ele>1721</ele>
        <time>2020-08-25T15:04:30.918Z</time>
      </trkpt>
      <trkpt lat="42.64546" lon="1.70262">
        <ele>1717</ele>
        <time>2020-08-25T15:04:35.803Z</time>
      </trkpt>
      <trkpt lat="42.6455" lon="1.70263">
        <ele>1717</ele>
        <time>2020-08-25T15:04:39.685Z</time>
      </trkpt>
      <trkpt lat="42.64553" lon="1.70266">
        <ele>1723</ele>
        <time>2020-08-25T15:04:43.792Z</time>
      </trkpt>
      <trkpt lat="42.64558" lon="1.70268">
        <ele>1723</ele>
        <time>2020-08-25T15:04:50.773Z</time>
      </trkpt>
      <trkpt lat="42.64561" lon="1.70267">
        <ele>1723</ele>
        <time>2020-08-25T15:04:54.526Z</time>
      </trkpt>
      <trkpt lat="42.64566" lon="1.70265">
        <ele>1723</ele>
        <time>2020-08-25T15:04:59.797Z</time>
      </trkpt>
      <trkpt lat="42.64569" lon="1.70266">
        <ele>1723</ele>
        <time>2020-08-25T15:05:04.153Z</time>
      </trkpt>
      <trkpt lat="42.64573" lon="1.70268">
        <ele>1726</ele>
        <time>2020-08-25T15:05:08.782Z</time>
      </trkpt>
      <trkpt lat="42.64576" lon="1.70268">
        <ele>1726</ele>
        <time>2020-08-25T15:05:11.914Z</time>
      </trkpt>
      <trkpt lat="42.64582" lon="1.70268">
        <ele>1726</ele>
        <time>2020-08-25T15:05:18.929Z</time>
      </trkpt>
      <trkpt lat="42.64588" lon="1.70271">
        <ele>1726</ele>
        <time>2020-08-25T15:05:23.491Z</time>
      </trkpt>
      <trkpt lat="42.64591" lon="1.70272">
        <ele>1726</ele>
        <time>2020-08-25T15:05:27.062Z</time>
      </trkpt>
      <trkpt lat="42.646" lon="1.70271">
        <ele>1724</ele>
        <time>2020-08-25T15:05:34.847Z</time>
      </trkpt>
      <trkpt lat="42.64605" lon="1.7027">
        <ele>1724</ele>
        <time>2020-08-25T15:05:38.880Z</time>
      </trkpt>
      <trkpt lat="42.64631" lon="1.70276">
        <ele>1719</ele>
        <time>2020-08-25T15:05:59.857Z</time>
      </trkpt>
      <trkpt lat="42.64636" lon="1.70278">
        <ele>1719</ele>
        <time>2020-08-25T15:06:04.527Z</time>
      </trkpt>
      <trkpt lat="42.64643" lon="1.70284">
        <ele>1719</ele>
        <time>2020-08-25T15:06:11.533Z</time>
      </trkpt>
      <trkpt lat="42.64647" lon="1.70287">
        <ele>1719</ele>
        <time>2020-08-25T15:06:15.551Z</time>
      </trkpt>
      <trkpt lat="42.64652" lon="1.7029">
        <ele>1719</ele>
        <time>2020-08-25T15:06:19.531Z</time>
      </trkpt>
      <trkpt lat="42.64656" lon="1.70292">
        <ele>1715</ele>
        <time>2020-08-25T15:06:23.537Z</time>
      </trkpt>
      <trkpt lat="42.64662" lon="1.70294">
        <ele>1715</ele>
        <time>2020-08-25T15:06:28.503Z</time>
      </trkpt>
      <trkpt lat="42.64665" lon="1.70295">
        <ele>1715</ele>
        <time>2020-08-25T15:06:32.491Z</time>
      </trkpt>
      <trkpt lat="42.64669" lon="1.70295">
        <ele>1715</ele>
        <time>2020-08-25T15:06:37.498Z</time>
      </trkpt>
      <trkpt lat="42.64673" lon="1.70295">
        <ele>1715</ele>
        <time>2020-08-25T15:06:42.495Z</time>
      </trkpt>
      <trkpt lat="42.64677" lon="1.70298">
        <ele>1715</ele>
        <time>2020-08-25T15:06:47.494Z</time>
      </trkpt>
      <trkpt lat="42.64699" lon="1.70325">
        <ele>1716</ele>
        <time>2020-08-25T15:07:23.673Z</time>
      </trkpt>
      <trkpt lat="42.64703" lon="1.70329">
        <ele>1716</ele>
        <time>2020-08-25T15:07:28.549Z</time>
      </trkpt>
      <trkpt lat="42.64705" lon="1.70332">
        <ele>1716</ele>
        <time>2020-08-25T15:07:33.526Z</time>
      </trkpt>
      <trkpt lat="42.64709" lon="1.70334">
        <ele>1712</ele>
        <time>2020-08-25T15:07:38.215Z</time>
      </trkpt>
      <trkpt lat="42.64716" lon="1.70336">
        <ele>1712</ele>
        <time>2020-08-25T15:07:44.586Z</time>
      </trkpt>
      <trkpt lat="42.6472" lon="1.7034">
        <ele>1712</ele>
        <time>2020-08-25T15:07:49.904Z</time>
      </trkpt>
      <trkpt lat="42.64726" lon="1.7034">
        <ele>1712</ele>
        <time>2020-08-25T15:07:54.929Z</time>
      </trkpt>
      <trkpt lat="42.64732" lon="1.70337">
        <ele>1712</ele>
        <time>2020-08-25T15:07:59.661Z</time>
      </trkpt>
      <trkpt lat="42.64736" lon="1.70338">
        <ele>1712</ele>
        <time>2020-08-25T15:08:03.698Z</time>
      </trkpt>
      <trkpt lat="42.64741" lon="1.70338">
        <ele>1702</ele>
        <time>2020-08-25T15:08:09.511Z</time>
      </trkpt>
      <trkpt lat="42.64748" lon="1.70336">
        <ele>1702</ele>
        <time>2020-08-25T15:08:18.628Z</time>
      </trkpt>
      <trkpt lat="42.64752" lon="1.70334">
        <ele>1702</ele>
        <time>2020-08-25T15:08:22.772Z</time>
      </trkpt>
      <trkpt lat="42.64756" lon="1.70336">
        <ele>1702</ele>
        <time>2020-08-25T15:08:27.492Z</time>
      </trkpt>
      <trkpt lat="42.6476" lon="1.70342">
        <ele>1702</ele>
        <time>2020-08-25T15:08:32.780Z</time>
      </trkpt>
      <trkpt lat="42.64765" lon="1.70344">
        <ele>1698</ele>
        <time>2020-08-25T15:08:38.561Z</time>
      </trkpt>
      <trkpt lat="42.64771" lon="1.70345">
        <ele>1698</ele>
        <time>2020-08-25T15:08:43.524Z</time>
      </trkpt>
      <trkpt lat="42.64776" lon="1.70347">
        <ele>1698</ele>
        <time>2020-08-25T15:08:48.550Z</time>
      </trkpt>
      <trkpt lat="42.64783" lon="1.70347">
        <ele>1698</ele>
        <time>2020-08-25T15:08:56.807Z</time>
      </trkpt>
      <trkpt lat="42.64788" lon="1.70349">
        <ele>1705</ele>
        <time>2020-08-25T15:09:00.600Z</time>
      </trkpt>
      <trkpt lat="42.64793" lon="1.70358">
        <ele>1708</ele>
        <time>2020-08-25T15:09:07.518Z</time>
      </trkpt>
      <trkpt lat="42.64799" lon="1.70362">
        <ele>1708</ele>
        <time>2020-08-25T15:09:16.902Z</time>
      </trkpt>
      <trkpt lat="42.64804" lon="1.70365">
        <ele>1708</ele>
        <time>2020-08-25T15:09:20.757Z</time>
      </trkpt>
      <trkpt lat="42.64807" lon="1.70366">
        <ele>1708</ele>
        <time>2020-08-25T15:09:25.275Z</time>
      </trkpt>
      <trkpt lat="42.64812" lon="1.70366">
        <ele>1708</ele>
        <time>2020-08-25T15:09:30.551Z</time>
      </trkpt>
      <trkpt lat="42.64819" lon="1.70366">
        <ele>1708</ele>
        <time>2020-08-25T15:09:35.659Z</time>
      </trkpt>
      <trkpt lat="42.6482" lon="1.70364">
        <ele>1707</ele>
        <time>2020-08-25T15:09:39.364Z</time>
      </trkpt>
      <trkpt lat="42.64826" lon="1.70361">
        <ele>1707</ele>
        <time>2020-08-25T15:09:45.002Z</time>
      </trkpt>
      <trkpt lat="42.64831" lon="1.70362">
        <ele>1707</ele>
        <time>2020-08-25T15:09:49.494Z</time>
      </trkpt>
      <trkpt lat="42.64834" lon="1.70363">
        <ele>1707</ele>
        <time>2020-08-25T15:09:53.766Z</time>
      </trkpt>
      <trkpt lat="42.64838" lon="1.70361">
        <ele>1707</ele>
        <time>2020-08-25T15:09:58.790Z</time>
      </trkpt>
      <trkpt lat="42.64843" lon="1.70357">
        <ele>1707</ele>
        <time>2020-08-25T15:10:04.232Z</time>
      </trkpt>
      <trkpt lat="42.64845" lon="1.70358">
        <ele>1707</ele>
        <time>2020-08-25T15:10:08.821Z</time>
      </trkpt>
      <trkpt lat="42.64848" lon="1.70355">
        <ele>1703</ele>
        <time>2020-08-25T15:10:13.547Z</time>
      </trkpt>
      <trkpt lat="42.64852" lon="1.70351">
        <ele>1703</ele>
        <time>2020-08-25T15:10:18.545Z</time>
      </trkpt>
      <trkpt lat="42.64857" lon="1.7035">
        <ele>1703</ele>
        <time>2020-08-25T15:10:24.068Z</time>
      </trkpt>
      <trkpt lat="42.6486" lon="1.70349">
        <ele>1703</ele>
        <time>2020-08-25T15:10:28.017Z</time>
      </trkpt>
      <trkpt lat="42.6487" lon="1.70349">
        <ele>1703</ele>
        <time>2020-08-25T15:10:37.705Z</time>
      </trkpt>
      <trkpt lat="42.64872" lon="1.70349">
        <ele>1703</ele>
        <time>2020-08-25T15:10:41.883Z</time>
      </trkpt>
      <trkpt lat="42.64876" lon="1.70347">
        <ele>1696</ele>
        <time>2020-08-25T15:10:46.524Z</time>
      </trkpt>
      <trkpt lat="42.6488" lon="1.7035">
        <ele>1701</ele>
        <time>2020-08-25T15:10:50.543Z</time>
      </trkpt>
      <trkpt lat="42.64888" lon="1.70355">
        <ele>1701</ele>
        <time>2020-08-25T15:10:59.831Z</time>
      </trkpt>
      <trkpt lat="42.64892" lon="1.70354">
        <ele>1701</ele>
        <time>2020-08-25T15:11:04.584Z</time>
      </trkpt>
      <trkpt lat="42.64895" lon="1.70356">
        <ele>1701</ele>
        <time>2020-08-25T15:11:09.201Z</time>
      </trkpt>
      <trkpt lat="42.64898" lon="1.70357">
        <ele>1701</ele>
        <time>2020-08-25T15:11:13.923Z</time>
      </trkpt>
      <trkpt lat="42.64903" lon="1.70357">
        <ele>1701</ele>
        <time>2020-08-25T15:11:18.984Z</time>
      </trkpt>
    </trkseg>
  </trk>
</gpx>